<?xml version="1.0" encoding="UTF-8" standalone="no" ?>
<gpx xmlns="http://www.topografix.com/GPX/1/1" xmlns:xsi="http://www.w3.org/2001/XMLSchema-instance" xsi:schemaLocation="http://www.topografix.com/GPX/1/1 http://www.topografix.com/GPX/1/1/gpx.xsd" version="1.1" creator="VisuGPX - https://www.visugpx.com">
  <metadata>
    <name>L\'ESTEREL RANDO</name>
    <desc><![CDATA[Le bois de Rossignole. Point de départ : proximité Cimetière de Colle Grune]]></desc>
  </metadata>
  <trk>
    <name><![CDATA[L\'ESTEREL RANDO_1]]></name>
    <trkseg>
      <trkpt lat="43.48843" lon="6.74127">
        <ele>35.2649</ele>
        <time>2011-01-21 13:37:56Z</time>
      </trkpt>
      <trkpt lat="43.48843" lon="6.74127">
        <ele>35.2649</ele>
        <time>2011-01-21 13:38:00Z</time>
      </trkpt>
      <trkpt lat="43.48843" lon="6.74127">
        <ele>35.2649</ele>
        <time>2011-01-21 13:38:04Z</time>
      </trkpt>
      <trkpt lat="43.48843" lon="6.74127">
        <ele>35.2649</ele>
        <time>2011-01-21 13:38:08Z</time>
      </trkpt>
      <trkpt lat="43.48843" lon="6.74127">
        <ele>35.2649</ele>
        <time>2011-01-21 13:38:12Z</time>
      </trkpt>
      <trkpt lat="43.48845" lon="6.74106">
        <ele>34.264854</ele>
        <time>2011-01-21 13:38:16Z</time>
      </trkpt>
      <trkpt lat="43.48845" lon="6.74106">
        <ele>34.264854</ele>
        <time>2011-01-21 13:38:20Z</time>
      </trkpt>
      <trkpt lat="43.48845" lon="6.74106">
        <ele>34.264854</ele>
        <time>2011-01-21 13:38:24Z</time>
      </trkpt>
      <trkpt lat="43.48843" lon="6.74093">
        <ele>32.264824</ele>
        <time>2011-01-21 13:38:28Z</time>
      </trkpt>
      <trkpt lat="43.48843" lon="6.7409">
        <ele>32.264824</ele>
        <time>2011-01-21 13:38:32Z</time>
      </trkpt>
      <trkpt lat="43.48843" lon="6.7409">
        <ele>32.264824</ele>
        <time>2011-01-21 13:38:36Z</time>
      </trkpt>
      <trkpt lat="43.48845" lon="6.7408">
        <ele>32.264793</ele>
        <time>2011-01-21 13:38:40Z</time>
      </trkpt>
      <trkpt lat="43.48846" lon="6.74076">
        <ele>33.26479</ele>
        <time>2011-01-21 13:38:44Z</time>
      </trkpt>
      <trkpt lat="43.48849" lon="6.7407">
        <ele>33.264786</ele>
        <time>2011-01-21 13:38:48Z</time>
      </trkpt>
      <trkpt lat="43.4885" lon="6.74069">
        <ele>34.264778</ele>
        <time>2011-01-21 13:38:52Z</time>
      </trkpt>
      <trkpt lat="43.4885" lon="6.74069">
        <ele>34.264778</ele>
        <time>2011-01-21 13:38:56Z</time>
      </trkpt>
      <trkpt lat="43.4885" lon="6.74069">
        <ele>34.264778</ele>
        <time>2011-01-21 13:39:00Z</time>
      </trkpt>
      <trkpt lat="43.4885" lon="6.74069">
        <ele>34.264778</ele>
        <time>2011-01-21 13:39:04Z</time>
      </trkpt>
      <trkpt lat="43.4885" lon="6.74069">
        <ele>34.264778</ele>
        <time>2011-01-21 13:39:08Z</time>
      </trkpt>
      <trkpt lat="43.4885" lon="6.74069">
        <ele>34.264778</ele>
        <time>2011-01-21 13:39:12Z</time>
      </trkpt>
      <trkpt lat="43.4885" lon="6.74069">
        <ele>34.264778</ele>
        <time>2011-01-21 13:39:16Z</time>
      </trkpt>
      <trkpt lat="43.4885" lon="6.74069">
        <ele>34.264778</ele>
        <time>2011-01-21 13:39:20Z</time>
      </trkpt>
      <trkpt lat="43.4885" lon="6.74069">
        <ele>34.264778</ele>
        <time>2011-01-21 13:39:24Z</time>
      </trkpt>
      <trkpt lat="43.489" lon="6.74">
        <ele>34.264706</ele>
        <time>2011-01-21 13:39:28Z</time>
      </trkpt>
      <trkpt lat="43.48901" lon="6.73993">
        <ele>33.264694</ele>
        <time>2011-01-21 13:39:32Z</time>
      </trkpt>
      <trkpt lat="43.48904" lon="6.73992">
        <ele>32.264694</ele>
        <time>2011-01-21 13:39:36Z</time>
      </trkpt>
      <trkpt lat="43.48904" lon="6.73991">
        <ele>31.264694</ele>
        <time>2011-01-21 13:39:40Z</time>
      </trkpt>
      <trkpt lat="43.48907" lon="6.73987">
        <ele>31.264687</ele>
        <time>2011-01-21 13:39:44Z</time>
      </trkpt>
      <trkpt lat="43.48907" lon="6.73986">
        <ele>31.264687</ele>
        <time>2011-01-21 13:39:48Z</time>
      </trkpt>
      <trkpt lat="43.48908" lon="6.73984">
        <ele>31.264687</ele>
        <time>2011-01-21 13:39:52Z</time>
      </trkpt>
      <trkpt lat="43.48909" lon="6.73983">
        <ele>31.264683</ele>
        <time>2011-01-21 13:39:56Z</time>
      </trkpt>
      <trkpt lat="43.48911" lon="6.7398">
        <ele>32.264679</ele>
        <time>2011-01-21 13:40:00Z</time>
      </trkpt>
      <trkpt lat="43.48911" lon="6.7398">
        <ele>32.264679</ele>
        <time>2011-01-21 13:40:04Z</time>
      </trkpt>
      <trkpt lat="43.48915" lon="6.73975">
        <ele>33.264671</ele>
        <time>2011-01-21 13:40:08Z</time>
      </trkpt>
      <trkpt lat="43.48915" lon="6.73975">
        <ele>33.264671</ele>
        <time>2011-01-21 13:40:12Z</time>
      </trkpt>
      <trkpt lat="43.48918" lon="6.7397">
        <ele>34.264668</ele>
        <time>2011-01-21 13:40:16Z</time>
      </trkpt>
      <trkpt lat="43.4892" lon="6.73967">
        <ele>34.264664</ele>
        <time>2011-01-21 13:40:20Z</time>
      </trkpt>
      <trkpt lat="43.48922" lon="6.73962">
        <ele>35.264656</ele>
        <time>2011-01-21 13:40:24Z</time>
      </trkpt>
      <trkpt lat="43.48925" lon="6.73958">
        <ele>35.264652</ele>
        <time>2011-01-21 13:40:28Z</time>
      </trkpt>
      <trkpt lat="43.48928" lon="6.73954">
        <ele>36.264648</ele>
        <time>2011-01-21 13:40:32Z</time>
      </trkpt>
      <trkpt lat="43.48931" lon="6.73951">
        <ele>36.264648</ele>
        <time>2011-01-21 13:40:36Z</time>
      </trkpt>
      <trkpt lat="43.48934" lon="6.73948">
        <ele>36.264641</ele>
        <time>2011-01-21 13:40:40Z</time>
      </trkpt>
      <trkpt lat="43.48938" lon="6.73945">
        <ele>36.264645</ele>
        <time>2011-01-21 13:40:44Z</time>
      </trkpt>
      <trkpt lat="43.48941" lon="6.73943">
        <ele>36.264648</ele>
        <time>2011-01-21 13:40:48Z</time>
      </trkpt>
      <trkpt lat="43.48946" lon="6.7394">
        <ele>36.264648</ele>
        <time>2011-01-21 13:40:52Z</time>
      </trkpt>
      <trkpt lat="43.48949" lon="6.73938">
        <ele>36.264648</ele>
        <time>2011-01-21 13:40:56Z</time>
      </trkpt>
      <trkpt lat="43.48951" lon="6.73936">
        <ele>36.264648</ele>
        <time>2011-01-21 13:41:00Z</time>
      </trkpt>
      <trkpt lat="43.48954" lon="6.73934">
        <ele>36.264648</ele>
        <time>2011-01-21 13:41:04Z</time>
      </trkpt>
      <trkpt lat="43.48955" lon="6.73933">
        <ele>36.264645</ele>
        <time>2011-01-21 13:41:08Z</time>
      </trkpt>
      <trkpt lat="43.48955" lon="6.73933">
        <ele>36.264645</ele>
        <time>2011-01-21 13:41:12Z</time>
      </trkpt>
      <trkpt lat="43.48959" lon="6.7393">
        <ele>37.264648</ele>
        <time>2011-01-21 13:41:16Z</time>
      </trkpt>
      <trkpt lat="43.4896" lon="6.7393">
        <ele>37.264648</ele>
        <time>2011-01-21 13:41:20Z</time>
      </trkpt>
      <trkpt lat="43.48963" lon="6.7393">
        <ele>37.264648</ele>
        <time>2011-01-21 13:41:24Z</time>
      </trkpt>
      <trkpt lat="43.48967" lon="6.73929">
        <ele>37.264656</ele>
        <time>2011-01-21 13:41:28Z</time>
      </trkpt>
      <trkpt lat="43.48974" lon="6.73928">
        <ele>36.264664</ele>
        <time>2011-01-21 13:41:32Z</time>
      </trkpt>
      <trkpt lat="43.48978" lon="6.73927">
        <ele>36.264671</ele>
        <time>2011-01-21 13:41:36Z</time>
      </trkpt>
      <trkpt lat="43.48978" lon="6.73927">
        <ele>36.264671</ele>
        <time>2011-01-21 13:41:40Z</time>
      </trkpt>
      <trkpt lat="43.48978" lon="6.73927">
        <ele>36.264671</ele>
        <time>2011-01-21 13:41:44Z</time>
      </trkpt>
      <trkpt lat="43.48978" lon="6.73927">
        <ele>36.264671</ele>
        <time>2011-01-21 13:41:48Z</time>
      </trkpt>
      <trkpt lat="43.48986" lon="6.73915">
        <ele>34.264656</ele>
        <time>2011-01-21 13:41:52Z</time>
      </trkpt>
      <trkpt lat="43.48986" lon="6.73912">
        <ele>34.264648</ele>
        <time>2011-01-21 13:41:56Z</time>
      </trkpt>
      <trkpt lat="43.48984" lon="6.73907">
        <ele>33.264637</ele>
        <time>2011-01-21 13:42:00Z</time>
      </trkpt>
      <trkpt lat="43.48984" lon="6.73907">
        <ele>33.264633</ele>
        <time>2011-01-21 13:42:04Z</time>
      </trkpt>
      <trkpt lat="43.48982" lon="6.73906">
        <ele>33.264629</ele>
        <time>2011-01-21 13:42:08Z</time>
      </trkpt>
      <trkpt lat="43.48979" lon="6.73905">
        <ele>31.264618</ele>
        <time>2011-01-21 13:42:12Z</time>
      </trkpt>
      <trkpt lat="43.48979" lon="6.73905">
        <ele>31.264618</ele>
        <time>2011-01-21 13:42:16Z</time>
      </trkpt>
      <trkpt lat="43.48979" lon="6.73905">
        <ele>31.264618</ele>
        <time>2011-01-21 13:42:20Z</time>
      </trkpt>
      <trkpt lat="43.48972" lon="6.73904">
        <ele>31.26461</ele>
        <time>2011-01-21 13:42:24Z</time>
      </trkpt>
      <trkpt lat="43.48971" lon="6.73901">
        <ele>31.264603</ele>
        <time>2011-01-21 13:42:28Z</time>
      </trkpt>
      <trkpt lat="43.48971" lon="6.739">
        <ele>31.264599</ele>
        <time>2011-01-21 13:42:32Z</time>
      </trkpt>
      <trkpt lat="43.4897" lon="6.73899">
        <ele>31.264595</ele>
        <time>2011-01-21 13:42:36Z</time>
      </trkpt>
      <trkpt lat="43.4897" lon="6.73898">
        <ele>31.264595</ele>
        <time>2011-01-21 13:42:40Z</time>
      </trkpt>
      <trkpt lat="43.4897" lon="6.73896">
        <ele>32.264587</ele>
        <time>2011-01-21 13:42:44Z</time>
      </trkpt>
      <trkpt lat="43.4897" lon="6.73895">
        <ele>32.264587</ele>
        <time>2011-01-21 13:42:48Z</time>
      </trkpt>
      <trkpt lat="43.48971" lon="6.73892">
        <ele>33.26458</ele>
        <time>2011-01-21 13:42:52Z</time>
      </trkpt>
      <trkpt lat="43.48972" lon="6.73891">
        <ele>33.26458</ele>
        <time>2011-01-21 13:42:56Z</time>
      </trkpt>
      <trkpt lat="43.48973" lon="6.73886">
        <ele>33.264568</ele>
        <time>2011-01-21 13:43:08Z</time>
      </trkpt>
      <trkpt lat="43.48973" lon="6.73885">
        <ele>33.264565</ele>
        <time>2011-01-21 13:43:12Z</time>
      </trkpt>
      <trkpt lat="43.48973" lon="6.73884">
        <ele>33.264565</ele>
        <time>2011-01-21 13:43:16Z</time>
      </trkpt>
      <trkpt lat="43.48974" lon="6.73883">
        <ele>33.264565</ele>
        <time>2011-01-21 13:43:20Z</time>
      </trkpt>
      <trkpt lat="43.48974" lon="6.73883">
        <ele>33.264565</ele>
        <time>2011-01-21 13:43:24Z</time>
      </trkpt>
      <trkpt lat="43.48974" lon="6.73882">
        <ele>34.264561</ele>
        <time>2011-01-21 13:43:28Z</time>
      </trkpt>
      <trkpt lat="43.48974" lon="6.73881">
        <ele>34.264565</ele>
        <time>2011-01-21 13:43:32Z</time>
      </trkpt>
      <trkpt lat="43.48975" lon="6.7388">
        <ele>35.264557</ele>
        <time>2011-01-21 13:43:36Z</time>
      </trkpt>
      <trkpt lat="43.48976" lon="6.73879">
        <ele>35.264557</ele>
        <time>2011-01-21 13:43:40Z</time>
      </trkpt>
      <trkpt lat="43.48978" lon="6.73879">
        <ele>35.264561</ele>
        <time>2011-01-21 13:43:44Z</time>
      </trkpt>
      <trkpt lat="43.48978" lon="6.73879">
        <ele>35.264561</ele>
        <time>2011-01-21 13:43:48Z</time>
      </trkpt>
      <trkpt lat="43.48978" lon="6.73879">
        <ele>35.264561</ele>
        <time>2011-01-21 13:43:52Z</time>
      </trkpt>
      <trkpt lat="43.48978" lon="6.73879">
        <ele>35.264561</ele>
        <time>2011-01-21 13:43:56Z</time>
      </trkpt>
      <trkpt lat="43.48978" lon="6.73879">
        <ele>35.264561</ele>
        <time>2011-01-21 13:44:00Z</time>
      </trkpt>
      <trkpt lat="43.48982" lon="6.73878">
        <ele>35.264565</ele>
        <time>2011-01-21 13:44:04Z</time>
      </trkpt>
      <trkpt lat="43.48982" lon="6.73877">
        <ele>36.264565</ele>
        <time>2011-01-21 13:44:08Z</time>
      </trkpt>
      <trkpt lat="43.48982" lon="6.73877">
        <ele>36.264565</ele>
        <time>2011-01-21 13:44:12Z</time>
      </trkpt>
      <trkpt lat="43.48982" lon="6.73877">
        <ele>36.264565</ele>
        <time>2011-01-21 13:44:16Z</time>
      </trkpt>
      <trkpt lat="43.48986" lon="6.73876">
        <ele>38.264568</ele>
        <time>2011-01-21 13:44:20Z</time>
      </trkpt>
      <trkpt lat="43.48989" lon="6.73876">
        <ele>39.264572</ele>
        <time>2011-01-21 13:44:24Z</time>
      </trkpt>
      <trkpt lat="43.48992" lon="6.73876">
        <ele>39.26458</ele>
        <time>2011-01-21 13:44:28Z</time>
      </trkpt>
      <trkpt lat="43.48995" lon="6.73874">
        <ele>38.264576</ele>
        <time>2011-01-21 13:44:32Z</time>
      </trkpt>
      <trkpt lat="43.48996" lon="6.73872">
        <ele>39.264572</ele>
        <time>2011-01-21 13:44:36Z</time>
      </trkpt>
      <trkpt lat="43.48997" lon="6.73869">
        <ele>39.264565</ele>
        <time>2011-01-21 13:44:40Z</time>
      </trkpt>
      <trkpt lat="43.48998" lon="6.73867">
        <ele>39.264565</ele>
        <time>2011-01-21 13:44:44Z</time>
      </trkpt>
      <trkpt lat="43.48999" lon="6.73865">
        <ele>39.264561</ele>
        <time>2011-01-21 13:44:48Z</time>
      </trkpt>
      <trkpt lat="43.49001" lon="6.73863">
        <ele>39.264561</ele>
        <time>2011-01-21 13:44:52Z</time>
      </trkpt>
      <trkpt lat="43.49003" lon="6.73862">
        <ele>39.264557</ele>
        <time>2011-01-21 13:44:56Z</time>
      </trkpt>
      <trkpt lat="43.49004" lon="6.7386">
        <ele>39.264565</ele>
        <time>2011-01-21 13:45:00Z</time>
      </trkpt>
      <trkpt lat="43.49004" lon="6.73859">
        <ele>39.264557</ele>
        <time>2011-01-21 13:45:04Z</time>
      </trkpt>
      <trkpt lat="43.49005" lon="6.73859">
        <ele>39.264557</ele>
        <time>2011-01-21 13:45:08Z</time>
      </trkpt>
      <trkpt lat="43.49006" lon="6.73858">
        <ele>39.264565</ele>
        <time>2011-01-21 13:45:12Z</time>
      </trkpt>
      <trkpt lat="43.49008" lon="6.73855">
        <ele>39.264557</ele>
        <time>2011-01-21 13:45:16Z</time>
      </trkpt>
      <trkpt lat="43.49011" lon="6.73852">
        <ele>40.264549</ele>
        <time>2011-01-21 13:45:20Z</time>
      </trkpt>
      <trkpt lat="43.49012" lon="6.7385">
        <ele>40.264553</ele>
        <time>2011-01-21 13:45:24Z</time>
      </trkpt>
      <trkpt lat="43.49015" lon="6.73846">
        <ele>41.264545</ele>
        <time>2011-01-21 13:45:28Z</time>
      </trkpt>
      <trkpt lat="43.49015" lon="6.73844">
        <ele>41.264545</ele>
        <time>2011-01-21 13:45:32Z</time>
      </trkpt>
      <trkpt lat="43.49017" lon="6.73843">
        <ele>39.264542</ele>
        <time>2011-01-21 13:45:36Z</time>
      </trkpt>
      <trkpt lat="43.49018" lon="6.73842">
        <ele>39.264542</ele>
        <time>2011-01-21 13:45:40Z</time>
      </trkpt>
      <trkpt lat="43.49018" lon="6.73842">
        <ele>39.264542</ele>
        <time>2011-01-21 13:45:44Z</time>
      </trkpt>
      <trkpt lat="43.49023" lon="6.73838">
        <ele>41.264542</ele>
        <time>2011-01-21 13:45:48Z</time>
      </trkpt>
      <trkpt lat="43.49023" lon="6.73837">
        <ele>41.264542</ele>
        <time>2011-01-21 13:45:52Z</time>
      </trkpt>
      <trkpt lat="43.49023" lon="6.73837">
        <ele>41.264542</ele>
        <time>2011-01-21 13:45:56Z</time>
      </trkpt>
      <trkpt lat="43.49025" lon="6.73835">
        <ele>42.264534</ele>
        <time>2011-01-21 13:46:00Z</time>
      </trkpt>
      <trkpt lat="43.49025" lon="6.73835">
        <ele>42.264534</ele>
        <time>2011-01-21 13:46:04Z</time>
      </trkpt>
      <trkpt lat="43.49028" lon="6.73833">
        <ele>41.264542</ele>
        <time>2011-01-21 13:46:08Z</time>
      </trkpt>
      <trkpt lat="43.49029" lon="6.73833">
        <ele>41.264538</ele>
        <time>2011-01-21 13:46:12Z</time>
      </trkpt>
      <trkpt lat="43.4903" lon="6.73832">
        <ele>41.264542</ele>
        <time>2011-01-21 13:46:16Z</time>
      </trkpt>
      <trkpt lat="43.49033" lon="6.73831">
        <ele>41.264542</ele>
        <time>2011-01-21 13:46:20Z</time>
      </trkpt>
      <trkpt lat="43.49036" lon="6.7383">
        <ele>40.264545</ele>
        <time>2011-01-21 13:46:24Z</time>
      </trkpt>
      <trkpt lat="43.49039" lon="6.73829">
        <ele>40.264542</ele>
        <time>2011-01-21 13:46:28Z</time>
      </trkpt>
      <trkpt lat="43.49039" lon="6.73828">
        <ele>40.264549</ele>
        <time>2011-01-21 13:46:32Z</time>
      </trkpt>
      <trkpt lat="43.4904" lon="6.73827">
        <ele>42.264542</ele>
        <time>2011-01-21 13:46:36Z</time>
      </trkpt>
      <trkpt lat="43.49041" lon="6.73825">
        <ele>42.264542</ele>
        <time>2011-01-21 13:46:40Z</time>
      </trkpt>
      <trkpt lat="43.49042" lon="6.73824">
        <ele>42.264542</ele>
        <time>2011-01-21 13:46:44Z</time>
      </trkpt>
      <trkpt lat="43.49044" lon="6.73822">
        <ele>41.264542</ele>
        <time>2011-01-21 13:46:48Z</time>
      </trkpt>
      <trkpt lat="43.49046" lon="6.73819">
        <ele>41.264538</ele>
        <time>2011-01-21 13:46:52Z</time>
      </trkpt>
      <trkpt lat="43.49046" lon="6.73819">
        <ele>41.264538</ele>
        <time>2011-01-21 13:46:56Z</time>
      </trkpt>
      <trkpt lat="43.4905" lon="6.73813">
        <ele>41.264526</ele>
        <time>2011-01-21 13:47:00Z</time>
      </trkpt>
      <trkpt lat="43.49052" lon="6.7381">
        <ele>41.264523</ele>
        <time>2011-01-21 13:47:04Z</time>
      </trkpt>
      <trkpt lat="43.49052" lon="6.7381">
        <ele>41.264523</ele>
        <time>2011-01-21 13:47:08Z</time>
      </trkpt>
      <trkpt lat="43.49054" lon="6.73804">
        <ele>42.264519</ele>
        <time>2011-01-21 13:47:12Z</time>
      </trkpt>
      <trkpt lat="43.49054" lon="6.73804">
        <ele>42.264519</ele>
        <time>2011-01-21 13:47:16Z</time>
      </trkpt>
      <trkpt lat="43.49057" lon="6.73792">
        <ele>43.264492</ele>
        <time>2011-01-21 13:47:20Z</time>
      </trkpt>
      <trkpt lat="43.49059" lon="6.73785">
        <ele>45.264481</ele>
        <time>2011-01-21 13:47:24Z</time>
      </trkpt>
      <trkpt lat="43.49061" lon="6.73779">
        <ele>45.264469</ele>
        <time>2011-01-21 13:47:28Z</time>
      </trkpt>
      <trkpt lat="43.49061" lon="6.73777">
        <ele>45.264465</ele>
        <time>2011-01-21 13:47:32Z</time>
      </trkpt>
      <trkpt lat="43.49064" lon="6.7377">
        <ele>44.264458</ele>
        <time>2011-01-21 13:47:36Z</time>
      </trkpt>
      <trkpt lat="43.49066" lon="6.73767">
        <ele>43.26445</ele>
        <time>2011-01-21 13:47:40Z</time>
      </trkpt>
      <trkpt lat="43.49067" lon="6.73765">
        <ele>42.26445</ele>
        <time>2011-01-21 13:47:44Z</time>
      </trkpt>
      <trkpt lat="43.49069" lon="6.73759">
        <ele>41.264442</ele>
        <time>2011-01-21 13:47:48Z</time>
      </trkpt>
      <trkpt lat="43.49072" lon="6.73755">
        <ele>41.264435</ele>
        <time>2011-01-21 13:47:52Z</time>
      </trkpt>
      <trkpt lat="43.49073" lon="6.73752">
        <ele>41.264427</ele>
        <time>2011-01-21 13:47:56Z</time>
      </trkpt>
      <trkpt lat="43.49075" lon="6.73748">
        <ele>41.264423</ele>
        <time>2011-01-21 13:48:00Z</time>
      </trkpt>
      <trkpt lat="43.49076" lon="6.73746">
        <ele>41.26442</ele>
        <time>2011-01-21 13:48:04Z</time>
      </trkpt>
      <trkpt lat="43.49078" lon="6.73743">
        <ele>41.264416</ele>
        <time>2011-01-21 13:48:08Z</time>
      </trkpt>
      <trkpt lat="43.4908" lon="6.73741">
        <ele>41.264412</ele>
        <time>2011-01-21 13:48:12Z</time>
      </trkpt>
      <trkpt lat="43.4908" lon="6.73741">
        <ele>41.264412</ele>
        <time>2011-01-21 13:48:16Z</time>
      </trkpt>
      <trkpt lat="43.49087" lon="6.73731">
        <ele>42.264404</ele>
        <time>2011-01-21 13:48:20Z</time>
      </trkpt>
      <trkpt lat="43.49092" lon="6.73727">
        <ele>42.264404</ele>
        <time>2011-01-21 13:48:24Z</time>
      </trkpt>
      <trkpt lat="43.49094" lon="6.73724">
        <ele>41.2644</ele>
        <time>2011-01-21 13:48:28Z</time>
      </trkpt>
      <trkpt lat="43.49096" lon="6.73721">
        <ele>41.264397</ele>
        <time>2011-01-21 13:48:32Z</time>
      </trkpt>
      <trkpt lat="43.49099" lon="6.73718">
        <ele>41.264393</ele>
        <time>2011-01-21 13:48:36Z</time>
      </trkpt>
      <trkpt lat="43.491" lon="6.73716">
        <ele>41.264393</ele>
        <time>2011-01-21 13:48:40Z</time>
      </trkpt>
      <trkpt lat="43.49101" lon="6.73714">
        <ele>41.264389</ele>
        <time>2011-01-21 13:48:44Z</time>
      </trkpt>
      <trkpt lat="43.49102" lon="6.7371">
        <ele>40.264381</ele>
        <time>2011-01-21 13:48:48Z</time>
      </trkpt>
      <trkpt lat="43.49103" lon="6.73708">
        <ele>40.264381</ele>
        <time>2011-01-21 13:48:52Z</time>
      </trkpt>
      <trkpt lat="43.49105" lon="6.73707">
        <ele>40.264381</ele>
        <time>2011-01-21 13:48:56Z</time>
      </trkpt>
      <trkpt lat="43.49106" lon="6.73705">
        <ele>40.264381</ele>
        <time>2011-01-21 13:49:00Z</time>
      </trkpt>
      <trkpt lat="43.49107" lon="6.73704">
        <ele>40.264374</ele>
        <time>2011-01-21 13:49:04Z</time>
      </trkpt>
      <trkpt lat="43.49109" lon="6.737">
        <ele>40.264374</ele>
        <time>2011-01-21 13:49:08Z</time>
      </trkpt>
      <trkpt lat="43.4911" lon="6.73699">
        <ele>41.26437</ele>
        <time>2011-01-21 13:49:12Z</time>
      </trkpt>
      <trkpt lat="43.49112" lon="6.73696">
        <ele>40.264366</ele>
        <time>2011-01-21 13:49:16Z</time>
      </trkpt>
      <trkpt lat="43.49114" lon="6.73694">
        <ele>40.264366</ele>
        <time>2011-01-21 13:49:20Z</time>
      </trkpt>
      <trkpt lat="43.49117" lon="6.73691">
        <ele>38.264366</ele>
        <time>2011-01-21 13:49:24Z</time>
      </trkpt>
      <trkpt lat="43.4912" lon="6.73689">
        <ele>37.264362</ele>
        <time>2011-01-21 13:49:28Z</time>
      </trkpt>
      <trkpt lat="43.4912" lon="6.73689">
        <ele>37.264366</ele>
        <time>2011-01-21 13:49:32Z</time>
      </trkpt>
      <trkpt lat="43.49123" lon="6.73686">
        <ele>36.264359</ele>
        <time>2011-01-21 13:49:36Z</time>
      </trkpt>
      <trkpt lat="43.49125" lon="6.73683">
        <ele>35.264359</ele>
        <time>2011-01-21 13:49:40Z</time>
      </trkpt>
      <trkpt lat="43.49128" lon="6.73682">
        <ele>35.264359</ele>
        <time>2011-01-21 13:49:44Z</time>
      </trkpt>
      <trkpt lat="43.4913" lon="6.7368">
        <ele>35.264366</ele>
        <time>2011-01-21 13:49:48Z</time>
      </trkpt>
      <trkpt lat="43.49133" lon="6.73679">
        <ele>35.264366</ele>
        <time>2011-01-21 13:49:52Z</time>
      </trkpt>
      <trkpt lat="43.49136" lon="6.73678">
        <ele>35.264366</ele>
        <time>2011-01-21 13:49:56Z</time>
      </trkpt>
      <trkpt lat="43.4914" lon="6.73676">
        <ele>34.264366</ele>
        <time>2011-01-21 13:50:00Z</time>
      </trkpt>
      <trkpt lat="43.49142" lon="6.73676">
        <ele>34.26437</ele>
        <time>2011-01-21 13:50:04Z</time>
      </trkpt>
      <trkpt lat="43.49142" lon="6.73676">
        <ele>34.26437</ele>
        <time>2011-01-21 13:50:08Z</time>
      </trkpt>
      <trkpt lat="43.49146" lon="6.73672">
        <ele>32.26437</ele>
        <time>2011-01-21 13:50:12Z</time>
      </trkpt>
      <trkpt lat="43.49146" lon="6.73672">
        <ele>32.26437</ele>
        <time>2011-01-21 13:50:16Z</time>
      </trkpt>
      <trkpt lat="43.4915" lon="6.73667">
        <ele>32.264359</ele>
        <time>2011-01-21 13:50:20Z</time>
      </trkpt>
      <trkpt lat="43.49151" lon="6.73666">
        <ele>32.264362</ele>
        <time>2011-01-21 13:50:24Z</time>
      </trkpt>
      <trkpt lat="43.49153" lon="6.73665">
        <ele>32.264362</ele>
        <time>2011-01-21 13:50:28Z</time>
      </trkpt>
      <trkpt lat="43.49155" lon="6.73664">
        <ele>32.264366</ele>
        <time>2011-01-21 13:50:32Z</time>
      </trkpt>
      <trkpt lat="43.49159" lon="6.73663">
        <ele>31.264366</ele>
        <time>2011-01-21 13:50:36Z</time>
      </trkpt>
      <trkpt lat="43.49167" lon="6.73661">
        <ele>30.264374</ele>
        <time>2011-01-21 13:50:40Z</time>
      </trkpt>
      <trkpt lat="43.49168" lon="6.73661">
        <ele>30.264378</ele>
        <time>2011-01-21 13:50:44Z</time>
      </trkpt>
      <trkpt lat="43.49172" lon="6.73659">
        <ele>29.264381</ele>
        <time>2011-01-21 13:50:48Z</time>
      </trkpt>
      <trkpt lat="43.49175" lon="6.73656">
        <ele>29.264381</ele>
        <time>2011-01-21 13:50:52Z</time>
      </trkpt>
      <trkpt lat="43.49177" lon="6.73655">
        <ele>29.264381</ele>
        <time>2011-01-21 13:50:59Z</time>
      </trkpt>
      <trkpt lat="43.49186" lon="6.7365">
        <ele>29.264389</ele>
        <time>2011-01-21 13:51:02Z</time>
      </trkpt>
      <trkpt lat="43.49186" lon="6.7365">
        <ele>29.264389</ele>
        <time>2011-01-21 13:51:06Z</time>
      </trkpt>
      <trkpt lat="43.49186" lon="6.7365">
        <ele>29.264389</ele>
        <time>2011-01-21 13:51:10Z</time>
      </trkpt>
      <trkpt lat="43.49194" lon="6.73646">
        <ele>31.264389</ele>
        <time>2011-01-21 13:51:14Z</time>
      </trkpt>
      <trkpt lat="43.49196" lon="6.73646">
        <ele>31.264385</ele>
        <time>2011-01-21 13:51:18Z</time>
      </trkpt>
      <trkpt lat="43.49199" lon="6.73645">
        <ele>32.264397</ele>
        <time>2011-01-21 13:51:22Z</time>
      </trkpt>
      <trkpt lat="43.49203" lon="6.73643">
        <ele>32.264397</ele>
        <time>2011-01-21 13:51:26Z</time>
      </trkpt>
      <trkpt lat="43.49206" lon="6.73642">
        <ele>32.264397</ele>
        <time>2011-01-21 13:51:30Z</time>
      </trkpt>
      <trkpt lat="43.49208" lon="6.73641">
        <ele>32.264404</ele>
        <time>2011-01-21 13:51:34Z</time>
      </trkpt>
      <trkpt lat="43.4921" lon="6.73641">
        <ele>31.264404</ele>
        <time>2011-01-21 13:51:38Z</time>
      </trkpt>
      <trkpt lat="43.4921" lon="6.73641">
        <ele>31.264404</ele>
        <time>2011-01-21 13:51:42Z</time>
      </trkpt>
      <trkpt lat="43.4921" lon="6.73641">
        <ele>31.264404</ele>
        <time>2011-01-21 13:51:46Z</time>
      </trkpt>
      <trkpt lat="43.4921" lon="6.73641">
        <ele>31.264404</ele>
        <time>2011-01-21 13:51:50Z</time>
      </trkpt>
      <trkpt lat="43.49218" lon="6.7364">
        <ele>30.264412</ele>
        <time>2011-01-21 13:51:54Z</time>
      </trkpt>
      <trkpt lat="43.4922" lon="6.7364">
        <ele>29.26442</ele>
        <time>2011-01-21 13:51:58Z</time>
      </trkpt>
      <trkpt lat="43.49221" lon="6.73642">
        <ele>28.26442</ele>
        <time>2011-01-21 13:52:02Z</time>
      </trkpt>
      <trkpt lat="43.49223" lon="6.73643">
        <ele>27.264427</ele>
        <time>2011-01-21 13:52:06Z</time>
      </trkpt>
      <trkpt lat="43.49223" lon="6.73643">
        <ele>27.264427</ele>
        <time>2011-01-21 13:52:10Z</time>
      </trkpt>
      <trkpt lat="43.49229" lon="6.73644">
        <ele>25.264442</ele>
        <time>2011-01-21 13:52:14Z</time>
      </trkpt>
      <trkpt lat="43.49234" lon="6.73645">
        <ele>24.26445</ele>
        <time>2011-01-21 13:52:18Z</time>
      </trkpt>
      <trkpt lat="43.49234" lon="6.73645">
        <ele>24.26445</ele>
        <time>2011-01-21 13:52:22Z</time>
      </trkpt>
      <trkpt lat="43.49239" lon="6.73647">
        <ele>24.264465</ele>
        <time>2011-01-21 13:52:26Z</time>
      </trkpt>
      <trkpt lat="43.49239" lon="6.73647">
        <ele>24.264465</ele>
        <time>2011-01-21 13:52:30Z</time>
      </trkpt>
      <trkpt lat="43.49246" lon="6.73648">
        <ele>22.264481</ele>
        <time>2011-01-21 13:52:34Z</time>
      </trkpt>
      <trkpt lat="43.49246" lon="6.73648">
        <ele>22.264481</ele>
        <time>2011-01-21 13:52:38Z</time>
      </trkpt>
      <trkpt lat="43.49251" lon="6.7365">
        <ele>22.264492</ele>
        <time>2011-01-21 13:52:42Z</time>
      </trkpt>
      <trkpt lat="43.49252" lon="6.7365">
        <ele>21.264496</ele>
        <time>2011-01-21 13:52:46Z</time>
      </trkpt>
      <trkpt lat="43.49252" lon="6.7365">
        <ele>21.264496</ele>
        <time>2011-01-21 13:52:50Z</time>
      </trkpt>
      <trkpt lat="43.49259" lon="6.73652">
        <ele>20.264511</ele>
        <time>2011-01-21 13:52:54Z</time>
      </trkpt>
      <trkpt lat="43.4926" lon="6.73653">
        <ele>20.264511</ele>
        <time>2011-01-21 13:52:58Z</time>
      </trkpt>
      <trkpt lat="43.49264" lon="6.73655">
        <ele>19.264523</ele>
        <time>2011-01-21 13:53:02Z</time>
      </trkpt>
      <trkpt lat="43.49266" lon="6.73657">
        <ele>19.264526</ele>
        <time>2011-01-21 13:53:06Z</time>
      </trkpt>
      <trkpt lat="43.49268" lon="6.73658">
        <ele>19.264534</ele>
        <time>2011-01-21 13:53:10Z</time>
      </trkpt>
      <trkpt lat="43.49268" lon="6.73658">
        <ele>19.264534</ele>
        <time>2011-01-21 13:53:14Z</time>
      </trkpt>
      <trkpt lat="43.49273" lon="6.73662">
        <ele>18.264557</ele>
        <time>2011-01-21 13:53:18Z</time>
      </trkpt>
      <trkpt lat="43.49276" lon="6.73663">
        <ele>18.264557</ele>
        <time>2011-01-21 13:53:22Z</time>
      </trkpt>
      <trkpt lat="43.49279" lon="6.73664">
        <ele>17.264572</ele>
        <time>2011-01-21 13:53:26Z</time>
      </trkpt>
      <trkpt lat="43.49281" lon="6.73664">
        <ele>17.264572</ele>
        <time>2011-01-21 13:53:30Z</time>
      </trkpt>
      <trkpt lat="43.49281" lon="6.73664">
        <ele>17.264572</ele>
        <time>2011-01-21 13:53:34Z</time>
      </trkpt>
      <trkpt lat="43.49281" lon="6.73664">
        <ele>17.264572</ele>
        <time>2011-01-21 13:53:38Z</time>
      </trkpt>
      <trkpt lat="43.49293" lon="6.73664">
        <ele>16.264591</ele>
        <time>2011-01-21 13:53:42Z</time>
      </trkpt>
      <trkpt lat="43.49293" lon="6.73664">
        <ele>16.264591</ele>
        <time>2011-01-21 13:53:46Z</time>
      </trkpt>
      <trkpt lat="43.49299" lon="6.73663">
        <ele>16.264599</ele>
        <time>2011-01-21 13:53:50Z</time>
      </trkpt>
      <trkpt lat="43.493" lon="6.73663">
        <ele>16.264603</ele>
        <time>2011-01-21 13:53:54Z</time>
      </trkpt>
      <trkpt lat="43.49302" lon="6.73663">
        <ele>16.264603</ele>
        <time>2011-01-21 13:53:58Z</time>
      </trkpt>
      <trkpt lat="43.49305" lon="6.73662">
        <ele>15.264603</ele>
        <time>2011-01-21 13:54:02Z</time>
      </trkpt>
      <trkpt lat="43.49307" lon="6.73661">
        <ele>15.264603</ele>
        <time>2011-01-21 13:54:06Z</time>
      </trkpt>
      <trkpt lat="43.49308" lon="6.7366">
        <ele>15.264606</ele>
        <time>2011-01-21 13:54:10Z</time>
      </trkpt>
      <trkpt lat="43.4931" lon="6.73659">
        <ele>15.264606</ele>
        <time>2011-01-21 13:54:14Z</time>
      </trkpt>
      <trkpt lat="43.49311" lon="6.73659">
        <ele>15.264606</ele>
        <time>2011-01-21 13:54:18Z</time>
      </trkpt>
      <trkpt lat="43.49314" lon="6.73657">
        <ele>15.26461</ele>
        <time>2011-01-21 13:54:22Z</time>
      </trkpt>
      <trkpt lat="43.49316" lon="6.73657">
        <ele>15.26461</ele>
        <time>2011-01-21 13:54:26Z</time>
      </trkpt>
      <trkpt lat="43.49317" lon="6.73656">
        <ele>15.26461</ele>
        <time>2011-01-21 13:54:30Z</time>
      </trkpt>
      <trkpt lat="43.49317" lon="6.73656">
        <ele>15.26461</ele>
        <time>2011-01-21 13:54:34Z</time>
      </trkpt>
      <trkpt lat="43.49317" lon="6.73656">
        <ele>15.26461</ele>
        <time>2011-01-21 13:54:38Z</time>
      </trkpt>
      <trkpt lat="43.49323" lon="6.73654">
        <ele>17.264618</ele>
        <time>2011-01-21 13:54:42Z</time>
      </trkpt>
      <trkpt lat="43.49323" lon="6.73654">
        <ele>17.264618</ele>
        <time>2011-01-21 13:54:46Z</time>
      </trkpt>
      <trkpt lat="43.49326" lon="6.73653">
        <ele>18.264618</ele>
        <time>2011-01-21 13:54:50Z</time>
      </trkpt>
      <trkpt lat="43.49326" lon="6.73653">
        <ele>18.264618</ele>
        <time>2011-01-21 13:54:54Z</time>
      </trkpt>
      <trkpt lat="43.49328" lon="6.73652">
        <ele>19.264622</ele>
        <time>2011-01-21 13:54:58Z</time>
      </trkpt>
      <trkpt lat="43.49328" lon="6.7365">
        <ele>20.264618</ele>
        <time>2011-01-21 13:55:02Z</time>
      </trkpt>
      <trkpt lat="43.49329" lon="6.73648">
        <ele>20.26461</ele>
        <time>2011-01-21 13:55:06Z</time>
      </trkpt>
      <trkpt lat="43.49329" lon="6.73645">
        <ele>21.264606</ele>
        <time>2011-01-21 13:55:10Z</time>
      </trkpt>
      <trkpt lat="43.49329" lon="6.73645">
        <ele>21.264606</ele>
        <time>2011-01-21 13:55:14Z</time>
      </trkpt>
      <trkpt lat="43.4933" lon="6.73641">
        <ele>22.264599</ele>
        <time>2011-01-21 13:55:18Z</time>
      </trkpt>
      <trkpt lat="43.4933" lon="6.73641">
        <ele>22.264599</ele>
        <time>2011-01-21 13:55:22Z</time>
      </trkpt>
      <trkpt lat="43.4933" lon="6.73641">
        <ele>22.264599</ele>
        <time>2011-01-21 13:55:26Z</time>
      </trkpt>
      <trkpt lat="43.49337" lon="6.73634">
        <ele>22.264591</ele>
        <time>2011-01-21 13:55:30Z</time>
      </trkpt>
      <trkpt lat="43.49339" lon="6.73633">
        <ele>21.264595</ele>
        <time>2011-01-21 13:55:34Z</time>
      </trkpt>
      <trkpt lat="43.49341" lon="6.73632">
        <ele>21.264595</ele>
        <time>2011-01-21 13:55:38Z</time>
      </trkpt>
      <trkpt lat="43.49344" lon="6.7363">
        <ele>21.264595</ele>
        <time>2011-01-21 13:55:42Z</time>
      </trkpt>
      <trkpt lat="43.49344" lon="6.7363">
        <ele>21.264595</ele>
        <time>2011-01-21 13:55:46Z</time>
      </trkpt>
      <trkpt lat="43.49348" lon="6.73626">
        <ele>21.264595</ele>
        <time>2011-01-21 13:55:50Z</time>
      </trkpt>
      <trkpt lat="43.4935" lon="6.73625">
        <ele>20.264595</ele>
        <time>2011-01-21 13:55:54Z</time>
      </trkpt>
      <trkpt lat="43.49352" lon="6.73624">
        <ele>20.264595</ele>
        <time>2011-01-21 13:55:58Z</time>
      </trkpt>
      <trkpt lat="43.49352" lon="6.73624">
        <ele>20.264595</ele>
        <time>2011-01-21 13:56:02Z</time>
      </trkpt>
      <trkpt lat="43.49355" lon="6.73621">
        <ele>19.264595</ele>
        <time>2011-01-21 13:56:06Z</time>
      </trkpt>
      <trkpt lat="43.49357" lon="6.73616">
        <ele>18.264587</ele>
        <time>2011-01-21 13:56:10Z</time>
      </trkpt>
      <trkpt lat="43.49359" lon="6.73614">
        <ele>18.264587</ele>
        <time>2011-01-21 13:56:14Z</time>
      </trkpt>
      <trkpt lat="43.49361" lon="6.7361">
        <ele>18.26458</ele>
        <time>2011-01-21 13:56:18Z</time>
      </trkpt>
      <trkpt lat="43.49361" lon="6.7361">
        <ele>18.26458</ele>
        <time>2011-01-21 13:56:22Z</time>
      </trkpt>
      <trkpt lat="43.49361" lon="6.7361">
        <ele>18.26458</ele>
        <time>2011-01-21 13:56:26Z</time>
      </trkpt>
      <trkpt lat="43.49362" lon="6.73606">
        <ele>18.264568</ele>
        <time>2011-01-21 13:56:30Z</time>
      </trkpt>
      <trkpt lat="43.49362" lon="6.73606">
        <ele>18.264568</ele>
        <time>2011-01-21 13:56:34Z</time>
      </trkpt>
      <trkpt lat="43.49364" lon="6.73604">
        <ele>19.264568</ele>
        <time>2011-01-21 13:56:38Z</time>
      </trkpt>
      <trkpt lat="43.49365" lon="6.73603">
        <ele>21.264572</ele>
        <time>2011-01-21 13:56:42Z</time>
      </trkpt>
      <trkpt lat="43.49365" lon="6.73603">
        <ele>21.264572</ele>
        <time>2011-01-21 13:56:46Z</time>
      </trkpt>
      <trkpt lat="43.49365" lon="6.73603">
        <ele>21.264572</ele>
        <time>2011-01-21 13:56:50Z</time>
      </trkpt>
      <trkpt lat="43.49369" lon="6.73602">
        <ele>22.264576</ele>
        <time>2011-01-21 13:56:54Z</time>
      </trkpt>
      <trkpt lat="43.49372" lon="6.73602">
        <ele>22.26458</ele>
        <time>2011-01-21 13:56:58Z</time>
      </trkpt>
      <trkpt lat="43.49376" lon="6.73602">
        <ele>22.264584</ele>
        <time>2011-01-21 13:57:02Z</time>
      </trkpt>
      <trkpt lat="43.49376" lon="6.73602">
        <ele>22.264584</ele>
        <time>2011-01-21 13:57:06Z</time>
      </trkpt>
      <trkpt lat="43.49376" lon="6.73602">
        <ele>22.264584</ele>
        <time>2011-01-21 13:57:10Z</time>
      </trkpt>
      <trkpt lat="43.49384" lon="6.73598">
        <ele>23.264587</ele>
        <time>2011-01-21 13:57:14Z</time>
      </trkpt>
      <trkpt lat="43.49385" lon="6.73598">
        <ele>23.264587</ele>
        <time>2011-01-21 13:57:18Z</time>
      </trkpt>
      <trkpt lat="43.49385" lon="6.73598">
        <ele>23.264587</ele>
        <time>2011-01-21 13:57:22Z</time>
      </trkpt>
      <trkpt lat="43.49388" lon="6.73596">
        <ele>23.264595</ele>
        <time>2011-01-21 13:57:26Z</time>
      </trkpt>
      <trkpt lat="43.49389" lon="6.73596">
        <ele>23.264591</ele>
        <time>2011-01-21 13:57:30Z</time>
      </trkpt>
      <trkpt lat="43.4939" lon="6.73594">
        <ele>23.264591</ele>
        <time>2011-01-21 13:57:34Z</time>
      </trkpt>
      <trkpt lat="43.49392" lon="6.73594">
        <ele>23.264595</ele>
        <time>2011-01-21 13:57:38Z</time>
      </trkpt>
      <trkpt lat="43.49393" lon="6.73594">
        <ele>22.264595</ele>
        <time>2011-01-21 13:57:42Z</time>
      </trkpt>
      <trkpt lat="43.49395" lon="6.73594">
        <ele>22.264599</ele>
        <time>2011-01-21 13:57:46Z</time>
      </trkpt>
      <trkpt lat="43.49399" lon="6.73593">
        <ele>22.264603</ele>
        <time>2011-01-21 13:57:50Z</time>
      </trkpt>
      <trkpt lat="43.49402" lon="6.73591">
        <ele>23.264603</ele>
        <time>2011-01-21 13:57:54Z</time>
      </trkpt>
      <trkpt lat="43.49407" lon="6.73589">
        <ele>23.26461</ele>
        <time>2011-01-21 13:57:58Z</time>
      </trkpt>
      <trkpt lat="43.4941" lon="6.73587">
        <ele>24.26461</ele>
        <time>2011-01-21 13:58:02Z</time>
      </trkpt>
      <trkpt lat="43.4941" lon="6.73586">
        <ele>24.264603</ele>
        <time>2011-01-21 13:58:06Z</time>
      </trkpt>
      <trkpt lat="43.4941" lon="6.73586">
        <ele>24.264603</ele>
        <time>2011-01-21 13:58:10Z</time>
      </trkpt>
      <trkpt lat="43.49418" lon="6.73578">
        <ele>27.264599</ele>
        <time>2011-01-21 13:58:14Z</time>
      </trkpt>
      <trkpt lat="43.49421" lon="6.73573">
        <ele>28.264595</ele>
        <time>2011-01-21 13:58:18Z</time>
      </trkpt>
      <trkpt lat="43.49424" lon="6.73569">
        <ele>28.264587</ele>
        <time>2011-01-21 13:58:22Z</time>
      </trkpt>
      <trkpt lat="43.49426" lon="6.73566">
        <ele>28.264587</ele>
        <time>2011-01-21 13:58:26Z</time>
      </trkpt>
      <trkpt lat="43.4943" lon="6.73563">
        <ele>28.264587</ele>
        <time>2011-01-21 13:58:30Z</time>
      </trkpt>
      <trkpt lat="43.4943" lon="6.73563">
        <ele>28.264587</ele>
        <time>2011-01-21 13:58:34Z</time>
      </trkpt>
      <trkpt lat="43.4943" lon="6.73563">
        <ele>28.264587</ele>
        <time>2011-01-21 13:58:38Z</time>
      </trkpt>
      <trkpt lat="43.4943" lon="6.73563">
        <ele>28.264587</ele>
        <time>2011-01-21 13:58:42Z</time>
      </trkpt>
      <trkpt lat="43.49438" lon="6.73555">
        <ele>30.264584</ele>
        <time>2011-01-21 13:58:46Z</time>
      </trkpt>
      <trkpt lat="43.49438" lon="6.73555">
        <ele>30.264584</ele>
        <time>2011-01-21 13:58:50Z</time>
      </trkpt>
      <trkpt lat="43.49441" lon="6.73553">
        <ele>32.26458</ele>
        <time>2011-01-21 13:58:54Z</time>
      </trkpt>
      <trkpt lat="43.49441" lon="6.73553">
        <ele>32.26458</ele>
        <time>2011-01-21 13:58:58Z</time>
      </trkpt>
      <trkpt lat="43.49444" lon="6.73551">
        <ele>34.264584</ele>
        <time>2011-01-21 13:59:02Z</time>
      </trkpt>
      <trkpt lat="43.49445" lon="6.73551">
        <ele>35.264584</ele>
        <time>2011-01-21 13:59:06Z</time>
      </trkpt>
      <trkpt lat="43.49447" lon="6.7355">
        <ele>35.264584</ele>
        <time>2011-01-21 13:59:10Z</time>
      </trkpt>
      <trkpt lat="43.49447" lon="6.7355">
        <ele>35.264584</ele>
        <time>2011-01-21 13:59:14Z</time>
      </trkpt>
      <trkpt lat="43.49448" lon="6.73548">
        <ele>35.26458</ele>
        <time>2011-01-21 13:59:18Z</time>
      </trkpt>
      <trkpt lat="43.49448" lon="6.73546">
        <ele>35.264576</ele>
        <time>2011-01-21 13:59:22Z</time>
      </trkpt>
      <trkpt lat="43.49449" lon="6.73545">
        <ele>35.26458</ele>
        <time>2011-01-21 13:59:26Z</time>
      </trkpt>
      <trkpt lat="43.4945" lon="6.73544">
        <ele>36.264576</ele>
        <time>2011-01-21 13:59:30Z</time>
      </trkpt>
      <trkpt lat="43.49451" lon="6.73544">
        <ele>36.26458</ele>
        <time>2011-01-21 13:59:34Z</time>
      </trkpt>
      <trkpt lat="43.49451" lon="6.73544">
        <ele>36.26458</ele>
        <time>2011-01-21 13:59:38Z</time>
      </trkpt>
      <trkpt lat="43.49451" lon="6.73544">
        <ele>36.26458</ele>
        <time>2011-01-21 13:59:42Z</time>
      </trkpt>
      <trkpt lat="43.49451" lon="6.73536">
        <ele>39.264557</ele>
        <time>2011-01-21 13:59:46Z</time>
      </trkpt>
      <trkpt lat="43.4945" lon="6.73535">
        <ele>40.264557</ele>
        <time>2011-01-21 13:59:50Z</time>
      </trkpt>
      <trkpt lat="43.49449" lon="6.73533">
        <ele>41.264549</ele>
        <time>2011-01-21 13:59:54Z</time>
      </trkpt>
      <trkpt lat="43.49449" lon="6.73533">
        <ele>42.264549</ele>
        <time>2011-01-21 13:59:58Z</time>
      </trkpt>
      <trkpt lat="43.49448" lon="6.73531">
        <ele>42.264542</ele>
        <time>2011-01-21 14:00:02Z</time>
      </trkpt>
      <trkpt lat="43.49448" lon="6.73531">
        <ele>43.264542</ele>
        <time>2011-01-21 14:00:06Z</time>
      </trkpt>
      <trkpt lat="43.49448" lon="6.7353">
        <ele>43.264542</ele>
        <time>2011-01-21 14:00:10Z</time>
      </trkpt>
      <trkpt lat="43.49448" lon="6.7353">
        <ele>43.264542</ele>
        <time>2011-01-21 14:00:14Z</time>
      </trkpt>
      <trkpt lat="43.49448" lon="6.7353">
        <ele>43.264542</ele>
        <time>2011-01-21 14:00:18Z</time>
      </trkpt>
      <trkpt lat="43.49451" lon="6.73531">
        <ele>42.264549</ele>
        <time>2011-01-21 14:00:22Z</time>
      </trkpt>
      <trkpt lat="43.49451" lon="6.73531">
        <ele>42.264549</ele>
        <time>2011-01-21 14:00:26Z</time>
      </trkpt>
      <trkpt lat="43.49451" lon="6.73531">
        <ele>42.264549</ele>
        <time>2011-01-21 14:00:30Z</time>
      </trkpt>
      <trkpt lat="43.49451" lon="6.73531">
        <ele>42.264549</ele>
        <time>2011-01-21 14:00:34Z</time>
      </trkpt>
      <trkpt lat="43.49451" lon="6.73531">
        <ele>42.264549</ele>
        <time>2011-01-21 14:00:38Z</time>
      </trkpt>
      <trkpt lat="43.49451" lon="6.73531">
        <ele>42.264549</ele>
        <time>2011-01-21 14:00:42Z</time>
      </trkpt>
      <trkpt lat="43.49451" lon="6.73531">
        <ele>42.264549</ele>
        <time>2011-01-21 14:00:46Z</time>
      </trkpt>
      <trkpt lat="43.49463" lon="6.73554">
        <ele>45.264622</ele>
        <time>2011-01-21 14:00:50Z</time>
      </trkpt>
      <trkpt lat="43.49463" lon="6.73558">
        <ele>45.264629</ele>
        <time>2011-01-21 14:00:54Z</time>
      </trkpt>
      <trkpt lat="43.49463" lon="6.73558">
        <ele>45.264629</ele>
        <time>2011-01-21 14:00:58Z</time>
      </trkpt>
      <trkpt lat="43.49461" lon="6.7357">
        <ele>48.264656</ele>
        <time>2011-01-21 14:01:02Z</time>
      </trkpt>
      <trkpt lat="43.4946" lon="6.73573">
        <ele>49.264656</ele>
        <time>2011-01-21 14:01:06Z</time>
      </trkpt>
      <trkpt lat="43.49459" lon="6.73577">
        <ele>50.264664</ele>
        <time>2011-01-21 14:01:10Z</time>
      </trkpt>
      <trkpt lat="43.49456" lon="6.73581">
        <ele>51.264671</ele>
        <time>2011-01-21 14:01:14Z</time>
      </trkpt>
      <trkpt lat="43.49455" lon="6.73584">
        <ele>51.264671</ele>
        <time>2011-01-21 14:01:18Z</time>
      </trkpt>
      <trkpt lat="43.49453" lon="6.73588">
        <ele>51.264679</ele>
        <time>2011-01-21 14:01:22Z</time>
      </trkpt>
      <trkpt lat="43.49452" lon="6.7359">
        <ele>51.264683</ele>
        <time>2011-01-21 14:01:26Z</time>
      </trkpt>
      <trkpt lat="43.49451" lon="6.73595">
        <ele>52.264694</ele>
        <time>2011-01-21 14:01:30Z</time>
      </trkpt>
      <trkpt lat="43.4945" lon="6.73597">
        <ele>54.264698</ele>
        <time>2011-01-21 14:01:34Z</time>
      </trkpt>
      <trkpt lat="43.4945" lon="6.73597">
        <ele>54.264698</ele>
        <time>2011-01-21 14:01:38Z</time>
      </trkpt>
      <trkpt lat="43.49445" lon="6.73605">
        <ele>55.264706</ele>
        <time>2011-01-21 14:01:42Z</time>
      </trkpt>
      <trkpt lat="43.49443" lon="6.73608">
        <ele>55.264706</ele>
        <time>2011-01-21 14:01:46Z</time>
      </trkpt>
      <trkpt lat="43.49442" lon="6.73611">
        <ele>55.264713</ele>
        <time>2011-01-21 14:01:50Z</time>
      </trkpt>
      <trkpt lat="43.4944" lon="6.73615">
        <ele>55.264717</ele>
        <time>2011-01-21 14:01:54Z</time>
      </trkpt>
      <trkpt lat="43.4944" lon="6.73618">
        <ele>55.264725</ele>
        <time>2011-01-21 14:01:58Z</time>
      </trkpt>
      <trkpt lat="43.49439" lon="6.73624">
        <ele>55.26474</ele>
        <time>2011-01-21 14:02:02Z</time>
      </trkpt>
      <trkpt lat="43.49439" lon="6.73624">
        <ele>55.26474</ele>
        <time>2011-01-21 14:02:06Z</time>
      </trkpt>
      <trkpt lat="43.49439" lon="6.73624">
        <ele>55.26474</ele>
        <time>2011-01-21 14:02:10Z</time>
      </trkpt>
      <trkpt lat="43.49436" lon="6.73638">
        <ele>56.264763</ele>
        <time>2011-01-21 14:02:14Z</time>
      </trkpt>
      <trkpt lat="43.49436" lon="6.73638">
        <ele>56.264763</ele>
        <time>2011-01-21 14:02:18Z</time>
      </trkpt>
      <trkpt lat="43.49434" lon="6.73653">
        <ele>56.264793</ele>
        <time>2011-01-21 14:02:22Z</time>
      </trkpt>
      <trkpt lat="43.49433" lon="6.73659">
        <ele>56.264809</ele>
        <time>2011-01-21 14:02:26Z</time>
      </trkpt>
      <trkpt lat="43.49432" lon="6.73665">
        <ele>58.26482</ele>
        <time>2011-01-21 14:02:30Z</time>
      </trkpt>
      <trkpt lat="43.49432" lon="6.7367">
        <ele>61.264832</ele>
        <time>2011-01-21 14:02:34Z</time>
      </trkpt>
      <trkpt lat="43.49434" lon="6.73676">
        <ele>63.264847</ele>
        <time>2011-01-21 14:02:38Z</time>
      </trkpt>
      <trkpt lat="43.49436" lon="6.73682">
        <ele>66.264862</ele>
        <time>2011-01-21 14:02:42Z</time>
      </trkpt>
      <trkpt lat="43.49435" lon="6.73688">
        <ele>68.264877</ele>
        <time>2011-01-21 14:02:46Z</time>
      </trkpt>
      <trkpt lat="43.49435" lon="6.73694">
        <ele>69.264893</ele>
        <time>2011-01-21 14:02:50Z</time>
      </trkpt>
      <trkpt lat="43.49435" lon="6.73699">
        <ele>71.2649</ele>
        <time>2011-01-21 14:02:54Z</time>
      </trkpt>
      <trkpt lat="43.49436" lon="6.73705">
        <ele>72.264915</ele>
        <time>2011-01-21 14:02:58Z</time>
      </trkpt>
      <trkpt lat="43.49436" lon="6.73706">
        <ele>72.264915</ele>
        <time>2011-01-21 14:03:02Z</time>
      </trkpt>
      <trkpt lat="43.49439" lon="6.73716">
        <ele>74.264946</ele>
        <time>2011-01-21 14:03:06Z</time>
      </trkpt>
      <trkpt lat="43.49439" lon="6.73719">
        <ele>76.264954</ele>
        <time>2011-01-21 14:03:10Z</time>
      </trkpt>
      <trkpt lat="43.4944" lon="6.73726">
        <ele>76.264977</ele>
        <time>2011-01-21 14:03:14Z</time>
      </trkpt>
      <trkpt lat="43.49442" lon="6.73731">
        <ele>76.264984</ele>
        <time>2011-01-21 14:03:18Z</time>
      </trkpt>
      <trkpt lat="43.49442" lon="6.73734">
        <ele>77.264984</ele>
        <time>2011-01-21 14:03:22Z</time>
      </trkpt>
      <trkpt lat="43.49444" lon="6.7374">
        <ele>77.265007</ele>
        <time>2011-01-21 14:03:26Z</time>
      </trkpt>
      <trkpt lat="43.49444" lon="6.73742">
        <ele>77.265015</ele>
        <time>2011-01-21 14:03:30Z</time>
      </trkpt>
      <trkpt lat="43.49444" lon="6.73742">
        <ele>77.265015</ele>
        <time>2011-01-21 14:03:34Z</time>
      </trkpt>
      <trkpt lat="43.49447" lon="6.73748">
        <ele>78.26503</ele>
        <time>2011-01-21 14:03:38Z</time>
      </trkpt>
      <trkpt lat="43.49448" lon="6.73749">
        <ele>79.265038</ele>
        <time>2011-01-21 14:03:42Z</time>
      </trkpt>
      <trkpt lat="43.49451" lon="6.73752">
        <ele>79.265045</ele>
        <time>2011-01-21 14:03:46Z</time>
      </trkpt>
      <trkpt lat="43.49455" lon="6.73755">
        <ele>79.26506</ele>
        <time>2011-01-21 14:03:50Z</time>
      </trkpt>
      <trkpt lat="43.49458" lon="6.73756">
        <ele>80.26506</ele>
        <time>2011-01-21 14:03:54Z</time>
      </trkpt>
      <trkpt lat="43.49458" lon="6.73756">
        <ele>80.26506</ele>
        <time>2011-01-21 14:03:58Z</time>
      </trkpt>
      <trkpt lat="43.49458" lon="6.73756">
        <ele>80.26506</ele>
        <time>2011-01-21 14:04:02Z</time>
      </trkpt>
      <trkpt lat="43.49466" lon="6.73762">
        <ele>81.265091</ele>
        <time>2011-01-21 14:04:06Z</time>
      </trkpt>
      <trkpt lat="43.49471" lon="6.73766">
        <ele>83.265106</ele>
        <time>2011-01-21 14:04:10Z</time>
      </trkpt>
      <trkpt lat="43.49471" lon="6.73766">
        <ele>83.265106</ele>
        <time>2011-01-21 14:04:14Z</time>
      </trkpt>
      <trkpt lat="43.49471" lon="6.73766">
        <ele>83.265106</ele>
        <time>2011-01-21 14:04:18Z</time>
      </trkpt>
      <trkpt lat="43.49479" lon="6.73772">
        <ele>83.265137</ele>
        <time>2011-01-21 14:04:24Z</time>
      </trkpt>
      <trkpt lat="43.49484" lon="6.73776">
        <ele>83.265152</ele>
        <time>2011-01-21 14:04:26Z</time>
      </trkpt>
      <trkpt lat="43.49485" lon="6.73777">
        <ele>84.26516</ele>
        <time>2011-01-21 14:04:30Z</time>
      </trkpt>
      <trkpt lat="43.4949" lon="6.7378">
        <ele>85.265175</ele>
        <time>2011-01-21 14:04:34Z</time>
      </trkpt>
      <trkpt lat="43.49492" lon="6.73781">
        <ele>85.265175</ele>
        <time>2011-01-21 14:04:38Z</time>
      </trkpt>
      <trkpt lat="43.49497" lon="6.73784">
        <ele>85.265198</ele>
        <time>2011-01-21 14:04:42Z</time>
      </trkpt>
      <trkpt lat="43.49498" lon="6.73785">
        <ele>85.265198</ele>
        <time>2011-01-21 14:04:46Z</time>
      </trkpt>
      <trkpt lat="43.49498" lon="6.73785">
        <ele>85.265198</ele>
        <time>2011-01-21 14:04:50Z</time>
      </trkpt>
      <trkpt lat="43.49507" lon="6.73787">
        <ele>84.265213</ele>
        <time>2011-01-21 14:04:54Z</time>
      </trkpt>
      <trkpt lat="43.49508" lon="6.73789">
        <ele>84.265221</ele>
        <time>2011-01-21 14:04:58Z</time>
      </trkpt>
      <trkpt lat="43.49509" lon="6.7379">
        <ele>86.265228</ele>
        <time>2011-01-21 14:05:02Z</time>
      </trkpt>
      <trkpt lat="43.49509" lon="6.7379">
        <ele>86.265228</ele>
        <time>2011-01-21 14:05:06Z</time>
      </trkpt>
      <trkpt lat="43.49509" lon="6.7379">
        <ele>86.265228</ele>
        <time>2011-01-21 14:05:10Z</time>
      </trkpt>
      <trkpt lat="43.49509" lon="6.7379">
        <ele>86.265228</ele>
        <time>2011-01-21 14:05:14Z</time>
      </trkpt>
      <trkpt lat="43.49509" lon="6.7379">
        <ele>86.265228</ele>
        <time>2011-01-21 14:05:18Z</time>
      </trkpt>
      <trkpt lat="43.4952" lon="6.73796">
        <ele>89.265259</ele>
        <time>2011-01-21 14:05:22Z</time>
      </trkpt>
      <trkpt lat="43.49521" lon="6.73796">
        <ele>90.265259</ele>
        <time>2011-01-21 14:05:26Z</time>
      </trkpt>
      <trkpt lat="43.49522" lon="6.73797">
        <ele>90.265266</ele>
        <time>2011-01-21 14:05:30Z</time>
      </trkpt>
      <trkpt lat="43.49522" lon="6.73797">
        <ele>90.265266</ele>
        <time>2011-01-21 14:05:34Z</time>
      </trkpt>
      <trkpt lat="43.49527" lon="6.738">
        <ele>92.265274</ele>
        <time>2011-01-21 14:05:38Z</time>
      </trkpt>
      <trkpt lat="43.4953" lon="6.73801">
        <ele>93.265289</ele>
        <time>2011-01-21 14:05:42Z</time>
      </trkpt>
      <trkpt lat="43.4953" lon="6.73801">
        <ele>93.265289</ele>
        <time>2011-01-21 14:05:46Z</time>
      </trkpt>
      <trkpt lat="43.4953" lon="6.73801">
        <ele>93.265289</ele>
        <time>2011-01-21 14:05:50Z</time>
      </trkpt>
      <trkpt lat="43.49535" lon="6.73803">
        <ele>94.265297</ele>
        <time>2011-01-21 14:05:54Z</time>
      </trkpt>
      <trkpt lat="43.49537" lon="6.73805">
        <ele>95.265305</ele>
        <time>2011-01-21 14:05:58Z</time>
      </trkpt>
      <trkpt lat="43.49538" lon="6.73806">
        <ele>95.265305</ele>
        <time>2011-01-21 14:06:02Z</time>
      </trkpt>
      <trkpt lat="43.49541" lon="6.73808">
        <ele>95.26532</ele>
        <time>2011-01-21 14:06:06Z</time>
      </trkpt>
      <trkpt lat="43.49545" lon="6.73812">
        <ele>97.265335</ele>
        <time>2011-01-21 14:06:10Z</time>
      </trkpt>
      <trkpt lat="43.49545" lon="6.73812">
        <ele>97.265335</ele>
        <time>2011-01-21 14:06:14Z</time>
      </trkpt>
      <trkpt lat="43.49545" lon="6.73812">
        <ele>97.265335</ele>
        <time>2011-01-21 14:06:18Z</time>
      </trkpt>
      <trkpt lat="43.49556" lon="6.73816">
        <ele>98.265358</ele>
        <time>2011-01-21 14:06:22Z</time>
      </trkpt>
      <trkpt lat="43.49561" lon="6.73818">
        <ele>99.265373</ele>
        <time>2011-01-21 14:06:26Z</time>
      </trkpt>
      <trkpt lat="43.49565" lon="6.73819">
        <ele>100.265381</ele>
        <time>2011-01-21 14:06:30Z</time>
      </trkpt>
      <trkpt lat="43.49567" lon="6.7382">
        <ele>100.265388</ele>
        <time>2011-01-21 14:06:34Z</time>
      </trkpt>
      <trkpt lat="43.49572" lon="6.73822">
        <ele>98.265404</ele>
        <time>2011-01-21 14:06:38Z</time>
      </trkpt>
      <trkpt lat="43.49574" lon="6.73824">
        <ele>95.265411</ele>
        <time>2011-01-21 14:06:42Z</time>
      </trkpt>
      <trkpt lat="43.49575" lon="6.73825">
        <ele>95.265411</ele>
        <time>2011-01-21 14:06:46Z</time>
      </trkpt>
      <trkpt lat="43.49579" lon="6.73828">
        <ele>96.265427</ele>
        <time>2011-01-21 14:06:50Z</time>
      </trkpt>
      <trkpt lat="43.49579" lon="6.73828">
        <ele>96.265427</ele>
        <time>2011-01-21 14:06:54Z</time>
      </trkpt>
      <trkpt lat="43.49583" lon="6.73831">
        <ele>96.265442</ele>
        <time>2011-01-21 14:06:58Z</time>
      </trkpt>
      <trkpt lat="43.49587" lon="6.73833">
        <ele>96.26545</ele>
        <time>2011-01-21 14:07:02Z</time>
      </trkpt>
      <trkpt lat="43.49587" lon="6.73833">
        <ele>96.26545</ele>
        <time>2011-01-21 14:07:06Z</time>
      </trkpt>
      <trkpt lat="43.49591" lon="6.73836">
        <ele>97.265465</ele>
        <time>2011-01-21 14:07:10Z</time>
      </trkpt>
      <trkpt lat="43.49594" lon="6.73837">
        <ele>97.265472</ele>
        <time>2011-01-21 14:07:14Z</time>
      </trkpt>
      <trkpt lat="43.49594" lon="6.73837">
        <ele>97.265472</ele>
        <time>2011-01-21 14:07:18Z</time>
      </trkpt>
      <trkpt lat="43.49603" lon="6.7384">
        <ele>97.265495</ele>
        <time>2011-01-21 14:07:22Z</time>
      </trkpt>
      <trkpt lat="43.49608" lon="6.73842">
        <ele>97.265503</ele>
        <time>2011-01-21 14:07:26Z</time>
      </trkpt>
      <trkpt lat="43.49609" lon="6.73842">
        <ele>97.265503</ele>
        <time>2011-01-21 14:07:30Z</time>
      </trkpt>
      <trkpt lat="43.4962" lon="6.73848">
        <ele>97.265533</ele>
        <time>2011-01-21 14:07:34Z</time>
      </trkpt>
      <trkpt lat="43.49627" lon="6.73851">
        <ele>97.265556</ele>
        <time>2011-01-21 14:07:38Z</time>
      </trkpt>
      <trkpt lat="43.49627" lon="6.73851">
        <ele>97.265556</ele>
        <time>2011-01-21 14:07:42Z</time>
      </trkpt>
      <trkpt lat="43.49641" lon="6.73856">
        <ele>98.265594</ele>
        <time>2011-01-21 14:07:46Z</time>
      </trkpt>
      <trkpt lat="43.49644" lon="6.73856">
        <ele>98.265594</ele>
        <time>2011-01-21 14:07:50Z</time>
      </trkpt>
      <trkpt lat="43.49654" lon="6.7386">
        <ele>99.265625</ele>
        <time>2011-01-21 14:07:54Z</time>
      </trkpt>
      <trkpt lat="43.49654" lon="6.7386">
        <ele>99.265625</ele>
        <time>2011-01-21 14:07:58Z</time>
      </trkpt>
      <trkpt lat="43.49654" lon="6.7386">
        <ele>99.265625</ele>
        <time>2011-01-21 14:08:02Z</time>
      </trkpt>
      <trkpt lat="43.49664" lon="6.73859">
        <ele>100.265633</ele>
        <time>2011-01-21 14:08:06Z</time>
      </trkpt>
      <trkpt lat="43.49664" lon="6.73859">
        <ele>100.265633</ele>
        <time>2011-01-21 14:08:10Z</time>
      </trkpt>
      <trkpt lat="43.4967" lon="6.73858">
        <ele>100.265648</ele>
        <time>2011-01-21 14:08:14Z</time>
      </trkpt>
      <trkpt lat="43.4967" lon="6.73858">
        <ele>100.265648</ele>
        <time>2011-01-21 14:08:18Z</time>
      </trkpt>
      <trkpt lat="43.4967" lon="6.73858">
        <ele>100.265648</ele>
        <time>2011-01-21 14:08:22Z</time>
      </trkpt>
      <trkpt lat="43.49678" lon="6.73856">
        <ele>100.265656</ele>
        <time>2011-01-21 14:08:26Z</time>
      </trkpt>
      <trkpt lat="43.49685" lon="6.73855">
        <ele>99.265663</ele>
        <time>2011-01-21 14:08:30Z</time>
      </trkpt>
      <trkpt lat="43.49691" lon="6.73854">
        <ele>99.265671</ele>
        <time>2011-01-21 14:08:34Z</time>
      </trkpt>
      <trkpt lat="43.49697" lon="6.73854">
        <ele>99.265671</ele>
        <time>2011-01-21 14:08:38Z</time>
      </trkpt>
      <trkpt lat="43.49703" lon="6.73853">
        <ele>98.265686</ele>
        <time>2011-01-21 14:08:42Z</time>
      </trkpt>
      <trkpt lat="43.49707" lon="6.73853">
        <ele>99.265694</ele>
        <time>2011-01-21 14:08:46Z</time>
      </trkpt>
      <trkpt lat="43.4971" lon="6.73853">
        <ele>100.265701</ele>
        <time>2011-01-21 14:08:50Z</time>
      </trkpt>
      <trkpt lat="43.49717" lon="6.73852">
        <ele>100.265701</ele>
        <time>2011-01-21 14:08:54Z</time>
      </trkpt>
      <trkpt lat="43.49721" lon="6.73851">
        <ele>101.265709</ele>
        <time>2011-01-21 14:08:58Z</time>
      </trkpt>
      <trkpt lat="43.49723" lon="6.73851">
        <ele>101.265717</ele>
        <time>2011-01-21 14:09:02Z</time>
      </trkpt>
      <trkpt lat="43.4973" lon="6.73851">
        <ele>102.265724</ele>
        <time>2011-01-21 14:09:06Z</time>
      </trkpt>
      <trkpt lat="43.49731" lon="6.73851">
        <ele>102.265724</ele>
        <time>2011-01-21 14:09:10Z</time>
      </trkpt>
      <trkpt lat="43.49736" lon="6.7385">
        <ele>101.265732</ele>
        <time>2011-01-21 14:09:14Z</time>
      </trkpt>
      <trkpt lat="43.49742" lon="6.7385">
        <ele>102.265739</ele>
        <time>2011-01-21 14:09:18Z</time>
      </trkpt>
      <trkpt lat="43.49746" lon="6.7385">
        <ele>103.265747</ele>
        <time>2011-01-21 14:09:22Z</time>
      </trkpt>
      <trkpt lat="43.4975" lon="6.7385">
        <ele>103.265755</ele>
        <time>2011-01-21 14:09:26Z</time>
      </trkpt>
      <trkpt lat="43.49752" lon="6.7385">
        <ele>104.265755</ele>
        <time>2011-01-21 14:09:30Z</time>
      </trkpt>
      <trkpt lat="43.49756" lon="6.7385">
        <ele>104.265762</ele>
        <time>2011-01-21 14:09:34Z</time>
      </trkpt>
      <trkpt lat="43.49759" lon="6.7385">
        <ele>103.26577</ele>
        <time>2011-01-21 14:09:38Z</time>
      </trkpt>
      <trkpt lat="43.49759" lon="6.7385">
        <ele>103.26577</ele>
        <time>2011-01-21 14:09:42Z</time>
      </trkpt>
      <trkpt lat="43.49768" lon="6.7385">
        <ele>104.265778</ele>
        <time>2011-01-21 14:09:46Z</time>
      </trkpt>
      <trkpt lat="43.49773" lon="6.73849">
        <ele>105.265793</ele>
        <time>2011-01-21 14:09:50Z</time>
      </trkpt>
      <trkpt lat="43.49776" lon="6.73848">
        <ele>104.265793</ele>
        <time>2011-01-21 14:09:56Z</time>
      </trkpt>
      <trkpt lat="43.4978" lon="6.73846">
        <ele>104.2658</ele>
        <time>2011-01-21 14:09:58Z</time>
      </trkpt>
      <trkpt lat="43.4979" lon="6.73845">
        <ele>105.265808</ele>
        <time>2011-01-21 14:10:02Z</time>
      </trkpt>
      <trkpt lat="43.49792" lon="6.73844">
        <ele>105.265808</ele>
        <time>2011-01-21 14:10:06Z</time>
      </trkpt>
      <trkpt lat="43.49802" lon="6.73842">
        <ele>106.265823</ele>
        <time>2011-01-21 14:10:10Z</time>
      </trkpt>
      <trkpt lat="43.49806" lon="6.7384">
        <ele>106.265823</ele>
        <time>2011-01-21 14:10:14Z</time>
      </trkpt>
      <trkpt lat="43.4981" lon="6.73839">
        <ele>105.265831</ele>
        <time>2011-01-21 14:10:18Z</time>
      </trkpt>
      <trkpt lat="43.49812" lon="6.73839">
        <ele>105.265823</ele>
        <time>2011-01-21 14:10:22Z</time>
      </trkpt>
      <trkpt lat="43.49818" lon="6.73837">
        <ele>106.265839</ele>
        <time>2011-01-21 14:10:26Z</time>
      </trkpt>
      <trkpt lat="43.49821" lon="6.73836">
        <ele>104.265839</ele>
        <time>2011-01-21 14:10:30Z</time>
      </trkpt>
      <trkpt lat="43.49825" lon="6.73835">
        <ele>104.265839</ele>
        <time>2011-01-21 14:10:34Z</time>
      </trkpt>
      <trkpt lat="43.49829" lon="6.73834">
        <ele>104.265846</ele>
        <time>2011-01-21 14:10:38Z</time>
      </trkpt>
      <trkpt lat="43.4983" lon="6.73834">
        <ele>104.265854</ele>
        <time>2011-01-21 14:10:42Z</time>
      </trkpt>
      <trkpt lat="43.49837" lon="6.73835">
        <ele>104.265862</ele>
        <time>2011-01-21 14:10:46Z</time>
      </trkpt>
      <trkpt lat="43.49837" lon="6.73835">
        <ele>104.265862</ele>
        <time>2011-01-21 14:10:50Z</time>
      </trkpt>
      <trkpt lat="43.49841" lon="6.73836">
        <ele>103.265869</ele>
        <time>2011-01-21 14:10:54Z</time>
      </trkpt>
      <trkpt lat="43.49844" lon="6.73837">
        <ele>104.265884</ele>
        <time>2011-01-21 14:10:58Z</time>
      </trkpt>
      <trkpt lat="43.49851" lon="6.73838">
        <ele>104.265892</ele>
        <time>2011-01-21 14:11:02Z</time>
      </trkpt>
      <trkpt lat="43.49855" lon="6.73837">
        <ele>104.2659</ele>
        <time>2011-01-21 14:11:06Z</time>
      </trkpt>
      <trkpt lat="43.4986" lon="6.73837">
        <ele>104.2659</ele>
        <time>2011-01-21 14:11:10Z</time>
      </trkpt>
      <trkpt lat="43.49865" lon="6.73836">
        <ele>105.265907</ele>
        <time>2011-01-21 14:11:14Z</time>
      </trkpt>
      <trkpt lat="43.49865" lon="6.73836">
        <ele>105.265907</ele>
        <time>2011-01-21 14:11:18Z</time>
      </trkpt>
      <trkpt lat="43.49876" lon="6.73833">
        <ele>107.265923</ele>
        <time>2011-01-21 14:11:22Z</time>
      </trkpt>
      <trkpt lat="43.4988" lon="6.73832">
        <ele>108.265923</ele>
        <time>2011-01-21 14:11:26Z</time>
      </trkpt>
      <trkpt lat="43.49884" lon="6.7383">
        <ele>108.26593</ele>
        <time>2011-01-21 14:11:30Z</time>
      </trkpt>
      <trkpt lat="43.49889" lon="6.73829">
        <ele>108.26593</ele>
        <time>2011-01-21 14:11:34Z</time>
      </trkpt>
      <trkpt lat="43.49893" lon="6.73828">
        <ele>108.265938</ele>
        <time>2011-01-21 14:11:38Z</time>
      </trkpt>
      <trkpt lat="43.49898" lon="6.73826">
        <ele>107.265945</ele>
        <time>2011-01-21 14:11:42Z</time>
      </trkpt>
      <trkpt lat="43.49903" lon="6.73825">
        <ele>106.265945</ele>
        <time>2011-01-21 14:11:46Z</time>
      </trkpt>
      <trkpt lat="43.49905" lon="6.73824">
        <ele>107.265945</ele>
        <time>2011-01-21 14:11:50Z</time>
      </trkpt>
      <trkpt lat="43.49915" lon="6.73819">
        <ele>107.265953</ele>
        <time>2011-01-21 14:11:54Z</time>
      </trkpt>
      <trkpt lat="43.49921" lon="6.73816">
        <ele>108.265961</ele>
        <time>2011-01-21 14:11:58Z</time>
      </trkpt>
      <trkpt lat="43.49926" lon="6.73814">
        <ele>108.265961</ele>
        <time>2011-01-21 14:12:02Z</time>
      </trkpt>
      <trkpt lat="43.49931" lon="6.73812">
        <ele>107.265961</ele>
        <time>2011-01-21 14:12:06Z</time>
      </trkpt>
      <trkpt lat="43.49935" lon="6.7381">
        <ele>106.265968</ele>
        <time>2011-01-21 14:12:10Z</time>
      </trkpt>
      <trkpt lat="43.49941" lon="6.73807">
        <ele>105.265968</ele>
        <time>2011-01-21 14:12:14Z</time>
      </trkpt>
      <trkpt lat="43.49943" lon="6.73803">
        <ele>105.265961</ele>
        <time>2011-01-21 14:12:18Z</time>
      </trkpt>
      <trkpt lat="43.49945" lon="6.73799">
        <ele>104.265961</ele>
        <time>2011-01-21 14:12:22Z</time>
      </trkpt>
      <trkpt lat="43.4995" lon="6.73795">
        <ele>102.265953</ele>
        <time>2011-01-21 14:12:26Z</time>
      </trkpt>
      <trkpt lat="43.49953" lon="6.73792">
        <ele>102.265953</ele>
        <time>2011-01-21 14:12:30Z</time>
      </trkpt>
      <trkpt lat="43.49953" lon="6.73792">
        <ele>102.265953</ele>
        <time>2011-01-21 14:12:34Z</time>
      </trkpt>
      <trkpt lat="43.49962" lon="6.73784">
        <ele>101.265953</ele>
        <time>2011-01-21 14:12:38Z</time>
      </trkpt>
      <trkpt lat="43.49966" lon="6.73781">
        <ele>102.265945</ele>
        <time>2011-01-21 14:12:42Z</time>
      </trkpt>
      <trkpt lat="43.4997" lon="6.73778">
        <ele>102.265953</ele>
        <time>2011-01-21 14:12:46Z</time>
      </trkpt>
      <trkpt lat="43.49973" lon="6.73775">
        <ele>101.265945</ele>
        <time>2011-01-21 14:12:50Z</time>
      </trkpt>
      <trkpt lat="43.49975" lon="6.73773">
        <ele>101.265945</ele>
        <time>2011-01-21 14:12:54Z</time>
      </trkpt>
      <trkpt lat="43.49979" lon="6.7377">
        <ele>104.265945</ele>
        <time>2011-01-21 14:12:58Z</time>
      </trkpt>
      <trkpt lat="43.49982" lon="6.73767">
        <ele>104.265945</ele>
        <time>2011-01-21 14:13:02Z</time>
      </trkpt>
      <trkpt lat="43.49983" lon="6.73767">
        <ele>104.265945</ele>
        <time>2011-01-21 14:13:06Z</time>
      </trkpt>
      <trkpt lat="43.4999" lon="6.73761">
        <ele>106.265945</ele>
        <time>2011-01-21 14:13:10Z</time>
      </trkpt>
      <trkpt lat="43.49992" lon="6.7376">
        <ele>106.265945</ele>
        <time>2011-01-21 14:13:14Z</time>
      </trkpt>
      <trkpt lat="43.49998" lon="6.73755">
        <ele>106.265945</ele>
        <time>2011-01-21 14:13:18Z</time>
      </trkpt>
      <trkpt lat="43.50004" lon="6.73751">
        <ele>106.265945</ele>
        <time>2011-01-21 14:13:22Z</time>
      </trkpt>
      <trkpt lat="43.50007" lon="6.73748">
        <ele>106.265945</ele>
        <time>2011-01-21 14:13:26Z</time>
      </trkpt>
      <trkpt lat="43.50012" lon="6.73743">
        <ele>105.265945</ele>
        <time>2011-01-21 14:13:30Z</time>
      </trkpt>
      <trkpt lat="43.50016" lon="6.73739">
        <ele>106.265938</ele>
        <time>2011-01-21 14:13:34Z</time>
      </trkpt>
      <trkpt lat="43.50018" lon="6.73737">
        <ele>106.265938</ele>
        <time>2011-01-21 14:13:38Z</time>
      </trkpt>
      <trkpt lat="43.50023" lon="6.73733">
        <ele>106.26593</ele>
        <time>2011-01-21 14:13:42Z</time>
      </trkpt>
      <trkpt lat="43.50023" lon="6.73733">
        <ele>106.26593</ele>
        <time>2011-01-21 14:13:46Z</time>
      </trkpt>
      <trkpt lat="43.50028" lon="6.7373">
        <ele>105.265945</ele>
        <time>2011-01-21 14:13:50Z</time>
      </trkpt>
      <trkpt lat="43.50028" lon="6.7373">
        <ele>105.265945</ele>
        <time>2011-01-21 14:13:54Z</time>
      </trkpt>
      <trkpt lat="43.50037" lon="6.73725">
        <ele>104.265945</ele>
        <time>2011-01-21 14:13:58Z</time>
      </trkpt>
      <trkpt lat="43.50045" lon="6.7372">
        <ele>106.265945</ele>
        <time>2011-01-21 14:14:02Z</time>
      </trkpt>
      <trkpt lat="43.50049" lon="6.73718">
        <ele>107.265945</ele>
        <time>2011-01-21 14:14:06Z</time>
      </trkpt>
      <trkpt lat="43.50053" lon="6.73716">
        <ele>109.265945</ele>
        <time>2011-01-21 14:14:10Z</time>
      </trkpt>
      <trkpt lat="43.50056" lon="6.73715">
        <ele>109.265953</ele>
        <time>2011-01-21 14:14:14Z</time>
      </trkpt>
      <trkpt lat="43.50062" lon="6.73714">
        <ele>110.265953</ele>
        <time>2011-01-21 14:14:18Z</time>
      </trkpt>
      <trkpt lat="43.50066" lon="6.73713">
        <ele>111.265961</ele>
        <time>2011-01-21 14:14:22Z</time>
      </trkpt>
      <trkpt lat="43.5007" lon="6.73712">
        <ele>112.265961</ele>
        <time>2011-01-21 14:14:26Z</time>
      </trkpt>
      <trkpt lat="43.50072" lon="6.73712">
        <ele>113.265968</ele>
        <time>2011-01-21 14:14:30Z</time>
      </trkpt>
      <trkpt lat="43.50073" lon="6.73711">
        <ele>113.265976</ele>
        <time>2011-01-21 14:14:34Z</time>
      </trkpt>
      <trkpt lat="43.50079" lon="6.73711">
        <ele>114.265984</ele>
        <time>2011-01-21 14:14:38Z</time>
      </trkpt>
      <trkpt lat="43.50082" lon="6.73711">
        <ele>114.265984</ele>
        <time>2011-01-21 14:14:42Z</time>
      </trkpt>
      <trkpt lat="43.50085" lon="6.73711">
        <ele>114.265991</ele>
        <time>2011-01-21 14:14:46Z</time>
      </trkpt>
      <trkpt lat="43.50085" lon="6.73711">
        <ele>114.265991</ele>
        <time>2011-01-21 14:14:50Z</time>
      </trkpt>
      <trkpt lat="43.50094" lon="6.73712">
        <ele>115.266006</ele>
        <time>2011-01-21 14:14:54Z</time>
      </trkpt>
      <trkpt lat="43.50098" lon="6.73713">
        <ele>114.266014</ele>
        <time>2011-01-21 14:14:58Z</time>
      </trkpt>
      <trkpt lat="43.501" lon="6.73714">
        <ele>114.266022</ele>
        <time>2011-01-21 14:15:02Z</time>
      </trkpt>
      <trkpt lat="43.50107" lon="6.73714">
        <ele>115.266029</ele>
        <time>2011-01-21 14:15:06Z</time>
      </trkpt>
      <trkpt lat="43.50111" lon="6.73714">
        <ele>114.266037</ele>
        <time>2011-01-21 14:15:10Z</time>
      </trkpt>
      <trkpt lat="43.50111" lon="6.73714">
        <ele>114.266037</ele>
        <time>2011-01-21 14:15:14Z</time>
      </trkpt>
      <trkpt lat="43.50124" lon="6.73714">
        <ele>114.266052</ele>
        <time>2011-01-21 14:15:18Z</time>
      </trkpt>
      <trkpt lat="43.50129" lon="6.73714">
        <ele>114.266068</ele>
        <time>2011-01-21 14:15:22Z</time>
      </trkpt>
      <trkpt lat="43.50129" lon="6.73714">
        <ele>114.266068</ele>
        <time>2011-01-21 14:15:26Z</time>
      </trkpt>
      <trkpt lat="43.50129" lon="6.73714">
        <ele>114.266068</ele>
        <time>2011-01-21 14:15:30Z</time>
      </trkpt>
      <trkpt lat="43.50142" lon="6.73714">
        <ele>115.26609</ele>
        <time>2011-01-21 14:15:34Z</time>
      </trkpt>
      <trkpt lat="43.50146" lon="6.73714">
        <ele>116.26609</ele>
        <time>2011-01-21 14:15:38Z</time>
      </trkpt>
      <trkpt lat="43.50147" lon="6.73714">
        <ele>116.266098</ele>
        <time>2011-01-21 14:15:42Z</time>
      </trkpt>
      <trkpt lat="43.50147" lon="6.73714">
        <ele>116.266098</ele>
        <time>2011-01-21 14:15:46Z</time>
      </trkpt>
      <trkpt lat="43.50158" lon="6.73715">
        <ele>118.266113</ele>
        <time>2011-01-21 14:15:50Z</time>
      </trkpt>
      <trkpt lat="43.50162" lon="6.73716">
        <ele>118.266129</ele>
        <time>2011-01-21 14:15:54Z</time>
      </trkpt>
      <trkpt lat="43.50162" lon="6.73716">
        <ele>118.266129</ele>
        <time>2011-01-21 14:15:58Z</time>
      </trkpt>
      <trkpt lat="43.50169" lon="6.73717">
        <ele>116.266144</ele>
        <time>2011-01-21 14:16:02Z</time>
      </trkpt>
      <trkpt lat="43.50171" lon="6.73717">
        <ele>116.266144</ele>
        <time>2011-01-21 14:16:06Z</time>
      </trkpt>
      <trkpt lat="43.50171" lon="6.73717">
        <ele>116.266144</ele>
        <time>2011-01-21 14:16:10Z</time>
      </trkpt>
      <trkpt lat="43.50179" lon="6.73717">
        <ele>115.266159</ele>
        <time>2011-01-21 14:16:14Z</time>
      </trkpt>
      <trkpt lat="43.50184" lon="6.73718">
        <ele>114.266167</ele>
        <time>2011-01-21 14:16:18Z</time>
      </trkpt>
      <trkpt lat="43.50188" lon="6.73718">
        <ele>115.266167</ele>
        <time>2011-01-21 14:16:22Z</time>
      </trkpt>
      <trkpt lat="43.50189" lon="6.73718">
        <ele>115.266174</ele>
        <time>2011-01-21 14:16:26Z</time>
      </trkpt>
      <trkpt lat="43.50198" lon="6.73719">
        <ele>112.26619</ele>
        <time>2011-01-21 14:16:30Z</time>
      </trkpt>
      <trkpt lat="43.50198" lon="6.73719">
        <ele>112.26619</ele>
        <time>2011-01-21 14:16:34Z</time>
      </trkpt>
      <trkpt lat="43.50198" lon="6.73719">
        <ele>112.26619</ele>
        <time>2011-01-21 14:16:38Z</time>
      </trkpt>
      <trkpt lat="43.50206" lon="6.73719">
        <ele>112.266205</ele>
        <time>2011-01-21 14:16:42Z</time>
      </trkpt>
      <trkpt lat="43.50208" lon="6.73716">
        <ele>111.266197</ele>
        <time>2011-01-21 14:16:46Z</time>
      </trkpt>
      <trkpt lat="43.5021" lon="6.73715">
        <ele>112.266205</ele>
        <time>2011-01-21 14:16:50Z</time>
      </trkpt>
      <trkpt lat="43.50213" lon="6.73715">
        <ele>113.266205</ele>
        <time>2011-01-21 14:16:54Z</time>
      </trkpt>
      <trkpt lat="43.50213" lon="6.73715">
        <ele>113.266205</ele>
        <time>2011-01-21 14:16:58Z</time>
      </trkpt>
      <trkpt lat="43.50215" lon="6.73714">
        <ele>113.266205</ele>
        <time>2011-01-21 14:17:02Z</time>
      </trkpt>
      <trkpt lat="43.50216" lon="6.73715">
        <ele>112.266212</ele>
        <time>2011-01-21 14:17:06Z</time>
      </trkpt>
      <trkpt lat="43.50217" lon="6.73715">
        <ele>111.266212</ele>
        <time>2011-01-21 14:17:10Z</time>
      </trkpt>
      <trkpt lat="43.50219" lon="6.73716">
        <ele>110.26622</ele>
        <time>2011-01-21 14:17:14Z</time>
      </trkpt>
      <trkpt lat="43.50223" lon="6.7372">
        <ele>111.266235</ele>
        <time>2011-01-21 14:17:18Z</time>
      </trkpt>
      <trkpt lat="43.50225" lon="6.73723">
        <ele>112.266243</ele>
        <time>2011-01-21 14:17:22Z</time>
      </trkpt>
      <trkpt lat="43.50228" lon="6.73728">
        <ele>111.266258</ele>
        <time>2011-01-21 14:17:26Z</time>
      </trkpt>
      <trkpt lat="43.50229" lon="6.73735">
        <ele>111.266281</ele>
        <time>2011-01-21 14:17:30Z</time>
      </trkpt>
      <trkpt lat="43.50229" lon="6.73743">
        <ele>111.266296</ele>
        <time>2011-01-21 14:17:34Z</time>
      </trkpt>
      <trkpt lat="43.50229" lon="6.73749">
        <ele>112.266312</ele>
        <time>2011-01-21 14:17:38Z</time>
      </trkpt>
      <trkpt lat="43.5023" lon="6.73756">
        <ele>113.266327</ele>
        <time>2011-01-21 14:17:42Z</time>
      </trkpt>
      <trkpt lat="43.50229" lon="6.73762">
        <ele>114.266335</ele>
        <time>2011-01-21 14:17:46Z</time>
      </trkpt>
      <trkpt lat="43.50229" lon="6.73768">
        <ele>114.26635</ele>
        <time>2011-01-21 14:17:50Z</time>
      </trkpt>
      <trkpt lat="43.50227" lon="6.73774">
        <ele>115.266365</ele>
        <time>2011-01-21 14:17:54Z</time>
      </trkpt>
      <trkpt lat="43.50225" lon="6.73781">
        <ele>115.266373</ele>
        <time>2011-01-21 14:17:58Z</time>
      </trkpt>
      <trkpt lat="43.50223" lon="6.73786">
        <ele>115.26638</ele>
        <time>2011-01-21 14:18:02Z</time>
      </trkpt>
      <trkpt lat="43.50223" lon="6.73786">
        <ele>115.26638</ele>
        <time>2011-01-21 14:18:06Z</time>
      </trkpt>
      <trkpt lat="43.50219" lon="6.73793">
        <ele>116.266388</ele>
        <time>2011-01-21 14:18:10Z</time>
      </trkpt>
      <trkpt lat="43.50217" lon="6.73801">
        <ele>116.266403</ele>
        <time>2011-01-21 14:18:14Z</time>
      </trkpt>
      <trkpt lat="43.50216" lon="6.73807">
        <ele>116.266418</ele>
        <time>2011-01-21 14:18:18Z</time>
      </trkpt>
      <trkpt lat="43.50215" lon="6.73813">
        <ele>116.266426</ele>
        <time>2011-01-21 14:18:22Z</time>
      </trkpt>
      <trkpt lat="43.50214" lon="6.73818">
        <ele>115.266441</ele>
        <time>2011-01-21 14:18:26Z</time>
      </trkpt>
      <trkpt lat="43.50214" lon="6.73824">
        <ele>115.266449</ele>
        <time>2011-01-21 14:18:30Z</time>
      </trkpt>
      <trkpt lat="43.50214" lon="6.73829">
        <ele>114.266464</ele>
        <time>2011-01-21 14:18:34Z</time>
      </trkpt>
      <trkpt lat="43.50216" lon="6.73835">
        <ele>115.266479</ele>
        <time>2011-01-21 14:18:38Z</time>
      </trkpt>
      <trkpt lat="43.50217" lon="6.73841">
        <ele>115.266495</ele>
        <time>2011-01-21 14:18:42Z</time>
      </trkpt>
      <trkpt lat="43.50218" lon="6.73848">
        <ele>115.26651</ele>
        <time>2011-01-21 14:18:46Z</time>
      </trkpt>
      <trkpt lat="43.50219" lon="6.73854">
        <ele>115.266533</ele>
        <time>2011-01-21 14:18:50Z</time>
      </trkpt>
      <trkpt lat="43.50219" lon="6.73856">
        <ele>114.266533</ele>
        <time>2011-01-21 14:18:54Z</time>
      </trkpt>
      <trkpt lat="43.50223" lon="6.73867">
        <ele>112.266563</ele>
        <time>2011-01-21 14:18:58Z</time>
      </trkpt>
      <trkpt lat="43.50225" lon="6.73874">
        <ele>112.266586</ele>
        <time>2011-01-21 14:19:02Z</time>
      </trkpt>
      <trkpt lat="43.50227" lon="6.73881">
        <ele>113.266602</ele>
        <time>2011-01-21 14:19:06Z</time>
      </trkpt>
      <trkpt lat="43.50227" lon="6.73881">
        <ele>113.266602</ele>
        <time>2011-01-21 14:19:10Z</time>
      </trkpt>
      <trkpt lat="43.5023" lon="6.73893">
        <ele>113.266632</ele>
        <time>2011-01-21 14:19:14Z</time>
      </trkpt>
      <trkpt lat="43.50232" lon="6.73898">
        <ele>115.266647</ele>
        <time>2011-01-21 14:19:18Z</time>
      </trkpt>
      <trkpt lat="43.50234" lon="6.73902">
        <ele>116.266655</ele>
        <time>2011-01-21 14:19:22Z</time>
      </trkpt>
      <trkpt lat="43.50234" lon="6.73903">
        <ele>116.266663</ele>
        <time>2011-01-21 14:19:26Z</time>
      </trkpt>
      <trkpt lat="43.50237" lon="6.7391">
        <ele>116.266685</ele>
        <time>2011-01-21 14:19:30Z</time>
      </trkpt>
      <trkpt lat="43.50239" lon="6.73915">
        <ele>117.266693</ele>
        <time>2011-01-21 14:19:34Z</time>
      </trkpt>
      <trkpt lat="43.50241" lon="6.7392">
        <ele>117.266716</ele>
        <time>2011-01-21 14:19:38Z</time>
      </trkpt>
      <trkpt lat="43.50243" lon="6.73924">
        <ele>117.266724</ele>
        <time>2011-01-21 14:19:42Z</time>
      </trkpt>
      <trkpt lat="43.50246" lon="6.73929">
        <ele>117.266739</ele>
        <time>2011-01-21 14:19:46Z</time>
      </trkpt>
      <trkpt lat="43.50248" lon="6.73932">
        <ele>118.266747</ele>
        <time>2011-01-21 14:19:50Z</time>
      </trkpt>
      <trkpt lat="43.50251" lon="6.73938">
        <ele>119.266769</ele>
        <time>2011-01-21 14:19:54Z</time>
      </trkpt>
      <trkpt lat="43.50252" lon="6.73943">
        <ele>120.266785</ele>
        <time>2011-01-21 14:19:58Z</time>
      </trkpt>
      <trkpt lat="43.50253" lon="6.73948">
        <ele>119.2668</ele>
        <time>2011-01-21 14:20:02Z</time>
      </trkpt>
      <trkpt lat="43.50255" lon="6.73953">
        <ele>120.266815</ele>
        <time>2011-01-21 14:20:06Z</time>
      </trkpt>
      <trkpt lat="43.50256" lon="6.73958">
        <ele>121.266823</ele>
        <time>2011-01-21 14:20:10Z</time>
      </trkpt>
      <trkpt lat="43.50256" lon="6.73963">
        <ele>121.266838</ele>
        <time>2011-01-21 14:20:14Z</time>
      </trkpt>
      <trkpt lat="43.50256" lon="6.73968">
        <ele>121.266846</ele>
        <time>2011-01-21 14:20:18Z</time>
      </trkpt>
      <trkpt lat="43.50256" lon="6.73973">
        <ele>121.266861</ele>
        <time>2011-01-21 14:20:22Z</time>
      </trkpt>
      <trkpt lat="43.50256" lon="6.73978">
        <ele>122.266861</ele>
        <time>2011-01-21 14:20:26Z</time>
      </trkpt>
      <trkpt lat="43.50257" lon="6.73982">
        <ele>122.266876</ele>
        <time>2011-01-21 14:20:30Z</time>
      </trkpt>
      <trkpt lat="43.50257" lon="6.73988">
        <ele>122.266891</ele>
        <time>2011-01-21 14:20:34Z</time>
      </trkpt>
      <trkpt lat="43.50257" lon="6.73992">
        <ele>123.266907</ele>
        <time>2011-01-21 14:20:38Z</time>
      </trkpt>
      <trkpt lat="43.50257" lon="6.73995">
        <ele>123.266907</ele>
        <time>2011-01-21 14:20:42Z</time>
      </trkpt>
      <trkpt lat="43.50258" lon="6.74003">
        <ele>123.266922</ele>
        <time>2011-01-21 14:20:46Z</time>
      </trkpt>
      <trkpt lat="43.50258" lon="6.74008">
        <ele>123.266937</ele>
        <time>2011-01-21 14:20:50Z</time>
      </trkpt>
      <trkpt lat="43.50259" lon="6.74014">
        <ele>124.26696</ele>
        <time>2011-01-21 14:20:54Z</time>
      </trkpt>
      <trkpt lat="43.50259" lon="6.74021">
        <ele>123.266968</ele>
        <time>2011-01-21 14:20:58Z</time>
      </trkpt>
      <trkpt lat="43.50258" lon="6.74027">
        <ele>123.266975</ele>
        <time>2011-01-21 14:21:02Z</time>
      </trkpt>
      <trkpt lat="43.50258" lon="6.74035">
        <ele>123.266998</ele>
        <time>2011-01-21 14:21:06Z</time>
      </trkpt>
      <trkpt lat="43.50258" lon="6.74038">
        <ele>123.267006</ele>
        <time>2011-01-21 14:21:10Z</time>
      </trkpt>
      <trkpt lat="43.50258" lon="6.74048">
        <ele>124.267029</ele>
        <time>2011-01-21 14:21:14Z</time>
      </trkpt>
      <trkpt lat="43.50259" lon="6.74053">
        <ele>124.267044</ele>
        <time>2011-01-21 14:21:18Z</time>
      </trkpt>
      <trkpt lat="43.50259" lon="6.74055">
        <ele>124.267044</ele>
        <time>2011-01-21 14:21:22Z</time>
      </trkpt>
      <trkpt lat="43.50262" lon="6.74064">
        <ele>125.267075</ele>
        <time>2011-01-21 14:21:26Z</time>
      </trkpt>
      <trkpt lat="43.50264" lon="6.74069">
        <ele>128.26709</ele>
        <time>2011-01-21 14:21:30Z</time>
      </trkpt>
      <trkpt lat="43.50267" lon="6.74073">
        <ele>129.26709</ele>
        <time>2011-01-21 14:21:34Z</time>
      </trkpt>
      <trkpt lat="43.5027" lon="6.74077">
        <ele>130.26712</ele>
        <time>2011-01-21 14:21:38Z</time>
      </trkpt>
      <trkpt lat="43.50273" lon="6.7408">
        <ele>130.26712</ele>
        <time>2011-01-21 14:21:42Z</time>
      </trkpt>
      <trkpt lat="43.50275" lon="6.74083">
        <ele>130.267136</ele>
        <time>2011-01-21 14:21:46Z</time>
      </trkpt>
      <trkpt lat="43.50279" lon="6.74086">
        <ele>131.267151</ele>
        <time>2011-01-21 14:21:50Z</time>
      </trkpt>
      <trkpt lat="43.50281" lon="6.7409">
        <ele>131.267151</ele>
        <time>2011-01-21 14:21:54Z</time>
      </trkpt>
      <trkpt lat="43.50284" lon="6.74093">
        <ele>131.267181</ele>
        <time>2011-01-21 14:21:58Z</time>
      </trkpt>
      <trkpt lat="43.50286" lon="6.74096">
        <ele>132.267181</ele>
        <time>2011-01-21 14:22:02Z</time>
      </trkpt>
      <trkpt lat="43.50289" lon="6.74098">
        <ele>132.267197</ele>
        <time>2011-01-21 14:22:06Z</time>
      </trkpt>
      <trkpt lat="43.5029" lon="6.741">
        <ele>132.267197</ele>
        <time>2011-01-21 14:22:10Z</time>
      </trkpt>
      <trkpt lat="43.50294" lon="6.74104">
        <ele>133.267212</ele>
        <time>2011-01-21 14:22:14Z</time>
      </trkpt>
      <trkpt lat="43.50296" lon="6.74108">
        <ele>133.267227</ele>
        <time>2011-01-21 14:22:18Z</time>
      </trkpt>
      <trkpt lat="43.50298" lon="6.74111">
        <ele>134.267242</ele>
        <time>2011-01-21 14:22:22Z</time>
      </trkpt>
      <trkpt lat="43.503" lon="6.74114">
        <ele>134.267242</ele>
        <time>2011-01-21 14:22:26Z</time>
      </trkpt>
      <trkpt lat="43.50303" lon="6.74118">
        <ele>135.267258</ele>
        <time>2011-01-21 14:22:30Z</time>
      </trkpt>
      <trkpt lat="43.50305" lon="6.74122">
        <ele>136.267273</ele>
        <time>2011-01-21 14:22:34Z</time>
      </trkpt>
      <trkpt lat="43.50306" lon="6.74125">
        <ele>136.267273</ele>
        <time>2011-01-21 14:22:38Z</time>
      </trkpt>
      <trkpt lat="43.50307" lon="6.74127">
        <ele>136.267288</ele>
        <time>2011-01-21 14:22:42Z</time>
      </trkpt>
      <trkpt lat="43.50311" lon="6.74132">
        <ele>137.267303</ele>
        <time>2011-01-21 14:22:46Z</time>
      </trkpt>
      <trkpt lat="43.50313" lon="6.74136">
        <ele>137.267319</ele>
        <time>2011-01-21 14:22:50Z</time>
      </trkpt>
      <trkpt lat="43.50314" lon="6.74139">
        <ele>138.267334</ele>
        <time>2011-01-21 14:22:54Z</time>
      </trkpt>
      <trkpt lat="43.50316" lon="6.74143">
        <ele>138.267334</ele>
        <time>2011-01-21 14:22:58Z</time>
      </trkpt>
      <trkpt lat="43.50318" lon="6.74147">
        <ele>139.267349</ele>
        <time>2011-01-21 14:23:02Z</time>
      </trkpt>
      <trkpt lat="43.50318" lon="6.74147">
        <ele>139.267349</ele>
        <time>2011-01-21 14:23:06Z</time>
      </trkpt>
      <trkpt lat="43.50324" lon="6.74157">
        <ele>139.26738</ele>
        <time>2011-01-21 14:23:10Z</time>
      </trkpt>
      <trkpt lat="43.50325" lon="6.7416">
        <ele>140.267395</ele>
        <time>2011-01-21 14:23:14Z</time>
      </trkpt>
      <trkpt lat="43.50328" lon="6.74166">
        <ele>141.26741</ele>
        <time>2011-01-21 14:23:18Z</time>
      </trkpt>
      <trkpt lat="43.50329" lon="6.74168">
        <ele>141.26741</ele>
        <time>2011-01-21 14:23:22Z</time>
      </trkpt>
      <trkpt lat="43.50332" lon="6.74173">
        <ele>140.267426</ele>
        <time>2011-01-21 14:23:26Z</time>
      </trkpt>
      <trkpt lat="43.50335" lon="6.74176">
        <ele>141.267441</ele>
        <time>2011-01-21 14:23:30Z</time>
      </trkpt>
      <trkpt lat="43.50337" lon="6.74178">
        <ele>141.267441</ele>
        <time>2011-01-21 14:23:34Z</time>
      </trkpt>
      <trkpt lat="43.50338" lon="6.7418">
        <ele>141.267456</ele>
        <time>2011-01-21 14:23:38Z</time>
      </trkpt>
      <trkpt lat="43.5034" lon="6.74182">
        <ele>142.267456</ele>
        <time>2011-01-21 14:23:42Z</time>
      </trkpt>
      <trkpt lat="43.50341" lon="6.74184">
        <ele>142.267471</ele>
        <time>2011-01-21 14:23:46Z</time>
      </trkpt>
      <trkpt lat="43.50343" lon="6.74186">
        <ele>142.267487</ele>
        <time>2011-01-21 14:23:50Z</time>
      </trkpt>
      <trkpt lat="43.50347" lon="6.74191">
        <ele>143.267487</ele>
        <time>2011-01-21 14:23:54Z</time>
      </trkpt>
      <trkpt lat="43.50348" lon="6.74193">
        <ele>142.267502</ele>
        <time>2011-01-21 14:23:58Z</time>
      </trkpt>
      <trkpt lat="43.50351" lon="6.74197">
        <ele>143.267517</ele>
        <time>2011-01-21 14:24:02Z</time>
      </trkpt>
      <trkpt lat="43.50353" lon="6.74199">
        <ele>144.267517</ele>
        <time>2011-01-21 14:24:06Z</time>
      </trkpt>
      <trkpt lat="43.50354" lon="6.742">
        <ele>144.267532</ele>
        <time>2011-01-21 14:24:10Z</time>
      </trkpt>
      <trkpt lat="43.50357" lon="6.74202">
        <ele>145.267532</ele>
        <time>2011-01-21 14:24:14Z</time>
      </trkpt>
      <trkpt lat="43.50358" lon="6.74204">
        <ele>146.267548</ele>
        <time>2011-01-21 14:24:18Z</time>
      </trkpt>
      <trkpt lat="43.50359" lon="6.74205">
        <ele>147.267548</ele>
        <time>2011-01-21 14:24:22Z</time>
      </trkpt>
      <trkpt lat="43.50361" lon="6.74208">
        <ele>148.267548</ele>
        <time>2011-01-21 14:24:26Z</time>
      </trkpt>
      <trkpt lat="43.50363" lon="6.74209">
        <ele>151.267563</ele>
        <time>2011-01-21 14:24:30Z</time>
      </trkpt>
      <trkpt lat="43.50364" lon="6.7421">
        <ele>151.267563</ele>
        <time>2011-01-21 14:24:34Z</time>
      </trkpt>
      <trkpt lat="43.50364" lon="6.7421">
        <ele>151.267563</ele>
        <time>2011-01-21 14:24:38Z</time>
      </trkpt>
      <trkpt lat="43.50365" lon="6.7421">
        <ele>154.267578</ele>
        <time>2011-01-21 14:24:42Z</time>
      </trkpt>
      <trkpt lat="43.50364" lon="6.74211">
        <ele>156.267563</ele>
        <time>2011-01-21 14:24:54Z</time>
      </trkpt>
      <trkpt lat="43.50362" lon="6.7421">
        <ele>154.267563</ele>
        <time>2011-01-21 14:24:56Z</time>
      </trkpt>
      <trkpt lat="43.50361" lon="6.74211">
        <ele>155.267563</ele>
        <time>2011-01-21 14:25:00Z</time>
      </trkpt>
      <trkpt lat="43.50361" lon="6.74211">
        <ele>155.267563</ele>
        <time>2011-01-21 14:25:04Z</time>
      </trkpt>
      <trkpt lat="43.50361" lon="6.74211">
        <ele>156.267563</ele>
        <time>2011-01-21 14:25:09Z</time>
      </trkpt>
      <trkpt lat="43.50363" lon="6.74212">
        <ele>159.267563</ele>
        <time>2011-01-21 14:25:17Z</time>
      </trkpt>
      <trkpt lat="43.50362" lon="6.74212">
        <ele>159.267563</ele>
        <time>2011-01-21 14:25:22Z</time>
      </trkpt>
      <trkpt lat="43.50361" lon="6.74211">
        <ele>159.267563</ele>
        <time>2011-01-21 14:25:24Z</time>
      </trkpt>
      <trkpt lat="43.5036" lon="6.74211">
        <ele>159.267563</ele>
        <time>2011-01-21 14:25:28Z</time>
      </trkpt>
      <trkpt lat="43.5036" lon="6.74211">
        <ele>160.267563</ele>
        <time>2011-01-21 14:25:32Z</time>
      </trkpt>
      <trkpt lat="43.50364" lon="6.74211">
        <ele>159.267578</ele>
        <time>2011-01-21 14:25:36Z</time>
      </trkpt>
      <trkpt lat="43.50367" lon="6.74211">
        <ele>159.267578</ele>
        <time>2011-01-21 14:25:40Z</time>
      </trkpt>
      <trkpt lat="43.50368" lon="6.7421">
        <ele>159.267578</ele>
        <time>2011-01-21 14:25:44Z</time>
      </trkpt>
      <trkpt lat="43.50372" lon="6.74206">
        <ele>157.267578</ele>
        <time>2011-01-21 14:25:48Z</time>
      </trkpt>
      <trkpt lat="43.50372" lon="6.74201">
        <ele>156.267548</ele>
        <time>2011-01-21 14:25:52Z</time>
      </trkpt>
      <trkpt lat="43.50371" lon="6.74196">
        <ele>155.267548</ele>
        <time>2011-01-21 14:25:56Z</time>
      </trkpt>
      <trkpt lat="43.50371" lon="6.74196">
        <ele>155.267548</ele>
        <time>2011-01-21 14:26:00Z</time>
      </trkpt>
      <trkpt lat="43.50367" lon="6.74181">
        <ele>151.267502</ele>
        <time>2011-01-21 14:26:04Z</time>
      </trkpt>
      <trkpt lat="43.50365" lon="6.74175">
        <ele>151.267487</ele>
        <time>2011-01-21 14:26:08Z</time>
      </trkpt>
      <trkpt lat="43.50365" lon="6.74172">
        <ele>151.267487</ele>
        <time>2011-01-21 14:26:12Z</time>
      </trkpt>
      <trkpt lat="43.50365" lon="6.74162">
        <ele>150.267456</ele>
        <time>2011-01-21 14:26:16Z</time>
      </trkpt>
      <trkpt lat="43.50366" lon="6.74157">
        <ele>150.267456</ele>
        <time>2011-01-21 14:26:20Z</time>
      </trkpt>
      <trkpt lat="43.50366" lon="6.74155">
        <ele>151.267441</ele>
        <time>2011-01-21 14:26:24Z</time>
      </trkpt>
      <trkpt lat="43.50366" lon="6.74153">
        <ele>150.267441</ele>
        <time>2011-01-21 14:26:28Z</time>
      </trkpt>
      <trkpt lat="43.50367" lon="6.7415">
        <ele>147.267426</ele>
        <time>2011-01-21 14:26:32Z</time>
      </trkpt>
      <trkpt lat="43.50367" lon="6.74149">
        <ele>147.267426</ele>
        <time>2011-01-21 14:26:36Z</time>
      </trkpt>
      <trkpt lat="43.50369" lon="6.74144">
        <ele>147.267426</ele>
        <time>2011-01-21 14:26:40Z</time>
      </trkpt>
      <trkpt lat="43.5037" lon="6.74139">
        <ele>148.26741</ele>
        <time>2011-01-21 14:26:44Z</time>
      </trkpt>
      <trkpt lat="43.50371" lon="6.74134">
        <ele>148.26741</ele>
        <time>2011-01-21 14:26:48Z</time>
      </trkpt>
      <trkpt lat="43.50371" lon="6.74131">
        <ele>148.267395</ele>
        <time>2011-01-21 14:26:52Z</time>
      </trkpt>
      <trkpt lat="43.50371" lon="6.74125">
        <ele>146.26738</ele>
        <time>2011-01-21 14:26:56Z</time>
      </trkpt>
      <trkpt lat="43.50371" lon="6.74125">
        <ele>146.26738</ele>
        <time>2011-01-21 14:27:00Z</time>
      </trkpt>
      <trkpt lat="43.5037" lon="6.74114">
        <ele>143.267365</ele>
        <time>2011-01-21 14:27:04Z</time>
      </trkpt>
      <trkpt lat="43.50369" lon="6.74109">
        <ele>142.267334</ele>
        <time>2011-01-21 14:27:08Z</time>
      </trkpt>
      <trkpt lat="43.50367" lon="6.74103">
        <ele>141.267334</ele>
        <time>2011-01-21 14:27:12Z</time>
      </trkpt>
      <trkpt lat="43.50367" lon="6.74102">
        <ele>141.267319</ele>
        <time>2011-01-21 14:27:16Z</time>
      </trkpt>
      <trkpt lat="43.50362" lon="6.7409">
        <ele>141.267288</ele>
        <time>2011-01-21 14:27:20Z</time>
      </trkpt>
      <trkpt lat="43.5036" lon="6.74085">
        <ele>139.267273</ele>
        <time>2011-01-21 14:27:24Z</time>
      </trkpt>
      <trkpt lat="43.50357" lon="6.74079">
        <ele>137.267258</ele>
        <time>2011-01-21 14:27:28Z</time>
      </trkpt>
      <trkpt lat="43.50356" lon="6.74073">
        <ele>137.267242</ele>
        <time>2011-01-21 14:27:32Z</time>
      </trkpt>
      <trkpt lat="43.50355" lon="6.74071">
        <ele>136.267242</ele>
        <time>2011-01-21 14:27:36Z</time>
      </trkpt>
      <trkpt lat="43.50354" lon="6.74059">
        <ele>136.267212</ele>
        <time>2011-01-21 14:27:40Z</time>
      </trkpt>
      <trkpt lat="43.50355" lon="6.74053">
        <ele>136.267197</ele>
        <time>2011-01-21 14:27:44Z</time>
      </trkpt>
      <trkpt lat="43.50356" lon="6.74051">
        <ele>136.267197</ele>
        <time>2011-01-21 14:27:48Z</time>
      </trkpt>
      <trkpt lat="43.50361" lon="6.74043">
        <ele>136.267181</ele>
        <time>2011-01-21 14:27:52Z</time>
      </trkpt>
      <trkpt lat="43.50364" lon="6.7404">
        <ele>137.267181</ele>
        <time>2011-01-21 14:27:56Z</time>
      </trkpt>
      <trkpt lat="43.50367" lon="6.74037">
        <ele>138.267181</ele>
        <time>2011-01-21 14:28:00Z</time>
      </trkpt>
      <trkpt lat="43.5037" lon="6.74031">
        <ele>141.267181</ele>
        <time>2011-01-21 14:28:04Z</time>
      </trkpt>
      <trkpt lat="43.50374" lon="6.74026">
        <ele>141.267166</ele>
        <time>2011-01-21 14:28:08Z</time>
      </trkpt>
      <trkpt lat="43.50374" lon="6.74026">
        <ele>141.267166</ele>
        <time>2011-01-21 14:28:12Z</time>
      </trkpt>
      <trkpt lat="43.5038" lon="6.74016">
        <ele>142.267151</ele>
        <time>2011-01-21 14:28:16Z</time>
      </trkpt>
      <trkpt lat="43.50383" lon="6.74012">
        <ele>143.267151</ele>
        <time>2011-01-21 14:28:20Z</time>
      </trkpt>
      <trkpt lat="43.50385" lon="6.74009">
        <ele>143.267151</ele>
        <time>2011-01-21 14:28:24Z</time>
      </trkpt>
      <trkpt lat="43.50389" lon="6.74005">
        <ele>143.267151</ele>
        <time>2011-01-21 14:28:28Z</time>
      </trkpt>
      <trkpt lat="43.50392" lon="6.74001">
        <ele>143.267136</ele>
        <time>2011-01-21 14:28:32Z</time>
      </trkpt>
      <trkpt lat="43.50395" lon="6.73997">
        <ele>143.267136</ele>
        <time>2011-01-21 14:28:36Z</time>
      </trkpt>
      <trkpt lat="43.50398" lon="6.73992">
        <ele>144.26712</ele>
        <time>2011-01-21 14:28:40Z</time>
      </trkpt>
      <trkpt lat="43.50398" lon="6.73991">
        <ele>144.26712</ele>
        <time>2011-01-21 14:28:44Z</time>
      </trkpt>
      <trkpt lat="43.50403" lon="6.73982">
        <ele>143.26712</ele>
        <time>2011-01-21 14:28:48Z</time>
      </trkpt>
      <trkpt lat="43.50406" lon="6.73977">
        <ele>143.267105</ele>
        <time>2011-01-21 14:28:52Z</time>
      </trkpt>
      <trkpt lat="43.50408" lon="6.73972">
        <ele>144.267105</ele>
        <time>2011-01-21 14:28:56Z</time>
      </trkpt>
      <trkpt lat="43.5041" lon="6.73969">
        <ele>144.26709</ele>
        <time>2011-01-21 14:29:00Z</time>
      </trkpt>
      <trkpt lat="43.50414" lon="6.73964">
        <ele>142.26709</ele>
        <time>2011-01-21 14:29:04Z</time>
      </trkpt>
      <trkpt lat="43.50416" lon="6.7396">
        <ele>142.26709</ele>
        <time>2011-01-21 14:29:08Z</time>
      </trkpt>
      <trkpt lat="43.50418" lon="6.73958">
        <ele>141.26709</ele>
        <time>2011-01-21 14:29:12Z</time>
      </trkpt>
      <trkpt lat="43.50419" lon="6.73957">
        <ele>141.26709</ele>
        <time>2011-01-21 14:29:16Z</time>
      </trkpt>
      <trkpt lat="43.50422" lon="6.73953">
        <ele>140.26709</ele>
        <time>2011-01-21 14:29:20Z</time>
      </trkpt>
      <trkpt lat="43.50428" lon="6.73951">
        <ele>138.26709</ele>
        <time>2011-01-21 14:29:24Z</time>
      </trkpt>
      <trkpt lat="43.50432" lon="6.7395">
        <ele>137.26709</ele>
        <time>2011-01-21 14:29:28Z</time>
      </trkpt>
      <trkpt lat="43.50438" lon="6.73948">
        <ele>136.26709</ele>
        <time>2011-01-21 14:29:32Z</time>
      </trkpt>
      <trkpt lat="43.50444" lon="6.73946">
        <ele>136.267105</ele>
        <time>2011-01-21 14:29:36Z</time>
      </trkpt>
      <trkpt lat="43.50448" lon="6.73943">
        <ele>136.26709</ele>
        <time>2011-01-21 14:29:40Z</time>
      </trkpt>
      <trkpt lat="43.50452" lon="6.7394">
        <ele>137.267105</ele>
        <time>2011-01-21 14:29:44Z</time>
      </trkpt>
      <trkpt lat="43.50456" lon="6.73935">
        <ele>137.26709</ele>
        <time>2011-01-21 14:29:48Z</time>
      </trkpt>
      <trkpt lat="43.50457" lon="6.73934">
        <ele>137.26709</ele>
        <time>2011-01-21 14:29:52Z</time>
      </trkpt>
      <trkpt lat="43.50463" lon="6.73928">
        <ele>138.26709</ele>
        <time>2011-01-21 14:29:56Z</time>
      </trkpt>
      <trkpt lat="43.50467" lon="6.73924">
        <ele>138.26709</ele>
        <time>2011-01-21 14:30:00Z</time>
      </trkpt>
      <trkpt lat="43.50467" lon="6.73924">
        <ele>138.26709</ele>
        <time>2011-01-21 14:30:04Z</time>
      </trkpt>
      <trkpt lat="43.50474" lon="6.73919">
        <ele>138.26709</ele>
        <time>2011-01-21 14:30:08Z</time>
      </trkpt>
      <trkpt lat="43.50477" lon="6.73917">
        <ele>138.26709</ele>
        <time>2011-01-21 14:30:12Z</time>
      </trkpt>
      <trkpt lat="43.5048" lon="6.73916">
        <ele>139.26709</ele>
        <time>2011-01-21 14:30:16Z</time>
      </trkpt>
      <trkpt lat="43.5048" lon="6.73916">
        <ele>139.26709</ele>
        <time>2011-01-21 14:30:20Z</time>
      </trkpt>
      <trkpt lat="43.5048" lon="6.73916">
        <ele>139.26709</ele>
        <time>2011-01-21 14:30:24Z</time>
      </trkpt>
      <trkpt lat="43.5048" lon="6.73916">
        <ele>139.26709</ele>
        <time>2011-01-21 14:30:28Z</time>
      </trkpt>
      <trkpt lat="43.50492" lon="6.73913">
        <ele>140.26712</ele>
        <time>2011-01-21 14:30:32Z</time>
      </trkpt>
      <trkpt lat="43.50494" lon="6.73913">
        <ele>140.267105</ele>
        <time>2011-01-21 14:30:36Z</time>
      </trkpt>
      <trkpt lat="43.50498" lon="6.73913">
        <ele>141.26712</ele>
        <time>2011-01-21 14:30:40Z</time>
      </trkpt>
      <trkpt lat="43.50501" lon="6.73913">
        <ele>141.26712</ele>
        <time>2011-01-21 14:30:44Z</time>
      </trkpt>
      <trkpt lat="43.50505" lon="6.73911">
        <ele>141.26712</ele>
        <time>2011-01-21 14:30:48Z</time>
      </trkpt>
      <trkpt lat="43.50507" lon="6.7391">
        <ele>141.26712</ele>
        <time>2011-01-21 14:30:52Z</time>
      </trkpt>
      <trkpt lat="43.50509" lon="6.73909">
        <ele>141.26712</ele>
        <time>2011-01-21 14:30:56Z</time>
      </trkpt>
      <trkpt lat="43.50515" lon="6.73903">
        <ele>142.26712</ele>
        <time>2011-01-21 14:31:00Z</time>
      </trkpt>
      <trkpt lat="43.50518" lon="6.73899">
        <ele>141.26712</ele>
        <time>2011-01-21 14:31:04Z</time>
      </trkpt>
      <trkpt lat="43.5052" lon="6.73897">
        <ele>141.26712</ele>
        <time>2011-01-21 14:31:08Z</time>
      </trkpt>
      <trkpt lat="43.50523" lon="6.7389">
        <ele>141.267105</ele>
        <time>2011-01-21 14:31:12Z</time>
      </trkpt>
      <trkpt lat="43.50525" lon="6.73885">
        <ele>140.26709</ele>
        <time>2011-01-21 14:31:16Z</time>
      </trkpt>
      <trkpt lat="43.50525" lon="6.73884">
        <ele>139.26709</ele>
        <time>2011-01-21 14:31:20Z</time>
      </trkpt>
      <trkpt lat="43.50527" lon="6.73881">
        <ele>137.26709</ele>
        <time>2011-01-21 14:31:24Z</time>
      </trkpt>
      <trkpt lat="43.50528" lon="6.73878">
        <ele>137.26709</ele>
        <time>2011-01-21 14:31:28Z</time>
      </trkpt>
      <trkpt lat="43.50529" lon="6.73874">
        <ele>137.26709</ele>
        <time>2011-01-21 14:31:32Z</time>
      </trkpt>
      <trkpt lat="43.5053" lon="6.73869">
        <ele>136.267059</ele>
        <time>2011-01-21 14:31:36Z</time>
      </trkpt>
      <trkpt lat="43.50531" lon="6.73866">
        <ele>136.267059</ele>
        <time>2011-01-21 14:31:40Z</time>
      </trkpt>
      <trkpt lat="43.50531" lon="6.73863">
        <ele>136.267059</ele>
        <time>2011-01-21 14:31:44Z</time>
      </trkpt>
      <trkpt lat="43.50531" lon="6.7386">
        <ele>136.267044</ele>
        <time>2011-01-21 14:31:48Z</time>
      </trkpt>
      <trkpt lat="43.50532" lon="6.73854">
        <ele>136.267029</ele>
        <time>2011-01-21 14:31:52Z</time>
      </trkpt>
      <trkpt lat="43.50533" lon="6.73848">
        <ele>135.267029</ele>
        <time>2011-01-21 14:31:56Z</time>
      </trkpt>
      <trkpt lat="43.50533" lon="6.73843">
        <ele>134.267029</ele>
        <time>2011-01-21 14:32:00Z</time>
      </trkpt>
      <trkpt lat="43.50534" lon="6.73838">
        <ele>134.266998</ele>
        <time>2011-01-21 14:32:04Z</time>
      </trkpt>
      <trkpt lat="43.50537" lon="6.73833">
        <ele>132.266998</ele>
        <time>2011-01-21 14:32:08Z</time>
      </trkpt>
      <trkpt lat="43.50539" lon="6.73828">
        <ele>131.266998</ele>
        <time>2011-01-21 14:32:12Z</time>
      </trkpt>
      <trkpt lat="43.5054" lon="6.73826">
        <ele>131.266998</ele>
        <time>2011-01-21 14:32:16Z</time>
      </trkpt>
      <trkpt lat="43.5054" lon="6.73826">
        <ele>131.266998</ele>
        <time>2011-01-21 14:32:20Z</time>
      </trkpt>
      <trkpt lat="43.50543" lon="6.73816">
        <ele>130.266968</ele>
        <time>2011-01-21 14:32:24Z</time>
      </trkpt>
      <trkpt lat="43.50544" lon="6.73812">
        <ele>129.266968</ele>
        <time>2011-01-21 14:32:28Z</time>
      </trkpt>
      <trkpt lat="43.50544" lon="6.73809">
        <ele>128.266953</ele>
        <time>2011-01-21 14:32:32Z</time>
      </trkpt>
      <trkpt lat="43.50546" lon="6.73807">
        <ele>127.266953</ele>
        <time>2011-01-21 14:32:36Z</time>
      </trkpt>
      <trkpt lat="43.50548" lon="6.73804">
        <ele>127.266953</ele>
        <time>2011-01-21 14:32:40Z</time>
      </trkpt>
      <trkpt lat="43.50549" lon="6.73803">
        <ele>127.266953</ele>
        <time>2011-01-21 14:32:44Z</time>
      </trkpt>
      <trkpt lat="43.5055" lon="6.73801">
        <ele>127.266953</ele>
        <time>2011-01-21 14:32:48Z</time>
      </trkpt>
      <trkpt lat="43.50551" lon="6.73799">
        <ele>127.266945</ele>
        <time>2011-01-21 14:32:52Z</time>
      </trkpt>
      <trkpt lat="43.50551" lon="6.73797">
        <ele>127.266945</ele>
        <time>2011-01-21 14:32:56Z</time>
      </trkpt>
      <trkpt lat="43.50551" lon="6.73797">
        <ele>127.266945</ele>
        <time>2011-01-21 14:33:00Z</time>
      </trkpt>
      <trkpt lat="43.50552" lon="6.73795">
        <ele>127.266937</ele>
        <time>2011-01-21 14:33:04Z</time>
      </trkpt>
      <trkpt lat="43.50552" lon="6.73794">
        <ele>127.266937</ele>
        <time>2011-01-21 14:33:08Z</time>
      </trkpt>
      <trkpt lat="43.50552" lon="6.73793">
        <ele>128.266937</ele>
        <time>2011-01-21 14:33:12Z</time>
      </trkpt>
      <trkpt lat="43.50553" lon="6.73792">
        <ele>131.266937</ele>
        <time>2011-01-21 14:33:16Z</time>
      </trkpt>
      <trkpt lat="43.50553" lon="6.73791">
        <ele>132.266937</ele>
        <time>2011-01-21 14:33:20Z</time>
      </trkpt>
      <trkpt lat="43.50553" lon="6.7379">
        <ele>133.266937</ele>
        <time>2011-01-21 14:33:24Z</time>
      </trkpt>
      <trkpt lat="43.50554" lon="6.73788">
        <ele>133.266922</ele>
        <time>2011-01-21 14:33:28Z</time>
      </trkpt>
      <trkpt lat="43.50554" lon="6.73786">
        <ele>133.266922</ele>
        <time>2011-01-21 14:33:32Z</time>
      </trkpt>
      <trkpt lat="43.50554" lon="6.73785">
        <ele>133.266922</ele>
        <time>2011-01-21 14:33:36Z</time>
      </trkpt>
      <trkpt lat="43.50554" lon="6.73785">
        <ele>133.266922</ele>
        <time>2011-01-21 14:33:40Z</time>
      </trkpt>
      <trkpt lat="43.50555" lon="6.7378">
        <ele>132.266907</ele>
        <time>2011-01-21 14:33:44Z</time>
      </trkpt>
      <trkpt lat="43.50556" lon="6.73776">
        <ele>129.266907</ele>
        <time>2011-01-21 14:33:48Z</time>
      </trkpt>
      <trkpt lat="43.50556" lon="6.73776">
        <ele>129.266907</ele>
        <time>2011-01-21 14:33:52Z</time>
      </trkpt>
      <trkpt lat="43.50557" lon="6.7377">
        <ele>125.266891</ele>
        <time>2011-01-21 14:33:56Z</time>
      </trkpt>
      <trkpt lat="43.50557" lon="6.73767">
        <ele>124.266884</ele>
        <time>2011-01-21 14:34:00Z</time>
      </trkpt>
      <trkpt lat="43.50557" lon="6.73765">
        <ele>124.266884</ele>
        <time>2011-01-21 14:34:04Z</time>
      </trkpt>
      <trkpt lat="43.50558" lon="6.73761">
        <ele>122.266876</ele>
        <time>2011-01-21 14:34:08Z</time>
      </trkpt>
      <trkpt lat="43.50559" lon="6.73759">
        <ele>121.266869</ele>
        <time>2011-01-21 14:34:12Z</time>
      </trkpt>
      <trkpt lat="43.5056" lon="6.73756">
        <ele>120.266861</ele>
        <time>2011-01-21 14:34:16Z</time>
      </trkpt>
      <trkpt lat="43.50561" lon="6.73753">
        <ele>120.266861</ele>
        <time>2011-01-21 14:34:20Z</time>
      </trkpt>
      <trkpt lat="43.50562" lon="6.73749">
        <ele>119.266853</ele>
        <time>2011-01-21 14:34:24Z</time>
      </trkpt>
      <trkpt lat="43.50565" lon="6.73742">
        <ele>118.266838</ele>
        <time>2011-01-21 14:34:28Z</time>
      </trkpt>
      <trkpt lat="43.50565" lon="6.73741">
        <ele>118.266838</ele>
        <time>2011-01-21 14:34:32Z</time>
      </trkpt>
      <trkpt lat="43.50568" lon="6.73736">
        <ele>116.26683</ele>
        <time>2011-01-21 14:34:36Z</time>
      </trkpt>
      <trkpt lat="43.50569" lon="6.73733">
        <ele>116.26683</ele>
        <time>2011-01-21 14:34:40Z</time>
      </trkpt>
      <trkpt lat="43.50569" lon="6.73731">
        <ele>115.266823</ele>
        <time>2011-01-21 14:34:44Z</time>
      </trkpt>
      <trkpt lat="43.5057" lon="6.73721">
        <ele>114.2668</ele>
        <time>2011-01-21 14:34:48Z</time>
      </trkpt>
      <trkpt lat="43.50571" lon="6.73714">
        <ele>113.266785</ele>
        <time>2011-01-21 14:34:52Z</time>
      </trkpt>
      <trkpt lat="43.50571" lon="6.73714">
        <ele>113.266785</ele>
        <time>2011-01-21 14:34:56Z</time>
      </trkpt>
      <trkpt lat="43.50572" lon="6.73707">
        <ele>111.266777</ele>
        <time>2011-01-21 14:35:00Z</time>
      </trkpt>
      <trkpt lat="43.50573" lon="6.73702">
        <ele>110.266762</ele>
        <time>2011-01-21 14:35:04Z</time>
      </trkpt>
      <trkpt lat="43.50573" lon="6.73702">
        <ele>110.266762</ele>
        <time>2011-01-21 14:35:08Z</time>
      </trkpt>
      <trkpt lat="43.50573" lon="6.73702">
        <ele>110.266762</ele>
        <time>2011-01-21 14:35:12Z</time>
      </trkpt>
      <trkpt lat="43.50573" lon="6.73702">
        <ele>110.266762</ele>
        <time>2011-01-21 14:35:16Z</time>
      </trkpt>
      <trkpt lat="43.50573" lon="6.73702">
        <ele>110.266762</ele>
        <time>2011-01-21 14:35:20Z</time>
      </trkpt>
      <trkpt lat="43.50578" lon="6.73686">
        <ele>101.266739</ele>
        <time>2011-01-21 14:35:24Z</time>
      </trkpt>
      <trkpt lat="43.50578" lon="6.73686">
        <ele>101.266739</ele>
        <time>2011-01-21 14:35:28Z</time>
      </trkpt>
      <trkpt lat="43.50582" lon="6.73678">
        <ele>103.266724</ele>
        <time>2011-01-21 14:35:32Z</time>
      </trkpt>
      <trkpt lat="43.50584" lon="6.73673">
        <ele>104.266716</ele>
        <time>2011-01-21 14:35:36Z</time>
      </trkpt>
      <trkpt lat="43.50585" lon="6.73671">
        <ele>105.266716</ele>
        <time>2011-01-21 14:35:40Z</time>
      </trkpt>
      <trkpt lat="43.50588" lon="6.73664">
        <ele>105.266701</ele>
        <time>2011-01-21 14:35:44Z</time>
      </trkpt>
      <trkpt lat="43.50589" lon="6.73659">
        <ele>105.266693</ele>
        <time>2011-01-21 14:35:48Z</time>
      </trkpt>
      <trkpt lat="43.50591" lon="6.73655">
        <ele>105.266685</ele>
        <time>2011-01-21 14:35:52Z</time>
      </trkpt>
      <trkpt lat="43.50591" lon="6.73655">
        <ele>105.266685</ele>
        <time>2011-01-21 14:35:56Z</time>
      </trkpt>
      <trkpt lat="43.50594" lon="6.73647">
        <ele>105.266678</ele>
        <time>2011-01-21 14:36:00Z</time>
      </trkpt>
      <trkpt lat="43.50595" lon="6.73645">
        <ele>105.26667</ele>
        <time>2011-01-21 14:36:04Z</time>
      </trkpt>
      <trkpt lat="43.50598" lon="6.73636">
        <ele>104.266655</ele>
        <time>2011-01-21 14:36:08Z</time>
      </trkpt>
      <trkpt lat="43.50599" lon="6.73629">
        <ele>104.266647</ele>
        <time>2011-01-21 14:36:12Z</time>
      </trkpt>
      <trkpt lat="43.506" lon="6.73623">
        <ele>104.266632</ele>
        <time>2011-01-21 14:36:16Z</time>
      </trkpt>
      <trkpt lat="43.506" lon="6.73623">
        <ele>104.266632</ele>
        <time>2011-01-21 14:36:20Z</time>
      </trkpt>
      <trkpt lat="43.50603" lon="6.73614">
        <ele>102.266617</ele>
        <time>2011-01-21 14:36:24Z</time>
      </trkpt>
      <trkpt lat="43.50605" lon="6.73606">
        <ele>101.266602</ele>
        <time>2011-01-21 14:36:28Z</time>
      </trkpt>
      <trkpt lat="43.50606" lon="6.73603">
        <ele>102.266602</ele>
        <time>2011-01-21 14:36:32Z</time>
      </trkpt>
      <trkpt lat="43.50607" lon="6.73598">
        <ele>103.266586</ele>
        <time>2011-01-21 14:36:36Z</time>
      </trkpt>
      <trkpt lat="43.50608" lon="6.73591">
        <ele>104.266571</ele>
        <time>2011-01-21 14:36:40Z</time>
      </trkpt>
      <trkpt lat="43.50609" lon="6.73587">
        <ele>104.266571</ele>
        <time>2011-01-21 14:36:44Z</time>
      </trkpt>
      <trkpt lat="43.50612" lon="6.7358">
        <ele>104.266556</ele>
        <time>2011-01-21 14:36:48Z</time>
      </trkpt>
      <trkpt lat="43.50614" lon="6.73575">
        <ele>105.266541</ele>
        <time>2011-01-21 14:36:52Z</time>
      </trkpt>
      <trkpt lat="43.50615" lon="6.73569">
        <ele>105.266533</ele>
        <time>2011-01-21 14:36:56Z</time>
      </trkpt>
      <trkpt lat="43.50617" lon="6.73566">
        <ele>105.266525</ele>
        <time>2011-01-21 14:37:00Z</time>
      </trkpt>
      <trkpt lat="43.50617" lon="6.7356">
        <ele>105.266518</ele>
        <time>2011-01-21 14:37:04Z</time>
      </trkpt>
      <trkpt lat="43.50618" lon="6.73557">
        <ele>105.26651</ele>
        <time>2011-01-21 14:37:08Z</time>
      </trkpt>
      <trkpt lat="43.50618" lon="6.73553">
        <ele>104.266502</ele>
        <time>2011-01-21 14:37:12Z</time>
      </trkpt>
      <trkpt lat="43.50617" lon="6.73552">
        <ele>104.266495</ele>
        <time>2011-01-21 14:37:16Z</time>
      </trkpt>
      <trkpt lat="43.50617" lon="6.73545">
        <ele>101.266487</ele>
        <time>2011-01-21 14:37:20Z</time>
      </trkpt>
      <trkpt lat="43.50617" lon="6.73541">
        <ele>101.266479</ele>
        <time>2011-01-21 14:37:24Z</time>
      </trkpt>
      <trkpt lat="43.50617" lon="6.73537">
        <ele>100.266464</ele>
        <time>2011-01-21 14:37:28Z</time>
      </trkpt>
      <trkpt lat="43.50617" lon="6.73523">
        <ele>99.266434</ele>
        <time>2011-01-21 14:37:32Z</time>
      </trkpt>
      <trkpt lat="43.50617" lon="6.73519">
        <ele>100.266426</ele>
        <time>2011-01-21 14:37:36Z</time>
      </trkpt>
      <trkpt lat="43.50617" lon="6.73514">
        <ele>100.266411</ele>
        <time>2011-01-21 14:37:40Z</time>
      </trkpt>
      <trkpt lat="43.50617" lon="6.73512">
        <ele>99.266403</ele>
        <time>2011-01-21 14:37:44Z</time>
      </trkpt>
      <trkpt lat="43.50617" lon="6.73505">
        <ele>98.266396</ele>
        <time>2011-01-21 14:37:48Z</time>
      </trkpt>
      <trkpt lat="43.50617" lon="6.73502">
        <ele>99.266388</ele>
        <time>2011-01-21 14:37:52Z</time>
      </trkpt>
      <trkpt lat="43.50617" lon="6.73498">
        <ele>98.26638</ele>
        <time>2011-01-21 14:37:56Z</time>
      </trkpt>
      <trkpt lat="43.50618" lon="6.73494">
        <ele>97.266373</ele>
        <time>2011-01-21 14:38:00Z</time>
      </trkpt>
      <trkpt lat="43.50618" lon="6.73493">
        <ele>97.266365</ele>
        <time>2011-01-21 14:38:04Z</time>
      </trkpt>
      <trkpt lat="43.50618" lon="6.73485">
        <ele>97.266342</ele>
        <time>2011-01-21 14:38:08Z</time>
      </trkpt>
      <trkpt lat="43.50618" lon="6.73479">
        <ele>97.266335</ele>
        <time>2011-01-21 14:38:12Z</time>
      </trkpt>
      <trkpt lat="43.50618" lon="6.73475">
        <ele>97.266327</ele>
        <time>2011-01-21 14:38:16Z</time>
      </trkpt>
      <trkpt lat="43.50617" lon="6.73471">
        <ele>96.266319</ele>
        <time>2011-01-21 14:38:20Z</time>
      </trkpt>
      <trkpt lat="43.50616" lon="6.73466">
        <ele>95.266304</ele>
        <time>2011-01-21 14:38:24Z</time>
      </trkpt>
      <trkpt lat="43.50617" lon="6.73463">
        <ele>95.266296</ele>
        <time>2011-01-21 14:38:28Z</time>
      </trkpt>
      <trkpt lat="43.50617" lon="6.73463">
        <ele>95.266304</ele>
        <time>2011-01-21 14:38:32Z</time>
      </trkpt>
      <trkpt lat="43.50617" lon="6.73463">
        <ele>95.266304</ele>
        <time>2011-01-21 14:38:36Z</time>
      </trkpt>
      <trkpt lat="43.50617" lon="6.73463">
        <ele>95.266304</ele>
        <time>2011-01-21 14:38:40Z</time>
      </trkpt>
      <trkpt lat="43.50617" lon="6.73463">
        <ele>95.266304</ele>
        <time>2011-01-21 14:38:44Z</time>
      </trkpt>
      <trkpt lat="43.50624" lon="6.73457">
        <ele>91.266296</ele>
        <time>2011-01-21 14:38:48Z</time>
      </trkpt>
      <trkpt lat="43.50624" lon="6.73457">
        <ele>91.266296</ele>
        <time>2011-01-21 14:38:52Z</time>
      </trkpt>
      <trkpt lat="43.50624" lon="6.73457">
        <ele>91.266296</ele>
        <time>2011-01-21 14:38:56Z</time>
      </trkpt>
      <trkpt lat="43.50626" lon="6.73448">
        <ele>93.266281</ele>
        <time>2011-01-21 14:39:00Z</time>
      </trkpt>
      <trkpt lat="43.50626" lon="6.73446">
        <ele>93.266273</ele>
        <time>2011-01-21 14:39:04Z</time>
      </trkpt>
      <trkpt lat="43.50627" lon="6.73445">
        <ele>93.266273</ele>
        <time>2011-01-21 14:39:08Z</time>
      </trkpt>
      <trkpt lat="43.50627" lon="6.7344">
        <ele>93.266266</ele>
        <time>2011-01-21 14:39:12Z</time>
      </trkpt>
      <trkpt lat="43.50627" lon="6.73437">
        <ele>92.266258</ele>
        <time>2011-01-21 14:39:16Z</time>
      </trkpt>
      <trkpt lat="43.50628" lon="6.73435">
        <ele>91.266251</ele>
        <time>2011-01-21 14:39:20Z</time>
      </trkpt>
      <trkpt lat="43.50628" lon="6.73433">
        <ele>90.266251</ele>
        <time>2011-01-21 14:39:24Z</time>
      </trkpt>
      <trkpt lat="43.50628" lon="6.73431">
        <ele>90.266251</ele>
        <time>2011-01-21 14:39:28Z</time>
      </trkpt>
      <trkpt lat="43.50629" lon="6.73428">
        <ele>90.266235</ele>
        <time>2011-01-21 14:39:32Z</time>
      </trkpt>
      <trkpt lat="43.50629" lon="6.73421">
        <ele>90.266228</ele>
        <time>2011-01-21 14:39:36Z</time>
      </trkpt>
      <trkpt lat="43.50629" lon="6.73419">
        <ele>91.26622</ele>
        <time>2011-01-21 14:39:40Z</time>
      </trkpt>
      <trkpt lat="43.5063" lon="6.73416">
        <ele>90.266212</ele>
        <time>2011-01-21 14:39:44Z</time>
      </trkpt>
      <trkpt lat="43.5063" lon="6.73415">
        <ele>90.266212</ele>
        <time>2011-01-21 14:39:48Z</time>
      </trkpt>
      <trkpt lat="43.50631" lon="6.73414">
        <ele>89.266212</ele>
        <time>2011-01-21 14:39:52Z</time>
      </trkpt>
      <trkpt lat="43.50632" lon="6.73411">
        <ele>88.266205</ele>
        <time>2011-01-21 14:39:56Z</time>
      </trkpt>
      <trkpt lat="43.50633" lon="6.7341">
        <ele>88.266205</ele>
        <time>2011-01-21 14:40:00Z</time>
      </trkpt>
      <trkpt lat="43.50633" lon="6.73407">
        <ele>88.266197</ele>
        <time>2011-01-21 14:40:04Z</time>
      </trkpt>
      <trkpt lat="43.50634" lon="6.73404">
        <ele>88.26619</ele>
        <time>2011-01-21 14:40:08Z</time>
      </trkpt>
      <trkpt lat="43.50636" lon="6.734">
        <ele>86.26619</ele>
        <time>2011-01-21 14:40:12Z</time>
      </trkpt>
      <trkpt lat="43.50637" lon="6.73396">
        <ele>85.266182</ele>
        <time>2011-01-21 14:40:16Z</time>
      </trkpt>
      <trkpt lat="43.50638" lon="6.73393">
        <ele>84.266174</ele>
        <time>2011-01-21 14:40:20Z</time>
      </trkpt>
      <trkpt lat="43.5064" lon="6.73389">
        <ele>83.266174</ele>
        <time>2011-01-21 14:40:24Z</time>
      </trkpt>
      <trkpt lat="43.50641" lon="6.73384">
        <ele>83.266159</ele>
        <time>2011-01-21 14:40:28Z</time>
      </trkpt>
      <trkpt lat="43.50644" lon="6.73378">
        <ele>82.266151</ele>
        <time>2011-01-21 14:40:32Z</time>
      </trkpt>
      <trkpt lat="43.50644" lon="6.73378">
        <ele>82.266151</ele>
        <time>2011-01-21 14:40:36Z</time>
      </trkpt>
      <trkpt lat="43.50647" lon="6.73367">
        <ele>83.266129</ele>
        <time>2011-01-21 14:40:40Z</time>
      </trkpt>
      <trkpt lat="43.50649" lon="6.73362">
        <ele>83.266129</ele>
        <time>2011-01-21 14:40:44Z</time>
      </trkpt>
      <trkpt lat="43.50649" lon="6.7336">
        <ele>82.266121</ele>
        <time>2011-01-21 14:40:48Z</time>
      </trkpt>
      <trkpt lat="43.5065" lon="6.73355">
        <ele>80.266113</ele>
        <time>2011-01-21 14:40:52Z</time>
      </trkpt>
      <trkpt lat="43.50651" lon="6.73351">
        <ele>81.266106</ele>
        <time>2011-01-21 14:40:56Z</time>
      </trkpt>
      <trkpt lat="43.50652" lon="6.73349">
        <ele>83.266098</ele>
        <time>2011-01-21 14:41:00Z</time>
      </trkpt>
      <trkpt lat="43.50651" lon="6.73348">
        <ele>84.266098</ele>
        <time>2011-01-21 14:41:04Z</time>
      </trkpt>
      <trkpt lat="43.50652" lon="6.73346">
        <ele>86.266098</ele>
        <time>2011-01-21 14:41:08Z</time>
      </trkpt>
      <trkpt lat="43.50652" lon="6.73346">
        <ele>86.266098</ele>
        <time>2011-01-21 14:41:12Z</time>
      </trkpt>
      <trkpt lat="43.50656" lon="6.73346">
        <ele>87.266098</ele>
        <time>2011-01-21 14:41:16Z</time>
      </trkpt>
      <trkpt lat="43.50659" lon="6.73346">
        <ele>88.266106</ele>
        <time>2011-01-21 14:41:20Z</time>
      </trkpt>
      <trkpt lat="43.50659" lon="6.73346">
        <ele>88.266106</ele>
        <time>2011-01-21 14:41:24Z</time>
      </trkpt>
      <trkpt lat="43.50664" lon="6.73344">
        <ele>88.266106</ele>
        <time>2011-01-21 14:41:28Z</time>
      </trkpt>
      <trkpt lat="43.50667" lon="6.73339">
        <ele>89.266106</ele>
        <time>2011-01-21 14:41:32Z</time>
      </trkpt>
      <trkpt lat="43.50671" lon="6.73331">
        <ele>88.26609</ele>
        <time>2011-01-21 14:41:36Z</time>
      </trkpt>
      <trkpt lat="43.50673" lon="6.73326">
        <ele>89.266083</ele>
        <time>2011-01-21 14:41:40Z</time>
      </trkpt>
      <trkpt lat="43.50673" lon="6.73321">
        <ele>90.266068</ele>
        <time>2011-01-21 14:41:44Z</time>
      </trkpt>
      <trkpt lat="43.50674" lon="6.73314">
        <ele>89.266052</ele>
        <time>2011-01-21 14:41:48Z</time>
      </trkpt>
      <trkpt lat="43.50674" lon="6.73311">
        <ele>90.266052</ele>
        <time>2011-01-21 14:41:52Z</time>
      </trkpt>
      <trkpt lat="43.50674" lon="6.73307">
        <ele>89.266045</ele>
        <time>2011-01-21 14:41:56Z</time>
      </trkpt>
      <trkpt lat="43.50674" lon="6.73303">
        <ele>89.266037</ele>
        <time>2011-01-21 14:42:00Z</time>
      </trkpt>
      <trkpt lat="43.50674" lon="6.73302">
        <ele>89.266029</ele>
        <time>2011-01-21 14:42:04Z</time>
      </trkpt>
      <trkpt lat="43.50675" lon="6.73294">
        <ele>88.266014</ele>
        <time>2011-01-21 14:42:08Z</time>
      </trkpt>
      <trkpt lat="43.50676" lon="6.73289">
        <ele>89.266006</ele>
        <time>2011-01-21 14:42:12Z</time>
      </trkpt>
      <trkpt lat="43.50676" lon="6.73285">
        <ele>88.265991</ele>
        <time>2011-01-21 14:42:16Z</time>
      </trkpt>
      <trkpt lat="43.50677" lon="6.73279">
        <ele>88.265984</ele>
        <time>2011-01-21 14:42:20Z</time>
      </trkpt>
      <trkpt lat="43.50678" lon="6.73276">
        <ele>88.265976</ele>
        <time>2011-01-21 14:42:24Z</time>
      </trkpt>
      <trkpt lat="43.50678" lon="6.73268">
        <ele>89.265961</ele>
        <time>2011-01-21 14:42:28Z</time>
      </trkpt>
      <trkpt lat="43.50676" lon="6.73262">
        <ele>88.265945</ele>
        <time>2011-01-21 14:42:32Z</time>
      </trkpt>
      <trkpt lat="43.50674" lon="6.73257">
        <ele>89.26593</ele>
        <time>2011-01-21 14:42:36Z</time>
      </trkpt>
      <trkpt lat="43.50672" lon="6.73252">
        <ele>89.265915</ele>
        <time>2011-01-21 14:42:40Z</time>
      </trkpt>
      <trkpt lat="43.50671" lon="6.73249">
        <ele>89.2659</ele>
        <time>2011-01-21 14:42:44Z</time>
      </trkpt>
      <trkpt lat="43.50668" lon="6.73241">
        <ele>89.265884</ele>
        <time>2011-01-21 14:42:48Z</time>
      </trkpt>
      <trkpt lat="43.50668" lon="6.73237">
        <ele>89.265877</ele>
        <time>2011-01-21 14:42:52Z</time>
      </trkpt>
      <trkpt lat="43.50667" lon="6.73234">
        <ele>88.265869</ele>
        <time>2011-01-21 14:42:56Z</time>
      </trkpt>
      <trkpt lat="43.50668" lon="6.7323">
        <ele>87.265862</ele>
        <time>2011-01-21 14:43:00Z</time>
      </trkpt>
      <trkpt lat="43.5067" lon="6.73228">
        <ele>87.265854</ele>
        <time>2011-01-21 14:43:04Z</time>
      </trkpt>
      <trkpt lat="43.50672" lon="6.73227">
        <ele>86.265854</ele>
        <time>2011-01-21 14:43:08Z</time>
      </trkpt>
      <trkpt lat="43.50676" lon="6.73225">
        <ele>86.265862</ele>
        <time>2011-01-21 14:43:12Z</time>
      </trkpt>
      <trkpt lat="43.50681" lon="6.73223">
        <ele>86.265862</ele>
        <time>2011-01-21 14:43:16Z</time>
      </trkpt>
      <trkpt lat="43.50683" lon="6.73222">
        <ele>86.265869</ele>
        <time>2011-01-21 14:43:20Z</time>
      </trkpt>
      <trkpt lat="43.50687" lon="6.7322">
        <ele>85.265869</ele>
        <time>2011-01-21 14:43:24Z</time>
      </trkpt>
      <trkpt lat="43.50691" lon="6.73217">
        <ele>85.265869</ele>
        <time>2011-01-21 14:43:28Z</time>
      </trkpt>
      <trkpt lat="43.50694" lon="6.73215">
        <ele>84.265862</ele>
        <time>2011-01-21 14:43:32Z</time>
      </trkpt>
      <trkpt lat="43.50696" lon="6.73208">
        <ele>84.265854</ele>
        <time>2011-01-21 14:43:36Z</time>
      </trkpt>
      <trkpt lat="43.50696" lon="6.73208">
        <ele>84.265854</ele>
        <time>2011-01-21 14:43:40Z</time>
      </trkpt>
      <trkpt lat="43.50697" lon="6.73196">
        <ele>86.265823</ele>
        <time>2011-01-21 14:43:44Z</time>
      </trkpt>
      <trkpt lat="43.50697" lon="6.73195">
        <ele>86.265823</ele>
        <time>2011-01-21 14:43:48Z</time>
      </trkpt>
      <trkpt lat="43.50697" lon="6.73195">
        <ele>86.265823</ele>
        <time>2011-01-21 14:43:52Z</time>
      </trkpt>
      <trkpt lat="43.50697" lon="6.73187">
        <ele>88.265808</ele>
        <time>2011-01-21 14:43:56Z</time>
      </trkpt>
      <trkpt lat="43.50697" lon="6.73183">
        <ele>88.2658</ele>
        <time>2011-01-21 14:44:00Z</time>
      </trkpt>
      <trkpt lat="43.50698" lon="6.73179">
        <ele>87.265793</ele>
        <time>2011-01-21 14:44:04Z</time>
      </trkpt>
      <trkpt lat="43.50698" lon="6.73179">
        <ele>87.265793</ele>
        <time>2011-01-21 14:44:08Z</time>
      </trkpt>
      <trkpt lat="43.50697" lon="6.7317">
        <ele>86.26577</ele>
        <time>2011-01-21 14:44:12Z</time>
      </trkpt>
      <trkpt lat="43.50697" lon="6.73165">
        <ele>87.265762</ele>
        <time>2011-01-21 14:44:16Z</time>
      </trkpt>
      <trkpt lat="43.50697" lon="6.73161">
        <ele>87.265747</ele>
        <time>2011-01-21 14:44:20Z</time>
      </trkpt>
      <trkpt lat="43.50697" lon="6.73156">
        <ele>87.265739</ele>
        <time>2011-01-21 14:44:24Z</time>
      </trkpt>
      <trkpt lat="43.50697" lon="6.73153">
        <ele>87.265732</ele>
        <time>2011-01-21 14:44:28Z</time>
      </trkpt>
      <trkpt lat="43.50694" lon="6.73144">
        <ele>87.265709</ele>
        <time>2011-01-21 14:44:32Z</time>
      </trkpt>
      <trkpt lat="43.50693" lon="6.73138">
        <ele>88.265694</ele>
        <time>2011-01-21 14:44:36Z</time>
      </trkpt>
      <trkpt lat="43.50693" lon="6.73131">
        <ele>88.265678</ele>
        <time>2011-01-21 14:44:40Z</time>
      </trkpt>
      <trkpt lat="43.50693" lon="6.73131">
        <ele>88.265678</ele>
        <time>2011-01-21 14:44:44Z</time>
      </trkpt>
      <trkpt lat="43.50692" lon="6.73121">
        <ele>88.265656</ele>
        <time>2011-01-21 14:44:48Z</time>
      </trkpt>
      <trkpt lat="43.50691" lon="6.73112">
        <ele>87.265625</ele>
        <time>2011-01-21 14:44:52Z</time>
      </trkpt>
      <trkpt lat="43.50689" lon="6.73104">
        <ele>87.26561</ele>
        <time>2011-01-21 14:44:56Z</time>
      </trkpt>
      <trkpt lat="43.50689" lon="6.73103">
        <ele>87.26561</ele>
        <time>2011-01-21 14:45:00Z</time>
      </trkpt>
      <trkpt lat="43.50685" lon="6.73092">
        <ele>88.265579</ele>
        <time>2011-01-21 14:45:04Z</time>
      </trkpt>
      <trkpt lat="43.50682" lon="6.73087">
        <ele>89.265564</ele>
        <time>2011-01-21 14:45:08Z</time>
      </trkpt>
      <trkpt lat="43.5068" lon="6.73083">
        <ele>89.265549</ele>
        <time>2011-01-21 14:45:12Z</time>
      </trkpt>
      <trkpt lat="43.50678" lon="6.73081">
        <ele>88.265533</ele>
        <time>2011-01-21 14:45:16Z</time>
      </trkpt>
      <trkpt lat="43.50675" lon="6.73077">
        <ele>88.265526</ele>
        <time>2011-01-21 14:45:20Z</time>
      </trkpt>
      <trkpt lat="43.50673" lon="6.73076">
        <ele>88.265518</ele>
        <time>2011-01-21 14:45:24Z</time>
      </trkpt>
      <trkpt lat="43.50671" lon="6.73072">
        <ele>89.265503</ele>
        <time>2011-01-21 14:45:28Z</time>
      </trkpt>
      <trkpt lat="43.50671" lon="6.73072">
        <ele>89.265503</ele>
        <time>2011-01-21 14:45:32Z</time>
      </trkpt>
      <trkpt lat="43.50668" lon="6.73065">
        <ele>90.265488</ele>
        <time>2011-01-21 14:45:36Z</time>
      </trkpt>
      <trkpt lat="43.50666" lon="6.73057">
        <ele>90.265465</ele>
        <time>2011-01-21 14:45:40Z</time>
      </trkpt>
      <trkpt lat="43.50665" lon="6.73051">
        <ele>91.265457</ele>
        <time>2011-01-21 14:45:44Z</time>
      </trkpt>
      <trkpt lat="43.50664" lon="6.73046">
        <ele>91.265442</ele>
        <time>2011-01-21 14:45:48Z</time>
      </trkpt>
      <trkpt lat="43.50663" lon="6.73043">
        <ele>90.265427</ele>
        <time>2011-01-21 14:45:52Z</time>
      </trkpt>
      <trkpt lat="43.50662" lon="6.73038">
        <ele>89.265419</ele>
        <time>2011-01-21 14:45:56Z</time>
      </trkpt>
      <trkpt lat="43.5066" lon="6.73033">
        <ele>89.265404</ele>
        <time>2011-01-21 14:46:00Z</time>
      </trkpt>
      <trkpt lat="43.50657" lon="6.73026">
        <ele>90.265388</ele>
        <time>2011-01-21 14:46:04Z</time>
      </trkpt>
      <trkpt lat="43.50656" lon="6.73022">
        <ele>88.265373</ele>
        <time>2011-01-21 14:46:08Z</time>
      </trkpt>
      <trkpt lat="43.50654" lon="6.73015">
        <ele>87.26535</ele>
        <time>2011-01-21 14:46:12Z</time>
      </trkpt>
      <trkpt lat="43.50652" lon="6.7301">
        <ele>86.265335</ele>
        <time>2011-01-21 14:46:16Z</time>
      </trkpt>
      <trkpt lat="43.5065" lon="6.73006">
        <ele>86.265327</ele>
        <time>2011-01-21 14:46:20Z</time>
      </trkpt>
      <trkpt lat="43.50649" lon="6.73002">
        <ele>87.26532</ele>
        <time>2011-01-21 14:46:24Z</time>
      </trkpt>
      <trkpt lat="43.50646" lon="6.72995">
        <ele>86.265289</ele>
        <time>2011-01-21 14:46:28Z</time>
      </trkpt>
      <trkpt lat="43.50646" lon="6.72994">
        <ele>86.265289</ele>
        <time>2011-01-21 14:46:32Z</time>
      </trkpt>
      <trkpt lat="43.50646" lon="6.72994">
        <ele>86.265289</ele>
        <time>2011-01-21 14:46:36Z</time>
      </trkpt>
      <trkpt lat="43.50642" lon="6.72982">
        <ele>87.265259</ele>
        <time>2011-01-21 14:46:40Z</time>
      </trkpt>
      <trkpt lat="43.50642" lon="6.72982">
        <ele>87.265259</ele>
        <time>2011-01-21 14:46:44Z</time>
      </trkpt>
      <trkpt lat="43.50642" lon="6.72982">
        <ele>87.265259</ele>
        <time>2011-01-21 14:46:48Z</time>
      </trkpt>
      <trkpt lat="43.50637" lon="6.72967">
        <ele>84.265213</ele>
        <time>2011-01-21 14:46:52Z</time>
      </trkpt>
      <trkpt lat="43.50637" lon="6.72967">
        <ele>84.265213</ele>
        <time>2011-01-21 14:46:56Z</time>
      </trkpt>
      <trkpt lat="43.50635" lon="6.72956">
        <ele>82.26519</ele>
        <time>2011-01-21 14:47:00Z</time>
      </trkpt>
      <trkpt lat="43.50634" lon="6.72951">
        <ele>81.265175</ele>
        <time>2011-01-21 14:47:04Z</time>
      </trkpt>
      <trkpt lat="43.50633" lon="6.72946">
        <ele>80.265167</ele>
        <time>2011-01-21 14:47:08Z</time>
      </trkpt>
      <trkpt lat="43.50632" lon="6.72943">
        <ele>79.265152</ele>
        <time>2011-01-21 14:47:12Z</time>
      </trkpt>
      <trkpt lat="43.50631" lon="6.72939">
        <ele>79.265144</ele>
        <time>2011-01-21 14:47:16Z</time>
      </trkpt>
      <trkpt lat="43.50631" lon="6.72938">
        <ele>79.265137</ele>
        <time>2011-01-21 14:47:20Z</time>
      </trkpt>
      <trkpt lat="43.5063" lon="6.72937">
        <ele>81.265137</ele>
        <time>2011-01-21 14:47:24Z</time>
      </trkpt>
      <trkpt lat="43.5063" lon="6.72936">
        <ele>81.265137</ele>
        <time>2011-01-21 14:47:28Z</time>
      </trkpt>
      <trkpt lat="43.5063" lon="6.72935">
        <ele>81.265137</ele>
        <time>2011-01-21 14:47:32Z</time>
      </trkpt>
      <trkpt lat="43.5063" lon="6.72935">
        <ele>81.265137</ele>
        <time>2011-01-21 14:47:36Z</time>
      </trkpt>
      <trkpt lat="43.5063" lon="6.72933">
        <ele>83.265129</ele>
        <time>2011-01-21 14:47:40Z</time>
      </trkpt>
      <trkpt lat="43.50629" lon="6.72931">
        <ele>84.265121</ele>
        <time>2011-01-21 14:47:44Z</time>
      </trkpt>
      <trkpt lat="43.50629" lon="6.72931">
        <ele>84.265121</ele>
        <time>2011-01-21 14:47:48Z</time>
      </trkpt>
      <trkpt lat="43.50629" lon="6.72931">
        <ele>84.265121</ele>
        <time>2011-01-21 14:47:52Z</time>
      </trkpt>
      <trkpt lat="43.50629" lon="6.72931">
        <ele>84.265121</ele>
        <time>2011-01-21 14:47:56Z</time>
      </trkpt>
      <trkpt lat="43.50629" lon="6.72928">
        <ele>85.265121</ele>
        <time>2011-01-21 14:48:00Z</time>
      </trkpt>
      <trkpt lat="43.50629" lon="6.72928">
        <ele>85.265121</ele>
        <time>2011-01-21 14:48:04Z</time>
      </trkpt>
      <trkpt lat="43.50629" lon="6.72925">
        <ele>85.265106</ele>
        <time>2011-01-21 14:48:08Z</time>
      </trkpt>
      <trkpt lat="43.50628" lon="6.72923">
        <ele>84.265099</ele>
        <time>2011-01-21 14:48:12Z</time>
      </trkpt>
      <trkpt lat="43.50628" lon="6.7292">
        <ele>82.265091</ele>
        <time>2011-01-21 14:48:16Z</time>
      </trkpt>
      <trkpt lat="43.50627" lon="6.72917">
        <ele>82.265091</ele>
        <time>2011-01-21 14:48:20Z</time>
      </trkpt>
      <trkpt lat="43.50627" lon="6.72913">
        <ele>81.265076</ele>
        <time>2011-01-21 14:48:24Z</time>
      </trkpt>
      <trkpt lat="43.50627" lon="6.72913">
        <ele>81.265076</ele>
        <time>2011-01-21 14:48:28Z</time>
      </trkpt>
      <trkpt lat="43.50625" lon="6.72905">
        <ele>80.26506</ele>
        <time>2011-01-21 14:48:32Z</time>
      </trkpt>
      <trkpt lat="43.50624" lon="6.72901">
        <ele>80.265045</ele>
        <time>2011-01-21 14:48:36Z</time>
      </trkpt>
      <trkpt lat="43.50623" lon="6.72899">
        <ele>80.265045</ele>
        <time>2011-01-21 14:48:40Z</time>
      </trkpt>
      <trkpt lat="43.5062" lon="6.72896">
        <ele>83.26503</ele>
        <time>2011-01-21 14:48:44Z</time>
      </trkpt>
      <trkpt lat="43.5062" lon="6.72896">
        <ele>83.26503</ele>
        <time>2011-01-21 14:48:48Z</time>
      </trkpt>
      <trkpt lat="43.50618" lon="6.72894">
        <ele>83.265022</ele>
        <time>2011-01-21 14:48:52Z</time>
      </trkpt>
      <trkpt lat="43.50618" lon="6.72893">
        <ele>82.265022</ele>
        <time>2011-01-21 14:48:56Z</time>
      </trkpt>
      <trkpt lat="43.50618" lon="6.72892">
        <ele>81.265015</ele>
        <time>2011-01-21 14:49:00Z</time>
      </trkpt>
      <trkpt lat="43.50619" lon="6.72889">
        <ele>80.265015</ele>
        <time>2011-01-21 14:49:04Z</time>
      </trkpt>
      <trkpt lat="43.50619" lon="6.72885">
        <ele>80.264999</ele>
        <time>2011-01-21 14:49:08Z</time>
      </trkpt>
      <trkpt lat="43.50619" lon="6.7288">
        <ele>80.264992</ele>
        <time>2011-01-21 14:49:12Z</time>
      </trkpt>
      <trkpt lat="43.50619" lon="6.72872">
        <ele>79.264977</ele>
        <time>2011-01-21 14:49:16Z</time>
      </trkpt>
      <trkpt lat="43.50618" lon="6.72863">
        <ele>79.264954</ele>
        <time>2011-01-21 14:49:20Z</time>
      </trkpt>
      <trkpt lat="43.50618" lon="6.72857">
        <ele>77.264938</ele>
        <time>2011-01-21 14:49:24Z</time>
      </trkpt>
      <trkpt lat="43.50618" lon="6.72857">
        <ele>77.264938</ele>
        <time>2011-01-21 14:49:28Z</time>
      </trkpt>
      <trkpt lat="43.50617" lon="6.72847">
        <ele>77.264908</ele>
        <time>2011-01-21 14:49:32Z</time>
      </trkpt>
      <trkpt lat="43.50615" lon="6.72839">
        <ele>76.264893</ele>
        <time>2011-01-21 14:49:36Z</time>
      </trkpt>
      <trkpt lat="43.50613" lon="6.72834">
        <ele>75.264877</ele>
        <time>2011-01-21 14:49:40Z</time>
      </trkpt>
      <trkpt lat="43.5061" lon="6.72829">
        <ele>76.264862</ele>
        <time>2011-01-21 14:49:44Z</time>
      </trkpt>
      <trkpt lat="43.50606" lon="6.72823">
        <ele>77.264847</ele>
        <time>2011-01-21 14:49:48Z</time>
      </trkpt>
      <trkpt lat="43.50604" lon="6.72819">
        <ele>77.264832</ele>
        <time>2011-01-21 14:49:52Z</time>
      </trkpt>
      <trkpt lat="43.506" lon="6.72814">
        <ele>77.264816</ele>
        <time>2011-01-21 14:49:56Z</time>
      </trkpt>
      <trkpt lat="43.50598" lon="6.7281">
        <ele>76.264801</ele>
        <time>2011-01-21 14:50:00Z</time>
      </trkpt>
      <trkpt lat="43.50597" lon="6.72808">
        <ele>75.264793</ele>
        <time>2011-01-21 14:50:04Z</time>
      </trkpt>
      <trkpt lat="43.50594" lon="6.72803">
        <ele>74.264778</ele>
        <time>2011-01-21 14:50:08Z</time>
      </trkpt>
      <trkpt lat="43.50594" lon="6.72803">
        <ele>74.264778</ele>
        <time>2011-01-21 14:50:12Z</time>
      </trkpt>
      <trkpt lat="43.50591" lon="6.72799">
        <ele>73.264771</ele>
        <time>2011-01-21 14:50:16Z</time>
      </trkpt>
      <trkpt lat="43.50589" lon="6.72797">
        <ele>72.264755</ele>
        <time>2011-01-21 14:50:20Z</time>
      </trkpt>
      <trkpt lat="43.50588" lon="6.72796">
        <ele>73.264755</ele>
        <time>2011-01-21 14:50:24Z</time>
      </trkpt>
      <trkpt lat="43.50585" lon="6.72793">
        <ele>70.26474</ele>
        <time>2011-01-21 14:50:28Z</time>
      </trkpt>
      <trkpt lat="43.50584" lon="6.72791">
        <ele>69.264732</ele>
        <time>2011-01-21 14:50:32Z</time>
      </trkpt>
      <trkpt lat="43.50583" lon="6.72787">
        <ele>68.264725</ele>
        <time>2011-01-21 14:50:36Z</time>
      </trkpt>
      <trkpt lat="43.50582" lon="6.72784">
        <ele>69.264709</ele>
        <time>2011-01-21 14:50:40Z</time>
      </trkpt>
      <trkpt lat="43.5058" lon="6.72781">
        <ele>69.264702</ele>
        <time>2011-01-21 14:50:44Z</time>
      </trkpt>
      <trkpt lat="43.50577" lon="6.72777">
        <ele>70.264694</ele>
        <time>2011-01-21 14:50:48Z</time>
      </trkpt>
      <trkpt lat="43.50577" lon="6.72777">
        <ele>70.264694</ele>
        <time>2011-01-21 14:50:52Z</time>
      </trkpt>
      <trkpt lat="43.50574" lon="6.72773">
        <ele>70.264679</ele>
        <time>2011-01-21 14:50:56Z</time>
      </trkpt>
      <trkpt lat="43.50573" lon="6.72772">
        <ele>70.264671</ele>
        <time>2011-01-21 14:51:00Z</time>
      </trkpt>
      <trkpt lat="43.5057" lon="6.72765">
        <ele>70.264656</ele>
        <time>2011-01-21 14:51:04Z</time>
      </trkpt>
      <trkpt lat="43.50569" lon="6.7276">
        <ele>70.264641</ele>
        <time>2011-01-21 14:51:08Z</time>
      </trkpt>
      <trkpt lat="43.50569" lon="6.7276">
        <ele>70.264641</ele>
        <time>2011-01-21 14:51:12Z</time>
      </trkpt>
      <trkpt lat="43.50565" lon="6.72753">
        <ele>71.264618</ele>
        <time>2011-01-21 14:51:16Z</time>
      </trkpt>
      <trkpt lat="43.50564" lon="6.7275">
        <ele>71.26461</ele>
        <time>2011-01-21 14:51:20Z</time>
      </trkpt>
      <trkpt lat="43.50559" lon="6.72744">
        <ele>71.264587</ele>
        <time>2011-01-21 14:51:24Z</time>
      </trkpt>
      <trkpt lat="43.50556" lon="6.7274">
        <ele>71.26458</ele>
        <time>2011-01-21 14:51:28Z</time>
      </trkpt>
      <trkpt lat="43.50556" lon="6.7274">
        <ele>71.26458</ele>
        <time>2011-01-21 14:51:32Z</time>
      </trkpt>
      <trkpt lat="43.50552" lon="6.72734">
        <ele>70.264549</ele>
        <time>2011-01-21 14:51:36Z</time>
      </trkpt>
      <trkpt lat="43.50551" lon="6.72732">
        <ele>69.264549</ele>
        <time>2011-01-21 14:51:40Z</time>
      </trkpt>
      <trkpt lat="43.50551" lon="6.72732">
        <ele>69.264542</ele>
        <time>2011-01-21 14:51:44Z</time>
      </trkpt>
      <trkpt lat="43.50551" lon="6.72732">
        <ele>69.264542</ele>
        <time>2011-01-21 14:51:48Z</time>
      </trkpt>
      <trkpt lat="43.50549" lon="6.72726">
        <ele>70.264534</ele>
        <time>2011-01-21 14:51:52Z</time>
      </trkpt>
      <trkpt lat="43.50549" lon="6.72725">
        <ele>70.264534</ele>
        <time>2011-01-21 14:51:56Z</time>
      </trkpt>
      <trkpt lat="43.50548" lon="6.72717">
        <ele>70.264511</ele>
        <time>2011-01-21 14:52:00Z</time>
      </trkpt>
      <trkpt lat="43.50547" lon="6.72715">
        <ele>70.264503</ele>
        <time>2011-01-21 14:52:04Z</time>
      </trkpt>
      <trkpt lat="43.50546" lon="6.72709">
        <ele>70.264488</ele>
        <time>2011-01-21 14:52:08Z</time>
      </trkpt>
      <trkpt lat="43.50545" lon="6.72707">
        <ele>71.264481</ele>
        <time>2011-01-21 14:52:12Z</time>
      </trkpt>
      <trkpt lat="43.50545" lon="6.72706">
        <ele>71.264481</ele>
        <time>2011-01-21 14:52:16Z</time>
      </trkpt>
      <trkpt lat="43.50545" lon="6.72704">
        <ele>71.264481</ele>
        <time>2011-01-21 14:52:20Z</time>
      </trkpt>
      <trkpt lat="43.50545" lon="6.72704">
        <ele>71.264481</ele>
        <time>2011-01-21 14:52:24Z</time>
      </trkpt>
      <trkpt lat="43.50544" lon="6.72698">
        <ele>71.264465</ele>
        <time>2011-01-21 14:52:28Z</time>
      </trkpt>
      <trkpt lat="43.50542" lon="6.72694">
        <ele>71.26445</ele>
        <time>2011-01-21 14:52:32Z</time>
      </trkpt>
      <trkpt lat="43.50542" lon="6.72692">
        <ele>71.26445</ele>
        <time>2011-01-21 14:52:36Z</time>
      </trkpt>
      <trkpt lat="43.50539" lon="6.72688">
        <ele>69.264435</ele>
        <time>2011-01-21 14:52:40Z</time>
      </trkpt>
      <trkpt lat="43.50536" lon="6.72685">
        <ele>70.26442</ele>
        <time>2011-01-21 14:52:44Z</time>
      </trkpt>
      <trkpt lat="43.50533" lon="6.72683">
        <ele>70.264412</ele>
        <time>2011-01-21 14:52:48Z</time>
      </trkpt>
      <trkpt lat="43.50533" lon="6.72683">
        <ele>70.264412</ele>
        <time>2011-01-21 14:52:52Z</time>
      </trkpt>
      <trkpt lat="43.50525" lon="6.72677">
        <ele>69.264381</ele>
        <time>2011-01-21 14:52:56Z</time>
      </trkpt>
      <trkpt lat="43.50521" lon="6.72676">
        <ele>67.264374</ele>
        <time>2011-01-21 14:53:00Z</time>
      </trkpt>
      <trkpt lat="43.50519" lon="6.72676">
        <ele>64.264374</ele>
        <time>2011-01-21 14:53:04Z</time>
      </trkpt>
      <trkpt lat="43.50517" lon="6.72675">
        <ele>62.264366</ele>
        <time>2011-01-21 14:53:08Z</time>
      </trkpt>
      <trkpt lat="43.50515" lon="6.72674">
        <ele>62.264359</ele>
        <time>2011-01-21 14:53:12Z</time>
      </trkpt>
      <trkpt lat="43.5051" lon="6.72673">
        <ele>62.264351</ele>
        <time>2011-01-21 14:53:16Z</time>
      </trkpt>
      <trkpt lat="43.50505" lon="6.72671">
        <ele>62.264336</ele>
        <time>2011-01-21 14:53:20Z</time>
      </trkpt>
      <trkpt lat="43.505" lon="6.72669">
        <ele>62.264324</ele>
        <time>2011-01-21 14:53:24Z</time>
      </trkpt>
      <trkpt lat="43.50496" lon="6.72667">
        <ele>62.264313</ele>
        <time>2011-01-21 14:53:28Z</time>
      </trkpt>
      <trkpt lat="43.5049" lon="6.72665">
        <ele>63.264297</ele>
        <time>2011-01-21 14:53:32Z</time>
      </trkpt>
      <trkpt lat="43.50488" lon="6.72664">
        <ele>64.264297</ele>
        <time>2011-01-21 14:53:36Z</time>
      </trkpt>
      <trkpt lat="43.50488" lon="6.72664">
        <ele>64.264297</ele>
        <time>2011-01-21 14:53:40Z</time>
      </trkpt>
      <trkpt lat="43.50482" lon="6.72658">
        <ele>65.264267</ele>
        <time>2011-01-21 14:53:44Z</time>
      </trkpt>
      <trkpt lat="43.50481" lon="6.72657">
        <ele>65.264267</ele>
        <time>2011-01-21 14:53:48Z</time>
      </trkpt>
      <trkpt lat="43.50478" lon="6.72654">
        <ele>65.264252</ele>
        <time>2011-01-21 14:53:52Z</time>
      </trkpt>
      <trkpt lat="43.50476" lon="6.72651">
        <ele>64.264244</ele>
        <time>2011-01-21 14:53:56Z</time>
      </trkpt>
      <trkpt lat="43.50473" lon="6.72647">
        <ele>63.264233</ele>
        <time>2011-01-21 14:54:00Z</time>
      </trkpt>
      <trkpt lat="43.50471" lon="6.72644">
        <ele>63.264217</ele>
        <time>2011-01-21 14:54:04Z</time>
      </trkpt>
      <trkpt lat="43.50468" lon="6.72641">
        <ele>62.264206</ele>
        <time>2011-01-21 14:54:08Z</time>
      </trkpt>
      <trkpt lat="43.50466" lon="6.72638">
        <ele>63.264198</ele>
        <time>2011-01-21 14:54:12Z</time>
      </trkpt>
      <trkpt lat="43.50463" lon="6.72635">
        <ele>65.264183</ele>
        <time>2011-01-21 14:54:16Z</time>
      </trkpt>
      <trkpt lat="43.50461" lon="6.72633">
        <ele>66.264175</ele>
        <time>2011-01-21 14:54:20Z</time>
      </trkpt>
      <trkpt lat="43.50459" lon="6.7263">
        <ele>65.264168</ele>
        <time>2011-01-21 14:54:24Z</time>
      </trkpt>
      <trkpt lat="43.50458" lon="6.7263">
        <ele>65.264168</ele>
        <time>2011-01-21 14:54:28Z</time>
      </trkpt>
      <trkpt lat="43.50452" lon="6.72625">
        <ele>66.264145</ele>
        <time>2011-01-21 14:54:32Z</time>
      </trkpt>
      <trkpt lat="43.50448" lon="6.72622">
        <ele>68.26413</ele>
        <time>2011-01-21 14:54:36Z</time>
      </trkpt>
      <trkpt lat="43.50448" lon="6.72622">
        <ele>68.26413</ele>
        <time>2011-01-21 14:54:40Z</time>
      </trkpt>
      <trkpt lat="43.5044" lon="6.72615">
        <ele>69.264099</ele>
        <time>2011-01-21 14:54:44Z</time>
      </trkpt>
      <trkpt lat="43.50436" lon="6.72613">
        <ele>70.264091</ele>
        <time>2011-01-21 14:54:48Z</time>
      </trkpt>
      <trkpt lat="43.50432" lon="6.7261">
        <ele>71.264084</ele>
        <time>2011-01-21 14:54:52Z</time>
      </trkpt>
      <trkpt lat="43.50428" lon="6.72608">
        <ele>73.264069</ele>
        <time>2011-01-21 14:54:56Z</time>
      </trkpt>
      <trkpt lat="43.50424" lon="6.72604">
        <ele>74.264053</ele>
        <time>2011-01-21 14:55:00Z</time>
      </trkpt>
      <trkpt lat="43.50423" lon="6.72603">
        <ele>74.264053</ele>
        <time>2011-01-21 14:55:04Z</time>
      </trkpt>
      <trkpt lat="43.50418" lon="6.72595">
        <ele>73.264023</ele>
        <time>2011-01-21 14:55:08Z</time>
      </trkpt>
      <trkpt lat="43.50417" lon="6.7259">
        <ele>73.264008</ele>
        <time>2011-01-21 14:55:12Z</time>
      </trkpt>
      <trkpt lat="43.50416" lon="6.72587">
        <ele>72.264</ele>
        <time>2011-01-21 14:55:16Z</time>
      </trkpt>
      <trkpt lat="43.50415" lon="6.72583">
        <ele>71.263992</ele>
        <time>2011-01-21 14:55:20Z</time>
      </trkpt>
      <trkpt lat="43.50415" lon="6.72579">
        <ele>69.263977</ele>
        <time>2011-01-21 14:55:24Z</time>
      </trkpt>
      <trkpt lat="43.50415" lon="6.72578">
        <ele>69.263977</ele>
        <time>2011-01-21 14:55:28Z</time>
      </trkpt>
      <trkpt lat="43.50414" lon="6.72572">
        <ele>68.263962</ele>
        <time>2011-01-21 14:55:32Z</time>
      </trkpt>
      <trkpt lat="43.50414" lon="6.72568">
        <ele>69.263954</ele>
        <time>2011-01-21 14:55:36Z</time>
      </trkpt>
      <trkpt lat="43.50414" lon="6.72568">
        <ele>69.263954</ele>
        <time>2011-01-21 14:55:40Z</time>
      </trkpt>
      <trkpt lat="43.50411" lon="6.72562">
        <ele>70.263939</ele>
        <time>2011-01-21 14:55:44Z</time>
      </trkpt>
      <trkpt lat="43.50407" lon="6.7256">
        <ele>70.263924</ele>
        <time>2011-01-21 14:55:48Z</time>
      </trkpt>
      <trkpt lat="43.50403" lon="6.7256">
        <ele>71.263916</ele>
        <time>2011-01-21 14:55:52Z</time>
      </trkpt>
      <trkpt lat="43.50401" lon="6.7256">
        <ele>71.263916</ele>
        <time>2011-01-21 14:55:56Z</time>
      </trkpt>
      <trkpt lat="43.50396" lon="6.72562">
        <ele>71.263916</ele>
        <time>2011-01-21 14:56:00Z</time>
      </trkpt>
      <trkpt lat="43.50391" lon="6.72565">
        <ele>72.263916</ele>
        <time>2011-01-21 14:56:04Z</time>
      </trkpt>
      <trkpt lat="43.50389" lon="6.72567">
        <ele>72.263916</ele>
        <time>2011-01-21 14:56:08Z</time>
      </trkpt>
      <trkpt lat="43.50386" lon="6.7257">
        <ele>71.263916</ele>
        <time>2011-01-21 14:56:12Z</time>
      </trkpt>
      <trkpt lat="43.50383" lon="6.72574">
        <ele>71.263916</ele>
        <time>2011-01-21 14:56:16Z</time>
      </trkpt>
      <trkpt lat="43.50381" lon="6.72577">
        <ele>72.263924</ele>
        <time>2011-01-21 14:56:20Z</time>
      </trkpt>
      <trkpt lat="43.50378" lon="6.72581">
        <ele>72.263924</ele>
        <time>2011-01-21 14:56:24Z</time>
      </trkpt>
      <trkpt lat="43.50374" lon="6.72584">
        <ele>72.263924</ele>
        <time>2011-01-21 14:56:28Z</time>
      </trkpt>
      <trkpt lat="43.5037" lon="6.72588">
        <ele>72.263931</ele>
        <time>2011-01-21 14:56:32Z</time>
      </trkpt>
      <trkpt lat="43.50367" lon="6.72591">
        <ele>73.263931</ele>
        <time>2011-01-21 14:56:36Z</time>
      </trkpt>
      <trkpt lat="43.50363" lon="6.72594">
        <ele>73.263931</ele>
        <time>2011-01-21 14:56:40Z</time>
      </trkpt>
      <trkpt lat="43.50361" lon="6.72595">
        <ele>73.263931</ele>
        <time>2011-01-21 14:56:44Z</time>
      </trkpt>
      <trkpt lat="43.50358" lon="6.72596">
        <ele>73.263924</ele>
        <time>2011-01-21 14:56:48Z</time>
      </trkpt>
      <trkpt lat="43.50357" lon="6.72597">
        <ele>74.263924</ele>
        <time>2011-01-21 14:56:52Z</time>
      </trkpt>
      <trkpt lat="43.50352" lon="6.72598">
        <ele>72.263924</ele>
        <time>2011-01-21 14:56:56Z</time>
      </trkpt>
      <trkpt lat="43.50349" lon="6.72598">
        <ele>73.263916</ele>
        <time>2011-01-21 14:57:00Z</time>
      </trkpt>
      <trkpt lat="43.50347" lon="6.72598">
        <ele>74.263916</ele>
        <time>2011-01-21 14:57:04Z</time>
      </trkpt>
      <trkpt lat="43.50342" lon="6.72596">
        <ele>76.263901</ele>
        <time>2011-01-21 14:57:08Z</time>
      </trkpt>
      <trkpt lat="43.50339" lon="6.72594">
        <ele>75.263893</ele>
        <time>2011-01-21 14:57:12Z</time>
      </trkpt>
      <trkpt lat="43.50333" lon="6.72592">
        <ele>74.263878</ele>
        <time>2011-01-21 14:57:16Z</time>
      </trkpt>
      <trkpt lat="43.50329" lon="6.72591">
        <ele>74.26387</ele>
        <time>2011-01-21 14:57:20Z</time>
      </trkpt>
      <trkpt lat="43.50327" lon="6.7259">
        <ele>75.263863</ele>
        <time>2011-01-21 14:57:24Z</time>
      </trkpt>
      <trkpt lat="43.50324" lon="6.72589">
        <ele>76.263855</ele>
        <time>2011-01-21 14:57:28Z</time>
      </trkpt>
      <trkpt lat="43.50323" lon="6.72589">
        <ele>77.263855</ele>
        <time>2011-01-21 14:57:32Z</time>
      </trkpt>
      <trkpt lat="43.50321" lon="6.72589">
        <ele>77.263855</ele>
        <time>2011-01-21 14:57:36Z</time>
      </trkpt>
      <trkpt lat="43.5032" lon="6.72589">
        <ele>77.263847</ele>
        <time>2011-01-21 14:57:40Z</time>
      </trkpt>
      <trkpt lat="43.50319" lon="6.72588">
        <ele>77.263847</ele>
        <time>2011-01-21 14:57:44Z</time>
      </trkpt>
      <trkpt lat="43.50318" lon="6.72588">
        <ele>77.263847</ele>
        <time>2011-01-21 14:57:48Z</time>
      </trkpt>
      <trkpt lat="43.50319" lon="6.72588">
        <ele>80.263847</ele>
        <time>2011-01-21 14:57:52Z</time>
      </trkpt>
      <trkpt lat="43.50319" lon="6.72588">
        <ele>80.263847</ele>
        <time>2011-01-21 14:57:56Z</time>
      </trkpt>
      <trkpt lat="43.50318" lon="6.72586">
        <ele>82.26384</ele>
        <time>2011-01-21 14:58:00Z</time>
      </trkpt>
      <trkpt lat="43.50319" lon="6.72586">
        <ele>84.26384</ele>
        <time>2011-01-21 14:58:04Z</time>
      </trkpt>
      <trkpt lat="43.50319" lon="6.72586">
        <ele>84.26384</ele>
        <time>2011-01-21 14:58:08Z</time>
      </trkpt>
      <trkpt lat="43.50319" lon="6.72585">
        <ele>83.26384</ele>
        <time>2011-01-21 14:58:12Z</time>
      </trkpt>
      <trkpt lat="43.50319" lon="6.72585">
        <ele>83.26384</ele>
        <time>2011-01-21 14:58:16Z</time>
      </trkpt>
      <trkpt lat="43.50319" lon="6.72585">
        <ele>83.26384</ele>
        <time>2011-01-21 14:58:20Z</time>
      </trkpt>
      <trkpt lat="43.5032" lon="6.72586">
        <ele>84.26384</ele>
        <time>2011-01-21 14:58:24Z</time>
      </trkpt>
      <trkpt lat="43.5032" lon="6.72586">
        <ele>80.26384</ele>
        <time>2011-01-21 14:58:28Z</time>
      </trkpt>
      <trkpt lat="43.50321" lon="6.72585">
        <ele>78.26384</ele>
        <time>2011-01-21 14:58:32Z</time>
      </trkpt>
      <trkpt lat="43.50321" lon="6.72585">
        <ele>77.26384</ele>
        <time>2011-01-21 14:58:36Z</time>
      </trkpt>
      <trkpt lat="43.50321" lon="6.72584">
        <ele>77.26384</ele>
        <time>2011-01-21 14:58:40Z</time>
      </trkpt>
      <trkpt lat="43.50322" lon="6.72583">
        <ele>77.26384</ele>
        <time>2011-01-21 14:58:44Z</time>
      </trkpt>
      <trkpt lat="43.50322" lon="6.72584">
        <ele>77.26384</ele>
        <time>2011-01-21 14:58:48Z</time>
      </trkpt>
      <trkpt lat="43.50323" lon="6.72584">
        <ele>77.26384</ele>
        <time>2011-01-21 14:58:52Z</time>
      </trkpt>
      <trkpt lat="43.50323" lon="6.72586">
        <ele>80.263847</ele>
        <time>2011-01-21 14:58:56Z</time>
      </trkpt>
      <trkpt lat="43.50323" lon="6.72586">
        <ele>80.263847</ele>
        <time>2011-01-21 14:59:00Z</time>
      </trkpt>
      <trkpt lat="43.50323" lon="6.72588">
        <ele>83.263855</ele>
        <time>2011-01-21 14:59:04Z</time>
      </trkpt>
      <trkpt lat="43.50323" lon="6.72588">
        <ele>83.263855</ele>
        <time>2011-01-21 14:59:08Z</time>
      </trkpt>
      <trkpt lat="43.50322" lon="6.7259">
        <ele>84.263855</ele>
        <time>2011-01-21 14:59:12Z</time>
      </trkpt>
      <trkpt lat="43.50321" lon="6.7259">
        <ele>84.263855</ele>
        <time>2011-01-21 14:59:20Z</time>
      </trkpt>
      <trkpt lat="43.5032" lon="6.7259">
        <ele>86.263855</ele>
        <time>2011-01-21 14:59:22Z</time>
      </trkpt>
      <trkpt lat="43.50321" lon="6.72588">
        <ele>86.263855</ele>
        <time>2011-01-21 14:59:26Z</time>
      </trkpt>
      <trkpt lat="43.50322" lon="6.72588">
        <ele>85.263855</ele>
        <time>2011-01-21 14:59:30Z</time>
      </trkpt>
      <trkpt lat="43.50322" lon="6.72589">
        <ele>86.263855</ele>
        <time>2011-01-21 14:59:34Z</time>
      </trkpt>
      <trkpt lat="43.50322" lon="6.7259">
        <ele>85.263855</ele>
        <time>2011-01-21 14:59:38Z</time>
      </trkpt>
      <trkpt lat="43.50322" lon="6.7259">
        <ele>86.263855</ele>
        <time>2011-01-21 14:59:42Z</time>
      </trkpt>
      <trkpt lat="43.50322" lon="6.7259">
        <ele>86.263855</ele>
        <time>2011-01-21 14:59:46Z</time>
      </trkpt>
      <trkpt lat="43.50322" lon="6.7259">
        <ele>85.263855</ele>
        <time>2011-01-21 14:59:50Z</time>
      </trkpt>
      <trkpt lat="43.50323" lon="6.7259">
        <ele>86.263855</ele>
        <time>2011-01-21 14:59:54Z</time>
      </trkpt>
      <trkpt lat="43.50323" lon="6.7259">
        <ele>87.263855</ele>
        <time>2011-01-21 14:59:58Z</time>
      </trkpt>
      <trkpt lat="43.50323" lon="6.72589">
        <ele>87.263855</ele>
        <time>2011-01-21 15:00:02Z</time>
      </trkpt>
      <trkpt lat="43.50322" lon="6.72589">
        <ele>87.263855</ele>
        <time>2011-01-21 15:00:06Z</time>
      </trkpt>
      <trkpt lat="43.50322" lon="6.72589">
        <ele>88.263855</ele>
        <time>2011-01-21 15:00:10Z</time>
      </trkpt>
      <trkpt lat="43.50322" lon="6.72589">
        <ele>89.263855</ele>
        <time>2011-01-21 15:00:16Z</time>
      </trkpt>
      <trkpt lat="43.50322" lon="6.72588">
        <ele>88.263855</ele>
        <time>2011-01-21 15:00:20Z</time>
      </trkpt>
      <trkpt lat="43.50321" lon="6.72588">
        <ele>89.263847</ele>
        <time>2011-01-21 15:00:24Z</time>
      </trkpt>
      <trkpt lat="43.50314" lon="6.72588">
        <ele>91.26384</ele>
        <time>2011-01-21 15:02:16Z</time>
      </trkpt>
      <trkpt lat="43.50314" lon="6.72589">
        <ele>91.26384</ele>
        <time>2011-01-21 15:02:20Z</time>
      </trkpt>
      <trkpt lat="43.50315" lon="6.72589">
        <ele>90.26384</ele>
        <time>2011-01-21 15:02:24Z</time>
      </trkpt>
      <trkpt lat="43.50316" lon="6.7259">
        <ele>91.26384</ele>
        <time>2011-01-21 15:02:28Z</time>
      </trkpt>
      <trkpt lat="43.50316" lon="6.7259">
        <ele>90.26384</ele>
        <time>2011-01-21 15:02:32Z</time>
      </trkpt>
      <trkpt lat="43.50314" lon="6.72589">
        <ele>89.26384</ele>
        <time>2011-01-21 15:02:36Z</time>
      </trkpt>
      <trkpt lat="43.50312" lon="6.72589">
        <ele>88.26384</ele>
        <time>2011-01-21 15:02:40Z</time>
      </trkpt>
      <trkpt lat="43.50311" lon="6.72589">
        <ele>87.263832</ele>
        <time>2011-01-21 15:02:44Z</time>
      </trkpt>
      <trkpt lat="43.50311" lon="6.72589">
        <ele>87.263832</ele>
        <time>2011-01-21 15:02:48Z</time>
      </trkpt>
      <trkpt lat="43.50311" lon="6.72589">
        <ele>87.263832</ele>
        <time>2011-01-21 15:02:52Z</time>
      </trkpt>
      <trkpt lat="43.503" lon="6.7259">
        <ele>86.263824</ele>
        <time>2011-01-21 15:02:56Z</time>
      </trkpt>
      <trkpt lat="43.50297" lon="6.72591">
        <ele>84.263817</ele>
        <time>2011-01-21 15:03:00Z</time>
      </trkpt>
      <trkpt lat="43.50294" lon="6.72592">
        <ele>83.263809</ele>
        <time>2011-01-21 15:03:04Z</time>
      </trkpt>
      <trkpt lat="43.5029" lon="6.72592">
        <ele>83.263809</ele>
        <time>2011-01-21 15:03:08Z</time>
      </trkpt>
      <trkpt lat="43.50286" lon="6.72592">
        <ele>80.263802</ele>
        <time>2011-01-21 15:03:12Z</time>
      </trkpt>
      <trkpt lat="43.50282" lon="6.72593">
        <ele>80.263794</ele>
        <time>2011-01-21 15:03:16Z</time>
      </trkpt>
      <trkpt lat="43.50278" lon="6.72594">
        <ele>80.263794</ele>
        <time>2011-01-21 15:03:20Z</time>
      </trkpt>
      <trkpt lat="43.50274" lon="6.72596">
        <ele>80.263794</ele>
        <time>2011-01-21 15:03:24Z</time>
      </trkpt>
      <trkpt lat="43.5027" lon="6.72599">
        <ele>78.263786</ele>
        <time>2011-01-21 15:03:28Z</time>
      </trkpt>
      <trkpt lat="43.50266" lon="6.72602">
        <ele>79.263794</ele>
        <time>2011-01-21 15:03:32Z</time>
      </trkpt>
      <trkpt lat="43.50263" lon="6.72605">
        <ele>78.263794</ele>
        <time>2011-01-21 15:03:36Z</time>
      </trkpt>
      <trkpt lat="43.50259" lon="6.72606">
        <ele>79.263786</ele>
        <time>2011-01-21 15:03:40Z</time>
      </trkpt>
      <trkpt lat="43.50258" lon="6.72607">
        <ele>80.263786</ele>
        <time>2011-01-21 15:03:44Z</time>
      </trkpt>
      <trkpt lat="43.50256" lon="6.72607">
        <ele>80.263786</ele>
        <time>2011-01-21 15:03:48Z</time>
      </trkpt>
      <trkpt lat="43.50254" lon="6.72608">
        <ele>79.263779</ele>
        <time>2011-01-21 15:03:52Z</time>
      </trkpt>
      <trkpt lat="43.50251" lon="6.72608">
        <ele>78.263779</ele>
        <time>2011-01-21 15:03:56Z</time>
      </trkpt>
      <trkpt lat="43.50248" lon="6.72609">
        <ele>78.263779</ele>
        <time>2011-01-21 15:04:00Z</time>
      </trkpt>
      <trkpt lat="43.50246" lon="6.72609">
        <ele>78.263779</ele>
        <time>2011-01-21 15:04:04Z</time>
      </trkpt>
      <trkpt lat="43.50244" lon="6.7261">
        <ele>77.263771</ele>
        <time>2011-01-21 15:04:08Z</time>
      </trkpt>
      <trkpt lat="43.5024" lon="6.72611">
        <ele>76.263763</ele>
        <time>2011-01-21 15:04:12Z</time>
      </trkpt>
      <trkpt lat="43.50237" lon="6.72611">
        <ele>76.263763</ele>
        <time>2011-01-21 15:04:16Z</time>
      </trkpt>
      <trkpt lat="43.50234" lon="6.72612">
        <ele>77.263756</ele>
        <time>2011-01-21 15:04:20Z</time>
      </trkpt>
      <trkpt lat="43.50231" lon="6.72612">
        <ele>77.263756</ele>
        <time>2011-01-21 15:04:24Z</time>
      </trkpt>
      <trkpt lat="43.50228" lon="6.72613">
        <ele>76.263756</ele>
        <time>2011-01-21 15:04:28Z</time>
      </trkpt>
      <trkpt lat="43.50225" lon="6.72614">
        <ele>76.263748</ele>
        <time>2011-01-21 15:04:32Z</time>
      </trkpt>
      <trkpt lat="43.50221" lon="6.72615">
        <ele>75.263748</ele>
        <time>2011-01-21 15:04:36Z</time>
      </trkpt>
      <trkpt lat="43.50218" lon="6.72615">
        <ele>74.263741</ele>
        <time>2011-01-21 15:04:40Z</time>
      </trkpt>
      <trkpt lat="43.50215" lon="6.72616">
        <ele>73.263733</ele>
        <time>2011-01-21 15:04:44Z</time>
      </trkpt>
      <trkpt lat="43.50212" lon="6.72617">
        <ele>73.263733</ele>
        <time>2011-01-21 15:04:48Z</time>
      </trkpt>
      <trkpt lat="43.50208" lon="6.72617">
        <ele>72.263733</ele>
        <time>2011-01-21 15:04:52Z</time>
      </trkpt>
      <trkpt lat="43.50206" lon="6.72617">
        <ele>72.263725</ele>
        <time>2011-01-21 15:04:56Z</time>
      </trkpt>
      <trkpt lat="43.50201" lon="6.72617">
        <ele>73.263718</ele>
        <time>2011-01-21 15:05:00Z</time>
      </trkpt>
      <trkpt lat="43.50199" lon="6.72616">
        <ele>74.26371</ele>
        <time>2011-01-21 15:05:04Z</time>
      </trkpt>
      <trkpt lat="43.50198" lon="6.72615">
        <ele>74.26371</ele>
        <time>2011-01-21 15:05:08Z</time>
      </trkpt>
      <trkpt lat="43.50198" lon="6.72615">
        <ele>74.26371</ele>
        <time>2011-01-21 15:05:12Z</time>
      </trkpt>
      <trkpt lat="43.50192" lon="6.7261">
        <ele>72.263687</ele>
        <time>2011-01-21 15:05:16Z</time>
      </trkpt>
      <trkpt lat="43.5019" lon="6.72608">
        <ele>72.26368</ele>
        <time>2011-01-21 15:05:20Z</time>
      </trkpt>
      <trkpt lat="43.50188" lon="6.72607">
        <ele>72.263672</ele>
        <time>2011-01-21 15:05:24Z</time>
      </trkpt>
      <trkpt lat="43.50185" lon="6.72607">
        <ele>72.263672</ele>
        <time>2011-01-21 15:05:28Z</time>
      </trkpt>
      <trkpt lat="43.50184" lon="6.72607">
        <ele>73.263672</ele>
        <time>2011-01-21 15:05:32Z</time>
      </trkpt>
      <trkpt lat="43.50178" lon="6.72607">
        <ele>73.263657</ele>
        <time>2011-01-21 15:05:36Z</time>
      </trkpt>
      <trkpt lat="43.50174" lon="6.72607">
        <ele>71.263649</ele>
        <time>2011-01-21 15:05:40Z</time>
      </trkpt>
      <trkpt lat="43.5017" lon="6.72607">
        <ele>72.263641</ele>
        <time>2011-01-21 15:05:44Z</time>
      </trkpt>
      <trkpt lat="43.50166" lon="6.72607">
        <ele>73.263641</ele>
        <time>2011-01-21 15:05:48Z</time>
      </trkpt>
      <trkpt lat="43.50165" lon="6.72607">
        <ele>73.263634</ele>
        <time>2011-01-21 15:05:52Z</time>
      </trkpt>
      <trkpt lat="43.50158" lon="6.72607">
        <ele>71.263626</ele>
        <time>2011-01-21 15:05:56Z</time>
      </trkpt>
      <trkpt lat="43.50153" lon="6.72608">
        <ele>71.263618</ele>
        <time>2011-01-21 15:06:00Z</time>
      </trkpt>
      <trkpt lat="43.50151" lon="6.72609">
        <ele>71.263618</ele>
        <time>2011-01-21 15:06:04Z</time>
      </trkpt>
      <trkpt lat="43.50146" lon="6.72611">
        <ele>70.263611</ele>
        <time>2011-01-21 15:06:08Z</time>
      </trkpt>
      <trkpt lat="43.50139" lon="6.72612">
        <ele>69.263611</ele>
        <time>2011-01-21 15:06:12Z</time>
      </trkpt>
      <trkpt lat="43.50134" lon="6.72613">
        <ele>68.263603</ele>
        <time>2011-01-21 15:06:16Z</time>
      </trkpt>
      <trkpt lat="43.50131" lon="6.72614">
        <ele>68.263596</ele>
        <time>2011-01-21 15:06:20Z</time>
      </trkpt>
      <trkpt lat="43.50126" lon="6.72614">
        <ele>66.263596</ele>
        <time>2011-01-21 15:06:24Z</time>
      </trkpt>
      <trkpt lat="43.50123" lon="6.72615">
        <ele>65.26358</ele>
        <time>2011-01-21 15:06:28Z</time>
      </trkpt>
      <trkpt lat="43.50119" lon="6.72615">
        <ele>66.26358</ele>
        <time>2011-01-21 15:06:32Z</time>
      </trkpt>
      <trkpt lat="43.50116" lon="6.72616">
        <ele>65.263573</ele>
        <time>2011-01-21 15:06:36Z</time>
      </trkpt>
      <trkpt lat="43.50112" lon="6.72615">
        <ele>65.263565</ele>
        <time>2011-01-21 15:06:40Z</time>
      </trkpt>
      <trkpt lat="43.50109" lon="6.72613">
        <ele>64.263557</ele>
        <time>2011-01-21 15:06:44Z</time>
      </trkpt>
      <trkpt lat="43.50106" lon="6.72611">
        <ele>62.26355</ele>
        <time>2011-01-21 15:06:48Z</time>
      </trkpt>
      <trkpt lat="43.50103" lon="6.72608">
        <ele>63.263535</ele>
        <time>2011-01-21 15:06:52Z</time>
      </trkpt>
      <trkpt lat="43.501" lon="6.72603">
        <ele>63.263519</ele>
        <time>2011-01-21 15:06:56Z</time>
      </trkpt>
      <trkpt lat="43.50099" lon="6.72599">
        <ele>60.263508</ele>
        <time>2011-01-21 15:07:00Z</time>
      </trkpt>
      <trkpt lat="43.50098" lon="6.72597">
        <ele>59.2635</ele>
        <time>2011-01-21 15:07:05Z</time>
      </trkpt>
      <trkpt lat="43.50096" lon="6.7259">
        <ele>58.263481</ele>
        <time>2011-01-21 15:07:08Z</time>
      </trkpt>
      <trkpt lat="43.50094" lon="6.72586">
        <ele>57.263474</ele>
        <time>2011-01-21 15:07:12Z</time>
      </trkpt>
      <trkpt lat="43.50093" lon="6.72582">
        <ele>56.263458</ele>
        <time>2011-01-21 15:07:16Z</time>
      </trkpt>
      <trkpt lat="43.50092" lon="6.72578">
        <ele>55.263451</ele>
        <time>2011-01-21 15:07:20Z</time>
      </trkpt>
      <trkpt lat="43.50092" lon="6.72573">
        <ele>53.263443</ele>
        <time>2011-01-21 15:07:24Z</time>
      </trkpt>
      <trkpt lat="43.50092" lon="6.72572">
        <ele>53.263435</ele>
        <time>2011-01-21 15:07:28Z</time>
      </trkpt>
      <trkpt lat="43.50091" lon="6.72564">
        <ele>53.263416</ele>
        <time>2011-01-21 15:07:32Z</time>
      </trkpt>
      <trkpt lat="43.50091" lon="6.7256">
        <ele>53.263409</ele>
        <time>2011-01-21 15:07:36Z</time>
      </trkpt>
      <trkpt lat="43.50091" lon="6.72559">
        <ele>53.263409</ele>
        <time>2011-01-21 15:07:40Z</time>
      </trkpt>
      <trkpt lat="43.5009" lon="6.72553">
        <ele>52.26339</ele>
        <time>2011-01-21 15:07:44Z</time>
      </trkpt>
      <trkpt lat="43.50088" lon="6.72549">
        <ele>52.263382</ele>
        <time>2011-01-21 15:07:48Z</time>
      </trkpt>
      <trkpt lat="43.50087" lon="6.72545">
        <ele>52.263367</ele>
        <time>2011-01-21 15:07:52Z</time>
      </trkpt>
      <trkpt lat="43.50085" lon="6.72541">
        <ele>52.263359</ele>
        <time>2011-01-21 15:07:56Z</time>
      </trkpt>
      <trkpt lat="43.50082" lon="6.72538">
        <ele>51.263348</ele>
        <time>2011-01-21 15:08:00Z</time>
      </trkpt>
      <trkpt lat="43.50082" lon="6.72537">
        <ele>50.263344</ele>
        <time>2011-01-21 15:08:04Z</time>
      </trkpt>
      <trkpt lat="43.50079" lon="6.72533">
        <ele>51.263329</ele>
        <time>2011-01-21 15:08:08Z</time>
      </trkpt>
      <trkpt lat="43.50077" lon="6.72532">
        <ele>52.263321</ele>
        <time>2011-01-21 15:08:12Z</time>
      </trkpt>
      <trkpt lat="43.50075" lon="6.72531">
        <ele>53.263317</ele>
        <time>2011-01-21 15:08:16Z</time>
      </trkpt>
      <trkpt lat="43.50073" lon="6.72529">
        <ele>54.263309</ele>
        <time>2011-01-21 15:08:20Z</time>
      </trkpt>
      <trkpt lat="43.50072" lon="6.72528">
        <ele>55.263309</ele>
        <time>2011-01-21 15:08:24Z</time>
      </trkpt>
      <trkpt lat="43.5007" lon="6.72526">
        <ele>57.263298</ele>
        <time>2011-01-21 15:08:28Z</time>
      </trkpt>
      <trkpt lat="43.50068" lon="6.72526">
        <ele>57.263294</ele>
        <time>2011-01-21 15:08:32Z</time>
      </trkpt>
      <trkpt lat="43.50066" lon="6.72525">
        <ele>59.26329</ele>
        <time>2011-01-21 15:08:36Z</time>
      </trkpt>
      <trkpt lat="43.50064" lon="6.72524">
        <ele>59.263283</ele>
        <time>2011-01-21 15:08:40Z</time>
      </trkpt>
      <trkpt lat="43.50062" lon="6.72524">
        <ele>61.263275</ele>
        <time>2011-01-21 15:08:44Z</time>
      </trkpt>
      <trkpt lat="43.5006" lon="6.72524">
        <ele>61.263275</ele>
        <time>2011-01-21 15:08:48Z</time>
      </trkpt>
      <trkpt lat="43.50059" lon="6.72523">
        <ele>61.263275</ele>
        <time>2011-01-21 15:08:52Z</time>
      </trkpt>
      <trkpt lat="43.50059" lon="6.72522">
        <ele>60.263268</ele>
        <time>2011-01-21 15:08:56Z</time>
      </trkpt>
      <trkpt lat="43.50059" lon="6.72521">
        <ele>60.263268</ele>
        <time>2011-01-21 15:09:00Z</time>
      </trkpt>
      <trkpt lat="43.50058" lon="6.7252">
        <ele>61.263264</ele>
        <time>2011-01-21 15:09:04Z</time>
      </trkpt>
      <trkpt lat="43.50058" lon="6.7252">
        <ele>63.263264</ele>
        <time>2011-01-21 15:09:08Z</time>
      </trkpt>
      <trkpt lat="43.50058" lon="6.7252">
        <ele>63.263264</ele>
        <time>2011-01-21 15:09:12Z</time>
      </trkpt>
      <trkpt lat="43.50056" lon="6.72518">
        <ele>65.26326</ele>
        <time>2011-01-21 15:09:16Z</time>
      </trkpt>
      <trkpt lat="43.50054" lon="6.72518">
        <ele>67.263252</ele>
        <time>2011-01-21 15:09:20Z</time>
      </trkpt>
      <trkpt lat="43.50052" lon="6.72517">
        <ele>68.263252</ele>
        <time>2011-01-21 15:09:24Z</time>
      </trkpt>
      <trkpt lat="43.5005" lon="6.72516">
        <ele>67.263245</ele>
        <time>2011-01-21 15:09:28Z</time>
      </trkpt>
      <trkpt lat="43.50046" lon="6.72514">
        <ele>68.263229</ele>
        <time>2011-01-21 15:09:32Z</time>
      </trkpt>
      <trkpt lat="43.50042" lon="6.72512">
        <ele>67.263222</ele>
        <time>2011-01-21 15:09:36Z</time>
      </trkpt>
      <trkpt lat="43.50039" lon="6.72511">
        <ele>68.263214</ele>
        <time>2011-01-21 15:09:40Z</time>
      </trkpt>
      <trkpt lat="43.50035" lon="6.7251">
        <ele>69.263206</ele>
        <time>2011-01-21 15:09:44Z</time>
      </trkpt>
      <trkpt lat="43.50031" lon="6.72508">
        <ele>70.263191</ele>
        <time>2011-01-21 15:09:48Z</time>
      </trkpt>
      <trkpt lat="43.50028" lon="6.72506">
        <ele>70.263184</ele>
        <time>2011-01-21 15:09:52Z</time>
      </trkpt>
      <trkpt lat="43.50025" lon="6.72505">
        <ele>71.263176</ele>
        <time>2011-01-21 15:09:56Z</time>
      </trkpt>
      <trkpt lat="43.50021" lon="6.72504">
        <ele>71.263168</ele>
        <time>2011-01-21 15:10:00Z</time>
      </trkpt>
      <trkpt lat="43.5002" lon="6.72503">
        <ele>71.263168</ele>
        <time>2011-01-21 15:10:04Z</time>
      </trkpt>
      <trkpt lat="43.50017" lon="6.72499">
        <ele>72.263153</ele>
        <time>2011-01-21 15:10:08Z</time>
      </trkpt>
      <trkpt lat="43.50015" lon="6.72494">
        <ele>73.263138</ele>
        <time>2011-01-21 15:10:12Z</time>
      </trkpt>
      <trkpt lat="43.50012" lon="6.72489">
        <ele>73.263123</ele>
        <time>2011-01-21 15:10:16Z</time>
      </trkpt>
      <trkpt lat="43.50009" lon="6.72484">
        <ele>73.263107</ele>
        <time>2011-01-21 15:10:20Z</time>
      </trkpt>
      <trkpt lat="43.50006" lon="6.7248">
        <ele>73.263092</ele>
        <time>2011-01-21 15:10:24Z</time>
      </trkpt>
      <trkpt lat="43.50004" lon="6.72477">
        <ele>72.263084</ele>
        <time>2011-01-21 15:10:28Z</time>
      </trkpt>
      <trkpt lat="43.50002" lon="6.72475">
        <ele>71.263069</ele>
        <time>2011-01-21 15:10:32Z</time>
      </trkpt>
      <trkpt lat="43.50001" lon="6.72474">
        <ele>71.263069</ele>
        <time>2011-01-21 15:10:36Z</time>
      </trkpt>
      <trkpt lat="43.49997" lon="6.72471">
        <ele>71.263046</ele>
        <time>2011-01-21 15:10:40Z</time>
      </trkpt>
      <trkpt lat="43.49994" lon="6.72469">
        <ele>72.263046</ele>
        <time>2011-01-21 15:10:44Z</time>
      </trkpt>
      <trkpt lat="43.49991" lon="6.72466">
        <ele>72.263031</ele>
        <time>2011-01-21 15:10:48Z</time>
      </trkpt>
      <trkpt lat="43.49988" lon="6.72465">
        <ele>72.263023</ele>
        <time>2011-01-21 15:10:52Z</time>
      </trkpt>
      <trkpt lat="43.49985" lon="6.72464">
        <ele>73.263023</ele>
        <time>2011-01-21 15:10:56Z</time>
      </trkpt>
      <trkpt lat="43.49983" lon="6.72466">
        <ele>73.263023</ele>
        <time>2011-01-21 15:11:00Z</time>
      </trkpt>
      <trkpt lat="43.49981" lon="6.72467">
        <ele>73.263016</ele>
        <time>2011-01-21 15:11:04Z</time>
      </trkpt>
      <trkpt lat="43.49979" lon="6.7247">
        <ele>73.263023</ele>
        <time>2011-01-21 15:11:08Z</time>
      </trkpt>
      <trkpt lat="43.49978" lon="6.72472">
        <ele>73.263023</ele>
        <time>2011-01-21 15:11:12Z</time>
      </trkpt>
      <trkpt lat="43.49978" lon="6.72472">
        <ele>73.263023</ele>
        <time>2011-01-21 15:11:16Z</time>
      </trkpt>
      <trkpt lat="43.49975" lon="6.72475">
        <ele>75.263023</ele>
        <time>2011-01-21 15:11:20Z</time>
      </trkpt>
      <trkpt lat="43.49974" lon="6.72475">
        <ele>77.263023</ele>
        <time>2011-01-21 15:11:24Z</time>
      </trkpt>
      <trkpt lat="43.49973" lon="6.72476">
        <ele>77.263023</ele>
        <time>2011-01-21 15:11:28Z</time>
      </trkpt>
      <trkpt lat="43.49972" lon="6.72478">
        <ele>78.263031</ele>
        <time>2011-01-21 15:11:32Z</time>
      </trkpt>
      <trkpt lat="43.4997" lon="6.72482">
        <ele>78.263031</ele>
        <time>2011-01-21 15:11:36Z</time>
      </trkpt>
      <trkpt lat="43.4997" lon="6.72485">
        <ele>77.263046</ele>
        <time>2011-01-21 15:11:40Z</time>
      </trkpt>
      <trkpt lat="43.49969" lon="6.72488">
        <ele>77.263046</ele>
        <time>2011-01-21 15:11:44Z</time>
      </trkpt>
      <trkpt lat="43.49969" lon="6.72491">
        <ele>78.263054</ele>
        <time>2011-01-21 15:11:48Z</time>
      </trkpt>
      <trkpt lat="43.49969" lon="6.72492">
        <ele>78.263054</ele>
        <time>2011-01-21 15:11:52Z</time>
      </trkpt>
      <trkpt lat="43.49969" lon="6.72494">
        <ele>81.263062</ele>
        <time>2011-01-21 15:11:56Z</time>
      </trkpt>
      <trkpt lat="43.49969" lon="6.72496">
        <ele>82.263069</ele>
        <time>2011-01-21 15:12:00Z</time>
      </trkpt>
      <trkpt lat="43.49969" lon="6.72498">
        <ele>82.263077</ele>
        <time>2011-01-21 15:12:04Z</time>
      </trkpt>
      <trkpt lat="43.49968" lon="6.72501">
        <ele>82.263077</ele>
        <time>2011-01-21 15:12:08Z</time>
      </trkpt>
      <trkpt lat="43.49968" lon="6.72502">
        <ele>83.263077</ele>
        <time>2011-01-21 15:12:12Z</time>
      </trkpt>
      <trkpt lat="43.49968" lon="6.72502">
        <ele>83.263077</ele>
        <time>2011-01-21 15:12:16Z</time>
      </trkpt>
      <trkpt lat="43.49967" lon="6.72504">
        <ele>83.263077</ele>
        <time>2011-01-21 15:12:20Z</time>
      </trkpt>
      <trkpt lat="43.49967" lon="6.72505">
        <ele>83.263077</ele>
        <time>2011-01-21 15:12:24Z</time>
      </trkpt>
      <trkpt lat="43.49966" lon="6.72505">
        <ele>83.263077</ele>
        <time>2011-01-21 15:12:28Z</time>
      </trkpt>
      <trkpt lat="43.49965" lon="6.72506">
        <ele>84.263084</ele>
        <time>2011-01-21 15:12:32Z</time>
      </trkpt>
      <trkpt lat="43.49965" lon="6.72506">
        <ele>84.263084</ele>
        <time>2011-01-21 15:12:36Z</time>
      </trkpt>
      <trkpt lat="43.49964" lon="6.72507">
        <ele>84.263077</ele>
        <time>2011-01-21 15:12:40Z</time>
      </trkpt>
      <trkpt lat="43.49963" lon="6.72508">
        <ele>84.263084</ele>
        <time>2011-01-21 15:12:44Z</time>
      </trkpt>
      <trkpt lat="43.49962" lon="6.72509">
        <ele>85.263084</ele>
        <time>2011-01-21 15:12:48Z</time>
      </trkpt>
      <trkpt lat="43.49962" lon="6.72509">
        <ele>85.263084</ele>
        <time>2011-01-21 15:12:52Z</time>
      </trkpt>
      <trkpt lat="43.49962" lon="6.7251">
        <ele>85.263084</ele>
        <time>2011-01-21 15:12:56Z</time>
      </trkpt>
      <trkpt lat="43.49961" lon="6.7251">
        <ele>85.263084</ele>
        <time>2011-01-21 15:13:00Z</time>
      </trkpt>
      <trkpt lat="43.4996" lon="6.72511">
        <ele>86.263084</ele>
        <time>2011-01-21 15:13:04Z</time>
      </trkpt>
      <trkpt lat="43.49959" lon="6.72513">
        <ele>87.263084</ele>
        <time>2011-01-21 15:13:08Z</time>
      </trkpt>
      <trkpt lat="43.49958" lon="6.72515">
        <ele>87.263092</ele>
        <time>2011-01-21 15:13:12Z</time>
      </trkpt>
      <trkpt lat="43.49958" lon="6.72517">
        <ele>89.2631</ele>
        <time>2011-01-21 15:13:16Z</time>
      </trkpt>
      <trkpt lat="43.49958" lon="6.7252">
        <ele>90.2631</ele>
        <time>2011-01-21 15:13:20Z</time>
      </trkpt>
      <trkpt lat="43.49957" lon="6.72523">
        <ele>91.263107</ele>
        <time>2011-01-21 15:13:24Z</time>
      </trkpt>
      <trkpt lat="43.49956" lon="6.72526">
        <ele>91.263107</ele>
        <time>2011-01-21 15:13:28Z</time>
      </trkpt>
      <trkpt lat="43.49955" lon="6.72528">
        <ele>91.263115</ele>
        <time>2011-01-21 15:13:32Z</time>
      </trkpt>
      <trkpt lat="43.49955" lon="6.72529">
        <ele>91.263115</ele>
        <time>2011-01-21 15:13:36Z</time>
      </trkpt>
      <trkpt lat="43.49954" lon="6.72532">
        <ele>94.263115</ele>
        <time>2011-01-21 15:13:40Z</time>
      </trkpt>
      <trkpt lat="43.49953" lon="6.72533">
        <ele>95.263123</ele>
        <time>2011-01-21 15:13:44Z</time>
      </trkpt>
      <trkpt lat="43.49952" lon="6.72533">
        <ele>95.263123</ele>
        <time>2011-01-21 15:13:48Z</time>
      </trkpt>
      <trkpt lat="43.49951" lon="6.72536">
        <ele>95.263123</ele>
        <time>2011-01-21 15:13:52Z</time>
      </trkpt>
      <trkpt lat="43.49951" lon="6.72537">
        <ele>95.263123</ele>
        <time>2011-01-21 15:13:56Z</time>
      </trkpt>
      <trkpt lat="43.4995" lon="6.72539">
        <ele>97.26313</ele>
        <time>2011-01-21 15:14:00Z</time>
      </trkpt>
      <trkpt lat="43.49948" lon="6.7254">
        <ele>97.26313</ele>
        <time>2011-01-21 15:14:04Z</time>
      </trkpt>
      <trkpt lat="43.49946" lon="6.72541">
        <ele>98.263123</ele>
        <time>2011-01-21 15:14:08Z</time>
      </trkpt>
      <trkpt lat="43.49944" lon="6.72542">
        <ele>99.26313</ele>
        <time>2011-01-21 15:14:12Z</time>
      </trkpt>
      <trkpt lat="43.49941" lon="6.72543">
        <ele>99.263123</ele>
        <time>2011-01-21 15:14:16Z</time>
      </trkpt>
      <trkpt lat="43.49939" lon="6.72544">
        <ele>99.263123</ele>
        <time>2011-01-21 15:14:20Z</time>
      </trkpt>
      <trkpt lat="43.49938" lon="6.72544">
        <ele>99.263123</ele>
        <time>2011-01-21 15:14:24Z</time>
      </trkpt>
      <trkpt lat="43.49933" lon="6.72543">
        <ele>102.263107</ele>
        <time>2011-01-21 15:14:28Z</time>
      </trkpt>
      <trkpt lat="43.49933" lon="6.72543">
        <ele>103.263107</ele>
        <time>2011-01-21 15:14:32Z</time>
      </trkpt>
      <trkpt lat="43.49931" lon="6.72543">
        <ele>104.263107</ele>
        <time>2011-01-21 15:14:36Z</time>
      </trkpt>
      <trkpt lat="43.49929" lon="6.72542">
        <ele>104.263107</ele>
        <time>2011-01-21 15:14:40Z</time>
      </trkpt>
      <trkpt lat="43.49929" lon="6.72542">
        <ele>103.263107</ele>
        <time>2011-01-21 15:14:44Z</time>
      </trkpt>
      <trkpt lat="43.49926" lon="6.7254">
        <ele>102.263092</ele>
        <time>2011-01-21 15:14:48Z</time>
      </trkpt>
      <trkpt lat="43.49925" lon="6.72538">
        <ele>100.263084</ele>
        <time>2011-01-21 15:14:52Z</time>
      </trkpt>
      <trkpt lat="43.49923" lon="6.72536">
        <ele>96.263077</ele>
        <time>2011-01-21 15:14:56Z</time>
      </trkpt>
      <trkpt lat="43.49923" lon="6.72535">
        <ele>94.263077</ele>
        <time>2011-01-21 15:15:00Z</time>
      </trkpt>
      <trkpt lat="43.49923" lon="6.72533">
        <ele>92.263077</ele>
        <time>2011-01-21 15:15:04Z</time>
      </trkpt>
      <trkpt lat="43.49924" lon="6.72533">
        <ele>92.263077</ele>
        <time>2011-01-21 15:15:08Z</time>
      </trkpt>
      <trkpt lat="43.49925" lon="6.72532">
        <ele>92.263069</ele>
        <time>2011-01-21 15:15:12Z</time>
      </trkpt>
      <trkpt lat="43.49926" lon="6.7252">
        <ele>-48.736954</ele>
        <time>2011-01-21 15:31:12Z</time>
      </trkpt>
      <trkpt lat="43.49926" lon="6.7252">
        <ele>-48.736954</ele>
        <time>2011-01-21 15:31:16Z</time>
      </trkpt>
      <trkpt lat="43.49926" lon="6.7252">
        <ele>-48.736954</ele>
        <time>2011-01-21 15:31:20Z</time>
      </trkpt>
      <trkpt lat="43.49926" lon="6.7252">
        <ele>-48.736954</ele>
        <time>2011-01-21 15:31:24Z</time>
      </trkpt>
      <trkpt lat="43.49926" lon="6.7252">
        <ele>-48.736954</ele>
        <time>2011-01-21 15:31:28Z</time>
      </trkpt>
      <trkpt lat="43.49924" lon="6.72536">
        <ele>94.263077</ele>
        <time>2011-01-21 15:31:32Z</time>
      </trkpt>
      <trkpt lat="43.49921" lon="6.72539">
        <ele>95.263084</ele>
        <time>2011-01-21 15:31:36Z</time>
      </trkpt>
      <trkpt lat="43.49918" lon="6.72542">
        <ele>95.263084</ele>
        <time>2011-01-21 15:31:40Z</time>
      </trkpt>
      <trkpt lat="43.49915" lon="6.72544">
        <ele>96.263084</ele>
        <time>2011-01-21 15:31:44Z</time>
      </trkpt>
      <trkpt lat="43.49912" lon="6.72545">
        <ele>94.263077</ele>
        <time>2011-01-21 15:31:48Z</time>
      </trkpt>
      <trkpt lat="43.49911" lon="6.72547">
        <ele>95.263084</ele>
        <time>2011-01-21 15:31:52Z</time>
      </trkpt>
      <trkpt lat="43.49908" lon="6.72547">
        <ele>97.263077</ele>
        <time>2011-01-21 15:31:56Z</time>
      </trkpt>
      <trkpt lat="43.49905" lon="6.72548">
        <ele>99.263077</ele>
        <time>2011-01-21 15:32:00Z</time>
      </trkpt>
      <trkpt lat="43.49903" lon="6.72549">
        <ele>99.263077</ele>
        <time>2011-01-21 15:32:04Z</time>
      </trkpt>
      <trkpt lat="43.499" lon="6.7255">
        <ele>99.263077</ele>
        <time>2011-01-21 15:32:08Z</time>
      </trkpt>
      <trkpt lat="43.49897" lon="6.72551">
        <ele>100.263077</ele>
        <time>2011-01-21 15:32:12Z</time>
      </trkpt>
      <trkpt lat="43.49894" lon="6.72552">
        <ele>102.263069</ele>
        <time>2011-01-21 15:32:16Z</time>
      </trkpt>
      <trkpt lat="43.49891" lon="6.72553">
        <ele>102.263062</ele>
        <time>2011-01-21 15:32:20Z</time>
      </trkpt>
      <trkpt lat="43.49888" lon="6.72554">
        <ele>104.263062</ele>
        <time>2011-01-21 15:32:24Z</time>
      </trkpt>
      <trkpt lat="43.49887" lon="6.72555">
        <ele>105.263062</ele>
        <time>2011-01-21 15:32:28Z</time>
      </trkpt>
      <trkpt lat="43.49882" lon="6.72557">
        <ele>105.263054</ele>
        <time>2011-01-21 15:32:32Z</time>
      </trkpt>
      <trkpt lat="43.49879" lon="6.72558">
        <ele>105.263062</ele>
        <time>2011-01-21 15:32:36Z</time>
      </trkpt>
      <trkpt lat="43.49878" lon="6.72559">
        <ele>106.263062</ele>
        <time>2011-01-21 15:32:40Z</time>
      </trkpt>
      <trkpt lat="43.49875" lon="6.72561">
        <ele>108.263054</ele>
        <time>2011-01-21 15:32:44Z</time>
      </trkpt>
      <trkpt lat="43.49874" lon="6.72561">
        <ele>107.263062</ele>
        <time>2011-01-21 15:32:48Z</time>
      </trkpt>
      <trkpt lat="43.49874" lon="6.72561">
        <ele>107.263062</ele>
        <time>2011-01-21 15:32:52Z</time>
      </trkpt>
      <trkpt lat="43.49868" lon="6.72564">
        <ele>107.263046</ele>
        <time>2011-01-21 15:32:56Z</time>
      </trkpt>
      <trkpt lat="43.49865" lon="6.72564">
        <ele>107.263046</ele>
        <time>2011-01-21 15:33:00Z</time>
      </trkpt>
      <trkpt lat="43.49862" lon="6.72565">
        <ele>107.263046</ele>
        <time>2011-01-21 15:33:04Z</time>
      </trkpt>
      <trkpt lat="43.49859" lon="6.72566">
        <ele>107.263039</ele>
        <time>2011-01-21 15:33:08Z</time>
      </trkpt>
      <trkpt lat="43.49856" lon="6.72566">
        <ele>107.263039</ele>
        <time>2011-01-21 15:33:12Z</time>
      </trkpt>
      <trkpt lat="43.49854" lon="6.72567">
        <ele>107.263039</ele>
        <time>2011-01-21 15:33:16Z</time>
      </trkpt>
      <trkpt lat="43.49852" lon="6.72569">
        <ele>106.263039</ele>
        <time>2011-01-21 15:33:20Z</time>
      </trkpt>
      <trkpt lat="43.49849" lon="6.72574">
        <ele>105.263046</ele>
        <time>2011-01-21 15:33:24Z</time>
      </trkpt>
      <trkpt lat="43.49848" lon="6.72578">
        <ele>109.263054</ele>
        <time>2011-01-21 15:33:28Z</time>
      </trkpt>
      <trkpt lat="43.49847" lon="6.72584">
        <ele>110.263062</ele>
        <time>2011-01-21 15:33:32Z</time>
      </trkpt>
      <trkpt lat="43.49846" lon="6.72588">
        <ele>109.263069</ele>
        <time>2011-01-21 15:33:36Z</time>
      </trkpt>
      <trkpt lat="43.49845" lon="6.72594">
        <ele>109.263084</ele>
        <time>2011-01-21 15:33:40Z</time>
      </trkpt>
      <trkpt lat="43.49844" lon="6.72598">
        <ele>109.263092</ele>
        <time>2011-01-21 15:33:44Z</time>
      </trkpt>
      <trkpt lat="43.49844" lon="6.72601">
        <ele>110.2631</ele>
        <time>2011-01-21 15:33:48Z</time>
      </trkpt>
      <trkpt lat="43.49844" lon="6.72605">
        <ele>111.263107</ele>
        <time>2011-01-21 15:33:52Z</time>
      </trkpt>
      <trkpt lat="43.49846" lon="6.72608">
        <ele>109.263115</ele>
        <time>2011-01-21 15:33:56Z</time>
      </trkpt>
      <trkpt lat="43.49846" lon="6.72608">
        <ele>109.263115</ele>
        <time>2011-01-21 15:34:00Z</time>
      </trkpt>
      <trkpt lat="43.49848" lon="6.72614">
        <ele>109.26313</ele>
        <time>2011-01-21 15:34:04Z</time>
      </trkpt>
      <trkpt lat="43.49849" lon="6.72618">
        <ele>108.263138</ele>
        <time>2011-01-21 15:34:08Z</time>
      </trkpt>
      <trkpt lat="43.49851" lon="6.72622">
        <ele>109.263153</ele>
        <time>2011-01-21 15:34:12Z</time>
      </trkpt>
      <trkpt lat="43.49853" lon="6.72626">
        <ele>109.263168</ele>
        <time>2011-01-21 15:34:16Z</time>
      </trkpt>
      <trkpt lat="43.49854" lon="6.72629">
        <ele>110.263176</ele>
        <time>2011-01-21 15:34:20Z</time>
      </trkpt>
      <trkpt lat="43.49856" lon="6.72635">
        <ele>110.263191</ele>
        <time>2011-01-21 15:34:24Z</time>
      </trkpt>
      <trkpt lat="43.49857" lon="6.72637">
        <ele>110.263199</ele>
        <time>2011-01-21 15:34:28Z</time>
      </trkpt>
      <trkpt lat="43.49859" lon="6.72643">
        <ele>111.263214</ele>
        <time>2011-01-21 15:34:32Z</time>
      </trkpt>
      <trkpt lat="43.4986" lon="6.72644">
        <ele>110.263222</ele>
        <time>2011-01-21 15:34:36Z</time>
      </trkpt>
      <trkpt lat="43.49862" lon="6.72645">
        <ele>111.263229</ele>
        <time>2011-01-21 15:34:40Z</time>
      </trkpt>
      <trkpt lat="43.49862" lon="6.72645">
        <ele>111.263229</ele>
        <time>2011-01-21 15:34:44Z</time>
      </trkpt>
      <trkpt lat="43.49868" lon="6.72647">
        <ele>113.263237</ele>
        <time>2011-01-21 15:34:48Z</time>
      </trkpt>
      <trkpt lat="43.49868" lon="6.72647">
        <ele>113.263237</ele>
        <time>2011-01-21 15:34:52Z</time>
      </trkpt>
      <trkpt lat="43.49872" lon="6.72649">
        <ele>114.263252</ele>
        <time>2011-01-21 15:34:56Z</time>
      </trkpt>
      <trkpt lat="43.49875" lon="6.72651">
        <ele>114.26326</ele>
        <time>2011-01-21 15:35:00Z</time>
      </trkpt>
      <trkpt lat="43.49881" lon="6.72657">
        <ele>115.263283</ele>
        <time>2011-01-21 15:35:04Z</time>
      </trkpt>
      <trkpt lat="43.49881" lon="6.72657">
        <ele>115.263283</ele>
        <time>2011-01-21 15:35:08Z</time>
      </trkpt>
      <trkpt lat="43.49887" lon="6.72666">
        <ele>115.263313</ele>
        <time>2011-01-21 15:35:12Z</time>
      </trkpt>
      <trkpt lat="43.4989" lon="6.72671">
        <ele>115.263329</ele>
        <time>2011-01-21 15:35:16Z</time>
      </trkpt>
      <trkpt lat="43.49892" lon="6.72673">
        <ele>115.263336</ele>
        <time>2011-01-21 15:35:20Z</time>
      </trkpt>
      <trkpt lat="43.49894" lon="6.72676">
        <ele>116.263344</ele>
        <time>2011-01-21 15:35:24Z</time>
      </trkpt>
      <trkpt lat="43.49896" lon="6.72679">
        <ele>116.263359</ele>
        <time>2011-01-21 15:35:28Z</time>
      </trkpt>
      <trkpt lat="43.49898" lon="6.72682">
        <ele>117.263367</ele>
        <time>2011-01-21 15:35:32Z</time>
      </trkpt>
      <trkpt lat="43.499" lon="6.72685">
        <ele>117.263382</ele>
        <time>2011-01-21 15:35:36Z</time>
      </trkpt>
      <trkpt lat="43.49901" lon="6.72687">
        <ele>117.263382</ele>
        <time>2011-01-21 15:35:40Z</time>
      </trkpt>
      <trkpt lat="43.49901" lon="6.72687">
        <ele>117.263382</ele>
        <time>2011-01-21 15:35:44Z</time>
      </trkpt>
      <trkpt lat="43.49908" lon="6.72696">
        <ele>117.263412</ele>
        <time>2011-01-21 15:35:48Z</time>
      </trkpt>
      <trkpt lat="43.4991" lon="6.72699">
        <ele>117.263428</ele>
        <time>2011-01-21 15:35:52Z</time>
      </trkpt>
      <trkpt lat="43.49913" lon="6.72702">
        <ele>117.263435</ele>
        <time>2011-01-21 15:35:56Z</time>
      </trkpt>
      <trkpt lat="43.49917" lon="6.72704">
        <ele>117.263451</ele>
        <time>2011-01-21 15:36:00Z</time>
      </trkpt>
      <trkpt lat="43.49921" lon="6.72708">
        <ele>117.263466</ele>
        <time>2011-01-21 15:36:04Z</time>
      </trkpt>
      <trkpt lat="43.49924" lon="6.72711">
        <ele>118.263474</ele>
        <time>2011-01-21 15:36:08Z</time>
      </trkpt>
      <trkpt lat="43.49928" lon="6.72714">
        <ele>118.263489</ele>
        <time>2011-01-21 15:36:12Z</time>
      </trkpt>
      <trkpt lat="43.49928" lon="6.72714">
        <ele>118.263489</ele>
        <time>2011-01-21 15:36:16Z</time>
      </trkpt>
      <trkpt lat="43.49928" lon="6.72714">
        <ele>118.263489</ele>
        <time>2011-01-21 15:36:20Z</time>
      </trkpt>
      <trkpt lat="43.49928" lon="6.72714">
        <ele>118.263489</ele>
        <time>2011-01-21 15:36:24Z</time>
      </trkpt>
      <trkpt lat="43.49935" lon="6.72722">
        <ele>118.263519</ele>
        <time>2011-01-21 15:36:28Z</time>
      </trkpt>
      <trkpt lat="43.49937" lon="6.72726">
        <ele>120.263527</ele>
        <time>2011-01-21 15:36:32Z</time>
      </trkpt>
      <trkpt lat="43.4994" lon="6.7273">
        <ele>120.263542</ele>
        <time>2011-01-21 15:36:36Z</time>
      </trkpt>
      <trkpt lat="43.49941" lon="6.72731">
        <ele>120.26355</ele>
        <time>2011-01-21 15:36:40Z</time>
      </trkpt>
      <trkpt lat="43.49945" lon="6.7274">
        <ele>119.263573</ele>
        <time>2011-01-21 15:36:44Z</time>
      </trkpt>
      <trkpt lat="43.49946" lon="6.72743">
        <ele>119.26358</ele>
        <time>2011-01-21 15:36:48Z</time>
      </trkpt>
      <trkpt lat="43.4995" lon="6.72751">
        <ele>120.263611</ele>
        <time>2011-01-21 15:36:52Z</time>
      </trkpt>
      <trkpt lat="43.49951" lon="6.72754">
        <ele>120.263618</ele>
        <time>2011-01-21 15:36:56Z</time>
      </trkpt>
      <trkpt lat="43.49953" lon="6.72759">
        <ele>119.263634</ele>
        <time>2011-01-21 15:37:00Z</time>
      </trkpt>
      <trkpt lat="43.49956" lon="6.72766">
        <ele>120.263649</ele>
        <time>2011-01-21 15:37:04Z</time>
      </trkpt>
      <trkpt lat="43.49958" lon="6.72771">
        <ele>121.263672</ele>
        <time>2011-01-21 15:37:08Z</time>
      </trkpt>
      <trkpt lat="43.49958" lon="6.72771">
        <ele>121.263672</ele>
        <time>2011-01-21 15:37:12Z</time>
      </trkpt>
      <trkpt lat="43.49961" lon="6.72778">
        <ele>123.263687</ele>
        <time>2011-01-21 15:37:16Z</time>
      </trkpt>
      <trkpt lat="43.49963" lon="6.72784">
        <ele>123.263702</ele>
        <time>2011-01-21 15:37:20Z</time>
      </trkpt>
      <trkpt lat="43.49963" lon="6.72785">
        <ele>123.263702</ele>
        <time>2011-01-21 15:37:24Z</time>
      </trkpt>
      <trkpt lat="43.49963" lon="6.72792">
        <ele>123.263718</ele>
        <time>2011-01-21 15:37:28Z</time>
      </trkpt>
      <trkpt lat="43.49963" lon="6.72794">
        <ele>123.263725</ele>
        <time>2011-01-21 15:37:32Z</time>
      </trkpt>
      <trkpt lat="43.49963" lon="6.728">
        <ele>127.263741</ele>
        <time>2011-01-21 15:37:36Z</time>
      </trkpt>
      <trkpt lat="43.49963" lon="6.728">
        <ele>127.263741</ele>
        <time>2011-01-21 15:37:40Z</time>
      </trkpt>
      <trkpt lat="43.49964" lon="6.72809">
        <ele>125.263763</ele>
        <time>2011-01-21 15:37:44Z</time>
      </trkpt>
      <trkpt lat="43.49965" lon="6.72815">
        <ele>124.263779</ele>
        <time>2011-01-21 15:37:48Z</time>
      </trkpt>
      <trkpt lat="43.49966" lon="6.7282">
        <ele>124.263786</ele>
        <time>2011-01-21 15:37:52Z</time>
      </trkpt>
      <trkpt lat="43.49966" lon="6.7282">
        <ele>124.263786</ele>
        <time>2011-01-21 15:37:56Z</time>
      </trkpt>
      <trkpt lat="43.49966" lon="6.7282">
        <ele>124.263786</ele>
        <time>2011-01-21 15:38:00Z</time>
      </trkpt>
      <trkpt lat="43.4997" lon="6.7283">
        <ele>125.263817</ele>
        <time>2011-01-21 15:38:04Z</time>
      </trkpt>
      <trkpt lat="43.49971" lon="6.72831">
        <ele>125.263824</ele>
        <time>2011-01-21 15:38:08Z</time>
      </trkpt>
      <trkpt lat="43.49974" lon="6.72835">
        <ele>127.26384</ele>
        <time>2011-01-21 15:38:12Z</time>
      </trkpt>
      <trkpt lat="43.49977" lon="6.72838">
        <ele>126.263855</ele>
        <time>2011-01-21 15:38:16Z</time>
      </trkpt>
      <trkpt lat="43.49982" lon="6.72842">
        <ele>126.263863</ele>
        <time>2011-01-21 15:38:20Z</time>
      </trkpt>
      <trkpt lat="43.49986" lon="6.72844">
        <ele>126.263878</ele>
        <time>2011-01-21 15:38:24Z</time>
      </trkpt>
      <trkpt lat="43.49991" lon="6.72846">
        <ele>126.263885</ele>
        <time>2011-01-21 15:38:28Z</time>
      </trkpt>
      <trkpt lat="43.49992" lon="6.72847">
        <ele>127.263893</ele>
        <time>2011-01-21 15:38:32Z</time>
      </trkpt>
      <trkpt lat="43.50001" lon="6.72851">
        <ele>129.263916</ele>
        <time>2011-01-21 15:38:36Z</time>
      </trkpt>
      <trkpt lat="43.50001" lon="6.72851">
        <ele>129.263916</ele>
        <time>2011-01-21 15:38:40Z</time>
      </trkpt>
      <trkpt lat="43.50001" lon="6.72851">
        <ele>129.263916</ele>
        <time>2011-01-21 15:38:44Z</time>
      </trkpt>
      <trkpt lat="43.50009" lon="6.72858">
        <ele>131.263947</ele>
        <time>2011-01-21 15:38:48Z</time>
      </trkpt>
      <trkpt lat="43.50011" lon="6.72862">
        <ele>131.263947</ele>
        <time>2011-01-21 15:38:52Z</time>
      </trkpt>
      <trkpt lat="43.50013" lon="6.72864">
        <ele>130.263977</ele>
        <time>2011-01-21 15:38:56Z</time>
      </trkpt>
      <trkpt lat="43.50015" lon="6.72866">
        <ele>132.263977</ele>
        <time>2011-01-21 15:39:00Z</time>
      </trkpt>
      <trkpt lat="43.50015" lon="6.72866">
        <ele>132.263977</ele>
        <time>2011-01-21 15:39:04Z</time>
      </trkpt>
      <trkpt lat="43.50016" lon="6.72872">
        <ele>137.263992</ele>
        <time>2011-01-21 15:39:08Z</time>
      </trkpt>
      <trkpt lat="43.50016" lon="6.72872">
        <ele>139.263992</ele>
        <time>2011-01-21 15:39:12Z</time>
      </trkpt>
      <trkpt lat="43.50016" lon="6.72873">
        <ele>140.263992</ele>
        <time>2011-01-21 15:39:16Z</time>
      </trkpt>
      <trkpt lat="43.50016" lon="6.72873">
        <ele>140.263992</ele>
        <time>2011-01-21 15:39:20Z</time>
      </trkpt>
      <trkpt lat="43.50016" lon="6.72874">
        <ele>140.263992</ele>
        <time>2011-01-21 15:39:24Z</time>
      </trkpt>
      <trkpt lat="43.50017" lon="6.72875">
        <ele>139.263992</ele>
        <time>2011-01-21 15:39:28Z</time>
      </trkpt>
      <trkpt lat="43.50017" lon="6.72875">
        <ele>139.263992</ele>
        <time>2011-01-21 15:39:32Z</time>
      </trkpt>
      <trkpt lat="43.50017" lon="6.72875">
        <ele>139.263992</ele>
        <time>2011-01-21 15:39:36Z</time>
      </trkpt>
      <trkpt lat="43.50017" lon="6.72877">
        <ele>138.264008</ele>
        <time>2011-01-21 15:39:40Z</time>
      </trkpt>
      <trkpt lat="43.50017" lon="6.72879">
        <ele>138.264008</ele>
        <time>2011-01-21 15:39:44Z</time>
      </trkpt>
      <trkpt lat="43.50018" lon="6.72882">
        <ele>137.264008</ele>
        <time>2011-01-21 15:39:48Z</time>
      </trkpt>
      <trkpt lat="43.50018" lon="6.72882">
        <ele>137.264008</ele>
        <time>2011-01-21 15:39:52Z</time>
      </trkpt>
      <trkpt lat="43.50018" lon="6.72882">
        <ele>137.264008</ele>
        <time>2011-01-21 15:39:56Z</time>
      </trkpt>
      <trkpt lat="43.50018" lon="6.72882">
        <ele>137.264008</ele>
        <time>2011-01-21 15:40:00Z</time>
      </trkpt>
      <trkpt lat="43.50016" lon="6.72881">
        <ele>130.264008</ele>
        <time>2011-01-21 15:40:04Z</time>
      </trkpt>
      <trkpt lat="43.50015" lon="6.72882">
        <ele>131.264008</ele>
        <time>2011-01-21 15:40:08Z</time>
      </trkpt>
      <trkpt lat="43.50015" lon="6.72882">
        <ele>131.264008</ele>
        <time>2011-01-21 15:40:12Z</time>
      </trkpt>
      <trkpt lat="43.50015" lon="6.72882">
        <ele>131.264008</ele>
        <time>2011-01-21 15:40:16Z</time>
      </trkpt>
      <trkpt lat="43.50015" lon="6.72882">
        <ele>131.264008</ele>
        <time>2011-01-21 15:40:20Z</time>
      </trkpt>
      <trkpt lat="43.50015" lon="6.72882">
        <ele>131.264008</ele>
        <time>2011-01-21 15:40:24Z</time>
      </trkpt>
      <trkpt lat="43.50011" lon="6.72882">
        <ele>140.264008</ele>
        <time>2011-01-21 15:40:28Z</time>
      </trkpt>
      <trkpt lat="43.50011" lon="6.72882">
        <ele>140.264008</ele>
        <time>2011-01-21 15:40:32Z</time>
      </trkpt>
      <trkpt lat="43.50011" lon="6.72882">
        <ele>140.264008</ele>
        <time>2011-01-21 15:40:36Z</time>
      </trkpt>
      <trkpt lat="43.50011" lon="6.72882">
        <ele>140.264008</ele>
        <time>2011-01-21 15:40:40Z</time>
      </trkpt>
      <trkpt lat="43.50011" lon="6.72882">
        <ele>140.264008</ele>
        <time>2011-01-21 15:40:44Z</time>
      </trkpt>
      <trkpt lat="43.50011" lon="6.7288">
        <ele>136.264008</ele>
        <time>2011-01-21 15:40:48Z</time>
      </trkpt>
      <trkpt lat="43.50012" lon="6.7288">
        <ele>138.264008</ele>
        <time>2011-01-21 15:40:52Z</time>
      </trkpt>
      <trkpt lat="43.50011" lon="6.7288">
        <ele>141.264008</ele>
        <time>2011-01-21 15:40:56Z</time>
      </trkpt>
      <trkpt lat="43.50011" lon="6.7288">
        <ele>143.264008</ele>
        <time>2011-01-21 15:41:00Z</time>
      </trkpt>
      <trkpt lat="43.5001" lon="6.7288">
        <ele>147.263992</ele>
        <time>2011-01-21 15:41:04Z</time>
      </trkpt>
      <trkpt lat="43.50009" lon="6.7288">
        <ele>148.263992</ele>
        <time>2011-01-21 15:41:08Z</time>
      </trkpt>
      <trkpt lat="43.5001" lon="6.72882">
        <ele>149.264008</ele>
        <time>2011-01-21 15:41:12Z</time>
      </trkpt>
      <trkpt lat="43.5001" lon="6.72883">
        <ele>150.264008</ele>
        <time>2011-01-21 15:41:16Z</time>
      </trkpt>
      <trkpt lat="43.50011" lon="6.72884">
        <ele>151.264008</ele>
        <time>2011-01-21 15:41:20Z</time>
      </trkpt>
      <trkpt lat="43.50011" lon="6.72885">
        <ele>152.264008</ele>
        <time>2011-01-21 15:41:24Z</time>
      </trkpt>
      <trkpt lat="43.50011" lon="6.72885">
        <ele>151.264008</ele>
        <time>2011-01-21 15:41:28Z</time>
      </trkpt>
      <trkpt lat="43.5001" lon="6.72881">
        <ele>149.263992</ele>
        <time>2011-01-21 15:41:32Z</time>
      </trkpt>
      <trkpt lat="43.5001" lon="6.72877">
        <ele>148.263992</ele>
        <time>2011-01-21 15:41:36Z</time>
      </trkpt>
      <trkpt lat="43.5001" lon="6.72875">
        <ele>148.263977</ele>
        <time>2011-01-21 15:41:40Z</time>
      </trkpt>
      <trkpt lat="43.5001" lon="6.72875">
        <ele>148.263977</ele>
        <time>2011-01-21 15:41:44Z</time>
      </trkpt>
      <trkpt lat="43.5001" lon="6.72875">
        <ele>148.263977</ele>
        <time>2011-01-21 15:41:48Z</time>
      </trkpt>
      <trkpt lat="43.5001" lon="6.7287">
        <ele>152.263977</ele>
        <time>2011-01-21 15:41:52Z</time>
      </trkpt>
      <trkpt lat="43.5001" lon="6.72869">
        <ele>153.263977</ele>
        <time>2011-01-21 15:41:56Z</time>
      </trkpt>
      <trkpt lat="43.5001" lon="6.72869">
        <ele>153.263977</ele>
        <time>2011-01-21 15:42:00Z</time>
      </trkpt>
      <trkpt lat="43.50011" lon="6.72868">
        <ele>152.263977</ele>
        <time>2011-01-21 15:42:04Z</time>
      </trkpt>
      <trkpt lat="43.50011" lon="6.72868">
        <ele>153.263977</ele>
        <time>2011-01-21 15:42:08Z</time>
      </trkpt>
      <trkpt lat="43.50011" lon="6.72868">
        <ele>153.263977</ele>
        <time>2011-01-21 15:42:12Z</time>
      </trkpt>
      <trkpt lat="43.50011" lon="6.72868">
        <ele>153.263977</ele>
        <time>2011-01-21 15:42:16Z</time>
      </trkpt>
      <trkpt lat="43.50011" lon="6.72868">
        <ele>153.263977</ele>
        <time>2011-01-21 15:42:20Z</time>
      </trkpt>
      <trkpt lat="43.50011" lon="6.72868">
        <ele>153.263977</ele>
        <time>2011-01-21 15:42:24Z</time>
      </trkpt>
      <trkpt lat="43.50013" lon="6.72869">
        <ele>156.263977</ele>
        <time>2011-01-21 15:42:28Z</time>
      </trkpt>
      <trkpt lat="43.50014" lon="6.72869">
        <ele>156.263977</ele>
        <time>2011-01-21 15:42:32Z</time>
      </trkpt>
      <trkpt lat="43.50015" lon="6.7287">
        <ele>156.263977</ele>
        <time>2011-01-21 15:42:36Z</time>
      </trkpt>
      <trkpt lat="43.50016" lon="6.7287">
        <ele>154.263977</ele>
        <time>2011-01-21 15:42:40Z</time>
      </trkpt>
      <trkpt lat="43.50017" lon="6.72871">
        <ele>154.263977</ele>
        <time>2011-01-21 15:42:44Z</time>
      </trkpt>
      <trkpt lat="43.50018" lon="6.72871">
        <ele>153.263992</ele>
        <time>2011-01-21 15:42:48Z</time>
      </trkpt>
      <trkpt lat="43.5002" lon="6.72871">
        <ele>152.263992</ele>
        <time>2011-01-21 15:42:52Z</time>
      </trkpt>
      <trkpt lat="43.5002" lon="6.72872">
        <ele>152.264008</ele>
        <time>2011-01-21 15:42:56Z</time>
      </trkpt>
      <trkpt lat="43.50021" lon="6.72874">
        <ele>152.264008</ele>
        <time>2011-01-21 15:43:00Z</time>
      </trkpt>
      <trkpt lat="43.50021" lon="6.72874">
        <ele>152.264008</ele>
        <time>2011-01-21 15:43:04Z</time>
      </trkpt>
      <trkpt lat="43.50023" lon="6.72878">
        <ele>151.264008</ele>
        <time>2011-01-21 15:43:08Z</time>
      </trkpt>
      <trkpt lat="43.50023" lon="6.72878">
        <ele>151.264008</ele>
        <time>2011-01-21 15:43:12Z</time>
      </trkpt>
      <trkpt lat="43.50024" lon="6.72879">
        <ele>149.264008</ele>
        <time>2011-01-21 15:43:16Z</time>
      </trkpt>
      <trkpt lat="43.50024" lon="6.7288">
        <ele>149.264023</ele>
        <time>2011-01-21 15:43:20Z</time>
      </trkpt>
      <trkpt lat="43.50024" lon="6.7288">
        <ele>149.264023</ele>
        <time>2011-01-21 15:43:24Z</time>
      </trkpt>
      <trkpt lat="43.50025" lon="6.72881">
        <ele>147.264023</ele>
        <time>2011-01-21 15:43:28Z</time>
      </trkpt>
      <trkpt lat="43.50025" lon="6.72882">
        <ele>146.264023</ele>
        <time>2011-01-21 15:43:32Z</time>
      </trkpt>
      <trkpt lat="43.50025" lon="6.72882">
        <ele>146.264023</ele>
        <time>2011-01-21 15:43:36Z</time>
      </trkpt>
      <trkpt lat="43.50025" lon="6.72882">
        <ele>146.264023</ele>
        <time>2011-01-21 15:43:40Z</time>
      </trkpt>
      <trkpt lat="43.50027" lon="6.72886">
        <ele>147.264038</ele>
        <time>2011-01-21 15:43:44Z</time>
      </trkpt>
      <trkpt lat="43.50029" lon="6.72888">
        <ele>147.264038</ele>
        <time>2011-01-21 15:43:48Z</time>
      </trkpt>
      <trkpt lat="43.50031" lon="6.72889">
        <ele>147.264053</ele>
        <time>2011-01-21 15:43:52Z</time>
      </trkpt>
      <trkpt lat="43.50032" lon="6.72893">
        <ele>145.264069</ele>
        <time>2011-01-21 15:43:56Z</time>
      </trkpt>
      <trkpt lat="43.50032" lon="6.72897">
        <ele>143.264069</ele>
        <time>2011-01-21 15:44:00Z</time>
      </trkpt>
      <trkpt lat="43.50032" lon="6.729">
        <ele>142.264069</ele>
        <time>2011-01-21 15:44:04Z</time>
      </trkpt>
      <trkpt lat="43.50032" lon="6.729">
        <ele>142.264069</ele>
        <time>2011-01-21 15:44:08Z</time>
      </trkpt>
      <trkpt lat="43.50032" lon="6.729">
        <ele>142.264069</ele>
        <time>2011-01-21 15:44:12Z</time>
      </trkpt>
      <trkpt lat="43.50032" lon="6.72916">
        <ele>143.264114</ele>
        <time>2011-01-21 15:44:16Z</time>
      </trkpt>
      <trkpt lat="43.50032" lon="6.7292">
        <ele>143.26413</ele>
        <time>2011-01-21 15:44:20Z</time>
      </trkpt>
      <trkpt lat="43.50032" lon="6.7292">
        <ele>143.26413</ele>
        <time>2011-01-21 15:44:24Z</time>
      </trkpt>
      <trkpt lat="43.50032" lon="6.72926">
        <ele>143.26413</ele>
        <time>2011-01-21 15:44:28Z</time>
      </trkpt>
      <trkpt lat="43.50032" lon="6.72928">
        <ele>143.264145</ele>
        <time>2011-01-21 15:44:32Z</time>
      </trkpt>
      <trkpt lat="43.50032" lon="6.72934">
        <ele>144.26416</ele>
        <time>2011-01-21 15:44:36Z</time>
      </trkpt>
      <trkpt lat="43.50032" lon="6.72935">
        <ele>144.26416</ele>
        <time>2011-01-21 15:44:40Z</time>
      </trkpt>
      <trkpt lat="43.50032" lon="6.72935">
        <ele>144.26416</ele>
        <time>2011-01-21 15:44:44Z</time>
      </trkpt>
      <trkpt lat="43.50032" lon="6.72944">
        <ele>145.264175</ele>
        <time>2011-01-21 15:44:48Z</time>
      </trkpt>
      <trkpt lat="43.50032" lon="6.72947">
        <ele>147.264191</ele>
        <time>2011-01-21 15:44:52Z</time>
      </trkpt>
      <trkpt lat="43.50032" lon="6.72949">
        <ele>147.264191</ele>
        <time>2011-01-21 15:44:56Z</time>
      </trkpt>
      <trkpt lat="43.50032" lon="6.72949">
        <ele>147.264191</ele>
        <time>2011-01-21 15:45:00Z</time>
      </trkpt>
      <trkpt lat="43.50031" lon="6.72958">
        <ele>148.264206</ele>
        <time>2011-01-21 15:45:04Z</time>
      </trkpt>
      <trkpt lat="43.50031" lon="6.72961">
        <ele>146.264206</ele>
        <time>2011-01-21 15:45:08Z</time>
      </trkpt>
      <trkpt lat="43.5003" lon="6.72967">
        <ele>147.264221</ele>
        <time>2011-01-21 15:45:12Z</time>
      </trkpt>
      <trkpt lat="43.50029" lon="6.72971">
        <ele>148.264236</ele>
        <time>2011-01-21 15:45:16Z</time>
      </trkpt>
      <trkpt lat="43.50028" lon="6.72976">
        <ele>147.264236</ele>
        <time>2011-01-21 15:45:20Z</time>
      </trkpt>
      <trkpt lat="43.50027" lon="6.7298">
        <ele>147.264252</ele>
        <time>2011-01-21 15:45:24Z</time>
      </trkpt>
      <trkpt lat="43.50026" lon="6.72983">
        <ele>147.264252</ele>
        <time>2011-01-21 15:45:28Z</time>
      </trkpt>
      <trkpt lat="43.50024" lon="6.72986">
        <ele>147.264252</ele>
        <time>2011-01-21 15:45:32Z</time>
      </trkpt>
      <trkpt lat="43.50024" lon="6.72986">
        <ele>147.264252</ele>
        <time>2011-01-21 15:45:36Z</time>
      </trkpt>
      <trkpt lat="43.50024" lon="6.72986">
        <ele>147.264252</ele>
        <time>2011-01-21 15:45:40Z</time>
      </trkpt>
      <trkpt lat="43.50024" lon="6.72992">
        <ele>149.264282</ele>
        <time>2011-01-21 15:45:44Z</time>
      </trkpt>
      <trkpt lat="43.50023" lon="6.72994">
        <ele>151.264282</ele>
        <time>2011-01-21 15:45:48Z</time>
      </trkpt>
      <trkpt lat="43.50023" lon="6.72994">
        <ele>151.264282</ele>
        <time>2011-01-21 15:45:52Z</time>
      </trkpt>
      <trkpt lat="43.50023" lon="6.72997">
        <ele>149.264282</ele>
        <time>2011-01-21 15:45:57Z</time>
      </trkpt>
      <trkpt lat="43.50023" lon="6.73001">
        <ele>150.264282</ele>
        <time>2011-01-21 15:46:00Z</time>
      </trkpt>
      <trkpt lat="43.50023" lon="6.73002">
        <ele>150.264282</ele>
        <time>2011-01-21 15:46:04Z</time>
      </trkpt>
      <trkpt lat="43.50023" lon="6.73002">
        <ele>150.264282</ele>
        <time>2011-01-21 15:46:08Z</time>
      </trkpt>
      <trkpt lat="43.50023" lon="6.73002">
        <ele>150.264282</ele>
        <time>2011-01-21 15:46:12Z</time>
      </trkpt>
      <trkpt lat="43.50023" lon="6.73002">
        <ele>150.264282</ele>
        <time>2011-01-21 15:46:16Z</time>
      </trkpt>
      <trkpt lat="43.50021" lon="6.73015">
        <ele>149.264313</ele>
        <time>2011-01-21 15:46:20Z</time>
      </trkpt>
      <trkpt lat="43.50021" lon="6.7302">
        <ele>150.264328</ele>
        <time>2011-01-21 15:46:24Z</time>
      </trkpt>
      <trkpt lat="43.5002" lon="6.73023">
        <ele>149.264343</ele>
        <time>2011-01-21 15:46:28Z</time>
      </trkpt>
      <trkpt lat="43.50021" lon="6.73031">
        <ele>150.264343</ele>
        <time>2011-01-21 15:46:32Z</time>
      </trkpt>
      <trkpt lat="43.50021" lon="6.73033">
        <ele>150.264359</ele>
        <time>2011-01-21 15:46:36Z</time>
      </trkpt>
      <trkpt lat="43.50021" lon="6.73043">
        <ele>149.264374</ele>
        <time>2011-01-21 15:46:40Z</time>
      </trkpt>
      <trkpt lat="43.50023" lon="6.73049">
        <ele>149.264404</ele>
        <time>2011-01-21 15:46:44Z</time>
      </trkpt>
      <trkpt lat="43.50023" lon="6.73054">
        <ele>151.264404</ele>
        <time>2011-01-21 15:46:48Z</time>
      </trkpt>
      <trkpt lat="43.50024" lon="6.73058">
        <ele>151.26442</ele>
        <time>2011-01-21 15:46:52Z</time>
      </trkpt>
      <trkpt lat="43.50024" lon="6.73061">
        <ele>152.264435</ele>
        <time>2011-01-21 15:46:56Z</time>
      </trkpt>
      <trkpt lat="43.50024" lon="6.73068">
        <ele>155.26445</ele>
        <time>2011-01-21 15:47:00Z</time>
      </trkpt>
      <trkpt lat="43.50025" lon="6.73074">
        <ele>155.264465</ele>
        <time>2011-01-21 15:47:04Z</time>
      </trkpt>
      <trkpt lat="43.50025" lon="6.73078">
        <ele>155.264465</ele>
        <time>2011-01-21 15:47:08Z</time>
      </trkpt>
      <trkpt lat="43.50025" lon="6.73078">
        <ele>155.264465</ele>
        <time>2011-01-21 15:47:12Z</time>
      </trkpt>
      <trkpt lat="43.50026" lon="6.73085">
        <ele>155.264481</ele>
        <time>2011-01-21 15:47:16Z</time>
      </trkpt>
      <trkpt lat="43.50026" lon="6.73091">
        <ele>156.264496</ele>
        <time>2011-01-21 15:47:20Z</time>
      </trkpt>
      <trkpt lat="43.50025" lon="6.73094">
        <ele>155.264496</ele>
        <time>2011-01-21 15:47:24Z</time>
      </trkpt>
      <trkpt lat="43.50025" lon="6.73098">
        <ele>155.264511</ele>
        <time>2011-01-21 15:47:28Z</time>
      </trkpt>
      <trkpt lat="43.50025" lon="6.73101">
        <ele>154.264526</ele>
        <time>2011-01-21 15:47:32Z</time>
      </trkpt>
      <trkpt lat="43.50025" lon="6.73104">
        <ele>154.264526</ele>
        <time>2011-01-21 15:47:36Z</time>
      </trkpt>
      <trkpt lat="43.50025" lon="6.73105">
        <ele>154.264526</ele>
        <time>2011-01-21 15:47:40Z</time>
      </trkpt>
      <trkpt lat="43.50025" lon="6.73113">
        <ele>154.264542</ele>
        <time>2011-01-21 15:47:44Z</time>
      </trkpt>
      <trkpt lat="43.50025" lon="6.73114">
        <ele>154.264557</ele>
        <time>2011-01-21 15:47:48Z</time>
      </trkpt>
      <trkpt lat="43.50026" lon="6.73121">
        <ele>156.264557</ele>
        <time>2011-01-21 15:47:52Z</time>
      </trkpt>
      <trkpt lat="43.50027" lon="6.73123">
        <ele>156.264572</ele>
        <time>2011-01-21 15:47:56Z</time>
      </trkpt>
      <trkpt lat="43.50027" lon="6.73127">
        <ele>155.264572</ele>
        <time>2011-01-21 15:48:00Z</time>
      </trkpt>
      <trkpt lat="43.50027" lon="6.73129">
        <ele>155.264587</ele>
        <time>2011-01-21 15:48:04Z</time>
      </trkpt>
      <trkpt lat="43.50027" lon="6.73132">
        <ele>155.264587</ele>
        <time>2011-01-21 15:48:08Z</time>
      </trkpt>
      <trkpt lat="43.50026" lon="6.73135">
        <ele>155.264587</ele>
        <time>2011-01-21 15:48:12Z</time>
      </trkpt>
      <trkpt lat="43.50026" lon="6.73138">
        <ele>155.264603</ele>
        <time>2011-01-21 15:48:16Z</time>
      </trkpt>
      <trkpt lat="43.50025" lon="6.73142">
        <ele>156.264618</ele>
        <time>2011-01-21 15:48:20Z</time>
      </trkpt>
      <trkpt lat="43.50025" lon="6.73152">
        <ele>157.264633</ele>
        <time>2011-01-21 15:48:24Z</time>
      </trkpt>
      <trkpt lat="43.50025" lon="6.73157">
        <ele>156.264648</ele>
        <time>2011-01-21 15:48:28Z</time>
      </trkpt>
      <trkpt lat="43.50025" lon="6.73158">
        <ele>157.264648</ele>
        <time>2011-01-21 15:48:32Z</time>
      </trkpt>
      <trkpt lat="43.50023" lon="6.73165">
        <ele>157.264648</ele>
        <time>2011-01-21 15:48:36Z</time>
      </trkpt>
      <trkpt lat="43.50023" lon="6.73166">
        <ele>157.264664</ele>
        <time>2011-01-21 15:48:40Z</time>
      </trkpt>
      <trkpt lat="43.50023" lon="6.7317">
        <ele>157.264679</ele>
        <time>2011-01-21 15:48:44Z</time>
      </trkpt>
      <trkpt lat="43.50023" lon="6.73174">
        <ele>156.264679</ele>
        <time>2011-01-21 15:48:48Z</time>
      </trkpt>
      <trkpt lat="43.50023" lon="6.73174">
        <ele>156.264679</ele>
        <time>2011-01-21 15:48:52Z</time>
      </trkpt>
      <trkpt lat="43.50022" lon="6.7318">
        <ele>158.264694</ele>
        <time>2011-01-21 15:48:56Z</time>
      </trkpt>
      <trkpt lat="43.50022" lon="6.7318">
        <ele>158.264694</ele>
        <time>2011-01-21 15:49:00Z</time>
      </trkpt>
      <trkpt lat="43.50021" lon="6.73189">
        <ele>157.264709</ele>
        <time>2011-01-21 15:49:04Z</time>
      </trkpt>
      <trkpt lat="43.50021" lon="6.73196">
        <ele>157.264725</ele>
        <time>2011-01-21 15:49:08Z</time>
      </trkpt>
      <trkpt lat="43.50021" lon="6.73198">
        <ele>157.26474</ele>
        <time>2011-01-21 15:49:12Z</time>
      </trkpt>
      <trkpt lat="43.5002" lon="6.73207">
        <ele>159.26474</ele>
        <time>2011-01-21 15:49:16Z</time>
      </trkpt>
      <trkpt lat="43.5002" lon="6.73211">
        <ele>158.264755</ele>
        <time>2011-01-21 15:49:20Z</time>
      </trkpt>
      <trkpt lat="43.5002" lon="6.73215">
        <ele>159.264771</ele>
        <time>2011-01-21 15:49:24Z</time>
      </trkpt>
      <trkpt lat="43.5002" lon="6.73222">
        <ele>159.264771</ele>
        <time>2011-01-21 15:49:28Z</time>
      </trkpt>
      <trkpt lat="43.5002" lon="6.73227">
        <ele>159.264801</ele>
        <time>2011-01-21 15:49:32Z</time>
      </trkpt>
      <trkpt lat="43.5002" lon="6.73229">
        <ele>160.264801</ele>
        <time>2011-01-21 15:49:36Z</time>
      </trkpt>
      <trkpt lat="43.5002" lon="6.73236">
        <ele>159.264801</ele>
        <time>2011-01-21 15:49:40Z</time>
      </trkpt>
      <trkpt lat="43.50021" lon="6.73239">
        <ele>160.264832</ele>
        <time>2011-01-21 15:49:44Z</time>
      </trkpt>
      <trkpt lat="43.50021" lon="6.7324">
        <ele>160.264832</ele>
        <time>2011-01-21 15:49:48Z</time>
      </trkpt>
      <trkpt lat="43.50021" lon="6.73246">
        <ele>162.264832</ele>
        <time>2011-01-21 15:49:52Z</time>
      </trkpt>
      <trkpt lat="43.50021" lon="6.73249">
        <ele>163.264847</ele>
        <time>2011-01-21 15:49:56Z</time>
      </trkpt>
      <trkpt lat="43.50021" lon="6.73253">
        <ele>164.264847</ele>
        <time>2011-01-21 15:50:00Z</time>
      </trkpt>
      <trkpt lat="43.50021" lon="6.73261">
        <ele>165.264862</ele>
        <time>2011-01-21 15:50:04Z</time>
      </trkpt>
      <trkpt lat="43.50021" lon="6.73261">
        <ele>165.264862</ele>
        <time>2011-01-21 15:50:08Z</time>
      </trkpt>
      <trkpt lat="43.50021" lon="6.73261">
        <ele>165.264862</ele>
        <time>2011-01-21 15:50:12Z</time>
      </trkpt>
      <trkpt lat="43.50022" lon="6.73273">
        <ele>170.264893</ele>
        <time>2011-01-21 15:50:16Z</time>
      </trkpt>
      <trkpt lat="43.50022" lon="6.73273">
        <ele>170.264893</ele>
        <time>2011-01-21 15:50:20Z</time>
      </trkpt>
      <trkpt lat="43.50022" lon="6.73273">
        <ele>170.264893</ele>
        <time>2011-01-21 15:50:24Z</time>
      </trkpt>
      <trkpt lat="43.50023" lon="6.73283">
        <ele>170.264923</ele>
        <time>2011-01-21 15:50:28Z</time>
      </trkpt>
      <trkpt lat="43.50023" lon="6.73283">
        <ele>170.264923</ele>
        <time>2011-01-21 15:50:32Z</time>
      </trkpt>
      <trkpt lat="43.50023" lon="6.73283">
        <ele>170.264923</ele>
        <time>2011-01-21 15:50:36Z</time>
      </trkpt>
      <trkpt lat="43.5002" lon="6.73299">
        <ele>175.264954</ele>
        <time>2011-01-21 15:50:40Z</time>
      </trkpt>
      <trkpt lat="43.50018" lon="6.733">
        <ele>175.264954</ele>
        <time>2011-01-21 15:50:44Z</time>
      </trkpt>
      <trkpt lat="43.50015" lon="6.73303">
        <ele>175.264954</ele>
        <time>2011-01-21 15:50:48Z</time>
      </trkpt>
      <trkpt lat="43.50013" lon="6.73305">
        <ele>175.264954</ele>
        <time>2011-01-21 15:50:52Z</time>
      </trkpt>
      <trkpt lat="43.5001" lon="6.73306">
        <ele>175.264954</ele>
        <time>2011-01-21 15:50:56Z</time>
      </trkpt>
      <trkpt lat="43.50006" lon="6.7331">
        <ele>177.264954</ele>
        <time>2011-01-21 15:51:00Z</time>
      </trkpt>
      <trkpt lat="43.50002" lon="6.73314">
        <ele>177.264954</ele>
        <time>2011-01-21 15:51:04Z</time>
      </trkpt>
      <trkpt lat="43.49999" lon="6.73317">
        <ele>177.264954</ele>
        <time>2011-01-21 15:51:08Z</time>
      </trkpt>
      <trkpt lat="43.49997" lon="6.7332">
        <ele>178.264954</ele>
        <time>2011-01-21 15:51:12Z</time>
      </trkpt>
      <trkpt lat="43.49995" lon="6.73322">
        <ele>179.264954</ele>
        <time>2011-01-21 15:51:16Z</time>
      </trkpt>
      <trkpt lat="43.49994" lon="6.73324">
        <ele>178.264969</ele>
        <time>2011-01-21 15:51:20Z</time>
      </trkpt>
      <trkpt lat="43.49992" lon="6.73325">
        <ele>178.264969</ele>
        <time>2011-01-21 15:51:24Z</time>
      </trkpt>
      <trkpt lat="43.49991" lon="6.73327">
        <ele>178.264969</ele>
        <time>2011-01-21 15:51:28Z</time>
      </trkpt>
      <trkpt lat="43.49991" lon="6.73327">
        <ele>178.264969</ele>
        <time>2011-01-21 15:51:32Z</time>
      </trkpt>
      <trkpt lat="43.49988" lon="6.7333">
        <ele>180.264984</ele>
        <time>2011-01-21 15:51:36Z</time>
      </trkpt>
      <trkpt lat="43.49986" lon="6.73331">
        <ele>180.264984</ele>
        <time>2011-01-21 15:51:40Z</time>
      </trkpt>
      <trkpt lat="43.49983" lon="6.73334">
        <ele>179.264969</ele>
        <time>2011-01-21 15:51:44Z</time>
      </trkpt>
      <trkpt lat="43.4998" lon="6.73336">
        <ele>179.264984</ele>
        <time>2011-01-21 15:51:48Z</time>
      </trkpt>
      <trkpt lat="43.49976" lon="6.73339">
        <ele>181.264984</ele>
        <time>2011-01-21 15:51:52Z</time>
      </trkpt>
      <trkpt lat="43.49974" lon="6.7334">
        <ele>181.264969</ele>
        <time>2011-01-21 15:51:56Z</time>
      </trkpt>
      <trkpt lat="43.4997" lon="6.73343">
        <ele>182.264969</ele>
        <time>2011-01-21 15:52:00Z</time>
      </trkpt>
      <trkpt lat="43.49965" lon="6.73346">
        <ele>180.264969</ele>
        <time>2011-01-21 15:52:04Z</time>
      </trkpt>
      <trkpt lat="43.49961" lon="6.73348">
        <ele>181.264969</ele>
        <time>2011-01-21 15:52:08Z</time>
      </trkpt>
      <trkpt lat="43.49957" lon="6.73352">
        <ele>182.264969</ele>
        <time>2011-01-21 15:52:12Z</time>
      </trkpt>
      <trkpt lat="43.49957" lon="6.73352">
        <ele>182.264969</ele>
        <time>2011-01-21 15:52:16Z</time>
      </trkpt>
      <trkpt lat="43.4995" lon="6.73359">
        <ele>182.264984</ele>
        <time>2011-01-21 15:52:20Z</time>
      </trkpt>
      <trkpt lat="43.4995" lon="6.7336">
        <ele>182.264984</ele>
        <time>2011-01-21 15:52:24Z</time>
      </trkpt>
      <trkpt lat="43.49947" lon="6.73365">
        <ele>184.264984</ele>
        <time>2011-01-21 15:52:28Z</time>
      </trkpt>
      <trkpt lat="43.49947" lon="6.73365">
        <ele>184.264984</ele>
        <time>2011-01-21 15:52:32Z</time>
      </trkpt>
      <trkpt lat="43.49944" lon="6.7337">
        <ele>184.264984</ele>
        <time>2011-01-21 15:52:36Z</time>
      </trkpt>
      <trkpt lat="43.49942" lon="6.73371">
        <ele>184.264984</ele>
        <time>2011-01-21 15:52:40Z</time>
      </trkpt>
      <trkpt lat="43.49939" lon="6.73373">
        <ele>184.264984</ele>
        <time>2011-01-21 15:52:44Z</time>
      </trkpt>
      <trkpt lat="43.49936" lon="6.73376">
        <ele>184.264984</ele>
        <time>2011-01-21 15:52:48Z</time>
      </trkpt>
      <trkpt lat="43.49934" lon="6.73378">
        <ele>183.264984</ele>
        <time>2011-01-21 15:52:52Z</time>
      </trkpt>
      <trkpt lat="43.49933" lon="6.73378">
        <ele>184.264984</ele>
        <time>2011-01-21 15:52:56Z</time>
      </trkpt>
      <trkpt lat="43.49928" lon="6.73381">
        <ele>186.264984</ele>
        <time>2011-01-21 15:53:00Z</time>
      </trkpt>
      <trkpt lat="43.49925" lon="6.73383">
        <ele>185.264984</ele>
        <time>2011-01-21 15:53:04Z</time>
      </trkpt>
      <trkpt lat="43.49923" lon="6.73386">
        <ele>186.264984</ele>
        <time>2011-01-21 15:53:08Z</time>
      </trkpt>
      <trkpt lat="43.49923" lon="6.73386">
        <ele>186.264984</ele>
        <time>2011-01-21 15:53:12Z</time>
      </trkpt>
      <trkpt lat="43.49915" lon="6.73393">
        <ele>187.264999</ele>
        <time>2011-01-21 15:53:16Z</time>
      </trkpt>
      <trkpt lat="43.49911" lon="6.73397">
        <ele>188.264999</ele>
        <time>2011-01-21 15:53:20Z</time>
      </trkpt>
      <trkpt lat="43.49906" lon="6.73402">
        <ele>189.264999</ele>
        <time>2011-01-21 15:53:24Z</time>
      </trkpt>
      <trkpt lat="43.49903" lon="6.73406">
        <ele>190.264999</ele>
        <time>2011-01-21 15:53:28Z</time>
      </trkpt>
      <trkpt lat="43.49897" lon="6.73411">
        <ele>191.265015</ele>
        <time>2011-01-21 15:53:32Z</time>
      </trkpt>
      <trkpt lat="43.49897" lon="6.73411">
        <ele>191.265015</ele>
        <time>2011-01-21 15:53:36Z</time>
      </trkpt>
      <trkpt lat="43.49897" lon="6.73411">
        <ele>191.265015</ele>
        <time>2011-01-21 15:53:40Z</time>
      </trkpt>
      <trkpt lat="43.49889" lon="6.7342">
        <ele>190.265015</ele>
        <time>2011-01-21 15:53:44Z</time>
      </trkpt>
      <trkpt lat="43.49887" lon="6.73421">
        <ele>190.265015</ele>
        <time>2011-01-21 15:53:48Z</time>
      </trkpt>
      <trkpt lat="43.49886" lon="6.73422">
        <ele>190.265015</ele>
        <time>2011-01-21 15:53:52Z</time>
      </trkpt>
      <trkpt lat="43.49886" lon="6.73422">
        <ele>190.265015</ele>
        <time>2011-01-21 15:53:56Z</time>
      </trkpt>
      <trkpt lat="43.49886" lon="6.73422">
        <ele>190.265015</ele>
        <time>2011-01-21 15:54:00Z</time>
      </trkpt>
      <trkpt lat="43.49878" lon="6.73428">
        <ele>190.265015</ele>
        <time>2011-01-21 15:54:04Z</time>
      </trkpt>
      <trkpt lat="43.49875" lon="6.73432">
        <ele>191.265015</ele>
        <time>2011-01-21 15:54:08Z</time>
      </trkpt>
      <trkpt lat="43.49875" lon="6.73433">
        <ele>191.265015</ele>
        <time>2011-01-21 15:54:12Z</time>
      </trkpt>
      <trkpt lat="43.49869" lon="6.73437">
        <ele>193.265015</ele>
        <time>2011-01-21 15:54:16Z</time>
      </trkpt>
      <trkpt lat="43.49865" lon="6.73439">
        <ele>192.265015</ele>
        <time>2011-01-21 15:54:20Z</time>
      </trkpt>
      <trkpt lat="43.49862" lon="6.7344">
        <ele>191.265015</ele>
        <time>2011-01-21 15:54:24Z</time>
      </trkpt>
      <trkpt lat="43.49859" lon="6.73441">
        <ele>190.265015</ele>
        <time>2011-01-21 15:54:28Z</time>
      </trkpt>
      <trkpt lat="43.49855" lon="6.73441">
        <ele>189.265015</ele>
        <time>2011-01-21 15:54:32Z</time>
      </trkpt>
      <trkpt lat="43.49855" lon="6.73441">
        <ele>189.265015</ele>
        <time>2011-01-21 15:54:36Z</time>
      </trkpt>
      <trkpt lat="43.49855" lon="6.73441">
        <ele>189.265015</ele>
        <time>2011-01-21 15:54:40Z</time>
      </trkpt>
      <trkpt lat="43.49849" lon="6.7344">
        <ele>189.264984</ele>
        <time>2011-01-21 15:54:44Z</time>
      </trkpt>
      <trkpt lat="43.49849" lon="6.7344">
        <ele>189.264984</ele>
        <time>2011-01-21 15:54:48Z</time>
      </trkpt>
      <trkpt lat="43.49847" lon="6.7344">
        <ele>188.264984</ele>
        <time>2011-01-21 15:54:52Z</time>
      </trkpt>
      <trkpt lat="43.49846" lon="6.7344">
        <ele>191.264984</ele>
        <time>2011-01-21 15:54:56Z</time>
      </trkpt>
      <trkpt lat="43.49846" lon="6.7344">
        <ele>193.264984</ele>
        <time>2011-01-21 15:55:00Z</time>
      </trkpt>
      <trkpt lat="43.49845" lon="6.7344">
        <ele>194.264984</ele>
        <time>2011-01-21 15:55:04Z</time>
      </trkpt>
      <trkpt lat="43.49843" lon="6.7344">
        <ele>195.264984</ele>
        <time>2011-01-21 15:55:08Z</time>
      </trkpt>
      <trkpt lat="43.49842" lon="6.73439">
        <ele>194.264984</ele>
        <time>2011-01-21 15:55:12Z</time>
      </trkpt>
      <trkpt lat="43.49842" lon="6.73438">
        <ele>195.264984</ele>
        <time>2011-01-21 15:55:16Z</time>
      </trkpt>
      <trkpt lat="43.49842" lon="6.73438">
        <ele>195.264984</ele>
        <time>2011-01-21 15:55:20Z</time>
      </trkpt>
      <trkpt lat="43.49841" lon="6.73436">
        <ele>196.264969</ele>
        <time>2011-01-21 15:55:24Z</time>
      </trkpt>
      <trkpt lat="43.4984" lon="6.73434">
        <ele>197.264969</ele>
        <time>2011-01-21 15:55:28Z</time>
      </trkpt>
      <trkpt lat="43.49839" lon="6.73432">
        <ele>196.264954</ele>
        <time>2011-01-21 15:55:32Z</time>
      </trkpt>
      <trkpt lat="43.49838" lon="6.7343">
        <ele>196.264954</ele>
        <time>2011-01-21 15:55:36Z</time>
      </trkpt>
      <trkpt lat="43.49838" lon="6.7343">
        <ele>196.264954</ele>
        <time>2011-01-21 15:55:40Z</time>
      </trkpt>
      <trkpt lat="43.49832" lon="6.73423">
        <ele>194.264923</ele>
        <time>2011-01-21 15:55:44Z</time>
      </trkpt>
      <trkpt lat="43.4983" lon="6.7342">
        <ele>194.264923</ele>
        <time>2011-01-21 15:55:48Z</time>
      </trkpt>
      <trkpt lat="43.49827" lon="6.73417">
        <ele>191.264908</ele>
        <time>2011-01-21 15:55:52Z</time>
      </trkpt>
      <trkpt lat="43.49825" lon="6.73415">
        <ele>191.264893</ele>
        <time>2011-01-21 15:55:56Z</time>
      </trkpt>
      <trkpt lat="43.49823" lon="6.73411">
        <ele>190.264893</ele>
        <time>2011-01-21 15:56:00Z</time>
      </trkpt>
      <trkpt lat="43.49822" lon="6.73407">
        <ele>190.264877</ele>
        <time>2011-01-21 15:56:04Z</time>
      </trkpt>
      <trkpt lat="43.4982" lon="6.73405">
        <ele>190.264862</ele>
        <time>2011-01-21 15:56:08Z</time>
      </trkpt>
      <trkpt lat="43.4982" lon="6.73405">
        <ele>190.264862</ele>
        <time>2011-01-21 15:56:12Z</time>
      </trkpt>
      <trkpt lat="43.49815" lon="6.73399">
        <ele>189.264847</ele>
        <time>2011-01-21 15:56:16Z</time>
      </trkpt>
      <trkpt lat="43.49814" lon="6.73396">
        <ele>189.264832</ele>
        <time>2011-01-21 15:56:20Z</time>
      </trkpt>
      <trkpt lat="43.49812" lon="6.73394">
        <ele>190.264832</ele>
        <time>2011-01-21 15:56:24Z</time>
      </trkpt>
      <trkpt lat="43.4981" lon="6.73393">
        <ele>190.264832</ele>
        <time>2011-01-21 15:56:28Z</time>
      </trkpt>
      <trkpt lat="43.49808" lon="6.73391">
        <ele>190.264816</ele>
        <time>2011-01-21 15:56:32Z</time>
      </trkpt>
      <trkpt lat="43.49808" lon="6.73391">
        <ele>190.264816</ele>
        <time>2011-01-21 15:56:36Z</time>
      </trkpt>
      <trkpt lat="43.49806" lon="6.73387">
        <ele>190.264801</ele>
        <time>2011-01-21 15:56:40Z</time>
      </trkpt>
      <trkpt lat="43.49805" lon="6.73384">
        <ele>191.264801</ele>
        <time>2011-01-21 15:56:44Z</time>
      </trkpt>
      <trkpt lat="43.49804" lon="6.7338">
        <ele>190.264786</ele>
        <time>2011-01-21 15:56:48Z</time>
      </trkpt>
      <trkpt lat="43.49802" lon="6.73378">
        <ele>188.264771</ele>
        <time>2011-01-21 15:56:52Z</time>
      </trkpt>
      <trkpt lat="43.49802" lon="6.73378">
        <ele>188.264771</ele>
        <time>2011-01-21 15:56:56Z</time>
      </trkpt>
      <trkpt lat="43.49797" lon="6.73373">
        <ele>187.264755</ele>
        <time>2011-01-21 15:57:00Z</time>
      </trkpt>
      <trkpt lat="43.49795" lon="6.73374">
        <ele>188.264755</ele>
        <time>2011-01-21 15:57:04Z</time>
      </trkpt>
      <trkpt lat="43.49795" lon="6.73374">
        <ele>188.264755</ele>
        <time>2011-01-21 15:57:08Z</time>
      </trkpt>
      <trkpt lat="43.49788" lon="6.73372">
        <ele>187.26474</ele>
        <time>2011-01-21 15:57:12Z</time>
      </trkpt>
      <trkpt lat="43.49785" lon="6.73371">
        <ele>187.26474</ele>
        <time>2011-01-21 15:57:16Z</time>
      </trkpt>
      <trkpt lat="43.49781" lon="6.73368">
        <ele>187.264725</ele>
        <time>2011-01-21 15:57:20Z</time>
      </trkpt>
      <trkpt lat="43.49781" lon="6.73368">
        <ele>187.264725</ele>
        <time>2011-01-21 15:57:24Z</time>
      </trkpt>
      <trkpt lat="43.49777" lon="6.73362">
        <ele>185.264694</ele>
        <time>2011-01-21 15:57:28Z</time>
      </trkpt>
      <trkpt lat="43.49775" lon="6.73357">
        <ele>184.264679</ele>
        <time>2011-01-21 15:57:32Z</time>
      </trkpt>
      <trkpt lat="43.49773" lon="6.73354">
        <ele>183.264679</ele>
        <time>2011-01-21 15:57:36Z</time>
      </trkpt>
      <trkpt lat="43.49773" lon="6.73354">
        <ele>183.264679</ele>
        <time>2011-01-21 15:57:40Z</time>
      </trkpt>
      <trkpt lat="43.49773" lon="6.73354">
        <ele>183.264679</ele>
        <time>2011-01-21 15:57:44Z</time>
      </trkpt>
      <trkpt lat="43.49772" lon="6.73343">
        <ele>180.264648</ele>
        <time>2011-01-21 15:57:48Z</time>
      </trkpt>
      <trkpt lat="43.49772" lon="6.73343">
        <ele>180.264648</ele>
        <time>2011-01-21 15:57:52Z</time>
      </trkpt>
      <trkpt lat="43.49773" lon="6.73333">
        <ele>178.264618</ele>
        <time>2011-01-21 15:57:56Z</time>
      </trkpt>
      <trkpt lat="43.49774" lon="6.73328">
        <ele>177.264618</ele>
        <time>2011-01-21 15:58:00Z</time>
      </trkpt>
      <trkpt lat="43.49774" lon="6.73322">
        <ele>177.264618</ele>
        <time>2011-01-21 15:58:04Z</time>
      </trkpt>
      <trkpt lat="43.49773" lon="6.73317">
        <ele>177.264587</ele>
        <time>2011-01-21 15:58:08Z</time>
      </trkpt>
      <trkpt lat="43.49773" lon="6.73316">
        <ele>176.264587</ele>
        <time>2011-01-21 15:58:12Z</time>
      </trkpt>
      <trkpt lat="43.49773" lon="6.73316">
        <ele>176.264587</ele>
        <time>2011-01-21 15:58:16Z</time>
      </trkpt>
      <trkpt lat="43.49773" lon="6.7331">
        <ele>174.264572</ele>
        <time>2011-01-21 15:58:20Z</time>
      </trkpt>
      <trkpt lat="43.49772" lon="6.73304">
        <ele>172.264557</ele>
        <time>2011-01-21 15:58:24Z</time>
      </trkpt>
      <trkpt lat="43.49772" lon="6.73304">
        <ele>172.264557</ele>
        <time>2011-01-21 15:58:28Z</time>
      </trkpt>
      <trkpt lat="43.4977" lon="6.73295">
        <ele>171.264542</ele>
        <time>2011-01-21 15:58:32Z</time>
      </trkpt>
      <trkpt lat="43.4977" lon="6.73295">
        <ele>171.264542</ele>
        <time>2011-01-21 15:58:36Z</time>
      </trkpt>
      <trkpt lat="43.49768" lon="6.73288">
        <ele>171.264526</ele>
        <time>2011-01-21 15:58:40Z</time>
      </trkpt>
      <trkpt lat="43.49768" lon="6.73288">
        <ele>171.264526</ele>
        <time>2011-01-21 15:58:44Z</time>
      </trkpt>
      <trkpt lat="43.49768" lon="6.73288">
        <ele>171.264526</ele>
        <time>2011-01-21 15:58:48Z</time>
      </trkpt>
      <trkpt lat="43.49763" lon="6.73275">
        <ele>172.264481</ele>
        <time>2011-01-21 15:58:52Z</time>
      </trkpt>
      <trkpt lat="43.49762" lon="6.7327">
        <ele>173.264465</ele>
        <time>2011-01-21 15:58:56Z</time>
      </trkpt>
      <trkpt lat="43.4976" lon="6.73263">
        <ele>173.26445</ele>
        <time>2011-01-21 15:59:00Z</time>
      </trkpt>
      <trkpt lat="43.4976" lon="6.73261">
        <ele>173.26445</ele>
        <time>2011-01-21 15:59:04Z</time>
      </trkpt>
      <trkpt lat="43.49757" lon="6.73254">
        <ele>174.26442</ele>
        <time>2011-01-21 15:59:08Z</time>
      </trkpt>
      <trkpt lat="43.49756" lon="6.7325">
        <ele>174.264404</ele>
        <time>2011-01-21 15:59:12Z</time>
      </trkpt>
      <trkpt lat="43.49754" lon="6.73247">
        <ele>174.264404</ele>
        <time>2011-01-21 15:59:16Z</time>
      </trkpt>
      <trkpt lat="43.49752" lon="6.73245">
        <ele>174.264404</ele>
        <time>2011-01-21 15:59:20Z</time>
      </trkpt>
      <trkpt lat="43.4975" lon="6.73242">
        <ele>174.264389</ele>
        <time>2011-01-21 15:59:24Z</time>
      </trkpt>
      <trkpt lat="43.49748" lon="6.73239">
        <ele>172.264374</ele>
        <time>2011-01-21 15:59:28Z</time>
      </trkpt>
      <trkpt lat="43.49746" lon="6.73237">
        <ele>172.264374</ele>
        <time>2011-01-21 15:59:32Z</time>
      </trkpt>
      <trkpt lat="43.49746" lon="6.73237">
        <ele>172.264374</ele>
        <time>2011-01-21 15:59:36Z</time>
      </trkpt>
      <trkpt lat="43.49741" lon="6.73232">
        <ele>170.264343</ele>
        <time>2011-01-21 15:59:40Z</time>
      </trkpt>
      <trkpt lat="43.4974" lon="6.73231">
        <ele>171.264343</ele>
        <time>2011-01-21 15:59:44Z</time>
      </trkpt>
      <trkpt lat="43.4974" lon="6.73231">
        <ele>171.264343</ele>
        <time>2011-01-21 15:59:48Z</time>
      </trkpt>
      <trkpt lat="43.49735" lon="6.73229">
        <ele>169.264328</ele>
        <time>2011-01-21 15:59:52Z</time>
      </trkpt>
      <trkpt lat="43.4973" lon="6.73228">
        <ele>167.264313</ele>
        <time>2011-01-21 15:59:56Z</time>
      </trkpt>
      <trkpt lat="43.49725" lon="6.73228">
        <ele>165.264313</ele>
        <time>2011-01-21 16:00:00Z</time>
      </trkpt>
      <trkpt lat="43.49721" lon="6.7323">
        <ele>163.264313</ele>
        <time>2011-01-21 16:00:04Z</time>
      </trkpt>
      <trkpt lat="43.49717" lon="6.73232">
        <ele>162.264313</ele>
        <time>2011-01-21 16:00:08Z</time>
      </trkpt>
      <trkpt lat="43.49716" lon="6.73233">
        <ele>162.264313</ele>
        <time>2011-01-21 16:00:12Z</time>
      </trkpt>
      <trkpt lat="43.49712" lon="6.73238">
        <ele>163.264313</ele>
        <time>2011-01-21 16:00:16Z</time>
      </trkpt>
      <trkpt lat="43.49709" lon="6.73243">
        <ele>164.264313</ele>
        <time>2011-01-21 16:00:20Z</time>
      </trkpt>
      <trkpt lat="43.49708" lon="6.73248">
        <ele>163.264328</ele>
        <time>2011-01-21 16:00:24Z</time>
      </trkpt>
      <trkpt lat="43.49707" lon="6.73253">
        <ele>163.264343</ele>
        <time>2011-01-21 16:00:28Z</time>
      </trkpt>
      <trkpt lat="43.49706" lon="6.73259">
        <ele>164.264343</ele>
        <time>2011-01-21 16:00:32Z</time>
      </trkpt>
      <trkpt lat="43.49704" lon="6.73264">
        <ele>163.264359</ele>
        <time>2011-01-21 16:00:36Z</time>
      </trkpt>
      <trkpt lat="43.49704" lon="6.73268">
        <ele>162.264374</ele>
        <time>2011-01-21 16:00:40Z</time>
      </trkpt>
      <trkpt lat="43.49703" lon="6.73272">
        <ele>161.264374</ele>
        <time>2011-01-21 16:00:44Z</time>
      </trkpt>
      <trkpt lat="43.49703" lon="6.73272">
        <ele>161.264374</ele>
        <time>2011-01-21 16:00:48Z</time>
      </trkpt>
      <trkpt lat="43.49701" lon="6.73278">
        <ele>163.264389</ele>
        <time>2011-01-21 16:00:52Z</time>
      </trkpt>
      <trkpt lat="43.49699" lon="6.7328">
        <ele>164.264389</ele>
        <time>2011-01-21 16:00:56Z</time>
      </trkpt>
      <trkpt lat="43.49698" lon="6.7328">
        <ele>164.264389</ele>
        <time>2011-01-21 16:01:00Z</time>
      </trkpt>
      <trkpt lat="43.49695" lon="6.73284">
        <ele>164.264389</ele>
        <time>2011-01-21 16:01:04Z</time>
      </trkpt>
      <trkpt lat="43.49693" lon="6.73285">
        <ele>164.264389</ele>
        <time>2011-01-21 16:01:08Z</time>
      </trkpt>
      <trkpt lat="43.49691" lon="6.73287">
        <ele>165.264389</ele>
        <time>2011-01-21 16:01:12Z</time>
      </trkpt>
      <trkpt lat="43.49688" lon="6.73289">
        <ele>164.264404</ele>
        <time>2011-01-21 16:01:16Z</time>
      </trkpt>
      <trkpt lat="43.49687" lon="6.7329">
        <ele>164.264389</ele>
        <time>2011-01-21 16:01:20Z</time>
      </trkpt>
      <trkpt lat="43.49683" lon="6.73293">
        <ele>164.264389</ele>
        <time>2011-01-21 16:01:24Z</time>
      </trkpt>
      <trkpt lat="43.4968" lon="6.73294">
        <ele>163.264389</ele>
        <time>2011-01-21 16:01:28Z</time>
      </trkpt>
      <trkpt lat="43.49678" lon="6.73296">
        <ele>162.264389</ele>
        <time>2011-01-21 16:01:32Z</time>
      </trkpt>
      <trkpt lat="43.49677" lon="6.73297">
        <ele>162.264389</ele>
        <time>2011-01-21 16:01:36Z</time>
      </trkpt>
      <trkpt lat="43.49672" lon="6.733">
        <ele>160.264389</ele>
        <time>2011-01-21 16:01:40Z</time>
      </trkpt>
      <trkpt lat="43.4967" lon="6.733">
        <ele>159.264389</ele>
        <time>2011-01-21 16:01:44Z</time>
      </trkpt>
      <trkpt lat="43.4967" lon="6.733">
        <ele>159.264389</ele>
        <time>2011-01-21 16:01:48Z</time>
      </trkpt>
      <trkpt lat="43.49666" lon="6.73301">
        <ele>158.264374</ele>
        <time>2011-01-21 16:01:52Z</time>
      </trkpt>
      <trkpt lat="43.49663" lon="6.733">
        <ele>158.264374</ele>
        <time>2011-01-21 16:01:56Z</time>
      </trkpt>
      <trkpt lat="43.49661" lon="6.73299">
        <ele>158.264374</ele>
        <time>2011-01-21 16:02:00Z</time>
      </trkpt>
      <trkpt lat="43.49657" lon="6.73296">
        <ele>157.264359</ele>
        <time>2011-01-21 16:02:04Z</time>
      </trkpt>
      <trkpt lat="43.49654" lon="6.73292">
        <ele>157.264343</ele>
        <time>2011-01-21 16:02:08Z</time>
      </trkpt>
      <trkpt lat="43.49653" lon="6.73289">
        <ele>156.264328</ele>
        <time>2011-01-21 16:02:12Z</time>
      </trkpt>
      <trkpt lat="43.49652" lon="6.73284">
        <ele>154.264313</ele>
        <time>2011-01-21 16:02:16Z</time>
      </trkpt>
      <trkpt lat="43.49651" lon="6.73281">
        <ele>153.264313</ele>
        <time>2011-01-21 16:02:20Z</time>
      </trkpt>
      <trkpt lat="43.49651" lon="6.73277">
        <ele>149.264297</ele>
        <time>2011-01-21 16:02:24Z</time>
      </trkpt>
      <trkpt lat="43.4965" lon="6.73276">
        <ele>149.264297</ele>
        <time>2011-01-21 16:02:28Z</time>
      </trkpt>
      <trkpt lat="43.4965" lon="6.73276">
        <ele>149.264297</ele>
        <time>2011-01-21 16:02:32Z</time>
      </trkpt>
      <trkpt lat="43.49648" lon="6.73262">
        <ele>150.264267</ele>
        <time>2011-01-21 16:02:36Z</time>
      </trkpt>
      <trkpt lat="43.49647" lon="6.73256">
        <ele>151.264252</ele>
        <time>2011-01-21 16:02:40Z</time>
      </trkpt>
      <trkpt lat="43.49646" lon="6.73251">
        <ele>150.264236</ele>
        <time>2011-01-21 16:02:44Z</time>
      </trkpt>
      <trkpt lat="43.49645" lon="6.73248">
        <ele>150.264221</ele>
        <time>2011-01-21 16:02:48Z</time>
      </trkpt>
      <trkpt lat="43.49645" lon="6.73245">
        <ele>150.264221</ele>
        <time>2011-01-21 16:02:52Z</time>
      </trkpt>
      <trkpt lat="43.49643" lon="6.73239">
        <ele>146.264206</ele>
        <time>2011-01-21 16:02:56Z</time>
      </trkpt>
      <trkpt lat="43.49641" lon="6.73236">
        <ele>145.264191</ele>
        <time>2011-01-21 16:03:00Z</time>
      </trkpt>
      <trkpt lat="43.49641" lon="6.73235">
        <ele>145.264191</ele>
        <time>2011-01-21 16:03:04Z</time>
      </trkpt>
      <trkpt lat="43.49641" lon="6.73235">
        <ele>145.264191</ele>
        <time>2011-01-21 16:03:08Z</time>
      </trkpt>
      <trkpt lat="43.4964" lon="6.73226">
        <ele>145.264175</ele>
        <time>2011-01-21 16:03:12Z</time>
      </trkpt>
      <trkpt lat="43.4964" lon="6.73225">
        <ele>145.26416</ele>
        <time>2011-01-21 16:03:16Z</time>
      </trkpt>
      <trkpt lat="43.4964" lon="6.73225">
        <ele>145.26416</ele>
        <time>2011-01-21 16:03:20Z</time>
      </trkpt>
      <trkpt lat="43.49638" lon="6.73218">
        <ele>142.26416</ele>
        <time>2011-01-21 16:03:24Z</time>
      </trkpt>
      <trkpt lat="43.49635" lon="6.73211">
        <ele>143.26413</ele>
        <time>2011-01-21 16:03:28Z</time>
      </trkpt>
      <trkpt lat="43.49633" lon="6.73207">
        <ele>143.264114</ele>
        <time>2011-01-21 16:03:32Z</time>
      </trkpt>
      <trkpt lat="43.49633" lon="6.73207">
        <ele>143.264114</ele>
        <time>2011-01-21 16:03:36Z</time>
      </trkpt>
      <trkpt lat="43.49628" lon="6.73199">
        <ele>144.264099</ele>
        <time>2011-01-21 16:03:40Z</time>
      </trkpt>
      <trkpt lat="43.49624" lon="6.73192">
        <ele>144.264069</ele>
        <time>2011-01-21 16:03:44Z</time>
      </trkpt>
      <trkpt lat="43.49621" lon="6.73189">
        <ele>144.264053</ele>
        <time>2011-01-21 16:03:48Z</time>
      </trkpt>
      <trkpt lat="43.49621" lon="6.73189">
        <ele>144.264053</ele>
        <time>2011-01-21 16:03:52Z</time>
      </trkpt>
      <trkpt lat="43.49612" lon="6.73181">
        <ele>145.264023</ele>
        <time>2011-01-21 16:03:56Z</time>
      </trkpt>
      <trkpt lat="43.49609" lon="6.73176">
        <ele>145.264008</ele>
        <time>2011-01-21 16:04:00Z</time>
      </trkpt>
      <trkpt lat="43.49608" lon="6.73174">
        <ele>144.264008</ele>
        <time>2011-01-21 16:04:04Z</time>
      </trkpt>
      <trkpt lat="43.49607" lon="6.73173">
        <ele>144.264008</ele>
        <time>2011-01-21 16:04:08Z</time>
      </trkpt>
      <trkpt lat="43.49603" lon="6.73167">
        <ele>146.263977</ele>
        <time>2011-01-21 16:04:12Z</time>
      </trkpt>
      <trkpt lat="43.49603" lon="6.73167">
        <ele>146.263977</ele>
        <time>2011-01-21 16:04:16Z</time>
      </trkpt>
      <trkpt lat="43.49603" lon="6.73167">
        <ele>146.263977</ele>
        <time>2011-01-21 16:04:20Z</time>
      </trkpt>
      <trkpt lat="43.49597" lon="6.73153">
        <ele>142.263931</ele>
        <time>2011-01-21 16:04:24Z</time>
      </trkpt>
      <trkpt lat="43.49597" lon="6.73152">
        <ele>142.263931</ele>
        <time>2011-01-21 16:04:28Z</time>
      </trkpt>
      <trkpt lat="43.49595" lon="6.73147">
        <ele>139.263916</ele>
        <time>2011-01-21 16:04:32Z</time>
      </trkpt>
      <trkpt lat="43.49591" lon="6.73142">
        <ele>139.263901</ele>
        <time>2011-01-21 16:04:36Z</time>
      </trkpt>
      <trkpt lat="43.49588" lon="6.73139">
        <ele>140.263885</ele>
        <time>2011-01-21 16:04:40Z</time>
      </trkpt>
      <trkpt lat="43.49588" lon="6.73139">
        <ele>140.263885</ele>
        <time>2011-01-21 16:04:44Z</time>
      </trkpt>
      <trkpt lat="43.49582" lon="6.73133">
        <ele>140.263855</ele>
        <time>2011-01-21 16:04:48Z</time>
      </trkpt>
      <trkpt lat="43.49581" lon="6.73132">
        <ele>140.263855</ele>
        <time>2011-01-21 16:04:52Z</time>
      </trkpt>
      <trkpt lat="43.49581" lon="6.73132">
        <ele>140.263855</ele>
        <time>2011-01-21 16:04:56Z</time>
      </trkpt>
      <trkpt lat="43.49581" lon="6.73132">
        <ele>140.263855</ele>
        <time>2011-01-21 16:05:02Z</time>
      </trkpt>
      <trkpt lat="43.49575" lon="6.7313">
        <ele>142.263855</ele>
        <time>2011-01-21 16:05:04Z</time>
      </trkpt>
      <trkpt lat="43.49575" lon="6.73129">
        <ele>141.26384</ele>
        <time>2011-01-21 16:05:08Z</time>
      </trkpt>
      <trkpt lat="43.49574" lon="6.73129">
        <ele>141.26384</ele>
        <time>2011-01-21 16:05:12Z</time>
      </trkpt>
      <trkpt lat="43.49575" lon="6.73127">
        <ele>140.26384</ele>
        <time>2011-01-21 16:05:16Z</time>
      </trkpt>
      <trkpt lat="43.49576" lon="6.73126">
        <ele>140.26384</ele>
        <time>2011-01-21 16:05:22Z</time>
      </trkpt>
      <trkpt lat="43.49576" lon="6.73126">
        <ele>141.26384</ele>
        <time>2011-01-21 16:05:24Z</time>
      </trkpt>
      <trkpt lat="43.49575" lon="6.73126">
        <ele>141.26384</ele>
        <time>2011-01-21 16:05:28Z</time>
      </trkpt>
      <trkpt lat="43.49575" lon="6.73127">
        <ele>140.26384</ele>
        <time>2011-01-21 16:05:32Z</time>
      </trkpt>
      <trkpt lat="43.49575" lon="6.73126">
        <ele>139.26384</ele>
        <time>2011-01-21 16:05:36Z</time>
      </trkpt>
      <trkpt lat="43.49574" lon="6.73125">
        <ele>140.263824</ele>
        <time>2011-01-21 16:05:40Z</time>
      </trkpt>
      <trkpt lat="43.49573" lon="6.73123">
        <ele>138.263824</ele>
        <time>2011-01-21 16:05:44Z</time>
      </trkpt>
      <trkpt lat="43.49573" lon="6.73123">
        <ele>138.263824</ele>
        <time>2011-01-21 16:05:48Z</time>
      </trkpt>
      <trkpt lat="43.4957" lon="6.73113">
        <ele>136.263794</ele>
        <time>2011-01-21 16:05:52Z</time>
      </trkpt>
      <trkpt lat="43.49567" lon="6.73109">
        <ele>136.263794</ele>
        <time>2011-01-21 16:05:56Z</time>
      </trkpt>
      <trkpt lat="43.49564" lon="6.73105">
        <ele>137.263779</ele>
        <time>2011-01-21 16:06:00Z</time>
      </trkpt>
      <trkpt lat="43.49564" lon="6.73105">
        <ele>137.263779</ele>
        <time>2011-01-21 16:06:04Z</time>
      </trkpt>
      <trkpt lat="43.49558" lon="6.73095">
        <ele>138.263748</ele>
        <time>2011-01-21 16:06:08Z</time>
      </trkpt>
      <trkpt lat="43.49552" lon="6.73084">
        <ele>137.263702</ele>
        <time>2011-01-21 16:06:12Z</time>
      </trkpt>
      <trkpt lat="43.4955" lon="6.73079">
        <ele>136.263687</ele>
        <time>2011-01-21 16:06:16Z</time>
      </trkpt>
      <trkpt lat="43.49547" lon="6.73071">
        <ele>133.263672</ele>
        <time>2011-01-21 16:06:20Z</time>
      </trkpt>
      <trkpt lat="43.49546" lon="6.73062">
        <ele>130.263641</ele>
        <time>2011-01-21 16:06:24Z</time>
      </trkpt>
      <trkpt lat="43.49544" lon="6.73055">
        <ele>129.263626</ele>
        <time>2011-01-21 16:06:28Z</time>
      </trkpt>
      <trkpt lat="43.49542" lon="6.7305">
        <ele>130.263611</ele>
        <time>2011-01-21 16:06:32Z</time>
      </trkpt>
      <trkpt lat="43.49541" lon="6.73045">
        <ele>131.263596</ele>
        <time>2011-01-21 16:06:36Z</time>
      </trkpt>
      <trkpt lat="43.49538" lon="6.73042">
        <ele>131.26358</ele>
        <time>2011-01-21 16:06:40Z</time>
      </trkpt>
      <trkpt lat="43.49536" lon="6.73037">
        <ele>129.26358</ele>
        <time>2011-01-21 16:06:44Z</time>
      </trkpt>
      <trkpt lat="43.49535" lon="6.73034">
        <ele>129.263565</ele>
        <time>2011-01-21 16:06:48Z</time>
      </trkpt>
      <trkpt lat="43.49533" lon="6.7303">
        <ele>129.26355</ele>
        <time>2011-01-21 16:06:52Z</time>
      </trkpt>
      <trkpt lat="43.4953" lon="6.73027">
        <ele>128.26355</ele>
        <time>2011-01-21 16:06:56Z</time>
      </trkpt>
      <trkpt lat="43.4953" lon="6.73026">
        <ele>128.263535</ele>
        <time>2011-01-21 16:07:00Z</time>
      </trkpt>
      <trkpt lat="43.49529" lon="6.73027">
        <ele>127.263542</ele>
        <time>2011-01-21 16:07:04Z</time>
      </trkpt>
      <trkpt lat="43.49528" lon="6.73028">
        <ele>127.263542</ele>
        <time>2011-01-21 16:07:08Z</time>
      </trkpt>
      <trkpt lat="43.49527" lon="6.7303">
        <ele>126.263542</ele>
        <time>2011-01-21 16:07:12Z</time>
      </trkpt>
      <trkpt lat="43.49525" lon="6.7303">
        <ele>127.263542</ele>
        <time>2011-01-21 16:07:16Z</time>
      </trkpt>
      <trkpt lat="43.49524" lon="6.73031">
        <ele>127.263542</ele>
        <time>2011-01-21 16:07:20Z</time>
      </trkpt>
      <trkpt lat="43.49523" lon="6.73034">
        <ele>129.26355</ele>
        <time>2011-01-21 16:07:24Z</time>
      </trkpt>
      <trkpt lat="43.49522" lon="6.73034">
        <ele>131.26355</ele>
        <time>2011-01-21 16:07:28Z</time>
      </trkpt>
      <trkpt lat="43.49522" lon="6.73034">
        <ele>131.26355</ele>
        <time>2011-01-21 16:07:32Z</time>
      </trkpt>
      <trkpt lat="43.49521" lon="6.73035">
        <ele>133.26355</ele>
        <time>2011-01-21 16:07:36Z</time>
      </trkpt>
      <trkpt lat="43.49521" lon="6.73036">
        <ele>133.26355</ele>
        <time>2011-01-21 16:07:40Z</time>
      </trkpt>
      <trkpt lat="43.49521" lon="6.73036">
        <ele>133.26355</ele>
        <time>2011-01-21 16:07:44Z</time>
      </trkpt>
      <trkpt lat="43.49522" lon="6.73036">
        <ele>134.26355</ele>
        <time>2011-01-21 16:07:48Z</time>
      </trkpt>
      <trkpt lat="43.49522" lon="6.73036">
        <ele>134.26355</ele>
        <time>2011-01-21 16:07:52Z</time>
      </trkpt>
      <trkpt lat="43.4952" lon="6.73032">
        <ele>134.263535</ele>
        <time>2011-01-21 16:07:56Z</time>
      </trkpt>
      <trkpt lat="43.49516" lon="6.73028">
        <ele>134.263519</ele>
        <time>2011-01-21 16:08:00Z</time>
      </trkpt>
      <trkpt lat="43.49513" lon="6.73024">
        <ele>134.263519</ele>
        <time>2011-01-21 16:08:04Z</time>
      </trkpt>
      <trkpt lat="43.49513" lon="6.73024">
        <ele>134.263519</ele>
        <time>2011-01-21 16:08:08Z</time>
      </trkpt>
      <trkpt lat="43.49505" lon="6.73015">
        <ele>133.263474</ele>
        <time>2011-01-21 16:08:12Z</time>
      </trkpt>
      <trkpt lat="43.49503" lon="6.7301">
        <ele>133.263458</ele>
        <time>2011-01-21 16:08:16Z</time>
      </trkpt>
      <trkpt lat="43.49501" lon="6.73007">
        <ele>134.263443</ele>
        <time>2011-01-21 16:08:20Z</time>
      </trkpt>
      <trkpt lat="43.49498" lon="6.73002">
        <ele>133.263428</ele>
        <time>2011-01-21 16:08:24Z</time>
      </trkpt>
      <trkpt lat="43.49495" lon="6.72999">
        <ele>132.263428</ele>
        <time>2011-01-21 16:08:28Z</time>
      </trkpt>
      <trkpt lat="43.49491" lon="6.72996">
        <ele>131.263412</ele>
        <time>2011-01-21 16:08:32Z</time>
      </trkpt>
      <trkpt lat="43.49488" lon="6.72993">
        <ele>131.263397</ele>
        <time>2011-01-21 16:08:36Z</time>
      </trkpt>
      <trkpt lat="43.49482" lon="6.72988">
        <ele>131.263367</ele>
        <time>2011-01-21 16:08:40Z</time>
      </trkpt>
      <trkpt lat="43.49477" lon="6.72985">
        <ele>130.263367</ele>
        <time>2011-01-21 16:08:44Z</time>
      </trkpt>
      <trkpt lat="43.49471" lon="6.72982">
        <ele>130.263351</ele>
        <time>2011-01-21 16:08:48Z</time>
      </trkpt>
      <trkpt lat="43.49466" lon="6.72982">
        <ele>130.263336</ele>
        <time>2011-01-21 16:08:52Z</time>
      </trkpt>
      <trkpt lat="43.4946" lon="6.72984">
        <ele>129.263336</ele>
        <time>2011-01-21 16:08:56Z</time>
      </trkpt>
      <trkpt lat="43.49459" lon="6.72985">
        <ele>129.263336</ele>
        <time>2011-01-21 16:09:00Z</time>
      </trkpt>
      <trkpt lat="43.49452" lon="6.72991">
        <ele>126.263336</ele>
        <time>2011-01-21 16:09:04Z</time>
      </trkpt>
      <trkpt lat="43.49448" lon="6.72995">
        <ele>126.263336</ele>
        <time>2011-01-21 16:09:08Z</time>
      </trkpt>
      <trkpt lat="43.49445" lon="6.73">
        <ele>125.263344</ele>
        <time>2011-01-21 16:09:12Z</time>
      </trkpt>
      <trkpt lat="43.49445" lon="6.73">
        <ele>125.263344</ele>
        <time>2011-01-21 16:09:16Z</time>
      </trkpt>
      <trkpt lat="43.49441" lon="6.73009">
        <ele>127.263359</ele>
        <time>2011-01-21 16:09:20Z</time>
      </trkpt>
      <trkpt lat="43.49439" lon="6.73015">
        <ele>128.263367</ele>
        <time>2011-01-21 16:09:24Z</time>
      </trkpt>
      <trkpt lat="43.49439" lon="6.73019">
        <ele>127.263374</ele>
        <time>2011-01-21 16:09:28Z</time>
      </trkpt>
      <trkpt lat="43.49439" lon="6.73019">
        <ele>127.263374</ele>
        <time>2011-01-21 16:09:32Z</time>
      </trkpt>
      <trkpt lat="43.49439" lon="6.73019">
        <ele>127.263374</ele>
        <time>2011-01-21 16:09:36Z</time>
      </trkpt>
      <trkpt lat="43.49438" lon="6.73031">
        <ele>125.263397</ele>
        <time>2011-01-21 16:09:40Z</time>
      </trkpt>
      <trkpt lat="43.49439" lon="6.73037">
        <ele>125.263412</ele>
        <time>2011-01-21 16:09:44Z</time>
      </trkpt>
      <trkpt lat="43.49439" lon="6.73037">
        <ele>125.263412</ele>
        <time>2011-01-21 16:09:48Z</time>
      </trkpt>
      <trkpt lat="43.4944" lon="6.7305">
        <ele>123.263443</ele>
        <time>2011-01-21 16:09:52Z</time>
      </trkpt>
      <trkpt lat="43.4944" lon="6.7305">
        <ele>123.263443</ele>
        <time>2011-01-21 16:09:56Z</time>
      </trkpt>
      <trkpt lat="43.49441" lon="6.73059">
        <ele>122.263474</ele>
        <time>2011-01-21 16:10:00Z</time>
      </trkpt>
      <trkpt lat="43.49441" lon="6.73068">
        <ele>119.263489</ele>
        <time>2011-01-21 16:10:04Z</time>
      </trkpt>
      <trkpt lat="43.49441" lon="6.73075">
        <ele>119.263504</ele>
        <time>2011-01-21 16:10:08Z</time>
      </trkpt>
      <trkpt lat="43.4944" lon="6.7308">
        <ele>118.263519</ele>
        <time>2011-01-21 16:10:12Z</time>
      </trkpt>
      <trkpt lat="43.49439" lon="6.73088">
        <ele>118.263527</ele>
        <time>2011-01-21 16:10:16Z</time>
      </trkpt>
      <trkpt lat="43.49439" lon="6.73095">
        <ele>118.26355</ele>
        <time>2011-01-21 16:10:20Z</time>
      </trkpt>
      <trkpt lat="43.49438" lon="6.73102">
        <ele>117.263557</ele>
        <time>2011-01-21 16:10:24Z</time>
      </trkpt>
      <trkpt lat="43.49437" lon="6.73108">
        <ele>116.263573</ele>
        <time>2011-01-21 16:10:28Z</time>
      </trkpt>
      <trkpt lat="43.49438" lon="6.73117">
        <ele>116.263596</ele>
        <time>2011-01-21 16:10:32Z</time>
      </trkpt>
      <trkpt lat="43.49438" lon="6.73125">
        <ele>117.263611</ele>
        <time>2011-01-21 16:10:36Z</time>
      </trkpt>
      <trkpt lat="43.49439" lon="6.73132">
        <ele>117.263626</ele>
        <time>2011-01-21 16:10:40Z</time>
      </trkpt>
      <trkpt lat="43.4944" lon="6.73138">
        <ele>116.263641</ele>
        <time>2011-01-21 16:10:44Z</time>
      </trkpt>
      <trkpt lat="43.4944" lon="6.73145">
        <ele>116.263664</ele>
        <time>2011-01-21 16:10:48Z</time>
      </trkpt>
      <trkpt lat="43.49441" lon="6.7315">
        <ele>115.26368</ele>
        <time>2011-01-21 16:10:52Z</time>
      </trkpt>
      <trkpt lat="43.49441" lon="6.73156">
        <ele>114.263687</ele>
        <time>2011-01-21 16:10:56Z</time>
      </trkpt>
      <trkpt lat="43.49441" lon="6.73162">
        <ele>113.263702</ele>
        <time>2011-01-21 16:11:00Z</time>
      </trkpt>
      <trkpt lat="43.49441" lon="6.73169">
        <ele>112.263718</ele>
        <time>2011-01-21 16:11:04Z</time>
      </trkpt>
      <trkpt lat="43.49441" lon="6.73172">
        <ele>112.263725</ele>
        <time>2011-01-21 16:11:08Z</time>
      </trkpt>
      <trkpt lat="43.4944" lon="6.73182">
        <ele>113.263748</ele>
        <time>2011-01-21 16:11:12Z</time>
      </trkpt>
      <trkpt lat="43.4944" lon="6.7319">
        <ele>113.263763</ele>
        <time>2011-01-21 16:11:16Z</time>
      </trkpt>
      <trkpt lat="43.49439" lon="6.73198">
        <ele>113.263779</ele>
        <time>2011-01-21 16:11:20Z</time>
      </trkpt>
      <trkpt lat="43.49439" lon="6.73198">
        <ele>113.263779</ele>
        <time>2011-01-21 16:11:24Z</time>
      </trkpt>
      <trkpt lat="43.49438" lon="6.73211">
        <ele>111.263809</ele>
        <time>2011-01-21 16:11:28Z</time>
      </trkpt>
      <trkpt lat="43.49438" lon="6.73214">
        <ele>111.263809</ele>
        <time>2011-01-21 16:11:32Z</time>
      </trkpt>
      <trkpt lat="43.49438" lon="6.73218">
        <ele>110.263824</ele>
        <time>2011-01-21 16:11:36Z</time>
      </trkpt>
      <trkpt lat="43.49437" lon="6.73219">
        <ele>110.263824</ele>
        <time>2011-01-21 16:11:40Z</time>
      </trkpt>
      <trkpt lat="43.49437" lon="6.73222">
        <ele>110.263832</ele>
        <time>2011-01-21 16:11:44Z</time>
      </trkpt>
      <trkpt lat="43.49437" lon="6.73223">
        <ele>112.263832</ele>
        <time>2011-01-21 16:11:48Z</time>
      </trkpt>
      <trkpt lat="43.49437" lon="6.73223">
        <ele>111.263832</ele>
        <time>2011-01-21 16:11:52Z</time>
      </trkpt>
      <trkpt lat="43.49437" lon="6.73223">
        <ele>110.263832</ele>
        <time>2011-01-21 16:11:56Z</time>
      </trkpt>
      <trkpt lat="43.49436" lon="6.73224">
        <ele>109.263832</ele>
        <time>2011-01-21 16:12:00Z</time>
      </trkpt>
      <trkpt lat="43.49435" lon="6.73226">
        <ele>109.263832</ele>
        <time>2011-01-21 16:12:04Z</time>
      </trkpt>
      <trkpt lat="43.49435" lon="6.73228">
        <ele>108.26384</ele>
        <time>2011-01-21 16:12:08Z</time>
      </trkpt>
      <trkpt lat="43.49435" lon="6.73229">
        <ele>109.26384</ele>
        <time>2011-01-21 16:12:12Z</time>
      </trkpt>
      <trkpt lat="43.49435" lon="6.73229">
        <ele>110.26384</ele>
        <time>2011-01-21 16:12:16Z</time>
      </trkpt>
      <trkpt lat="43.49435" lon="6.7323">
        <ele>110.26384</ele>
        <time>2011-01-21 16:12:20Z</time>
      </trkpt>
      <trkpt lat="43.49434" lon="6.73231">
        <ele>111.26384</ele>
        <time>2011-01-21 16:12:24Z</time>
      </trkpt>
      <trkpt lat="43.49432" lon="6.73232">
        <ele>113.26384</ele>
        <time>2011-01-21 16:12:28Z</time>
      </trkpt>
      <trkpt lat="43.49432" lon="6.73232">
        <ele>111.263847</ele>
        <time>2011-01-21 16:12:32Z</time>
      </trkpt>
      <trkpt lat="43.49432" lon="6.73233">
        <ele>111.263847</ele>
        <time>2011-01-21 16:12:36Z</time>
      </trkpt>
      <trkpt lat="43.49432" lon="6.73233">
        <ele>111.263847</ele>
        <time>2011-01-21 16:12:40Z</time>
      </trkpt>
      <trkpt lat="43.49432" lon="6.73234">
        <ele>112.263855</ele>
        <time>2011-01-21 16:12:44Z</time>
      </trkpt>
      <trkpt lat="43.49432" lon="6.73234">
        <ele>113.263855</ele>
        <time>2011-01-21 16:12:48Z</time>
      </trkpt>
      <trkpt lat="43.49432" lon="6.73234">
        <ele>113.263855</ele>
        <time>2011-01-21 16:12:52Z</time>
      </trkpt>
      <trkpt lat="43.49432" lon="6.73234">
        <ele>113.263855</ele>
        <time>2011-01-21 16:12:56Z</time>
      </trkpt>
      <trkpt lat="43.49433" lon="6.73234">
        <ele>114.263855</ele>
        <time>2011-01-21 16:13:00Z</time>
      </trkpt>
      <trkpt lat="43.49434" lon="6.73233">
        <ele>113.263847</ele>
        <time>2011-01-21 16:13:04Z</time>
      </trkpt>
      <trkpt lat="43.49434" lon="6.73234">
        <ele>113.263847</ele>
        <time>2011-01-21 16:13:08Z</time>
      </trkpt>
      <trkpt lat="43.49433" lon="6.73233">
        <ele>114.263847</ele>
        <time>2011-01-21 16:13:12Z</time>
      </trkpt>
      <trkpt lat="43.49433" lon="6.73232">
        <ele>114.263847</ele>
        <time>2011-01-21 16:13:16Z</time>
      </trkpt>
      <trkpt lat="43.49434" lon="6.73232">
        <ele>114.26384</ele>
        <time>2011-01-21 16:13:20Z</time>
      </trkpt>
      <trkpt lat="43.49434" lon="6.73232">
        <ele>114.26384</ele>
        <time>2011-01-21 16:13:24Z</time>
      </trkpt>
      <trkpt lat="43.49434" lon="6.73231">
        <ele>115.26384</ele>
        <time>2011-01-21 16:13:28Z</time>
      </trkpt>
      <trkpt lat="43.49433" lon="6.73231">
        <ele>115.26384</ele>
        <time>2011-01-21 16:13:32Z</time>
      </trkpt>
      <trkpt lat="43.49432" lon="6.73231">
        <ele>115.26384</ele>
        <time>2011-01-21 16:13:36Z</time>
      </trkpt>
      <trkpt lat="43.49432" lon="6.73231">
        <ele>115.26384</ele>
        <time>2011-01-21 16:13:40Z</time>
      </trkpt>
      <trkpt lat="43.49432" lon="6.73231">
        <ele>115.26384</ele>
        <time>2011-01-21 16:13:44Z</time>
      </trkpt>
      <trkpt lat="43.49432" lon="6.73231">
        <ele>115.26384</ele>
        <time>2011-01-21 16:13:48Z</time>
      </trkpt>
      <trkpt lat="43.49431" lon="6.73231">
        <ele>114.26384</ele>
        <time>2011-01-21 16:13:52Z</time>
      </trkpt>
      <trkpt lat="43.49431" lon="6.73231">
        <ele>114.26384</ele>
        <time>2011-01-21 16:13:56Z</time>
      </trkpt>
      <trkpt lat="43.4943" lon="6.73233">
        <ele>114.26384</ele>
        <time>2011-01-21 16:14:00Z</time>
      </trkpt>
      <trkpt lat="43.4943" lon="6.73233">
        <ele>113.26384</ele>
        <time>2011-01-21 16:14:04Z</time>
      </trkpt>
      <trkpt lat="43.4943" lon="6.73233">
        <ele>113.26384</ele>
        <time>2011-01-21 16:14:08Z</time>
      </trkpt>
      <trkpt lat="43.4943" lon="6.73233">
        <ele>112.26384</ele>
        <time>2011-01-21 16:14:12Z</time>
      </trkpt>
      <trkpt lat="43.49431" lon="6.73233">
        <ele>113.263847</ele>
        <time>2011-01-21 16:14:16Z</time>
      </trkpt>
      <trkpt lat="43.49431" lon="6.73233">
        <ele>113.263847</ele>
        <time>2011-01-21 16:14:20Z</time>
      </trkpt>
      <trkpt lat="43.49432" lon="6.73231">
        <ele>111.26384</ele>
        <time>2011-01-21 16:14:24Z</time>
      </trkpt>
      <trkpt lat="43.49434" lon="6.73228">
        <ele>111.26384</ele>
        <time>2011-01-21 16:14:28Z</time>
      </trkpt>
      <trkpt lat="43.49436" lon="6.73226">
        <ele>111.26384</ele>
        <time>2011-01-21 16:14:32Z</time>
      </trkpt>
      <trkpt lat="43.49437" lon="6.73227">
        <ele>111.26384</ele>
        <time>2011-01-21 16:14:36Z</time>
      </trkpt>
      <trkpt lat="43.49437" lon="6.73227">
        <ele>112.26384</ele>
        <time>2011-01-21 16:14:40Z</time>
      </trkpt>
      <trkpt lat="43.49436" lon="6.73228">
        <ele>113.26384</ele>
        <time>2011-01-21 16:14:44Z</time>
      </trkpt>
      <trkpt lat="43.49436" lon="6.73228">
        <ele>113.26384</ele>
        <time>2011-01-21 16:14:48Z</time>
      </trkpt>
      <trkpt lat="43.49435" lon="6.7323">
        <ele>115.263847</ele>
        <time>2011-01-21 16:14:52Z</time>
      </trkpt>
      <trkpt lat="43.49434" lon="6.7323">
        <ele>116.263847</ele>
        <time>2011-01-21 16:14:56Z</time>
      </trkpt>
      <trkpt lat="43.49434" lon="6.7323">
        <ele>116.26384</ele>
        <time>2011-01-21 16:15:00Z</time>
      </trkpt>
      <trkpt lat="43.49434" lon="6.7323">
        <ele>116.26384</ele>
        <time>2011-01-21 16:15:04Z</time>
      </trkpt>
      <trkpt lat="43.49434" lon="6.7323">
        <ele>116.26384</ele>
        <time>2011-01-21 16:15:08Z</time>
      </trkpt>
      <trkpt lat="43.49434" lon="6.7323">
        <ele>116.26384</ele>
        <time>2011-01-21 16:15:12Z</time>
      </trkpt>
      <trkpt lat="43.49434" lon="6.73229">
        <ele>114.26384</ele>
        <time>2011-01-21 16:15:16Z</time>
      </trkpt>
      <trkpt lat="43.49434" lon="6.73229">
        <ele>115.26384</ele>
        <time>2011-01-21 16:15:20Z</time>
      </trkpt>
      <trkpt lat="43.49434" lon="6.73228">
        <ele>116.26384</ele>
        <time>2011-01-21 16:15:24Z</time>
      </trkpt>
      <trkpt lat="43.49434" lon="6.73228">
        <ele>115.26384</ele>
        <time>2011-01-21 16:15:28Z</time>
      </trkpt>
      <trkpt lat="43.49435" lon="6.73228">
        <ele>115.26384</ele>
        <time>2011-01-21 16:15:32Z</time>
      </trkpt>
      <trkpt lat="43.49435" lon="6.73228">
        <ele>115.26384</ele>
        <time>2011-01-21 16:15:36Z</time>
      </trkpt>
      <trkpt lat="43.49435" lon="6.73227">
        <ele>114.26384</ele>
        <time>2011-01-21 16:15:40Z</time>
      </trkpt>
      <trkpt lat="43.49435" lon="6.73227">
        <ele>115.26384</ele>
        <time>2011-01-21 16:15:44Z</time>
      </trkpt>
      <trkpt lat="43.49435" lon="6.73227">
        <ele>115.26384</ele>
        <time>2011-01-21 16:15:48Z</time>
      </trkpt>
      <trkpt lat="43.49435" lon="6.73228">
        <ele>115.26384</ele>
        <time>2011-01-21 16:15:52Z</time>
      </trkpt>
      <trkpt lat="43.49435" lon="6.73228">
        <ele>115.26384</ele>
        <time>2011-01-21 16:15:56Z</time>
      </trkpt>
      <trkpt lat="43.49434" lon="6.73227">
        <ele>114.26384</ele>
        <time>2011-01-21 16:16:00Z</time>
      </trkpt>
      <trkpt lat="43.49433" lon="6.73225">
        <ele>114.263832</ele>
        <time>2011-01-21 16:16:04Z</time>
      </trkpt>
      <trkpt lat="43.49432" lon="6.73224">
        <ele>114.263824</ele>
        <time>2011-01-21 16:16:08Z</time>
      </trkpt>
      <trkpt lat="43.49431" lon="6.73222">
        <ele>114.263817</ele>
        <time>2011-01-21 16:16:12Z</time>
      </trkpt>
      <trkpt lat="43.4943" lon="6.73221">
        <ele>114.263817</ele>
        <time>2011-01-21 16:16:16Z</time>
      </trkpt>
      <trkpt lat="43.49429" lon="6.7322">
        <ele>115.263809</ele>
        <time>2011-01-21 16:16:20Z</time>
      </trkpt>
      <trkpt lat="43.49428" lon="6.73218">
        <ele>115.263809</ele>
        <time>2011-01-21 16:16:24Z</time>
      </trkpt>
      <trkpt lat="43.49428" lon="6.73216">
        <ele>113.263802</ele>
        <time>2011-01-21 16:16:28Z</time>
      </trkpt>
      <trkpt lat="43.49428" lon="6.73212">
        <ele>113.263794</ele>
        <time>2011-01-21 16:16:32Z</time>
      </trkpt>
      <trkpt lat="43.49429" lon="6.73206">
        <ele>113.263779</ele>
        <time>2011-01-21 16:16:36Z</time>
      </trkpt>
      <trkpt lat="43.49428" lon="6.73197">
        <ele>113.263763</ele>
        <time>2011-01-21 16:16:40Z</time>
      </trkpt>
      <trkpt lat="43.49428" lon="6.73191">
        <ele>113.263748</ele>
        <time>2011-01-21 16:16:44Z</time>
      </trkpt>
      <trkpt lat="43.49427" lon="6.73181">
        <ele>113.263718</ele>
        <time>2011-01-21 16:16:48Z</time>
      </trkpt>
      <trkpt lat="43.49426" lon="6.73173">
        <ele>113.263702</ele>
        <time>2011-01-21 16:16:52Z</time>
      </trkpt>
      <trkpt lat="43.49424" lon="6.73165">
        <ele>113.26368</ele>
        <time>2011-01-21 16:16:56Z</time>
      </trkpt>
      <trkpt lat="43.49424" lon="6.73158">
        <ele>112.263664</ele>
        <time>2011-01-21 16:17:00Z</time>
      </trkpt>
      <trkpt lat="43.49423" lon="6.73152">
        <ele>112.263649</ele>
        <time>2011-01-21 16:17:04Z</time>
      </trkpt>
      <trkpt lat="43.49422" lon="6.73146">
        <ele>112.263634</ele>
        <time>2011-01-21 16:17:08Z</time>
      </trkpt>
      <trkpt lat="43.49421" lon="6.7314">
        <ele>111.263618</ele>
        <time>2011-01-21 16:17:12Z</time>
      </trkpt>
      <trkpt lat="43.49421" lon="6.73138">
        <ele>111.263611</ele>
        <time>2011-01-21 16:17:16Z</time>
      </trkpt>
      <trkpt lat="43.49418" lon="6.73126">
        <ele>112.26358</ele>
        <time>2011-01-21 16:17:20Z</time>
      </trkpt>
      <trkpt lat="43.49415" lon="6.7312">
        <ele>113.263565</ele>
        <time>2011-01-21 16:17:24Z</time>
      </trkpt>
      <trkpt lat="43.49415" lon="6.73118">
        <ele>113.263557</ele>
        <time>2011-01-21 16:17:28Z</time>
      </trkpt>
      <trkpt lat="43.49411" lon="6.73105">
        <ele>112.263519</ele>
        <time>2011-01-21 16:17:32Z</time>
      </trkpt>
      <trkpt lat="43.49409" lon="6.73098">
        <ele>113.263504</ele>
        <time>2011-01-21 16:17:36Z</time>
      </trkpt>
      <trkpt lat="43.49406" lon="6.73092">
        <ele>113.263489</ele>
        <time>2011-01-21 16:17:40Z</time>
      </trkpt>
      <trkpt lat="43.49403" lon="6.73088">
        <ele>111.263474</ele>
        <time>2011-01-21 16:17:44Z</time>
      </trkpt>
      <trkpt lat="43.49402" lon="6.73086">
        <ele>110.263466</ele>
        <time>2011-01-21 16:17:48Z</time>
      </trkpt>
      <trkpt lat="43.49398" lon="6.73081">
        <ele>109.263443</ele>
        <time>2011-01-21 16:17:52Z</time>
      </trkpt>
      <trkpt lat="43.49397" lon="6.73079">
        <ele>108.263443</ele>
        <time>2011-01-21 16:17:56Z</time>
      </trkpt>
      <trkpt lat="43.49394" lon="6.73077">
        <ele>107.263428</ele>
        <time>2011-01-21 16:18:00Z</time>
      </trkpt>
      <trkpt lat="43.4939" lon="6.73074">
        <ele>105.263412</ele>
        <time>2011-01-21 16:18:04Z</time>
      </trkpt>
      <trkpt lat="43.49387" lon="6.7307">
        <ele>104.263405</ele>
        <time>2011-01-21 16:18:08Z</time>
      </trkpt>
      <trkpt lat="43.49382" lon="6.73065">
        <ele>105.26339</ele>
        <time>2011-01-21 16:18:12Z</time>
      </trkpt>
      <trkpt lat="43.49378" lon="6.7306">
        <ele>106.263367</ele>
        <time>2011-01-21 16:18:16Z</time>
      </trkpt>
      <trkpt lat="43.49374" lon="6.73055">
        <ele>106.263351</ele>
        <time>2011-01-21 16:18:20Z</time>
      </trkpt>
      <trkpt lat="43.4937" lon="6.7305">
        <ele>105.263336</ele>
        <time>2011-01-21 16:18:24Z</time>
      </trkpt>
      <trkpt lat="43.49368" lon="6.73044">
        <ele>106.263313</ele>
        <time>2011-01-21 16:18:28Z</time>
      </trkpt>
      <trkpt lat="43.49368" lon="6.73043">
        <ele>106.263306</ele>
        <time>2011-01-21 16:18:32Z</time>
      </trkpt>
      <trkpt lat="43.49365" lon="6.73033">
        <ele>107.263283</ele>
        <time>2011-01-21 16:18:36Z</time>
      </trkpt>
      <trkpt lat="43.49363" lon="6.73027">
        <ele>107.263268</ele>
        <time>2011-01-21 16:18:40Z</time>
      </trkpt>
      <trkpt lat="43.49361" lon="6.73022">
        <ele>108.263252</ele>
        <time>2011-01-21 16:18:44Z</time>
      </trkpt>
      <trkpt lat="43.4936" lon="6.73016">
        <ele>108.263237</ele>
        <time>2011-01-21 16:18:48Z</time>
      </trkpt>
      <trkpt lat="43.49359" lon="6.7301">
        <ele>107.263222</ele>
        <time>2011-01-21 16:18:52Z</time>
      </trkpt>
      <trkpt lat="43.49358" lon="6.73007">
        <ele>106.263214</ele>
        <time>2011-01-21 16:18:56Z</time>
      </trkpt>
      <trkpt lat="43.49357" lon="6.72999">
        <ele>104.263199</ele>
        <time>2011-01-21 16:19:00Z</time>
      </trkpt>
      <trkpt lat="43.49355" lon="6.72991">
        <ele>102.263168</ele>
        <time>2011-01-21 16:19:04Z</time>
      </trkpt>
      <trkpt lat="43.49352" lon="6.72984">
        <ele>101.263153</ele>
        <time>2011-01-21 16:19:08Z</time>
      </trkpt>
      <trkpt lat="43.49351" lon="6.72979">
        <ele>101.263138</ele>
        <time>2011-01-21 16:19:12Z</time>
      </trkpt>
      <trkpt lat="43.4935" lon="6.72971">
        <ele>101.263123</ele>
        <time>2011-01-21 16:19:16Z</time>
      </trkpt>
      <trkpt lat="43.49349" lon="6.72964">
        <ele>101.263107</ele>
        <time>2011-01-21 16:19:20Z</time>
      </trkpt>
      <trkpt lat="43.49348" lon="6.72956">
        <ele>100.263092</ele>
        <time>2011-01-21 16:19:24Z</time>
      </trkpt>
      <trkpt lat="43.49347" lon="6.72949">
        <ele>98.263062</ele>
        <time>2011-01-21 16:19:28Z</time>
      </trkpt>
      <trkpt lat="43.49345" lon="6.72942">
        <ele>97.263054</ele>
        <time>2011-01-21 16:19:32Z</time>
      </trkpt>
      <trkpt lat="43.49343" lon="6.72935">
        <ele>96.263031</ele>
        <time>2011-01-21 16:19:36Z</time>
      </trkpt>
      <trkpt lat="43.4934" lon="6.72929">
        <ele>96.263016</ele>
        <time>2011-01-21 16:19:40Z</time>
      </trkpt>
      <trkpt lat="43.49337" lon="6.72927">
        <ele>95.263</ele>
        <time>2011-01-21 16:19:44Z</time>
      </trkpt>
      <trkpt lat="43.49334" lon="6.7293">
        <ele>94.263</ele>
        <time>2011-01-21 16:19:48Z</time>
      </trkpt>
      <trkpt lat="43.49332" lon="6.72939">
        <ele>93.263023</ele>
        <time>2011-01-21 16:19:52Z</time>
      </trkpt>
      <trkpt lat="43.49332" lon="6.72949">
        <ele>91.263046</ele>
        <time>2011-01-21 16:19:56Z</time>
      </trkpt>
      <trkpt lat="43.49333" lon="6.7296">
        <ele>92.263069</ele>
        <time>2011-01-21 16:20:00Z</time>
      </trkpt>
      <trkpt lat="43.49334" lon="6.72968">
        <ele>92.263092</ele>
        <time>2011-01-21 16:20:04Z</time>
      </trkpt>
      <trkpt lat="43.49336" lon="6.72978">
        <ele>92.263123</ele>
        <time>2011-01-21 16:20:08Z</time>
      </trkpt>
      <trkpt lat="43.49338" lon="6.72986">
        <ele>92.263138</ele>
        <time>2011-01-21 16:20:12Z</time>
      </trkpt>
      <trkpt lat="43.49339" lon="6.72989">
        <ele>91.263145</ele>
        <time>2011-01-21 16:20:16Z</time>
      </trkpt>
      <trkpt lat="43.49342" lon="6.73">
        <ele>91.263176</ele>
        <time>2011-01-21 16:20:20Z</time>
      </trkpt>
      <trkpt lat="43.49344" lon="6.73008">
        <ele>92.263199</ele>
        <time>2011-01-21 16:20:24Z</time>
      </trkpt>
      <trkpt lat="43.49345" lon="6.73013">
        <ele>91.263214</ele>
        <time>2011-01-21 16:20:28Z</time>
      </trkpt>
      <trkpt lat="43.49345" lon="6.73013">
        <ele>91.263214</ele>
        <time>2011-01-21 16:20:32Z</time>
      </trkpt>
      <trkpt lat="43.49349" lon="6.73026">
        <ele>90.263237</ele>
        <time>2011-01-21 16:20:36Z</time>
      </trkpt>
      <trkpt lat="43.4935" lon="6.73031">
        <ele>90.26326</ele>
        <time>2011-01-21 16:20:40Z</time>
      </trkpt>
      <trkpt lat="43.4935" lon="6.73033">
        <ele>89.26326</ele>
        <time>2011-01-21 16:20:44Z</time>
      </trkpt>
      <trkpt lat="43.4935" lon="6.73033">
        <ele>89.26326</ele>
        <time>2011-01-21 16:20:48Z</time>
      </trkpt>
      <trkpt lat="43.49351" lon="6.73053">
        <ele>89.263313</ele>
        <time>2011-01-21 16:20:52Z</time>
      </trkpt>
      <trkpt lat="43.49351" lon="6.73058">
        <ele>88.263321</ele>
        <time>2011-01-21 16:20:56Z</time>
      </trkpt>
      <trkpt lat="43.49352" lon="6.73065">
        <ele>86.263336</ele>
        <time>2011-01-21 16:21:00Z</time>
      </trkpt>
      <trkpt lat="43.49352" lon="6.73068">
        <ele>85.263344</ele>
        <time>2011-01-21 16:21:04Z</time>
      </trkpt>
      <trkpt lat="43.49352" lon="6.73075">
        <ele>81.263359</ele>
        <time>2011-01-21 16:21:08Z</time>
      </trkpt>
      <trkpt lat="43.49353" lon="6.73081">
        <ele>80.263367</ele>
        <time>2011-01-21 16:21:12Z</time>
      </trkpt>
      <trkpt lat="43.49353" lon="6.73082">
        <ele>80.263374</ele>
        <time>2011-01-21 16:21:16Z</time>
      </trkpt>
      <trkpt lat="43.49353" lon="6.73092">
        <ele>81.263397</ele>
        <time>2011-01-21 16:21:20Z</time>
      </trkpt>
      <trkpt lat="43.49354" lon="6.73098">
        <ele>81.263412</ele>
        <time>2011-01-21 16:21:24Z</time>
      </trkpt>
      <trkpt lat="43.49355" lon="6.73101">
        <ele>82.263428</ele>
        <time>2011-01-21 16:21:28Z</time>
      </trkpt>
      <trkpt lat="43.49355" lon="6.7311">
        <ele>83.263443</ele>
        <time>2011-01-21 16:21:32Z</time>
      </trkpt>
      <trkpt lat="43.49355" lon="6.73111">
        <ele>82.263443</ele>
        <time>2011-01-21 16:21:36Z</time>
      </trkpt>
      <trkpt lat="43.49355" lon="6.73123">
        <ele>84.263474</ele>
        <time>2011-01-21 16:21:40Z</time>
      </trkpt>
      <trkpt lat="43.49355" lon="6.73123">
        <ele>84.263474</ele>
        <time>2011-01-21 16:21:44Z</time>
      </trkpt>
      <trkpt lat="43.49355" lon="6.73139">
        <ele>86.263504</ele>
        <time>2011-01-21 16:21:48Z</time>
      </trkpt>
      <trkpt lat="43.49355" lon="6.73141">
        <ele>86.263504</ele>
        <time>2011-01-21 16:21:52Z</time>
      </trkpt>
      <trkpt lat="43.49355" lon="6.73149">
        <ele>85.263535</ele>
        <time>2011-01-21 16:21:56Z</time>
      </trkpt>
      <trkpt lat="43.49356" lon="6.73151">
        <ele>86.263535</ele>
        <time>2011-01-21 16:22:00Z</time>
      </trkpt>
      <trkpt lat="43.49355" lon="6.73157">
        <ele>87.26355</ele>
        <time>2011-01-21 16:22:04Z</time>
      </trkpt>
      <trkpt lat="43.49355" lon="6.73157">
        <ele>87.26355</ele>
        <time>2011-01-21 16:22:08Z</time>
      </trkpt>
      <trkpt lat="43.49356" lon="6.73165">
        <ele>87.263565</ele>
        <time>2011-01-21 16:22:12Z</time>
      </trkpt>
      <trkpt lat="43.49356" lon="6.73173">
        <ele>87.26358</ele>
        <time>2011-01-21 16:22:16Z</time>
      </trkpt>
      <trkpt lat="43.49356" lon="6.7318">
        <ele>86.263603</ele>
        <time>2011-01-21 16:22:20Z</time>
      </trkpt>
      <trkpt lat="43.49356" lon="6.7318">
        <ele>86.263603</ele>
        <time>2011-01-21 16:22:24Z</time>
      </trkpt>
      <trkpt lat="43.49356" lon="6.7318">
        <ele>86.263603</ele>
        <time>2011-01-21 16:22:28Z</time>
      </trkpt>
      <trkpt lat="43.4936" lon="6.73201">
        <ele>85.263657</ele>
        <time>2011-01-21 16:22:32Z</time>
      </trkpt>
      <trkpt lat="43.49362" lon="6.73211">
        <ele>85.26368</ele>
        <time>2011-01-21 16:22:36Z</time>
      </trkpt>
      <trkpt lat="43.49364" lon="6.73222">
        <ele>84.26371</ele>
        <time>2011-01-21 16:22:40Z</time>
      </trkpt>
      <trkpt lat="43.49366" lon="6.73234">
        <ele>84.263741</ele>
        <time>2011-01-21 16:22:44Z</time>
      </trkpt>
      <trkpt lat="43.49368" lon="6.73243">
        <ele>83.263763</ele>
        <time>2011-01-21 16:22:48Z</time>
      </trkpt>
      <trkpt lat="43.49369" lon="6.73249">
        <ele>83.263779</ele>
        <time>2011-01-21 16:22:52Z</time>
      </trkpt>
      <trkpt lat="43.49369" lon="6.73249">
        <ele>83.263779</ele>
        <time>2011-01-21 16:22:56Z</time>
      </trkpt>
      <trkpt lat="43.49373" lon="6.73263">
        <ele>81.263817</ele>
        <time>2011-01-21 16:23:00Z</time>
      </trkpt>
      <trkpt lat="43.49374" lon="6.7327">
        <ele>80.263832</ele>
        <time>2011-01-21 16:23:04Z</time>
      </trkpt>
      <trkpt lat="43.49377" lon="6.73278">
        <ele>79.263855</ele>
        <time>2011-01-21 16:23:08Z</time>
      </trkpt>
      <trkpt lat="43.49381" lon="6.73286">
        <ele>79.263885</ele>
        <time>2011-01-21 16:23:12Z</time>
      </trkpt>
      <trkpt lat="43.49385" lon="6.73294">
        <ele>80.263908</ele>
        <time>2011-01-21 16:23:16Z</time>
      </trkpt>
      <trkpt lat="43.49389" lon="6.73301">
        <ele>79.263931</ele>
        <time>2011-01-21 16:23:20Z</time>
      </trkpt>
      <trkpt lat="43.49393" lon="6.73309">
        <ele>78.263954</ele>
        <time>2011-01-21 16:23:24Z</time>
      </trkpt>
      <trkpt lat="43.49397" lon="6.73317">
        <ele>77.263977</ele>
        <time>2011-01-21 16:23:28Z</time>
      </trkpt>
      <trkpt lat="43.49401" lon="6.73325">
        <ele>77.264</ele>
        <time>2011-01-21 16:23:32Z</time>
      </trkpt>
      <trkpt lat="43.49404" lon="6.73333">
        <ele>77.264023</ele>
        <time>2011-01-21 16:23:36Z</time>
      </trkpt>
      <trkpt lat="43.49406" lon="6.73341">
        <ele>78.264053</ele>
        <time>2011-01-21 16:23:40Z</time>
      </trkpt>
      <trkpt lat="43.49408" lon="6.73347">
        <ele>78.264069</ele>
        <time>2011-01-21 16:23:44Z</time>
      </trkpt>
      <trkpt lat="43.49408" lon="6.73356">
        <ele>78.264084</ele>
        <time>2011-01-21 16:23:48Z</time>
      </trkpt>
      <trkpt lat="43.49408" lon="6.73365">
        <ele>78.264099</ele>
        <time>2011-01-21 16:23:52Z</time>
      </trkpt>
      <trkpt lat="43.49408" lon="6.73372">
        <ele>78.264122</ele>
        <time>2011-01-21 16:23:56Z</time>
      </trkpt>
      <trkpt lat="43.49407" lon="6.73376">
        <ele>78.26413</ele>
        <time>2011-01-21 16:24:00Z</time>
      </trkpt>
      <trkpt lat="43.49407" lon="6.73384">
        <ele>76.264145</ele>
        <time>2011-01-21 16:24:04Z</time>
      </trkpt>
      <trkpt lat="43.49407" lon="6.73384">
        <ele>76.264145</ele>
        <time>2011-01-21 16:24:08Z</time>
      </trkpt>
      <trkpt lat="43.49406" lon="6.73399">
        <ele>77.264175</ele>
        <time>2011-01-21 16:24:12Z</time>
      </trkpt>
      <trkpt lat="43.49406" lon="6.73406">
        <ele>80.264191</ele>
        <time>2011-01-21 16:24:16Z</time>
      </trkpt>
      <trkpt lat="43.49406" lon="6.73406">
        <ele>80.264191</ele>
        <time>2011-01-21 16:24:20Z</time>
      </trkpt>
      <trkpt lat="43.49408" lon="6.7342">
        <ele>80.264229</ele>
        <time>2011-01-21 16:24:24Z</time>
      </trkpt>
      <trkpt lat="43.49409" lon="6.73427">
        <ele>81.264252</ele>
        <time>2011-01-21 16:24:28Z</time>
      </trkpt>
      <trkpt lat="43.49411" lon="6.73435">
        <ele>81.264267</ele>
        <time>2011-01-21 16:24:32Z</time>
      </trkpt>
      <trkpt lat="43.49413" lon="6.73443">
        <ele>80.26429</ele>
        <time>2011-01-21 16:24:36Z</time>
      </trkpt>
      <trkpt lat="43.49416" lon="6.7345">
        <ele>79.264313</ele>
        <time>2011-01-21 16:24:40Z</time>
      </trkpt>
      <trkpt lat="43.4942" lon="6.73457">
        <ele>79.264328</ele>
        <time>2011-01-21 16:24:44Z</time>
      </trkpt>
      <trkpt lat="43.49424" lon="6.73464">
        <ele>78.264351</ele>
        <time>2011-01-21 16:24:48Z</time>
      </trkpt>
      <trkpt lat="43.49427" lon="6.73471">
        <ele>78.264374</ele>
        <time>2011-01-21 16:24:52Z</time>
      </trkpt>
      <trkpt lat="43.4943" lon="6.73475">
        <ele>78.264389</ele>
        <time>2011-01-21 16:24:56Z</time>
      </trkpt>
      <trkpt lat="43.49433" lon="6.73481">
        <ele>78.264404</ele>
        <time>2011-01-21 16:25:00Z</time>
      </trkpt>
      <trkpt lat="43.49435" lon="6.73486">
        <ele>77.26442</ele>
        <time>2011-01-21 16:25:04Z</time>
      </trkpt>
      <trkpt lat="43.49438" lon="6.73491">
        <ele>77.264435</ele>
        <time>2011-01-21 16:25:08Z</time>
      </trkpt>
      <trkpt lat="43.4944" lon="6.73496">
        <ele>78.26445</ele>
        <time>2011-01-21 16:25:12Z</time>
      </trkpt>
      <trkpt lat="43.4944" lon="6.73497">
        <ele>78.26445</ele>
        <time>2011-01-21 16:25:16Z</time>
      </trkpt>
      <trkpt lat="43.49445" lon="6.73506">
        <ele>75.264481</ele>
        <time>2011-01-21 16:25:20Z</time>
      </trkpt>
      <trkpt lat="43.49447" lon="6.73511">
        <ele>74.264496</ele>
        <time>2011-01-21 16:25:24Z</time>
      </trkpt>
      <trkpt lat="43.49448" lon="6.73516">
        <ele>73.264511</ele>
        <time>2011-01-21 16:25:28Z</time>
      </trkpt>
      <trkpt lat="43.49449" lon="6.7352">
        <ele>74.264519</ele>
        <time>2011-01-21 16:25:32Z</time>
      </trkpt>
      <trkpt lat="43.4945" lon="6.73524">
        <ele>74.264526</ele>
        <time>2011-01-21 16:25:36Z</time>
      </trkpt>
      <trkpt lat="43.49448" lon="6.73528">
        <ele>76.264542</ele>
        <time>2011-01-21 16:25:40Z</time>
      </trkpt>
      <trkpt lat="43.49448" lon="6.73531">
        <ele>77.264542</ele>
        <time>2011-01-21 16:25:44Z</time>
      </trkpt>
      <trkpt lat="43.49445" lon="6.73546">
        <ele>82.264572</ele>
        <time>2011-01-21 16:25:48Z</time>
      </trkpt>
      <trkpt lat="43.49444" lon="6.73554">
        <ele>81.264587</ele>
        <time>2011-01-21 16:25:52Z</time>
      </trkpt>
      <trkpt lat="43.49443" lon="6.7356">
        <ele>82.264603</ele>
        <time>2011-01-21 16:25:56Z</time>
      </trkpt>
      <trkpt lat="43.49441" lon="6.73568">
        <ele>84.264618</ele>
        <time>2011-01-21 16:26:00Z</time>
      </trkpt>
      <trkpt lat="43.4944" lon="6.73575">
        <ele>85.264633</ele>
        <time>2011-01-21 16:26:04Z</time>
      </trkpt>
      <trkpt lat="43.49439" lon="6.73582">
        <ele>85.264648</ele>
        <time>2011-01-21 16:26:08Z</time>
      </trkpt>
      <trkpt lat="43.49437" lon="6.73589">
        <ele>85.264656</ele>
        <time>2011-01-21 16:26:12Z</time>
      </trkpt>
      <trkpt lat="43.49435" lon="6.73595">
        <ele>87.264664</ele>
        <time>2011-01-21 16:26:16Z</time>
      </trkpt>
      <trkpt lat="43.49434" lon="6.73601">
        <ele>86.264679</ele>
        <time>2011-01-21 16:26:20Z</time>
      </trkpt>
      <trkpt lat="43.49432" lon="6.73606">
        <ele>87.264687</ele>
        <time>2011-01-21 16:26:24Z</time>
      </trkpt>
      <trkpt lat="43.49432" lon="6.73608">
        <ele>88.264687</ele>
        <time>2011-01-21 16:26:28Z</time>
      </trkpt>
      <trkpt lat="43.4943" lon="6.73618">
        <ele>90.264709</ele>
        <time>2011-01-21 16:26:32Z</time>
      </trkpt>
      <trkpt lat="43.49429" lon="6.73624">
        <ele>91.264725</ele>
        <time>2011-01-21 16:26:36Z</time>
      </trkpt>
      <trkpt lat="43.49429" lon="6.73624">
        <ele>91.264725</ele>
        <time>2011-01-21 16:26:40Z</time>
      </trkpt>
      <trkpt lat="43.49431" lon="6.73636">
        <ele>92.264755</ele>
        <time>2011-01-21 16:26:44Z</time>
      </trkpt>
      <trkpt lat="43.49432" lon="6.73646">
        <ele>93.264771</ele>
        <time>2011-01-21 16:26:48Z</time>
      </trkpt>
      <trkpt lat="43.49433" lon="6.73648">
        <ele>93.264786</ele>
        <time>2011-01-21 16:26:52Z</time>
      </trkpt>
      <trkpt lat="43.49435" lon="6.73662">
        <ele>93.264816</ele>
        <time>2011-01-21 16:26:56Z</time>
      </trkpt>
      <trkpt lat="43.49435" lon="6.73667">
        <ele>93.264832</ele>
        <time>2011-01-21 16:27:00Z</time>
      </trkpt>
      <trkpt lat="43.49435" lon="6.73667">
        <ele>93.264832</ele>
        <time>2011-01-21 16:27:04Z</time>
      </trkpt>
      <trkpt lat="43.49433" lon="6.73675">
        <ele>91.264847</ele>
        <time>2011-01-21 16:27:08Z</time>
      </trkpt>
      <trkpt lat="43.49432" lon="6.73681">
        <ele>91.264854</ele>
        <time>2011-01-21 16:27:12Z</time>
      </trkpt>
      <trkpt lat="43.49431" lon="6.73686">
        <ele>90.26487</ele>
        <time>2011-01-21 16:27:16Z</time>
      </trkpt>
      <trkpt lat="43.49432" lon="6.73692">
        <ele>91.264877</ele>
        <time>2011-01-21 16:27:20Z</time>
      </trkpt>
      <trkpt lat="43.49432" lon="6.73699">
        <ele>93.264893</ele>
        <time>2011-01-21 16:27:24Z</time>
      </trkpt>
      <trkpt lat="43.49433" lon="6.73704">
        <ele>92.264908</ele>
        <time>2011-01-21 16:27:28Z</time>
      </trkpt>
      <trkpt lat="43.49433" lon="6.73711">
        <ele>93.264923</ele>
        <time>2011-01-21 16:27:32Z</time>
      </trkpt>
      <trkpt lat="43.49433" lon="6.73713">
        <ele>93.264931</ele>
        <time>2011-01-21 16:27:36Z</time>
      </trkpt>
      <trkpt lat="43.4943" lon="6.7373">
        <ele>93.264969</ele>
        <time>2011-01-21 16:27:40Z</time>
      </trkpt>
      <trkpt lat="43.49429" lon="6.73735">
        <ele>93.264969</ele>
        <time>2011-01-21 16:27:44Z</time>
      </trkpt>
      <trkpt lat="43.49427" lon="6.73743">
        <ele>91.264984</ele>
        <time>2011-01-21 16:27:48Z</time>
      </trkpt>
      <trkpt lat="43.49419" lon="6.73755">
        <ele>91.264999</ele>
        <time>2011-01-21 16:27:52Z</time>
      </trkpt>
      <trkpt lat="43.49414" lon="6.7376">
        <ele>88.264999</ele>
        <time>2011-01-21 16:27:56Z</time>
      </trkpt>
      <trkpt lat="43.4941" lon="6.73762">
        <ele>86.265007</ele>
        <time>2011-01-21 16:28:00Z</time>
      </trkpt>
      <trkpt lat="43.4941" lon="6.73762">
        <ele>86.265007</ele>
        <time>2011-01-21 16:28:04Z</time>
      </trkpt>
      <trkpt lat="43.49397" lon="6.73768">
        <ele>86.264992</ele>
        <time>2011-01-21 16:28:08Z</time>
      </trkpt>
      <trkpt lat="43.49391" lon="6.73769">
        <ele>86.264984</ele>
        <time>2011-01-21 16:28:12Z</time>
      </trkpt>
      <trkpt lat="43.49386" lon="6.7377">
        <ele>86.264984</ele>
        <time>2011-01-21 16:28:16Z</time>
      </trkpt>
      <trkpt lat="43.49384" lon="6.7377">
        <ele>85.264984</ele>
        <time>2011-01-21 16:28:20Z</time>
      </trkpt>
      <trkpt lat="43.49375" lon="6.73774">
        <ele>84.264969</ele>
        <time>2011-01-21 16:28:24Z</time>
      </trkpt>
      <trkpt lat="43.4937" lon="6.73776">
        <ele>85.264969</ele>
        <time>2011-01-21 16:28:28Z</time>
      </trkpt>
      <trkpt lat="43.49367" lon="6.73777">
        <ele>84.264969</ele>
        <time>2011-01-21 16:28:32Z</time>
      </trkpt>
      <trkpt lat="43.49359" lon="6.73781">
        <ele>84.264961</ele>
        <time>2011-01-21 16:28:36Z</time>
      </trkpt>
      <trkpt lat="43.49354" lon="6.73784">
        <ele>84.264961</ele>
        <time>2011-01-21 16:28:40Z</time>
      </trkpt>
      <trkpt lat="43.49351" lon="6.73786">
        <ele>84.264961</ele>
        <time>2011-01-21 16:28:44Z</time>
      </trkpt>
      <trkpt lat="43.49348" lon="6.73788">
        <ele>83.264961</ele>
        <time>2011-01-21 16:28:48Z</time>
      </trkpt>
      <trkpt lat="43.49348" lon="6.73788">
        <ele>83.264961</ele>
        <time>2011-01-21 16:28:52Z</time>
      </trkpt>
      <trkpt lat="43.49348" lon="6.73788">
        <ele>83.264961</ele>
        <time>2011-01-21 16:28:56Z</time>
      </trkpt>
      <trkpt lat="43.49339" lon="6.73796">
        <ele>83.264961</ele>
        <time>2011-01-21 16:29:00Z</time>
      </trkpt>
      <trkpt lat="43.49334" lon="6.738">
        <ele>83.264961</ele>
        <time>2011-01-21 16:29:04Z</time>
      </trkpt>
      <trkpt lat="43.49329" lon="6.73805">
        <ele>81.264969</ele>
        <time>2011-01-21 16:29:08Z</time>
      </trkpt>
      <trkpt lat="43.49324" lon="6.73809">
        <ele>82.264969</ele>
        <time>2011-01-21 16:29:12Z</time>
      </trkpt>
      <trkpt lat="43.49318" lon="6.73814">
        <ele>82.264969</ele>
        <time>2011-01-21 16:29:16Z</time>
      </trkpt>
      <trkpt lat="43.49314" lon="6.73817">
        <ele>81.264969</ele>
        <time>2011-01-21 16:29:20Z</time>
      </trkpt>
      <trkpt lat="43.49308" lon="6.73822">
        <ele>80.264969</ele>
        <time>2011-01-21 16:29:24Z</time>
      </trkpt>
      <trkpt lat="43.49303" lon="6.73826">
        <ele>80.264969</ele>
        <time>2011-01-21 16:29:28Z</time>
      </trkpt>
      <trkpt lat="43.493" lon="6.73828">
        <ele>80.264969</ele>
        <time>2011-01-21 16:29:32Z</time>
      </trkpt>
      <trkpt lat="43.49294" lon="6.73834">
        <ele>80.264977</ele>
        <time>2011-01-21 16:29:36Z</time>
      </trkpt>
      <trkpt lat="43.4929" lon="6.73838">
        <ele>80.264977</ele>
        <time>2011-01-21 16:29:40Z</time>
      </trkpt>
      <trkpt lat="43.49287" lon="6.73841">
        <ele>78.264977</ele>
        <time>2011-01-21 16:29:44Z</time>
      </trkpt>
      <trkpt lat="43.49287" lon="6.73841">
        <ele>78.264977</ele>
        <time>2011-01-21 16:29:48Z</time>
      </trkpt>
      <trkpt lat="43.49278" lon="6.73852">
        <ele>76.264984</ele>
        <time>2011-01-21 16:29:52Z</time>
      </trkpt>
      <trkpt lat="43.49275" lon="6.73856">
        <ele>75.264999</ele>
        <time>2011-01-21 16:29:56Z</time>
      </trkpt>
      <trkpt lat="43.49272" lon="6.73862">
        <ele>74.264999</ele>
        <time>2011-01-21 16:30:00Z</time>
      </trkpt>
      <trkpt lat="43.49269" lon="6.73866">
        <ele>73.265007</ele>
        <time>2011-01-21 16:30:04Z</time>
      </trkpt>
      <trkpt lat="43.49267" lon="6.73868">
        <ele>73.265007</ele>
        <time>2011-01-21 16:30:08Z</time>
      </trkpt>
      <trkpt lat="43.49261" lon="6.73874">
        <ele>74.265015</ele>
        <time>2011-01-21 16:30:12Z</time>
      </trkpt>
      <trkpt lat="43.49256" lon="6.73878">
        <ele>73.265015</ele>
        <time>2011-01-21 16:30:16Z</time>
      </trkpt>
      <trkpt lat="43.49253" lon="6.7388">
        <ele>72.265015</ele>
        <time>2011-01-21 16:30:20Z</time>
      </trkpt>
      <trkpt lat="43.49247" lon="6.73884">
        <ele>73.265007</ele>
        <time>2011-01-21 16:30:24Z</time>
      </trkpt>
      <trkpt lat="43.49241" lon="6.73886">
        <ele>74.265007</ele>
        <time>2011-01-21 16:30:28Z</time>
      </trkpt>
      <trkpt lat="43.49236" lon="6.73888">
        <ele>74.265007</ele>
        <time>2011-01-21 16:30:32Z</time>
      </trkpt>
      <trkpt lat="43.49231" lon="6.7389">
        <ele>74.264999</ele>
        <time>2011-01-21 16:30:36Z</time>
      </trkpt>
      <trkpt lat="43.49227" lon="6.73891">
        <ele>74.264999</ele>
        <time>2011-01-21 16:30:40Z</time>
      </trkpt>
      <trkpt lat="43.49223" lon="6.73893">
        <ele>73.264992</ele>
        <time>2011-01-21 16:30:44Z</time>
      </trkpt>
      <trkpt lat="43.49218" lon="6.73894">
        <ele>73.264984</ele>
        <time>2011-01-21 16:30:48Z</time>
      </trkpt>
      <trkpt lat="43.49214" lon="6.73896">
        <ele>72.264984</ele>
        <time>2011-01-21 16:30:52Z</time>
      </trkpt>
      <trkpt lat="43.49212" lon="6.73898">
        <ele>72.264984</ele>
        <time>2011-01-21 16:30:56Z</time>
      </trkpt>
      <trkpt lat="43.49207" lon="6.73904">
        <ele>72.264992</ele>
        <time>2011-01-21 16:31:00Z</time>
      </trkpt>
      <trkpt lat="43.49202" lon="6.73907">
        <ele>73.264984</ele>
        <time>2011-01-21 16:31:04Z</time>
      </trkpt>
      <trkpt lat="43.49199" lon="6.73909">
        <ele>72.264984</ele>
        <time>2011-01-21 16:31:08Z</time>
      </trkpt>
      <trkpt lat="43.49199" lon="6.73909">
        <ele>72.264984</ele>
        <time>2011-01-21 16:31:12Z</time>
      </trkpt>
      <trkpt lat="43.4919" lon="6.73915">
        <ele>70.264984</ele>
        <time>2011-01-21 16:31:16Z</time>
      </trkpt>
      <trkpt lat="43.49186" lon="6.73916">
        <ele>70.264984</ele>
        <time>2011-01-21 16:31:20Z</time>
      </trkpt>
      <trkpt lat="43.49181" lon="6.73918">
        <ele>70.264977</ele>
        <time>2011-01-21 16:31:24Z</time>
      </trkpt>
      <trkpt lat="43.49176" lon="6.7392">
        <ele>69.264977</ele>
        <time>2011-01-21 16:31:28Z</time>
      </trkpt>
      <trkpt lat="43.49173" lon="6.7392">
        <ele>70.264969</ele>
        <time>2011-01-21 16:31:32Z</time>
      </trkpt>
      <trkpt lat="43.49166" lon="6.73923">
        <ele>70.264969</ele>
        <time>2011-01-21 16:31:36Z</time>
      </trkpt>
      <trkpt lat="43.49163" lon="6.73924">
        <ele>69.264961</ele>
        <time>2011-01-21 16:31:40Z</time>
      </trkpt>
      <trkpt lat="43.4916" lon="6.73924">
        <ele>69.264961</ele>
        <time>2011-01-21 16:31:44Z</time>
      </trkpt>
      <trkpt lat="43.49156" lon="6.73926">
        <ele>69.264954</ele>
        <time>2011-01-21 16:31:48Z</time>
      </trkpt>
      <trkpt lat="43.49154" lon="6.73925">
        <ele>68.264954</ele>
        <time>2011-01-21 16:31:52Z</time>
      </trkpt>
      <trkpt lat="43.49151" lon="6.73926">
        <ele>69.264946</ele>
        <time>2011-01-21 16:31:56Z</time>
      </trkpt>
      <trkpt lat="43.49149" lon="6.73927">
        <ele>70.264946</ele>
        <time>2011-01-21 16:32:00Z</time>
      </trkpt>
      <trkpt lat="43.49145" lon="6.7393">
        <ele>69.264946</ele>
        <time>2011-01-21 16:32:04Z</time>
      </trkpt>
      <trkpt lat="43.49144" lon="6.73931">
        <ele>68.264954</ele>
        <time>2011-01-21 16:32:08Z</time>
      </trkpt>
      <trkpt lat="43.49144" lon="6.73931">
        <ele>68.264954</ele>
        <time>2011-01-21 16:32:12Z</time>
      </trkpt>
      <trkpt lat="43.4914" lon="6.73935">
        <ele>68.264954</ele>
        <time>2011-01-21 16:32:16Z</time>
      </trkpt>
      <trkpt lat="43.49139" lon="6.73935">
        <ele>68.264954</ele>
        <time>2011-01-21 16:32:20Z</time>
      </trkpt>
      <trkpt lat="43.49135" lon="6.73937">
        <ele>69.264946</ele>
        <time>2011-01-21 16:32:24Z</time>
      </trkpt>
      <trkpt lat="43.49135" lon="6.73937">
        <ele>69.264946</ele>
        <time>2011-01-21 16:32:28Z</time>
      </trkpt>
      <trkpt lat="43.49131" lon="6.73936">
        <ele>69.264938</ele>
        <time>2011-01-21 16:32:32Z</time>
      </trkpt>
      <trkpt lat="43.49128" lon="6.73935">
        <ele>69.264931</ele>
        <time>2011-01-21 16:32:36Z</time>
      </trkpt>
      <trkpt lat="43.49122" lon="6.73933">
        <ele>67.264915</ele>
        <time>2011-01-21 16:32:40Z</time>
      </trkpt>
      <trkpt lat="43.49117" lon="6.73932">
        <ele>66.264908</ele>
        <time>2011-01-21 16:32:44Z</time>
      </trkpt>
      <trkpt lat="43.49112" lon="6.7393">
        <ele>64.264893</ele>
        <time>2011-01-21 16:32:48Z</time>
      </trkpt>
      <trkpt lat="43.49112" lon="6.7393">
        <ele>64.264893</ele>
        <time>2011-01-21 16:32:52Z</time>
      </trkpt>
      <trkpt lat="43.49105" lon="6.73926">
        <ele>62.264874</ele>
        <time>2011-01-21 16:32:56Z</time>
      </trkpt>
      <trkpt lat="43.49102" lon="6.73925">
        <ele>63.26487</ele>
        <time>2011-01-21 16:33:00Z</time>
      </trkpt>
      <trkpt lat="43.49102" lon="6.73925">
        <ele>63.26487</ele>
        <time>2011-01-21 16:33:04Z</time>
      </trkpt>
      <trkpt lat="43.49095" lon="6.73917">
        <ele>59.264839</ele>
        <time>2011-01-21 16:33:08Z</time>
      </trkpt>
      <trkpt lat="43.49092" lon="6.73912">
        <ele>58.26482</ele>
        <time>2011-01-21 16:33:12Z</time>
      </trkpt>
      <trkpt lat="43.4909" lon="6.73907">
        <ele>57.264805</ele>
        <time>2011-01-21 16:33:16Z</time>
      </trkpt>
      <trkpt lat="43.4909" lon="6.73907">
        <ele>57.264805</ele>
        <time>2011-01-21 16:33:20Z</time>
      </trkpt>
      <trkpt lat="43.49088" lon="6.73895">
        <ele>56.264774</ele>
        <time>2011-01-21 16:33:24Z</time>
      </trkpt>
      <trkpt lat="43.49086" lon="6.73891">
        <ele>55.264763</ele>
        <time>2011-01-21 16:33:28Z</time>
      </trkpt>
      <trkpt lat="43.49086" lon="6.73891">
        <ele>55.264763</ele>
        <time>2011-01-21 16:33:32Z</time>
      </trkpt>
      <trkpt lat="43.49081" lon="6.7388">
        <ele>53.264732</ele>
        <time>2011-01-21 16:33:36Z</time>
      </trkpt>
      <trkpt lat="43.49077" lon="6.73873">
        <ele>52.264709</ele>
        <time>2011-01-21 16:33:40Z</time>
      </trkpt>
      <trkpt lat="43.49076" lon="6.73872">
        <ele>52.264702</ele>
        <time>2011-01-21 16:33:44Z</time>
      </trkpt>
      <trkpt lat="43.49076" lon="6.73872">
        <ele>52.264702</ele>
        <time>2011-01-21 16:33:48Z</time>
      </trkpt>
      <trkpt lat="43.49067" lon="6.73865">
        <ele>48.264671</ele>
        <time>2011-01-21 16:33:52Z</time>
      </trkpt>
      <trkpt lat="43.49067" lon="6.73865">
        <ele>48.264671</ele>
        <time>2011-01-21 16:33:56Z</time>
      </trkpt>
      <trkpt lat="43.49057" lon="6.73863">
        <ele>47.264652</ele>
        <time>2011-01-21 16:34:00Z</time>
      </trkpt>
      <trkpt lat="43.49052" lon="6.73862">
        <ele>44.264641</ele>
        <time>2011-01-21 16:34:04Z</time>
      </trkpt>
      <trkpt lat="43.49051" lon="6.73862">
        <ele>44.264641</ele>
        <time>2011-01-21 16:34:08Z</time>
      </trkpt>
      <trkpt lat="43.49051" lon="6.73862">
        <ele>44.264641</ele>
        <time>2011-01-21 16:34:12Z</time>
      </trkpt>
      <trkpt lat="43.49039" lon="6.73867">
        <ele>37.264633</ele>
        <time>2011-01-21 16:34:16Z</time>
      </trkpt>
      <trkpt lat="43.49034" lon="6.7387">
        <ele>39.264633</ele>
        <time>2011-01-21 16:34:20Z</time>
      </trkpt>
      <trkpt lat="43.49031" lon="6.73873">
        <ele>39.264633</ele>
        <time>2011-01-21 16:34:24Z</time>
      </trkpt>
      <trkpt lat="43.49026" lon="6.73877">
        <ele>38.264633</ele>
        <time>2011-01-21 16:34:28Z</time>
      </trkpt>
      <trkpt lat="43.49023" lon="6.73879">
        <ele>37.264633</ele>
        <time>2011-01-21 16:34:32Z</time>
      </trkpt>
      <trkpt lat="43.49023" lon="6.73879">
        <ele>37.264633</ele>
        <time>2011-01-21 16:34:36Z</time>
      </trkpt>
      <trkpt lat="43.49014" lon="6.73883">
        <ele>35.264629</ele>
        <time>2011-01-21 16:34:40Z</time>
      </trkpt>
      <trkpt lat="43.49009" lon="6.73884">
        <ele>36.264626</ele>
        <time>2011-01-21 16:34:44Z</time>
      </trkpt>
      <trkpt lat="43.49004" lon="6.73886">
        <ele>35.264622</ele>
        <time>2011-01-21 16:34:48Z</time>
      </trkpt>
      <trkpt lat="43.49" lon="6.73888">
        <ele>35.264618</ele>
        <time>2011-01-21 16:34:52Z</time>
      </trkpt>
      <trkpt lat="43.48999" lon="6.73889">
        <ele>35.264618</ele>
        <time>2011-01-21 16:34:56Z</time>
      </trkpt>
      <trkpt lat="43.48994" lon="6.73892">
        <ele>32.264618</ele>
        <time>2011-01-21 16:35:00Z</time>
      </trkpt>
      <trkpt lat="43.4899" lon="6.73894">
        <ele>32.26461</ele>
        <time>2011-01-21 16:35:04Z</time>
      </trkpt>
      <trkpt lat="43.48986" lon="6.73895">
        <ele>32.26461</ele>
        <time>2011-01-21 16:35:08Z</time>
      </trkpt>
      <trkpt lat="43.48982" lon="6.73897">
        <ele>32.264606</ele>
        <time>2011-01-21 16:35:12Z</time>
      </trkpt>
      <trkpt lat="43.4898" lon="6.73898">
        <ele>33.264606</ele>
        <time>2011-01-21 16:35:16Z</time>
      </trkpt>
      <trkpt lat="43.48976" lon="6.73902">
        <ele>35.26461</ele>
        <time>2011-01-21 16:35:20Z</time>
      </trkpt>
      <trkpt lat="43.48974" lon="6.73905">
        <ele>33.26461</ele>
        <time>2011-01-21 16:35:24Z</time>
      </trkpt>
      <trkpt lat="43.48972" lon="6.73906">
        <ele>32.264614</ele>
        <time>2011-01-21 16:35:28Z</time>
      </trkpt>
      <trkpt lat="43.48969" lon="6.73911">
        <ele>31.264618</ele>
        <time>2011-01-21 16:35:32Z</time>
      </trkpt>
      <trkpt lat="43.48967" lon="6.73913">
        <ele>30.264618</ele>
        <time>2011-01-21 16:35:36Z</time>
      </trkpt>
      <trkpt lat="43.48963" lon="6.73915">
        <ele>30.264618</ele>
        <time>2011-01-21 16:35:40Z</time>
      </trkpt>
      <trkpt lat="43.48961" lon="6.73916">
        <ele>30.264618</ele>
        <time>2011-01-21 16:35:44Z</time>
      </trkpt>
      <trkpt lat="43.48956" lon="6.73919">
        <ele>29.264618</ele>
        <time>2011-01-21 16:35:48Z</time>
      </trkpt>
      <trkpt lat="43.48953" lon="6.73921">
        <ele>28.264614</ele>
        <time>2011-01-21 16:35:52Z</time>
      </trkpt>
      <trkpt lat="43.48949" lon="6.73923">
        <ele>27.264618</ele>
        <time>2011-01-21 16:35:56Z</time>
      </trkpt>
      <trkpt lat="43.48947" lon="6.73926">
        <ele>27.264618</ele>
        <time>2011-01-21 16:36:00Z</time>
      </trkpt>
      <trkpt lat="43.48945" lon="6.73928">
        <ele>28.264618</ele>
        <time>2011-01-21 16:36:04Z</time>
      </trkpt>
      <trkpt lat="43.48943" lon="6.73931">
        <ele>28.264622</ele>
        <time>2011-01-21 16:36:08Z</time>
      </trkpt>
      <trkpt lat="43.4894" lon="6.73934">
        <ele>27.264618</ele>
        <time>2011-01-21 16:36:12Z</time>
      </trkpt>
      <trkpt lat="43.48937" lon="6.73936">
        <ele>27.264618</ele>
        <time>2011-01-21 16:36:16Z</time>
      </trkpt>
      <trkpt lat="43.48933" lon="6.73938">
        <ele>26.264618</ele>
        <time>2011-01-21 16:36:20Z</time>
      </trkpt>
      <trkpt lat="43.48928" lon="6.7394">
        <ele>25.264618</ele>
        <time>2011-01-21 16:36:24Z</time>
      </trkpt>
      <trkpt lat="43.48927" lon="6.73941">
        <ele>25.264618</ele>
        <time>2011-01-21 16:36:28Z</time>
      </trkpt>
      <trkpt lat="43.48921" lon="6.73947">
        <ele>26.264618</ele>
        <time>2011-01-21 16:36:32Z</time>
      </trkpt>
      <trkpt lat="43.48918" lon="6.73951">
        <ele>24.264626</ele>
        <time>2011-01-21 16:36:36Z</time>
      </trkpt>
      <trkpt lat="43.48918" lon="6.73951">
        <ele>24.264626</ele>
        <time>2011-01-21 16:36:40Z</time>
      </trkpt>
      <trkpt lat="43.48913" lon="6.73961">
        <ele>22.264641</ele>
        <time>2011-01-21 16:36:44Z</time>
      </trkpt>
      <trkpt lat="43.4891" lon="6.73966">
        <ele>21.264645</ele>
        <time>2011-01-21 16:36:48Z</time>
      </trkpt>
      <trkpt lat="43.48908" lon="6.7397">
        <ele>20.264648</ele>
        <time>2011-01-21 16:36:52Z</time>
      </trkpt>
      <trkpt lat="43.48905" lon="6.73974">
        <ele>20.264656</ele>
        <time>2011-01-21 16:36:56Z</time>
      </trkpt>
      <trkpt lat="43.48902" lon="6.73977">
        <ele>17.264656</ele>
        <time>2011-01-21 16:37:00Z</time>
      </trkpt>
      <trkpt lat="43.489" lon="6.73981">
        <ele>15.264664</ele>
        <time>2011-01-21 16:37:04Z</time>
      </trkpt>
      <trkpt lat="43.48898" lon="6.73982">
        <ele>17.264664</ele>
        <time>2011-01-21 16:37:08Z</time>
      </trkpt>
      <trkpt lat="43.48896" lon="6.73985">
        <ele>17.264664</ele>
        <time>2011-01-21 16:37:12Z</time>
      </trkpt>
      <trkpt lat="43.48896" lon="6.73985">
        <ele>17.264668</ele>
        <time>2011-01-21 16:37:16Z</time>
      </trkpt>
      <trkpt lat="43.48896" lon="6.73985">
        <ele>17.264668</ele>
        <time>2011-01-21 16:37:20Z</time>
      </trkpt>
      <trkpt lat="43.4889" lon="6.73991">
        <ele>15.264668</ele>
        <time>2011-01-21 16:37:24Z</time>
      </trkpt>
      <trkpt lat="43.48888" lon="6.73991">
        <ele>15.264668</ele>
        <time>2011-01-21 16:37:28Z</time>
      </trkpt>
      <trkpt lat="43.48883" lon="6.73995">
        <ele>17.264668</ele>
        <time>2011-01-21 16:37:32Z</time>
      </trkpt>
      <trkpt lat="43.48882" lon="6.73995">
        <ele>17.264671</ele>
        <time>2011-01-21 16:37:36Z</time>
      </trkpt>
      <trkpt lat="43.48882" lon="6.73995">
        <ele>17.264671</ele>
        <time>2011-01-21 16:37:40Z</time>
      </trkpt>
      <trkpt lat="43.48882" lon="6.73995">
        <ele>17.264671</ele>
        <time>2011-01-21 16:37:44Z</time>
      </trkpt>
      <trkpt lat="43.48882" lon="6.73995">
        <ele>17.264671</ele>
        <time>2011-01-21 16:37:48Z</time>
      </trkpt>
      <trkpt lat="43.48882" lon="6.73995">
        <ele>17.264671</ele>
        <time>2011-01-21 16:37:52Z</time>
      </trkpt>
      <trkpt lat="43.48882" lon="6.73995">
        <ele>17.264671</ele>
        <time>2011-01-21 16:37:56Z</time>
      </trkpt>
      <trkpt lat="43.48882" lon="6.73995">
        <ele>17.264671</ele>
        <time>2011-01-21 16:38:00Z</time>
      </trkpt>
      <trkpt lat="43.48882" lon="6.73995">
        <ele>17.264671</ele>
        <time>2011-01-21 16:38:04Z</time>
      </trkpt>
      <trkpt lat="43.48882" lon="6.73995">
        <ele>17.264671</ele>
        <time>2011-01-21 16:38:08Z</time>
      </trkpt>
      <trkpt lat="43.48866" lon="6.74045">
        <ele>19.264755</ele>
        <time>2011-01-21 16:38:12Z</time>
      </trkpt>
      <trkpt lat="43.48866" lon="6.74045">
        <ele>19.264755</ele>
        <time>2011-01-21 16:38:16Z</time>
      </trkpt>
      <trkpt lat="43.48844" lon="6.7406">
        <ele>19.264751</ele>
        <time>2011-01-21 16:38:20Z</time>
      </trkpt>
      <trkpt lat="43.48842" lon="6.74061">
        <ele>19.264748</ele>
        <time>2011-01-21 16:38:24Z</time>
      </trkpt>
      <trkpt lat="43.48836" lon="6.74068">
        <ele>19.264755</ele>
        <time>2011-01-21 16:38:28Z</time>
      </trkpt>
      <trkpt lat="43.48833" lon="6.74072">
        <ele>18.264759</ele>
        <time>2011-01-21 16:38:32Z</time>
      </trkpt>
      <trkpt lat="43.48829" lon="6.74078">
        <ele>16.264771</ele>
        <time>2011-01-21 16:38:36Z</time>
      </trkpt>
      <trkpt lat="43.48827" lon="6.74082">
        <ele>15.264774</ele>
        <time>2011-01-21 16:38:40Z</time>
      </trkpt>
      <trkpt lat="43.48827" lon="6.74088">
        <ele>15.264786</ele>
        <time>2011-01-21 16:38:44Z</time>
      </trkpt>
      <trkpt lat="43.48828" lon="6.74095">
        <ele>16.264801</ele>
        <time>2011-01-21 16:38:48Z</time>
      </trkpt>
      <trkpt lat="43.48829" lon="6.74102">
        <ele>12.26482</ele>
        <time>2011-01-21 16:38:52Z</time>
      </trkpt>
      <trkpt lat="43.48829" lon="6.74107">
        <ele>10.264832</ele>
        <time>2011-01-21 16:38:56Z</time>
      </trkpt>
      <trkpt lat="43.4883" lon="6.74111">
        <ele>11.264843</ele>
        <time>2011-01-21 16:39:00Z</time>
      </trkpt>
      <trkpt lat="43.48832" lon="6.74115">
        <ele>10.264854</ele>
        <time>2011-01-21 16:39:04Z</time>
      </trkpt>
      <trkpt lat="43.48832" lon="6.74115">
        <ele>10.264854</ele>
        <time>2011-01-21 16:39:08Z</time>
      </trkpt>
      <trkpt lat="43.48833" lon="6.74124">
        <ele>12.264877</ele>
        <time>2011-01-21 16:39:12Z</time>
      </trkpt>
      <trkpt lat="43.48835" lon="6.74129">
        <ele>11.264893</ele>
        <time>2011-01-21 16:39:16Z</time>
      </trkpt>
      <trkpt lat="43.48838" lon="6.74135">
        <ele>12.264912</ele>
        <time>2011-01-21 16:39:20Z</time>
      </trkpt>
      <trkpt lat="43.48843" lon="6.74144">
        <ele>9.264938</ele>
        <time>2011-01-21 16:39:24Z</time>
      </trkpt>
      <trkpt lat="43.48845" lon="6.74149">
        <ele>6.264954</ele>
        <time>2011-01-21 16:39:28Z</time>
      </trkpt>
      <trkpt lat="43.48846" lon="6.74151">
        <ele>6.264957</ele>
        <time>2011-01-21 16:39:32Z</time>
      </trkpt>
      <trkpt lat="43.48846" lon="6.74153">
        <ele>6.264961</ele>
        <time>2011-01-21 16:39:36Z</time>
      </trkpt>
      <trkpt lat="43.48847" lon="6.74153">
        <ele>6.264961</ele>
        <time>2011-01-21 16:39:40Z</time>
      </trkpt>
      <trkpt lat="43.48847" lon="6.74155">
        <ele>7.264969</ele>
        <time>2011-01-21 16:39:44Z</time>
      </trkpt>
      <trkpt lat="43.48846" lon="6.74159">
        <ele>12.26498</ele>
        <time>2011-01-21 16:39:48Z</time>
      </trkpt>
      <trkpt lat="43.48844" lon="6.74162">
        <ele>14.26498</ele>
        <time>2011-01-21 16:39:52Z</time>
      </trkpt>
      <trkpt lat="43.48842" lon="6.74164">
        <ele>15.264984</ele>
        <time>2011-01-21 16:39:56Z</time>
      </trkpt>
      <trkpt lat="43.48842" lon="6.74164">
        <ele>15.264984</ele>
        <time>2011-01-21 16:40:00Z</time>
      </trkpt>
      <trkpt lat="43.48834" lon="6.7417">
        <ele>16.26498</ele>
        <time>2011-01-21 16:40:04Z</time>
      </trkpt>
      <trkpt lat="43.48831" lon="6.74172">
        <ele>17.26498</ele>
        <time>2011-01-21 16:40:08Z</time>
      </trkpt>
      <trkpt lat="43.48828" lon="6.74173">
        <ele>18.26498</ele>
        <time>2011-01-21 16:40:12Z</time>
      </trkpt>
      <trkpt lat="43.48826" lon="6.74176">
        <ele>20.26498</ele>
        <time>2011-01-21 16:40:16Z</time>
      </trkpt>
      <trkpt lat="43.48823" lon="6.74178">
        <ele>22.26498</ele>
        <time>2011-01-21 16:40:20Z</time>
      </trkpt>
      <trkpt lat="43.4882" lon="6.74182">
        <ele>25.264988</ele>
        <time>2011-01-21 16:40:24Z</time>
      </trkpt>
      <trkpt lat="43.48816" lon="6.74187">
        <ele>27.264992</ele>
        <time>2011-01-21 16:40:28Z</time>
      </trkpt>
      <trkpt lat="43.48813" lon="6.7419">
        <ele>27.264996</ele>
        <time>2011-01-21 16:40:32Z</time>
      </trkpt>
      <trkpt lat="43.48807" lon="6.74194">
        <ele>27.264992</ele>
        <time>2011-01-21 16:40:36Z</time>
      </trkpt>
      <trkpt lat="43.48803" lon="6.74197">
        <ele>26.264992</ele>
        <time>2011-01-21 16:40:40Z</time>
      </trkpt>
      <trkpt lat="43.48801" lon="6.74198">
        <ele>28.264992</ele>
        <time>2011-01-21 16:40:44Z</time>
      </trkpt>
      <trkpt lat="43.48796" lon="6.742">
        <ele>29.264988</ele>
        <time>2011-01-21 16:40:48Z</time>
      </trkpt>
      <trkpt lat="43.48794" lon="6.742">
        <ele>31.264984</ele>
        <time>2011-01-21 16:40:52Z</time>
      </trkpt>
      <trkpt lat="43.4879" lon="6.74201">
        <ele>31.264977</ele>
        <time>2011-01-21 16:40:56Z</time>
      </trkpt>
      <trkpt lat="43.48782" lon="6.74203">
        <ele>29.264969</ele>
        <time>2011-01-21 16:41:00Z</time>
      </trkpt>
      <trkpt lat="43.48772" lon="6.74205">
        <ele>27.264961</ele>
        <time>2011-01-21 16:41:04Z</time>
      </trkpt>
      <trkpt lat="43.48761" lon="6.74208">
        <ele>24.26495</ele>
        <time>2011-01-21 16:41:08Z</time>
      </trkpt>
      <trkpt lat="43.48756" lon="6.74209">
        <ele>22.264946</ele>
        <time>2011-01-21 16:41:12Z</time>
      </trkpt>
      <trkpt lat="43.48748" lon="6.74211">
        <ele>21.264931</ele>
        <time>2011-01-21 16:41:16Z</time>
      </trkpt>
      <trkpt lat="43.48743" lon="6.74211">
        <ele>21.264931</ele>
        <time>2011-01-21 16:41:20Z</time>
      </trkpt>
      <trkpt lat="43.48739" lon="6.74213">
        <ele>20.264931</ele>
        <time>2011-01-21 16:41:24Z</time>
      </trkpt>
      <trkpt lat="43.48735" lon="6.74214">
        <ele>19.264919</ele>
        <time>2011-01-21 16:41:28Z</time>
      </trkpt>
      <trkpt lat="43.48732" lon="6.74215">
        <ele>17.264919</ele>
        <time>2011-01-21 16:41:32Z</time>
      </trkpt>
      <trkpt lat="43.48729" lon="6.74216">
        <ele>16.264915</ele>
        <time>2011-01-21 16:41:36Z</time>
      </trkpt>
      <trkpt lat="43.48725" lon="6.74217">
        <ele>16.264912</ele>
        <time>2011-01-21 16:41:40Z</time>
      </trkpt>
      <trkpt lat="43.48721" lon="6.74218">
        <ele>14.264908</ele>
        <time>2011-01-21 16:41:44Z</time>
      </trkpt>
      <trkpt lat="43.48718" lon="6.74219">
        <ele>13.264908</ele>
        <time>2011-01-21 16:41:48Z</time>
      </trkpt>
      <trkpt lat="43.48712" lon="6.74223">
        <ele>12.2649</ele>
        <time>2011-01-21 16:41:52Z</time>
      </trkpt>
      <trkpt lat="43.48709" lon="6.74225">
        <ele>10.2649</ele>
        <time>2011-01-21 16:41:56Z</time>
      </trkpt>
      <trkpt lat="43.48706" lon="6.74227">
        <ele>11.264904</ele>
        <time>2011-01-21 16:42:00Z</time>
      </trkpt>
      <trkpt lat="43.48705" lon="6.7423">
        <ele>11.264904</ele>
        <time>2011-01-21 16:42:04Z</time>
      </trkpt>
      <trkpt lat="43.48705" lon="6.7423">
        <ele>11.264904</ele>
        <time>2011-01-21 16:42:08Z</time>
      </trkpt>
      <trkpt lat="43.48705" lon="6.7423">
        <ele>11.264904</ele>
        <time>2011-01-21 16:42:12Z</time>
      </trkpt>
      <trkpt lat="43.48702" lon="6.74236">
        <ele>13.264915</ele>
        <time>2011-01-21 16:42:16Z</time>
      </trkpt>
      <trkpt lat="43.48703" lon="6.74237">
        <ele>13.264923</ele>
        <time>2011-01-21 16:42:20Z</time>
      </trkpt>
      <trkpt lat="43.48703" lon="6.74237">
        <ele>13.264923</ele>
        <time>2011-01-21 16:42:24Z</time>
      </trkpt>
      <trkpt lat="43.48703" lon="6.74241">
        <ele>14.264927</ele>
        <time>2011-01-21 16:42:28Z</time>
      </trkpt>
      <trkpt lat="43.48702" lon="6.74244">
        <ele>14.264935</ele>
        <time>2011-01-21 16:42:32Z</time>
      </trkpt>
      <trkpt lat="43.48703" lon="6.74248">
        <ele>14.264946</ele>
        <time>2011-01-21 16:42:36Z</time>
      </trkpt>
      <trkpt lat="43.48708" lon="6.74252">
        <ele>13.264961</ele>
        <time>2011-01-21 16:42:40Z</time>
      </trkpt>
      <trkpt lat="43.48711" lon="6.74252">
        <ele>11.264969</ele>
        <time>2011-01-21 16:42:44Z</time>
      </trkpt>
      <trkpt lat="43.48714" lon="6.74251">
        <ele>11.264969</ele>
        <time>2011-01-21 16:42:48Z</time>
      </trkpt>
      <trkpt lat="43.48716" lon="6.7425">
        <ele>9.264969</ele>
        <time>2011-01-21 16:42:52Z</time>
      </trkpt>
      <trkpt lat="43.48721" lon="6.74249">
        <ele>8.264977</ele>
        <time>2011-01-21 16:42:56Z</time>
      </trkpt>
      <trkpt lat="43.48723" lon="6.74249">
        <ele>7.264977</ele>
        <time>2011-01-21 16:43:00Z</time>
      </trkpt>
      <trkpt lat="43.48723" lon="6.74249">
        <ele>7.264977</ele>
        <time>2011-01-21 16:43:04Z</time>
      </trkpt>
      <trkpt lat="43.48729" lon="6.74249">
        <ele>8.264992</ele>
        <time>2011-01-21 16:43:08Z</time>
      </trkpt>
      <trkpt lat="43.48737" lon="6.74249">
        <ele>8.265003</ele>
        <time>2011-01-21 16:43:12Z</time>
      </trkpt>
      <trkpt lat="43.48741" lon="6.74249">
        <ele>8.265007</ele>
        <time>2011-01-21 16:43:16Z</time>
      </trkpt>
      <trkpt lat="43.48745" lon="6.74249">
        <ele>7.265015</ele>
        <time>2011-01-21 16:43:20Z</time>
      </trkpt>
      <trkpt lat="43.48745" lon="6.74249">
        <ele>7.265015</ele>
        <time>2011-01-21 16:43:24Z</time>
      </trkpt>
      <trkpt lat="43.48755" lon="6.74251">
        <ele>8.265034</ele>
        <time>2011-01-21 16:43:28Z</time>
      </trkpt>
      <trkpt lat="43.48766" lon="6.74252">
        <ele>8.265057</ele>
        <time>2011-01-21 16:43:32Z</time>
      </trkpt>
      <trkpt lat="43.48774" lon="6.74252">
        <ele>8.265068</ele>
        <time>2011-01-21 16:43:36Z</time>
      </trkpt>
      <trkpt lat="43.48775" lon="6.74252">
        <ele>8.265072</ele>
        <time>2011-01-21 16:43:40Z</time>
      </trkpt>
      <trkpt lat="43.48785" lon="6.74252">
        <ele>7.265087</ele>
        <time>2011-01-21 16:43:44Z</time>
      </trkpt>
      <trkpt lat="43.48785" lon="6.74252">
        <ele>7.265087</ele>
        <time>2011-01-21 16:43:48Z</time>
      </trkpt>
      <trkpt lat="43.48795" lon="6.74251">
        <ele>6.265102</ele>
        <time>2011-01-21 16:43:52Z</time>
      </trkpt>
      <trkpt lat="43.48804" lon="6.74252">
        <ele>7.265118</ele>
        <time>2011-01-21 16:43:56Z</time>
      </trkpt>
      <trkpt lat="43.48808" lon="6.74252">
        <ele>7.265129</ele>
        <time>2011-01-21 16:44:00Z</time>
      </trkpt>
      <trkpt lat="43.48815" lon="6.74254">
        <ele>8.265141</ele>
        <time>2011-01-21 16:44:04Z</time>
      </trkpt>
      <trkpt lat="43.48817" lon="6.74254">
        <ele>9.265144</ele>
        <time>2011-01-21 16:44:08Z</time>
      </trkpt>
      <trkpt lat="43.48826" lon="6.74257">
        <ele>9.265167</ele>
        <time>2011-01-21 16:44:12Z</time>
      </trkpt>
      <trkpt lat="43.48832" lon="6.74258">
        <ele>10.265179</ele>
        <time>2011-01-21 16:44:16Z</time>
      </trkpt>
      <trkpt lat="43.48838" lon="6.7426">
        <ele>11.265194</ele>
        <time>2011-01-21 16:44:20Z</time>
      </trkpt>
      <trkpt lat="43.48839" lon="6.74261">
        <ele>11.265198</ele>
        <time>2011-01-21 16:44:24Z</time>
      </trkpt>
      <trkpt lat="43.48839" lon="6.74261">
        <ele>11.265198</ele>
        <time>2011-01-21 16:44:28Z</time>
      </trkpt>
      <trkpt lat="43.48848" lon="6.74262">
        <ele>17.265213</ele>
        <time>2011-01-21 16:44:32Z</time>
      </trkpt>
      <trkpt lat="43.48849" lon="6.74261">
        <ele>19.265213</ele>
        <time>2011-01-21 16:44:36Z</time>
      </trkpt>
      <trkpt lat="43.4885" lon="6.74261">
        <ele>20.265213</ele>
        <time>2011-01-21 16:44:40Z</time>
      </trkpt>
      <trkpt lat="43.48849" lon="6.7426">
        <ele>21.265213</ele>
        <time>2011-01-21 16:44:44Z</time>
      </trkpt>
      <trkpt lat="43.48849" lon="6.7426">
        <ele>19.265205</ele>
        <time>2011-01-21 16:44:48Z</time>
      </trkpt>
      <trkpt lat="43.48849" lon="6.7426">
        <ele>19.265205</ele>
        <time>2011-01-21 16:44:52Z</time>
      </trkpt>
      <trkpt lat="43.48848" lon="6.74261">
        <ele>21.265213</ele>
        <time>2011-01-21 16:44:56Z</time>
      </trkpt>
      <trkpt lat="43.4885" lon="6.74261">
        <ele>20.265213</ele>
        <time>2011-01-21 16:45:00Z</time>
      </trkpt>
      <trkpt lat="43.4885" lon="6.74261">
        <ele>20.265213</ele>
        <time>2011-01-21 16:45:04Z</time>
      </trkpt>
      <trkpt lat="43.4885" lon="6.7426">
        <ele>20.265205</ele>
        <time>2011-01-21 16:45:08Z</time>
      </trkpt>
      <trkpt lat="43.48849" lon="6.74259">
        <ele>21.265205</ele>
        <time>2011-01-21 16:45:12Z</time>
      </trkpt>
      <trkpt lat="43.48849" lon="6.74258">
        <ele>20.265205</ele>
        <time>2011-01-21 16:45:16Z</time>
      </trkpt>
      <trkpt lat="43.48848" lon="6.74259">
        <ele>20.265205</ele>
        <time>2011-01-21 16:45:20Z</time>
      </trkpt>
      <trkpt lat="43.48847" lon="6.74259">
        <ele>22.265205</ele>
        <time>2011-01-21 16:45:24Z</time>
      </trkpt>
      <trkpt lat="43.48847" lon="6.74259">
        <ele>22.265205</ele>
        <time>2011-01-21 16:45:28Z</time>
      </trkpt>
      <trkpt lat="43.48848" lon="6.74259">
        <ele>22.265205</ele>
        <time>2011-01-21 16:45:32Z</time>
      </trkpt>
      <trkpt lat="43.48848" lon="6.7426">
        <ele>23.265205</ele>
        <time>2011-01-21 16:45:36Z</time>
      </trkpt>
      <trkpt lat="43.48848" lon="6.74261">
        <ele>23.265209</ele>
        <time>2011-01-21 16:45:40Z</time>
      </trkpt>
      <trkpt lat="43.48848" lon="6.7426">
        <ele>23.265205</ele>
        <time>2011-01-21 16:45:44Z</time>
      </trkpt>
      <trkpt lat="43.48848" lon="6.74259">
        <ele>24.265205</ele>
        <time>2011-01-21 16:45:48Z</time>
      </trkpt>
      <trkpt lat="43.48848" lon="6.74259">
        <ele>24.265205</ele>
        <time>2011-01-21 16:45:52Z</time>
      </trkpt>
      <trkpt lat="43.48846" lon="6.74258">
        <ele>24.265198</ele>
        <time>2011-01-21 16:45:56Z</time>
      </trkpt>
      <trkpt lat="43.48844" lon="6.74257">
        <ele>24.265198</ele>
        <time>2011-01-21 16:46:00Z</time>
      </trkpt>
      <trkpt lat="43.48841" lon="6.74254">
        <ele>24.265182</ele>
        <time>2011-01-21 16:46:04Z</time>
      </trkpt>
      <trkpt lat="43.48838" lon="6.74252">
        <ele>23.265175</ele>
        <time>2011-01-21 16:46:08Z</time>
      </trkpt>
      <trkpt lat="43.48835" lon="6.74252">
        <ele>23.265167</ele>
        <time>2011-01-21 16:46:12Z</time>
      </trkpt>
      <trkpt lat="43.48834" lon="6.74252">
        <ele>22.265167</ele>
        <time>2011-01-21 16:46:16Z</time>
      </trkpt>
      <trkpt lat="43.48835" lon="6.74253">
        <ele>23.265171</ele>
        <time>2011-01-21 16:46:20Z</time>
      </trkpt>
      <trkpt lat="43.48835" lon="6.74253">
        <ele>24.265175</ele>
        <time>2011-01-21 16:46:24Z</time>
      </trkpt>
      <trkpt lat="43.48835" lon="6.74253">
        <ele>24.265167</ele>
        <time>2011-01-21 16:46:28Z</time>
      </trkpt>
      <trkpt lat="43.48835" lon="6.74252">
        <ele>23.265167</ele>
        <time>2011-01-21 16:46:32Z</time>
      </trkpt>
      <trkpt lat="43.48835" lon="6.74252">
        <ele>23.265167</ele>
        <time>2011-01-21 16:46:36Z</time>
      </trkpt>
      <trkpt lat="43.48834" lon="6.74252">
        <ele>24.265167</ele>
        <time>2011-01-21 16:46:40Z</time>
      </trkpt>
      <trkpt lat="43.48834" lon="6.74252">
        <ele>25.265167</ele>
        <time>2011-01-21 16:46:44Z</time>
      </trkpt>
      <trkpt lat="43.48833" lon="6.74252">
        <ele>25.265167</ele>
        <time>2011-01-21 16:46:48Z</time>
      </trkpt>
      <trkpt lat="43.48833" lon="6.74252">
        <ele>25.265167</ele>
        <time>2011-01-21 16:46:52Z</time>
      </trkpt>
      <trkpt lat="43.48833" lon="6.74252">
        <ele>26.265167</ele>
        <time>2011-01-21 16:46:56Z</time>
      </trkpt>
      <trkpt lat="43.48833" lon="6.74252">
        <ele>27.265167</ele>
        <time>2011-01-21 16:47:00Z</time>
      </trkpt>
      <trkpt lat="43.48834" lon="6.74253">
        <ele>28.265171</ele>
        <time>2011-01-21 16:47:04Z</time>
      </trkpt>
      <trkpt lat="43.48834" lon="6.74253">
        <ele>28.265171</ele>
        <time>2011-01-21 16:47:08Z</time>
      </trkpt>
      <trkpt lat="43.48834" lon="6.74254">
        <ele>28.265171</ele>
        <time>2011-01-21 16:47:12Z</time>
      </trkpt>
      <trkpt lat="43.48834" lon="6.74255">
        <ele>27.265175</ele>
        <time>2011-01-21 16:47:16Z</time>
      </trkpt>
      <trkpt lat="43.48835" lon="6.74255">
        <ele>27.265175</ele>
        <time>2011-01-21 16:47:20Z</time>
      </trkpt>
      <trkpt lat="43.48835" lon="6.74255">
        <ele>27.265175</ele>
        <time>2011-01-21 16:47:24Z</time>
      </trkpt>
      <trkpt lat="43.48834" lon="6.74255">
        <ele>26.265175</ele>
        <time>2011-01-21 16:47:28Z</time>
      </trkpt>
      <trkpt lat="43.48834" lon="6.74255">
        <ele>26.265175</ele>
        <time>2011-01-21 16:47:32Z</time>
      </trkpt>
      <trkpt lat="43.48834" lon="6.74255">
        <ele>27.265175</ele>
        <time>2011-01-21 16:47:36Z</time>
      </trkpt>
      <trkpt lat="43.48834" lon="6.74255">
        <ele>27.265175</ele>
        <time>2011-01-21 16:47:40Z</time>
      </trkpt>
      <trkpt lat="43.48834" lon="6.74256">
        <ele>27.265175</ele>
        <time>2011-01-21 16:47:44Z</time>
      </trkpt>
      <trkpt lat="43.48834" lon="6.74255">
        <ele>27.265175</ele>
        <time>2011-01-21 16:47:48Z</time>
      </trkpt>
      <trkpt lat="43.48833" lon="6.74255">
        <ele>27.265175</ele>
        <time>2011-01-21 16:47:52Z</time>
      </trkpt>
      <trkpt lat="43.48833" lon="6.74255">
        <ele>28.265175</ele>
        <time>2011-01-21 16:47:56Z</time>
      </trkpt>
      <trkpt lat="43.48833" lon="6.74256">
        <ele>29.265175</ele>
        <time>2011-01-21 16:48:00Z</time>
      </trkpt>
      <trkpt lat="43.48833" lon="6.74256">
        <ele>29.265175</ele>
        <time>2011-01-21 16:48:04Z</time>
      </trkpt>
      <trkpt lat="43.48833" lon="6.74256">
        <ele>29.265175</ele>
        <time>2011-01-21 16:48:08Z</time>
      </trkpt>
      <trkpt lat="43.48833" lon="6.74256">
        <ele>29.265175</ele>
        <time>2011-01-21 16:48:12Z</time>
      </trkpt>
      <trkpt lat="43.48833" lon="6.74255">
        <ele>29.265175</ele>
        <time>2011-01-21 16:48:16Z</time>
      </trkpt>
      <trkpt lat="43.48833" lon="6.74255">
        <ele>29.265175</ele>
        <time>2011-01-21 16:48:20Z</time>
      </trkpt>
      <trkpt lat="43.48833" lon="6.74254">
        <ele>30.265171</ele>
        <time>2011-01-21 16:48:24Z</time>
      </trkpt>
      <trkpt lat="43.48833" lon="6.74253">
        <ele>32.265167</ele>
        <time>2011-01-21 16:48:28Z</time>
      </trkpt>
      <trkpt lat="43.48833" lon="6.74253">
        <ele>33.265167</ele>
        <time>2011-01-21 16:48:32Z</time>
      </trkpt>
      <trkpt lat="43.48833" lon="6.74253">
        <ele>32.265171</ele>
        <time>2011-01-21 16:48:36Z</time>
      </trkpt>
      <trkpt lat="43.48833" lon="6.74253">
        <ele>31.265167</ele>
        <time>2011-01-21 16:48:40Z</time>
      </trkpt>
      <trkpt lat="43.48833" lon="6.74253">
        <ele>32.265167</ele>
        <time>2011-01-21 16:48:44Z</time>
      </trkpt>
      <trkpt lat="43.48833" lon="6.74253">
        <ele>33.265171</ele>
        <time>2011-01-21 16:48:48Z</time>
      </trkpt>
      <trkpt lat="43.48833" lon="6.74254">
        <ele>34.265171</ele>
        <time>2011-01-21 16:48:52Z</time>
      </trkpt>
      <trkpt lat="43.48833" lon="6.74254">
        <ele>32.265167</ele>
        <time>2011-01-21 16:48:56Z</time>
      </trkpt>
      <trkpt lat="43.48832" lon="6.74254">
        <ele>31.265167</ele>
        <time>2011-01-21 16:49:00Z</time>
      </trkpt>
      <trkpt lat="43.48832" lon="6.74254">
        <ele>31.265167</ele>
        <time>2011-01-21 16:49:04Z</time>
      </trkpt>
      <trkpt lat="43.48832" lon="6.74254">
        <ele>31.265167</ele>
        <time>2011-01-21 16:49:08Z</time>
      </trkpt>
      <trkpt lat="43.48832" lon="6.74253">
        <ele>32.265167</ele>
        <time>2011-01-21 16:49:12Z</time>
      </trkpt>
      <trkpt lat="43.48832" lon="6.74252">
        <ele>32.265167</ele>
        <time>2011-01-21 16:49:16Z</time>
      </trkpt>
      <trkpt lat="43.48832" lon="6.74252">
        <ele>32.265167</ele>
        <time>2011-01-21 16:49:20Z</time>
      </trkpt>
      <trkpt lat="43.48832" lon="6.74251">
        <ele>33.265167</ele>
        <time>2011-01-21 16:49:24Z</time>
      </trkpt>
      <trkpt lat="43.48832" lon="6.74251">
        <ele>31.265167</ele>
        <time>2011-01-21 16:49:28Z</time>
      </trkpt>
      <trkpt lat="43.48832" lon="6.74251">
        <ele>29.265167</ele>
        <time>2011-01-21 16:49:32Z</time>
      </trkpt>
      <trkpt lat="43.48832" lon="6.74252">
        <ele>30.265167</ele>
        <time>2011-01-21 16:49:36Z</time>
      </trkpt>
      <trkpt lat="43.48832" lon="6.74252">
        <ele>29.265167</ele>
        <time>2011-01-21 16:50:22Z</time>
      </trkpt>
      <trkpt lat="43.48832" lon="6.74252">
        <ele>29.265167</ele>
        <time>2011-01-21 16:50:26Z</time>
      </trkpt>
      <trkpt lat="43.48832" lon="6.74252">
        <ele>29.265167</ele>
        <time>2011-01-21 16:50:30Z</time>
      </trkpt>
      <trkpt lat="43.48832" lon="6.74252">
        <ele>29.265167</ele>
        <time>2011-01-21 16:50:34Z</time>
      </trkpt>
      <trkpt lat="43.48832" lon="6.74252">
        <ele>29.265167</ele>
        <time>2011-01-21 16:50:38Z</time>
      </trkpt>
      <trkpt lat="43.48832" lon="6.74252">
        <ele>29.265167</ele>
        <time>2011-01-21 16:50:42Z</time>
      </trkpt>
      <trkpt lat="43.48832" lon="6.74252">
        <ele>29.265167</ele>
        <time>2011-01-21 16:50:46Z</time>
      </trkpt>
      <trkpt lat="43.48832" lon="6.74252">
        <ele>29.265167</ele>
        <time>2011-01-21 16:50:50Z</time>
      </trkpt>
      <trkpt lat="43.48832" lon="6.74252">
        <ele>29.265167</ele>
        <time>2011-01-21 16:50:54Z</time>
      </trkpt>
      <trkpt lat="43.48832" lon="6.74252">
        <ele>29.265167</ele>
        <time>2011-01-21 16:50:58Z</time>
      </trkpt>
      <trkpt lat="43.48832" lon="6.74252">
        <ele>29.265167</ele>
        <time>2011-01-21 16:51:02Z</time>
      </trkpt>
      <trkpt lat="43.48832" lon="6.74252">
        <ele>29.265167</ele>
        <time>2011-01-21 16:51:06Z</time>
      </trkpt>
      <trkpt lat="43.48832" lon="6.74252">
        <ele>29.265167</ele>
        <time>2011-01-21 16:51:10Z</time>
      </trkpt>
      <trkpt lat="43.48832" lon="6.74252">
        <ele>29.265167</ele>
        <time>2011-01-21 16:51:14Z</time>
      </trkpt>
      <trkpt lat="43.48832" lon="6.74252">
        <ele>29.265167</ele>
        <time>2011-01-21 16:51:18Z</time>
      </trkpt>
      <trkpt lat="43.48832" lon="6.74252">
        <ele>29.265167</ele>
        <time>2011-01-21 16:51:22Z</time>
      </trkpt>
    </trkseg>
  </trk>
</gpx>